<?xml version="1.0" encoding="UTF-8" standalone="no" ?>
<gpx xmlns="http://www.topografix.com/GPX/1/1" xmlns:xsi="http://www.w3.org/2001/XMLSchema-instance" xsi:schemaLocation="http://www.topografix.com/GPX/1/1 http://www.topografix.com/GPX/1/1/gpx.xsd" version="1.1" creator="VisuGPX - https://www.visugpx.com">
  <metadata>
    <name>VOIE d'ARLES , GR653 : Etape de LODEVE au Bousquet d'ORB</name>
    <desc><![CDATA[27 mai 2023 : Etape n°5  du Chemin de Compostelle dit Voie d'Arles ou VIA TOLOSONA.
mon tracé démarre à environ 1 ou 2 kms de LODEVE.
Montée lente et continue par des pistes forestières ou agricoles jusqu'à une Antenne , 
ou vous pourrez peut-être voir un berger et son troupeau de moutons.
Piste qui continue à travers des prairies parsemées d'arbustes.
Cette étape devait être la variante "LAVAL DE NIZE" allant directement à LUNAS, sans faire le grand détour par JONCELS (ou l'on couche habituellement le soir dans l'un des 2 gites).
Hélas, nous avons raté l'embranchement GR7-SUD et avons continués sur le GR653 (balises Bleues Coquille de Compostelle), jusqu'à atteindre la route D35 , ou constatant notre erreur, nous sommes descendu par cette route D35 jusqu'à LUNAS. Route très tranquille en cette période , quelques motards seulement.
De Lunas au Bousquet, petite route de campagne tranquille rive gauche du Cravezon, qui va rejoindre la rivière L'ORB. 
Notre étape se termine en montée vers l'extrémité du village, au hameau de La Séguinerie , qui est sur le GR.
Notre récit complet avec photos : [url]http://www.chabant.fr[/url] ]]></desc>
  </metadata>
  <trk>
    <name><![CDATA[Olmet-et-Villecun Course à pied]]></name>
    <extensions>
      <line xmlns="http://www.topografix.com/GPX/gpx_style/0/2">
        <color>0000FF</color>
        <width>4</width>
      </line>
    </extensions>
    <trkseg>
      <trkpt lat="43.71675" lon="3.29245">
        <ele>338</ele>
        <time>2023-05-27T06:05:06.000Z</time>
      </trkpt>
      <trkpt lat="43.71679" lon="3.29243">
        <ele>338.60000610352</ele>
        <time>2023-05-27T06:05:08.000Z</time>
      </trkpt>
      <trkpt lat="43.7168" lon="3.29242">
        <ele>339.39999389648</ele>
        <time>2023-05-27T06:05:09.000Z</time>
      </trkpt>
      <trkpt lat="43.71681" lon="3.29241">
        <ele>339.60000610352</ele>
        <time>2023-05-27T06:05:12.000Z</time>
      </trkpt>
      <trkpt lat="43.71685" lon="3.2924">
        <ele>339.79998779297</ele>
        <time>2023-05-27T06:05:16.000Z</time>
      </trkpt>
      <trkpt lat="43.71685" lon="3.29241">
        <ele>339.79998779297</ele>
        <time>2023-05-27T06:05:17.000Z</time>
      </trkpt>
      <trkpt lat="43.71687" lon="3.29244">
        <ele>339.79998779297</ele>
        <time>2023-05-27T06:05:21.000Z</time>
      </trkpt>
      <trkpt lat="43.71693" lon="3.29243">
        <ele>339.39999389648</ele>
        <time>2023-05-27T06:05:27.000Z</time>
      </trkpt>
      <trkpt lat="43.71698" lon="3.29242">
        <ele>339.79998779297</ele>
        <time>2023-05-27T06:05:33.000Z</time>
      </trkpt>
      <trkpt lat="43.71706" lon="3.29241">
        <ele>340</ele>
        <time>2023-05-27T06:05:41.000Z</time>
      </trkpt>
      <trkpt lat="43.71708" lon="3.2924">
        <ele>340.20001220703</ele>
        <time>2023-05-27T06:05:43.000Z</time>
      </trkpt>
      <trkpt lat="43.71711" lon="3.29239">
        <ele>340.39999389648</ele>
        <time>2023-05-27T06:05:46.000Z</time>
      </trkpt>
      <trkpt lat="43.71712" lon="3.29239">
        <ele>340.39999389648</ele>
        <time>2023-05-27T06:05:48.000Z</time>
      </trkpt>
      <trkpt lat="43.71716" lon="3.2924">
        <ele>340.79998779297</ele>
        <time>2023-05-27T06:05:55.000Z</time>
      </trkpt>
      <trkpt lat="43.71717" lon="3.2924">
        <ele>341</ele>
        <time>2023-05-27T06:06:00.000Z</time>
      </trkpt>
      <trkpt lat="43.71727" lon="3.29237">
        <ele>341</ele>
        <time>2023-05-27T06:06:05.000Z</time>
      </trkpt>
      <trkpt lat="43.71728" lon="3.29236">
        <ele>341</ele>
        <time>2023-05-27T06:06:06.000Z</time>
      </trkpt>
      <trkpt lat="43.71732" lon="3.29233">
        <ele>341.20001220703</ele>
        <time>2023-05-27T06:06:10.000Z</time>
      </trkpt>
      <trkpt lat="43.71738" lon="3.29226">
        <ele>341.39999389648</ele>
        <time>2023-05-27T06:06:17.000Z</time>
      </trkpt>
      <trkpt lat="43.71739" lon="3.29225">
        <ele>341.39999389648</ele>
        <time>2023-05-27T06:06:18.000Z</time>
      </trkpt>
      <trkpt lat="43.71741" lon="3.29222">
        <ele>341.39999389648</ele>
        <time>2023-05-27T06:06:21.000Z</time>
      </trkpt>
      <trkpt lat="43.71744" lon="3.2922">
        <ele>341.60000610352</ele>
        <time>2023-05-27T06:06:24.000Z</time>
      </trkpt>
      <trkpt lat="43.71746" lon="3.29218">
        <ele>341.60000610352</ele>
        <time>2023-05-27T06:06:27.000Z</time>
      </trkpt>
      <trkpt lat="43.71747" lon="3.29215">
        <ele>341.79998779297</ele>
        <time>2023-05-27T06:06:31.000Z</time>
      </trkpt>
      <trkpt lat="43.71747" lon="3.29214">
        <ele>341.79998779297</ele>
        <time>2023-05-27T06:06:32.000Z</time>
      </trkpt>
      <trkpt lat="43.71748" lon="3.29208">
        <ele>342.20001220703</ele>
        <time>2023-05-27T06:06:37.000Z</time>
      </trkpt>
      <trkpt lat="43.71748" lon="3.29206">
        <ele>342.20001220703</ele>
        <time>2023-05-27T06:06:38.000Z</time>
      </trkpt>
      <trkpt lat="43.71748" lon="3.29204">
        <ele>342.20001220703</ele>
        <time>2023-05-27T06:06:39.000Z</time>
      </trkpt>
      <trkpt lat="43.71749" lon="3.29198">
        <ele>342.20001220703</ele>
        <time>2023-05-27T06:06:44.000Z</time>
      </trkpt>
      <trkpt lat="43.71751" lon="3.29194">
        <ele>342.39999389648</ele>
        <time>2023-05-27T06:06:47.000Z</time>
      </trkpt>
      <trkpt lat="43.71751" lon="3.29193">
        <ele>342.39999389648</ele>
        <time>2023-05-27T06:06:48.000Z</time>
      </trkpt>
      <trkpt lat="43.71752" lon="3.29192">
        <ele>342.60000610352</ele>
        <time>2023-05-27T06:06:49.000Z</time>
      </trkpt>
      <trkpt lat="43.71752" lon="3.29191">
        <ele>342.79998779297</ele>
        <time>2023-05-27T06:06:52.000Z</time>
      </trkpt>
      <trkpt lat="43.71752" lon="3.29187">
        <ele>343.60000610352</ele>
        <time>2023-05-27T06:06:59.000Z</time>
      </trkpt>
      <trkpt lat="43.71758" lon="3.29183">
        <ele>343.20001220703</ele>
        <time>2023-05-27T06:07:05.000Z</time>
      </trkpt>
      <trkpt lat="43.71764" lon="3.29182">
        <ele>343.60000610352</ele>
        <time>2023-05-27T06:07:12.000Z</time>
      </trkpt>
      <trkpt lat="43.71771" lon="3.29181">
        <ele>344</ele>
        <time>2023-05-27T06:07:18.000Z</time>
      </trkpt>
      <trkpt lat="43.71772" lon="3.29181">
        <ele>344</ele>
        <time>2023-05-27T06:07:20.000Z</time>
      </trkpt>
      <trkpt lat="43.71777" lon="3.29181">
        <ele>344.20001220703</ele>
        <time>2023-05-27T06:07:25.000Z</time>
      </trkpt>
      <trkpt lat="43.71783" lon="3.29181">
        <ele>344.60000610352</ele>
        <time>2023-05-27T06:07:32.000Z</time>
      </trkpt>
      <trkpt lat="43.71784" lon="3.29181">
        <ele>344.60000610352</ele>
        <time>2023-05-27T06:07:33.000Z</time>
      </trkpt>
      <trkpt lat="43.71787" lon="3.29179">
        <ele>344.79998779297</ele>
        <time>2023-05-27T06:07:37.000Z</time>
      </trkpt>
      <trkpt lat="43.71789" lon="3.29178">
        <ele>344.79998779297</ele>
        <time>2023-05-27T06:07:40.000Z</time>
      </trkpt>
      <trkpt lat="43.71794" lon="3.29178">
        <ele>345.20001220703</ele>
        <time>2023-05-27T06:07:47.000Z</time>
      </trkpt>
      <trkpt lat="43.71798" lon="3.29178">
        <ele>345.39999389648</ele>
        <time>2023-05-27T06:07:54.000Z</time>
      </trkpt>
      <trkpt lat="43.71804" lon="3.29179">
        <ele>345.39999389648</ele>
        <time>2023-05-27T06:08:02.000Z</time>
      </trkpt>
      <trkpt lat="43.71807" lon="3.29178">
        <ele>345.60000610352</ele>
        <time>2023-05-27T06:08:05.000Z</time>
      </trkpt>
      <trkpt lat="43.71808" lon="3.29178">
        <ele>345.60000610352</ele>
        <time>2023-05-27T06:08:06.000Z</time>
      </trkpt>
      <trkpt lat="43.7181" lon="3.29178">
        <ele>345.60000610352</ele>
        <time>2023-05-27T06:08:08.000Z</time>
      </trkpt>
      <trkpt lat="43.71812" lon="3.29178">
        <ele>346</ele>
        <time>2023-05-27T06:08:13.000Z</time>
      </trkpt>
      <trkpt lat="43.71818" lon="3.2918">
        <ele>345.79998779297</ele>
        <time>2023-05-27T06:08:20.000Z</time>
      </trkpt>
      <trkpt lat="43.71824" lon="3.2918">
        <ele>346</ele>
        <time>2023-05-27T06:08:26.000Z</time>
      </trkpt>
      <trkpt lat="43.71829" lon="3.29179">
        <ele>346.39999389648</ele>
        <time>2023-05-27T06:08:31.000Z</time>
      </trkpt>
      <trkpt lat="43.71831" lon="3.2918">
        <ele>346.60000610352</ele>
        <time>2023-05-27T06:08:33.000Z</time>
      </trkpt>
      <trkpt lat="43.71835" lon="3.29182">
        <ele>346.60000610352</ele>
        <time>2023-05-27T06:08:37.000Z</time>
      </trkpt>
      <trkpt lat="43.71836" lon="3.29182">
        <ele>346.60000610352</ele>
        <time>2023-05-27T06:08:39.000Z</time>
      </trkpt>
      <trkpt lat="43.71841" lon="3.29182">
        <ele>346.79998779297</ele>
        <time>2023-05-27T06:08:45.000Z</time>
      </trkpt>
      <trkpt lat="43.71847" lon="3.29182">
        <ele>347.20001220703</ele>
        <time>2023-05-27T06:08:51.000Z</time>
      </trkpt>
      <trkpt lat="43.71856" lon="3.2918">
        <ele>347.60000610352</ele>
        <time>2023-05-27T06:08:59.000Z</time>
      </trkpt>
      <trkpt lat="43.71862" lon="3.29177">
        <ele>347.79998779297</ele>
        <time>2023-05-27T06:09:05.000Z</time>
      </trkpt>
      <trkpt lat="43.7187" lon="3.29174">
        <ele>348</ele>
        <time>2023-05-27T06:09:14.000Z</time>
      </trkpt>
      <trkpt lat="43.71878" lon="3.2917">
        <ele>348.20001220703</ele>
        <time>2023-05-27T06:09:22.000Z</time>
      </trkpt>
      <trkpt lat="43.71884" lon="3.29166">
        <ele>348.39999389648</ele>
        <time>2023-05-27T06:09:30.000Z</time>
      </trkpt>
      <trkpt lat="43.7189" lon="3.29161">
        <ele>348.39999389648</ele>
        <time>2023-05-27T06:09:38.000Z</time>
      </trkpt>
      <trkpt lat="43.71897" lon="3.29156">
        <ele>348.39999389648</ele>
        <time>2023-05-27T06:09:46.000Z</time>
      </trkpt>
      <trkpt lat="43.71906" lon="3.2915">
        <ele>348.39999389648</ele>
        <time>2023-05-27T06:09:54.000Z</time>
      </trkpt>
      <trkpt lat="43.71907" lon="3.29149">
        <ele>348.79998779297</ele>
        <time>2023-05-27T06:09:56.000Z</time>
      </trkpt>
      <trkpt lat="43.71913" lon="3.29145">
        <ele>349</ele>
        <time>2023-05-27T06:10:02.000Z</time>
      </trkpt>
      <trkpt lat="43.71922" lon="3.29137">
        <ele>349.39999389648</ele>
        <time>2023-05-27T06:10:11.000Z</time>
      </trkpt>
      <trkpt lat="43.71931" lon="3.29126">
        <ele>349.60000610352</ele>
        <time>2023-05-27T06:10:21.000Z</time>
      </trkpt>
      <trkpt lat="43.71934" lon="3.29122">
        <ele>349.79998779297</ele>
        <time>2023-05-27T06:10:25.000Z</time>
      </trkpt>
      <trkpt lat="43.71936" lon="3.29116">
        <ele>349.60000610352</ele>
        <time>2023-05-27T06:10:30.000Z</time>
      </trkpt>
      <trkpt lat="43.7194" lon="3.29106">
        <ele>349.79998779297</ele>
        <time>2023-05-27T06:10:37.000Z</time>
      </trkpt>
      <trkpt lat="43.7194" lon="3.29105">
        <ele>349.79998779297</ele>
        <time>2023-05-27T06:10:38.000Z</time>
      </trkpt>
      <trkpt lat="43.71939" lon="3.29095">
        <ele>350</ele>
        <time>2023-05-27T06:10:45.000Z</time>
      </trkpt>
      <trkpt lat="43.71938" lon="3.29093">
        <ele>350</ele>
        <time>2023-05-27T06:10:47.000Z</time>
      </trkpt>
      <trkpt lat="43.71931" lon="3.29093">
        <ele>350.79998779297</ele>
        <time>2023-05-27T06:10:55.000Z</time>
      </trkpt>
      <trkpt lat="43.71931" lon="3.29093">
        <ele>351</ele>
        <time>2023-05-27T06:10:56.000Z</time>
      </trkpt>
      <trkpt lat="43.7193" lon="3.29094">
        <ele>351</ele>
        <time>2023-05-27T06:10:57.000Z</time>
      </trkpt>
      <trkpt lat="43.71927" lon="3.29101">
        <ele>351.60000610352</ele>
        <time>2023-05-27T06:11:03.000Z</time>
      </trkpt>
      <trkpt lat="43.71926" lon="3.29108">
        <ele>351.79998779297</ele>
        <time>2023-05-27T06:11:07.000Z</time>
      </trkpt>
      <trkpt lat="43.71925" lon="3.29111">
        <ele>352</ele>
        <time>2023-05-27T06:11:10.000Z</time>
      </trkpt>
      <trkpt lat="43.71922" lon="3.29122">
        <ele>352.39999389648</ele>
        <time>2023-05-27T06:11:19.000Z</time>
      </trkpt>
      <trkpt lat="43.71919" lon="3.29128">
        <ele>352.79998779297</ele>
        <time>2023-05-27T06:11:25.000Z</time>
      </trkpt>
      <trkpt lat="43.71919" lon="3.29129">
        <ele>352.79998779297</ele>
        <time>2023-05-27T06:11:26.000Z</time>
      </trkpt>
      <trkpt lat="43.71918" lon="3.2913">
        <ele>353</ele>
        <time>2023-05-27T06:11:27.000Z</time>
      </trkpt>
      <trkpt lat="43.71911" lon="3.29139">
        <ele>353.60000610352</ele>
        <time>2023-05-27T06:11:37.000Z</time>
      </trkpt>
      <trkpt lat="43.71909" lon="3.29143">
        <ele>354</ele>
        <time>2023-05-27T06:11:41.000Z</time>
      </trkpt>
      <trkpt lat="43.71906" lon="3.29146">
        <ele>354</ele>
        <time>2023-05-27T06:11:44.000Z</time>
      </trkpt>
      <trkpt lat="43.71902" lon="3.29151">
        <ele>354.39999389648</ele>
        <time>2023-05-27T06:11:52.000Z</time>
      </trkpt>
      <trkpt lat="43.71897" lon="3.29154">
        <ele>354.39999389648</ele>
        <time>2023-05-27T06:11:59.000Z</time>
      </trkpt>
      <trkpt lat="43.71895" lon="3.29156">
        <ele>355</ele>
        <time>2023-05-27T06:12:03.000Z</time>
      </trkpt>
      <trkpt lat="43.71893" lon="3.29158">
        <ele>355.20001220703</ele>
        <time>2023-05-27T06:12:06.000Z</time>
      </trkpt>
      <trkpt lat="43.71887" lon="3.2916">
        <ele>355.79998779297</ele>
        <time>2023-05-27T06:12:15.000Z</time>
      </trkpt>
      <trkpt lat="43.71884" lon="3.2916">
        <ele>356.20001220703</ele>
        <time>2023-05-27T06:12:18.000Z</time>
      </trkpt>
      <trkpt lat="43.71882" lon="3.29161">
        <ele>356.60000610352</ele>
        <time>2023-05-27T06:12:20.000Z</time>
      </trkpt>
      <trkpt lat="43.71875" lon="3.29161">
        <ele>356.79998779297</ele>
        <time>2023-05-27T06:12:27.000Z</time>
      </trkpt>
      <trkpt lat="43.71872" lon="3.2916">
        <ele>357</ele>
        <time>2023-05-27T06:12:30.000Z</time>
      </trkpt>
      <trkpt lat="43.7187" lon="3.29159">
        <ele>357.20001220703</ele>
        <time>2023-05-27T06:12:32.000Z</time>
      </trkpt>
      <trkpt lat="43.71868" lon="3.29158">
        <ele>357.20001220703</ele>
        <time>2023-05-27T06:12:34.000Z</time>
      </trkpt>
      <trkpt lat="43.71861" lon="3.29155">
        <ele>357.79998779297</ele>
        <time>2023-05-27T06:12:42.000Z</time>
      </trkpt>
      <trkpt lat="43.71859" lon="3.29155">
        <ele>358</ele>
        <time>2023-05-27T06:12:45.000Z</time>
      </trkpt>
      <trkpt lat="43.71858" lon="3.29154">
        <ele>358.20001220703</ele>
        <time>2023-05-27T06:12:46.000Z</time>
      </trkpt>
      <trkpt lat="43.71856" lon="3.29154">
        <ele>358.20001220703</ele>
        <time>2023-05-27T06:12:48.000Z</time>
      </trkpt>
      <trkpt lat="43.71855" lon="3.29153">
        <ele>358.39999389648</ele>
        <time>2023-05-27T06:12:50.000Z</time>
      </trkpt>
      <trkpt lat="43.71854" lon="3.29152">
        <ele>358.60000610352</ele>
        <time>2023-05-27T06:12:52.000Z</time>
      </trkpt>
      <trkpt lat="43.71851" lon="3.2915">
        <ele>358.79998779297</ele>
        <time>2023-05-27T06:12:55.000Z</time>
      </trkpt>
      <trkpt lat="43.71848" lon="3.29149">
        <ele>359.20001220703</ele>
        <time>2023-05-27T06:12:58.000Z</time>
      </trkpt>
      <trkpt lat="43.71846" lon="3.29148">
        <ele>359.60000610352</ele>
        <time>2023-05-27T06:13:01.000Z</time>
      </trkpt>
      <trkpt lat="43.71843" lon="3.29146">
        <ele>360</ele>
        <time>2023-05-27T06:13:05.000Z</time>
      </trkpt>
      <trkpt lat="43.71842" lon="3.29146">
        <ele>360</ele>
        <time>2023-05-27T06:13:06.000Z</time>
      </trkpt>
      <trkpt lat="43.71839" lon="3.29144">
        <ele>360.20001220703</ele>
        <time>2023-05-27T06:13:10.000Z</time>
      </trkpt>
      <trkpt lat="43.71837" lon="3.29143">
        <ele>360.60000610352</ele>
        <time>2023-05-27T06:13:13.000Z</time>
      </trkpt>
      <trkpt lat="43.71831" lon="3.29141">
        <ele>361</ele>
        <time>2023-05-27T06:13:20.000Z</time>
      </trkpt>
      <trkpt lat="43.71829" lon="3.2914">
        <ele>361.20001220703</ele>
        <time>2023-05-27T06:13:23.000Z</time>
      </trkpt>
      <trkpt lat="43.71827" lon="3.29138">
        <ele>361.39999389648</ele>
        <time>2023-05-27T06:13:26.000Z</time>
      </trkpt>
      <trkpt lat="43.71826" lon="3.29136">
        <ele>361.60000610352</ele>
        <time>2023-05-27T06:13:28.000Z</time>
      </trkpt>
      <trkpt lat="43.71823" lon="3.29134">
        <ele>361.79998779297</ele>
        <time>2023-05-27T06:13:32.000Z</time>
      </trkpt>
      <trkpt lat="43.71817" lon="3.29127">
        <ele>362.39999389648</ele>
        <time>2023-05-27T06:13:41.000Z</time>
      </trkpt>
      <trkpt lat="43.71814" lon="3.29121">
        <ele>363</ele>
        <time>2023-05-27T06:13:48.000Z</time>
      </trkpt>
      <trkpt lat="43.71809" lon="3.29114">
        <ele>363.20001220703</ele>
        <time>2023-05-27T06:13:58.000Z</time>
      </trkpt>
      <trkpt lat="43.71807" lon="3.29106">
        <ele>363.39999389648</ele>
        <time>2023-05-27T06:14:05.000Z</time>
      </trkpt>
      <trkpt lat="43.71804" lon="3.29098">
        <ele>364</ele>
        <time>2023-05-27T06:14:12.000Z</time>
      </trkpt>
      <trkpt lat="43.71804" lon="3.29097">
        <ele>364</ele>
        <time>2023-05-27T06:14:13.000Z</time>
      </trkpt>
      <trkpt lat="43.71803" lon="3.29091">
        <ele>364.39999389648</ele>
        <time>2023-05-27T06:14:19.000Z</time>
      </trkpt>
      <trkpt lat="43.71802" lon="3.29083">
        <ele>365</ele>
        <time>2023-05-27T06:14:27.000Z</time>
      </trkpt>
      <trkpt lat="43.718" lon="3.29074">
        <ele>365.39999389648</ele>
        <time>2023-05-27T06:14:35.000Z</time>
      </trkpt>
      <trkpt lat="43.718" lon="3.29073">
        <ele>365.39999389648</ele>
        <time>2023-05-27T06:14:36.000Z</time>
      </trkpt>
      <trkpt lat="43.71797" lon="3.29067">
        <ele>366</ele>
        <time>2023-05-27T06:14:43.000Z</time>
      </trkpt>
      <trkpt lat="43.71795" lon="3.29064">
        <ele>366.20001220703</ele>
        <time>2023-05-27T06:14:46.000Z</time>
      </trkpt>
      <trkpt lat="43.71793" lon="3.29062">
        <ele>366.39999389648</ele>
        <time>2023-05-27T06:14:50.000Z</time>
      </trkpt>
      <trkpt lat="43.71789" lon="3.29061">
        <ele>366.60000610352</ele>
        <time>2023-05-27T06:14:55.000Z</time>
      </trkpt>
      <trkpt lat="43.71787" lon="3.2906">
        <ele>366.79998779297</ele>
        <time>2023-05-27T06:14:58.000Z</time>
      </trkpt>
      <trkpt lat="43.71782" lon="3.29057">
        <ele>367.39999389648</ele>
        <time>2023-05-27T06:15:07.000Z</time>
      </trkpt>
      <trkpt lat="43.7178" lon="3.29057">
        <ele>367.60000610352</ele>
        <time>2023-05-27T06:15:09.000Z</time>
      </trkpt>
      <trkpt lat="43.71776" lon="3.29058">
        <ele>368</ele>
        <time>2023-05-27T06:15:15.000Z</time>
      </trkpt>
      <trkpt lat="43.71771" lon="3.29059">
        <ele>368.60000610352</ele>
        <time>2023-05-27T06:15:22.000Z</time>
      </trkpt>
      <trkpt lat="43.71769" lon="3.2906">
        <ele>368.79998779297</ele>
        <time>2023-05-27T06:15:24.000Z</time>
      </trkpt>
      <trkpt lat="43.71762" lon="3.29062">
        <ele>369.39999389648</ele>
        <time>2023-05-27T06:15:32.000Z</time>
      </trkpt>
      <trkpt lat="43.71756" lon="3.29065">
        <ele>369.60000610352</ele>
        <time>2023-05-27T06:15:40.000Z</time>
      </trkpt>
      <trkpt lat="43.71755" lon="3.29066">
        <ele>369.60000610352</ele>
        <time>2023-05-27T06:15:41.000Z</time>
      </trkpt>
      <trkpt lat="43.7175" lon="3.29068">
        <ele>370.20001220703</ele>
        <time>2023-05-27T06:15:48.000Z</time>
      </trkpt>
      <trkpt lat="43.71745" lon="3.2907">
        <ele>370.79998779297</ele>
        <time>2023-05-27T06:15:54.000Z</time>
      </trkpt>
      <trkpt lat="43.71743" lon="3.2907">
        <ele>371.20001220703</ele>
        <time>2023-05-27T06:15:57.000Z</time>
      </trkpt>
      <trkpt lat="43.71737" lon="3.29073">
        <ele>371.79998779297</ele>
        <time>2023-05-27T06:16:05.000Z</time>
      </trkpt>
      <trkpt lat="43.71736" lon="3.29073">
        <ele>372</ele>
        <time>2023-05-27T06:16:06.000Z</time>
      </trkpt>
      <trkpt lat="43.71735" lon="3.29074">
        <ele>372</ele>
        <time>2023-05-27T06:16:07.000Z</time>
      </trkpt>
      <trkpt lat="43.71731" lon="3.29075">
        <ele>372.20001220703</ele>
        <time>2023-05-27T06:16:12.000Z</time>
      </trkpt>
      <trkpt lat="43.71729" lon="3.29077">
        <ele>372.39999389648</ele>
        <time>2023-05-27T06:16:15.000Z</time>
      </trkpt>
      <trkpt lat="43.71722" lon="3.2908">
        <ele>372.79998779297</ele>
        <time>2023-05-27T06:16:23.000Z</time>
      </trkpt>
      <trkpt lat="43.71715" lon="3.29083">
        <ele>373.60000610352</ele>
        <time>2023-05-27T06:16:33.000Z</time>
      </trkpt>
      <trkpt lat="43.71712" lon="3.29084">
        <ele>373.79998779297</ele>
        <time>2023-05-27T06:16:39.000Z</time>
      </trkpt>
      <trkpt lat="43.71711" lon="3.29085">
        <ele>373.79998779297</ele>
        <time>2023-05-27T06:16:41.000Z</time>
      </trkpt>
      <trkpt lat="43.71709" lon="3.29085">
        <ele>374.20001220703</ele>
        <time>2023-05-27T06:16:47.000Z</time>
      </trkpt>
      <trkpt lat="43.71705" lon="3.29086">
        <ele>374.39999389648</ele>
        <time>2023-05-27T06:16:55.000Z</time>
      </trkpt>
      <trkpt lat="43.71703" lon="3.29088">
        <ele>375</ele>
        <time>2023-05-27T06:17:03.000Z</time>
      </trkpt>
      <trkpt lat="43.71702" lon="3.29088">
        <ele>375</ele>
        <time>2023-05-27T06:17:04.000Z</time>
      </trkpt>
      <trkpt lat="43.71702" lon="3.29089">
        <ele>374.79998779297</ele>
        <time>2023-05-27T06:17:10.000Z</time>
      </trkpt>
      <trkpt lat="43.71699" lon="3.29088">
        <ele>375.20001220703</ele>
        <time>2023-05-27T06:17:20.000Z</time>
      </trkpt>
      <trkpt lat="43.71692" lon="3.29086">
        <ele>375.20001220703</ele>
        <time>2023-05-27T06:17:28.000Z</time>
      </trkpt>
      <trkpt lat="43.71689" lon="3.29086">
        <ele>375.39999389648</ele>
        <time>2023-05-27T06:17:31.000Z</time>
      </trkpt>
      <trkpt lat="43.71687" lon="3.29085">
        <ele>375.60000610352</ele>
        <time>2023-05-27T06:17:33.000Z</time>
      </trkpt>
      <trkpt lat="43.71684" lon="3.29083">
        <ele>375.60000610352</ele>
        <time>2023-05-27T06:17:37.000Z</time>
      </trkpt>
      <trkpt lat="43.71683" lon="3.29081">
        <ele>375.60000610352</ele>
        <time>2023-05-27T06:17:40.000Z</time>
      </trkpt>
      <trkpt lat="43.71681" lon="3.2908">
        <ele>375.79998779297</ele>
        <time>2023-05-27T06:17:42.000Z</time>
      </trkpt>
      <trkpt lat="43.71679" lon="3.29078">
        <ele>376.20001220703</ele>
        <time>2023-05-27T06:17:46.000Z</time>
      </trkpt>
      <trkpt lat="43.71678" lon="3.29077">
        <ele>376.20001220703</ele>
        <time>2023-05-27T06:17:47.000Z</time>
      </trkpt>
      <trkpt lat="43.71672" lon="3.29069">
        <ele>377</ele>
        <time>2023-05-27T06:17:56.000Z</time>
      </trkpt>
      <trkpt lat="43.71671" lon="3.29067">
        <ele>377.20001220703</ele>
        <time>2023-05-27T06:17:58.000Z</time>
      </trkpt>
      <trkpt lat="43.71667" lon="3.2906">
        <ele>377.60000610352</ele>
        <time>2023-05-27T06:18:05.000Z</time>
      </trkpt>
      <trkpt lat="43.71664" lon="3.29053">
        <ele>378</ele>
        <time>2023-05-27T06:18:12.000Z</time>
      </trkpt>
      <trkpt lat="43.71664" lon="3.29052">
        <ele>378</ele>
        <time>2023-05-27T06:18:13.000Z</time>
      </trkpt>
      <trkpt lat="43.71662" lon="3.29049">
        <ele>378.20001220703</ele>
        <time>2023-05-27T06:18:16.000Z</time>
      </trkpt>
      <trkpt lat="43.7166" lon="3.29044">
        <ele>378.60000610352</ele>
        <time>2023-05-27T06:18:21.000Z</time>
      </trkpt>
      <trkpt lat="43.71658" lon="3.29036">
        <ele>379.20001220703</ele>
        <time>2023-05-27T06:18:29.000Z</time>
      </trkpt>
      <trkpt lat="43.71657" lon="3.29033">
        <ele>379.20001220703</ele>
        <time>2023-05-27T06:18:31.000Z</time>
      </trkpt>
      <trkpt lat="43.71655" lon="3.2902">
        <ele>380</ele>
        <time>2023-05-27T06:18:42.000Z</time>
      </trkpt>
      <trkpt lat="43.71654" lon="3.29013">
        <ele>380.20001220703</ele>
        <time>2023-05-27T06:18:48.000Z</time>
      </trkpt>
      <trkpt lat="43.71654" lon="3.2901">
        <ele>380.39999389648</ele>
        <time>2023-05-27T06:18:50.000Z</time>
      </trkpt>
      <trkpt lat="43.71652" lon="3.29001">
        <ele>380.79998779297</ele>
        <time>2023-05-27T06:18:59.000Z</time>
      </trkpt>
      <trkpt lat="43.71651" lon="3.28993">
        <ele>381.39999389648</ele>
        <time>2023-05-27T06:19:05.000Z</time>
      </trkpt>
      <trkpt lat="43.71651" lon="3.2899">
        <ele>381.60000610352</ele>
        <time>2023-05-27T06:19:08.000Z</time>
      </trkpt>
      <trkpt lat="43.71649" lon="3.28985">
        <ele>381.79998779297</ele>
        <time>2023-05-27T06:19:12.000Z</time>
      </trkpt>
      <trkpt lat="43.71648" lon="3.28982">
        <ele>381.79998779297</ele>
        <time>2023-05-27T06:19:15.000Z</time>
      </trkpt>
      <trkpt lat="43.71648" lon="3.28979">
        <ele>382</ele>
        <time>2023-05-27T06:19:17.000Z</time>
      </trkpt>
      <trkpt lat="43.71646" lon="3.28973">
        <ele>382.39999389648</ele>
        <time>2023-05-27T06:19:23.000Z</time>
      </trkpt>
      <trkpt lat="43.71646" lon="3.28972">
        <ele>382.39999389648</ele>
        <time>2023-05-27T06:19:24.000Z</time>
      </trkpt>
      <trkpt lat="43.71643" lon="3.28963">
        <ele>383</ele>
        <time>2023-05-27T06:19:32.000Z</time>
      </trkpt>
      <trkpt lat="43.71641" lon="3.28953">
        <ele>383.39999389648</ele>
        <time>2023-05-27T06:19:40.000Z</time>
      </trkpt>
      <trkpt lat="43.7164" lon="3.2895">
        <ele>383.60000610352</ele>
        <time>2023-05-27T06:19:42.000Z</time>
      </trkpt>
      <trkpt lat="43.71639" lon="3.28947">
        <ele>384</ele>
        <time>2023-05-27T06:19:45.000Z</time>
      </trkpt>
      <trkpt lat="43.71638" lon="3.28944">
        <ele>384.20001220703</ele>
        <time>2023-05-27T06:19:48.000Z</time>
      </trkpt>
      <trkpt lat="43.71636" lon="3.2894">
        <ele>384.39999389648</ele>
        <time>2023-05-27T06:19:54.000Z</time>
      </trkpt>
      <trkpt lat="43.71635" lon="3.2894">
        <ele>384.39999389648</ele>
        <time>2023-05-27T06:19:55.000Z</time>
      </trkpt>
      <trkpt lat="43.71633" lon="3.28935">
        <ele>384.39999389648</ele>
        <time>2023-05-27T06:20:01.000Z</time>
      </trkpt>
      <trkpt lat="43.71626" lon="3.28923">
        <ele>385</ele>
        <time>2023-05-27T06:20:11.000Z</time>
      </trkpt>
      <trkpt lat="43.71624" lon="3.2892">
        <ele>385.39999389648</ele>
        <time>2023-05-27T06:20:14.000Z</time>
      </trkpt>
      <trkpt lat="43.71624" lon="3.28919">
        <ele>385.60000610352</ele>
        <time>2023-05-27T06:20:15.000Z</time>
      </trkpt>
      <trkpt lat="43.71622" lon="3.28917">
        <ele>385.60000610352</ele>
        <time>2023-05-27T06:20:18.000Z</time>
      </trkpt>
      <trkpt lat="43.7162" lon="3.28914">
        <ele>385.79998779297</ele>
        <time>2023-05-27T06:20:21.000Z</time>
      </trkpt>
      <trkpt lat="43.71618" lon="3.28911">
        <ele>386.20001220703</ele>
        <time>2023-05-27T06:20:24.000Z</time>
      </trkpt>
      <trkpt lat="43.71618" lon="3.2891">
        <ele>386.20001220703</ele>
        <time>2023-05-27T06:20:25.000Z</time>
      </trkpt>
      <trkpt lat="43.71615" lon="3.28905">
        <ele>386.39999389648</ele>
        <time>2023-05-27T06:20:30.000Z</time>
      </trkpt>
      <trkpt lat="43.71614" lon="3.28903">
        <ele>386.60000610352</ele>
        <time>2023-05-27T06:20:33.000Z</time>
      </trkpt>
      <trkpt lat="43.71611" lon="3.28894">
        <ele>387.20001220703</ele>
        <time>2023-05-27T06:20:41.000Z</time>
      </trkpt>
      <trkpt lat="43.7161" lon="3.2889">
        <ele>387.39999389648</ele>
        <time>2023-05-27T06:20:45.000Z</time>
      </trkpt>
      <trkpt lat="43.71609" lon="3.28889">
        <ele>387.39999389648</ele>
        <time>2023-05-27T06:20:47.000Z</time>
      </trkpt>
      <trkpt lat="43.71607" lon="3.28886">
        <ele>387.79998779297</ele>
        <time>2023-05-27T06:20:50.000Z</time>
      </trkpt>
      <trkpt lat="43.71605" lon="3.28878">
        <ele>388.39999389648</ele>
        <time>2023-05-27T06:20:58.000Z</time>
      </trkpt>
      <trkpt lat="43.71604" lon="3.28876">
        <ele>388.39999389648</ele>
        <time>2023-05-27T06:21:00.000Z</time>
      </trkpt>
      <trkpt lat="43.71601" lon="3.28867">
        <ele>389</ele>
        <time>2023-05-27T06:21:09.000Z</time>
      </trkpt>
      <trkpt lat="43.71597" lon="3.28856">
        <ele>389.39999389648</ele>
        <time>2023-05-27T06:21:19.000Z</time>
      </trkpt>
      <trkpt lat="43.71596" lon="3.28855">
        <ele>389.60000610352</ele>
        <time>2023-05-27T06:21:20.000Z</time>
      </trkpt>
      <trkpt lat="43.71593" lon="3.28847">
        <ele>390</ele>
        <time>2023-05-27T06:21:28.000Z</time>
      </trkpt>
      <trkpt lat="43.7159" lon="3.2884">
        <ele>390.60000610352</ele>
        <time>2023-05-27T06:21:35.000Z</time>
      </trkpt>
      <trkpt lat="43.71589" lon="3.28838">
        <ele>390.60000610352</ele>
        <time>2023-05-27T06:21:37.000Z</time>
      </trkpt>
      <trkpt lat="43.71585" lon="3.28829">
        <ele>391</ele>
        <time>2023-05-27T06:21:46.000Z</time>
      </trkpt>
      <trkpt lat="43.71581" lon="3.28821">
        <ele>391.39999389648</ele>
        <time>2023-05-27T06:21:54.000Z</time>
      </trkpt>
      <trkpt lat="43.7158" lon="3.28818">
        <ele>391.60000610352</ele>
        <time>2023-05-27T06:21:57.000Z</time>
      </trkpt>
      <trkpt lat="43.71577" lon="3.28812">
        <ele>391.79998779297</ele>
        <time>2023-05-27T06:22:03.000Z</time>
      </trkpt>
      <trkpt lat="43.71574" lon="3.28805">
        <ele>392.20001220703</ele>
        <time>2023-05-27T06:22:12.000Z</time>
      </trkpt>
      <trkpt lat="43.71571" lon="3.28801">
        <ele>392.60000610352</ele>
        <time>2023-05-27T06:22:17.000Z</time>
      </trkpt>
      <trkpt lat="43.7157" lon="3.28798">
        <ele>392.60000610352</ele>
        <time>2023-05-27T06:22:19.000Z</time>
      </trkpt>
      <trkpt lat="43.71567" lon="3.28792">
        <ele>393</ele>
        <time>2023-05-27T06:22:26.000Z</time>
      </trkpt>
      <trkpt lat="43.71566" lon="3.2879">
        <ele>393.20001220703</ele>
        <time>2023-05-27T06:22:28.000Z</time>
      </trkpt>
      <trkpt lat="43.71565" lon="3.28787">
        <ele>393.39999389648</ele>
        <time>2023-05-27T06:22:31.000Z</time>
      </trkpt>
      <trkpt lat="43.71564" lon="3.28786">
        <ele>393.60000610352</ele>
        <time>2023-05-27T06:22:32.000Z</time>
      </trkpt>
      <trkpt lat="43.71563" lon="3.28783">
        <ele>394</ele>
        <time>2023-05-27T06:22:35.000Z</time>
      </trkpt>
      <trkpt lat="43.71559" lon="3.28775">
        <ele>394.20001220703</ele>
        <time>2023-05-27T06:22:43.000Z</time>
      </trkpt>
      <trkpt lat="43.71555" lon="3.28767">
        <ele>394.60000610352</ele>
        <time>2023-05-27T06:22:51.000Z</time>
      </trkpt>
      <trkpt lat="43.71554" lon="3.28766">
        <ele>394.79998779297</ele>
        <time>2023-05-27T06:22:52.000Z</time>
      </trkpt>
      <trkpt lat="43.7155" lon="3.28758">
        <ele>395.39999389648</ele>
        <time>2023-05-27T06:23:01.000Z</time>
      </trkpt>
      <trkpt lat="43.71547" lon="3.28753">
        <ele>395.60000610352</ele>
        <time>2023-05-27T06:23:06.000Z</time>
      </trkpt>
      <trkpt lat="43.71545" lon="3.28748">
        <ele>396</ele>
        <time>2023-05-27T06:23:11.000Z</time>
      </trkpt>
      <trkpt lat="43.71541" lon="3.2874">
        <ele>396.79998779297</ele>
        <time>2023-05-27T06:23:19.000Z</time>
      </trkpt>
      <trkpt lat="43.71541" lon="3.28739">
        <ele>396.79998779297</ele>
        <time>2023-05-27T06:23:20.000Z</time>
      </trkpt>
      <trkpt lat="43.71536" lon="3.2873">
        <ele>397.39999389648</ele>
        <time>2023-05-27T06:23:31.000Z</time>
      </trkpt>
      <trkpt lat="43.71533" lon="3.28726">
        <ele>397.79998779297</ele>
        <time>2023-05-27T06:23:36.000Z</time>
      </trkpt>
      <trkpt lat="43.71529" lon="3.28723">
        <ele>398.20001220703</ele>
        <time>2023-05-27T06:23:41.000Z</time>
      </trkpt>
      <trkpt lat="43.71524" lon="3.28721">
        <ele>398.79998779297</ele>
        <time>2023-05-27T06:23:48.000Z</time>
      </trkpt>
      <trkpt lat="43.71523" lon="3.2872">
        <ele>399</ele>
        <time>2023-05-27T06:23:49.000Z</time>
      </trkpt>
      <trkpt lat="43.71519" lon="3.2872">
        <ele>399.60000610352</ele>
        <time>2023-05-27T06:23:55.000Z</time>
      </trkpt>
      <trkpt lat="43.71515" lon="3.28721">
        <ele>400</ele>
        <time>2023-05-27T06:24:00.000Z</time>
      </trkpt>
      <trkpt lat="43.71513" lon="3.28721">
        <ele>400</ele>
        <time>2023-05-27T06:24:02.000Z</time>
      </trkpt>
      <trkpt lat="43.71509" lon="3.28721">
        <ele>400.20001220703</ele>
        <time>2023-05-27T06:24:07.000Z</time>
      </trkpt>
      <trkpt lat="43.71507" lon="3.28721">
        <ele>400.39999389648</ele>
        <time>2023-05-27T06:24:09.000Z</time>
      </trkpt>
      <trkpt lat="43.71504" lon="3.28722">
        <ele>400.60000610352</ele>
        <time>2023-05-27T06:24:12.000Z</time>
      </trkpt>
      <trkpt lat="43.71498" lon="3.28724">
        <ele>401</ele>
        <time>2023-05-27T06:24:20.000Z</time>
      </trkpt>
      <trkpt lat="43.71493" lon="3.28726">
        <ele>401.60000610352</ele>
        <time>2023-05-27T06:24:26.000Z</time>
      </trkpt>
      <trkpt lat="43.71486" lon="3.28727">
        <ele>402</ele>
        <time>2023-05-27T06:24:35.000Z</time>
      </trkpt>
      <trkpt lat="43.71484" lon="3.28728">
        <ele>402.39999389648</ele>
        <time>2023-05-27T06:24:38.000Z</time>
      </trkpt>
      <trkpt lat="43.71483" lon="3.28728">
        <ele>402.79998779297</ele>
        <time>2023-05-27T06:24:44.000Z</time>
      </trkpt>
      <trkpt lat="43.71477" lon="3.28728">
        <ele>403</ele>
        <time>2023-05-27T06:24:51.000Z</time>
      </trkpt>
      <trkpt lat="43.71476" lon="3.28727">
        <ele>403.20001220703</ele>
        <time>2023-05-27T06:24:53.000Z</time>
      </trkpt>
      <trkpt lat="43.71468" lon="3.28727">
        <ele>403.60000610352</ele>
        <time>2023-05-27T06:25:01.000Z</time>
      </trkpt>
      <trkpt lat="43.7146" lon="3.28727">
        <ele>404.20001220703</ele>
        <time>2023-05-27T06:25:10.000Z</time>
      </trkpt>
      <trkpt lat="43.71459" lon="3.28727">
        <ele>404.20001220703</ele>
        <time>2023-05-27T06:25:11.000Z</time>
      </trkpt>
      <trkpt lat="43.71448" lon="3.28727">
        <ele>405</ele>
        <time>2023-05-27T06:25:23.000Z</time>
      </trkpt>
      <trkpt lat="43.71444" lon="3.28726">
        <ele>405.20001220703</ele>
        <time>2023-05-27T06:25:28.000Z</time>
      </trkpt>
      <trkpt lat="43.71441" lon="3.28725">
        <ele>405.39999389648</ele>
        <time>2023-05-27T06:25:33.000Z</time>
      </trkpt>
      <trkpt lat="43.71439" lon="3.28727">
        <ele>405.39999389648</ele>
        <time>2023-05-27T06:25:40.000Z</time>
      </trkpt>
      <trkpt lat="43.71438" lon="3.28726">
        <ele>405.79998779297</ele>
        <time>2023-05-27T06:25:48.000Z</time>
      </trkpt>
      <trkpt lat="43.71431" lon="3.28722">
        <ele>406.20001220703</ele>
        <time>2023-05-27T06:25:56.000Z</time>
      </trkpt>
      <trkpt lat="43.71428" lon="3.28721">
        <ele>406.20001220703</ele>
        <time>2023-05-27T06:25:59.000Z</time>
      </trkpt>
      <trkpt lat="43.71427" lon="3.2872">
        <ele>406.39999389648</ele>
        <time>2023-05-27T06:26:01.000Z</time>
      </trkpt>
      <trkpt lat="43.71424" lon="3.28719">
        <ele>406.79998779297</ele>
        <time>2023-05-27T06:26:04.000Z</time>
      </trkpt>
      <trkpt lat="43.71414" lon="3.28714">
        <ele>407.20001220703</ele>
        <time>2023-05-27T06:26:14.000Z</time>
      </trkpt>
      <trkpt lat="43.71413" lon="3.28713">
        <ele>407.39999389648</ele>
        <time>2023-05-27T06:26:15.000Z</time>
      </trkpt>
      <trkpt lat="43.71407" lon="3.28709">
        <ele>408</ele>
        <time>2023-05-27T06:26:22.000Z</time>
      </trkpt>
      <trkpt lat="43.71403" lon="3.28706">
        <ele>408.39999389648</ele>
        <time>2023-05-27T06:26:27.000Z</time>
      </trkpt>
      <trkpt lat="43.714" lon="3.28704">
        <ele>408.60000610352</ele>
        <time>2023-05-27T06:26:31.000Z</time>
      </trkpt>
      <trkpt lat="43.71393" lon="3.28699">
        <ele>409.20001220703</ele>
        <time>2023-05-27T06:26:40.000Z</time>
      </trkpt>
      <trkpt lat="43.71392" lon="3.28698">
        <ele>409.39999389648</ele>
        <time>2023-05-27T06:26:41.000Z</time>
      </trkpt>
      <trkpt lat="43.71386" lon="3.28694">
        <ele>410.39999389648</ele>
        <time>2023-05-27T06:26:49.000Z</time>
      </trkpt>
      <trkpt lat="43.71385" lon="3.28693">
        <ele>410.39999389648</ele>
        <time>2023-05-27T06:26:50.000Z</time>
      </trkpt>
      <trkpt lat="43.71379" lon="3.28688">
        <ele>410.79998779297</ele>
        <time>2023-05-27T06:26:59.000Z</time>
      </trkpt>
      <trkpt lat="43.71372" lon="3.28682">
        <ele>411.39999389648</ele>
        <time>2023-05-27T06:27:08.000Z</time>
      </trkpt>
      <trkpt lat="43.71363" lon="3.28675">
        <ele>412</ele>
        <time>2023-05-27T06:27:19.000Z</time>
      </trkpt>
      <trkpt lat="43.71358" lon="3.28672">
        <ele>412.39999389648</ele>
        <time>2023-05-27T06:27:26.000Z</time>
      </trkpt>
      <trkpt lat="43.71357" lon="3.28671">
        <ele>412.60000610352</ele>
        <time>2023-05-27T06:27:28.000Z</time>
      </trkpt>
      <trkpt lat="43.71355" lon="3.28669">
        <ele>412.79998779297</ele>
        <time>2023-05-27T06:27:31.000Z</time>
      </trkpt>
      <trkpt lat="43.71352" lon="3.28666">
        <ele>412.79998779297</ele>
        <time>2023-05-27T06:27:35.000Z</time>
      </trkpt>
      <trkpt lat="43.71348" lon="3.28663">
        <ele>413.20001220703</ele>
        <time>2023-05-27T06:27:40.000Z</time>
      </trkpt>
      <trkpt lat="43.71346" lon="3.2866">
        <ele>413.39999389648</ele>
        <time>2023-05-27T06:27:43.000Z</time>
      </trkpt>
      <trkpt lat="43.71345" lon="3.2866">
        <ele>413.39999389648</ele>
        <time>2023-05-27T06:27:44.000Z</time>
      </trkpt>
      <trkpt lat="43.71341" lon="3.28657">
        <ele>413.79998779297</ele>
        <time>2023-05-27T06:27:49.000Z</time>
      </trkpt>
      <trkpt lat="43.7134" lon="3.28655">
        <ele>413.79998779297</ele>
        <time>2023-05-27T06:27:51.000Z</time>
      </trkpt>
      <trkpt lat="43.71337" lon="3.28652">
        <ele>413.79998779297</ele>
        <time>2023-05-27T06:27:55.000Z</time>
      </trkpt>
      <trkpt lat="43.71333" lon="3.28648">
        <ele>414.20001220703</ele>
        <time>2023-05-27T06:28:00.000Z</time>
      </trkpt>
      <trkpt lat="43.7133" lon="3.28646">
        <ele>414.60000610352</ele>
        <time>2023-05-27T06:28:05.000Z</time>
      </trkpt>
      <trkpt lat="43.71329" lon="3.28645">
        <ele>414.60000610352</ele>
        <time>2023-05-27T06:28:06.000Z</time>
      </trkpt>
      <trkpt lat="43.71329" lon="3.28645">
        <ele>414.60000610352</ele>
        <time>2023-05-27T06:28:07.000Z</time>
      </trkpt>
      <trkpt lat="43.71326" lon="3.28641">
        <ele>414.79998779297</ele>
        <time>2023-05-27T06:28:13.000Z</time>
      </trkpt>
      <trkpt lat="43.71319" lon="3.28635">
        <ele>415</ele>
        <time>2023-05-27T06:28:22.000Z</time>
      </trkpt>
      <trkpt lat="43.71312" lon="3.28629">
        <ele>415.60000610352</ele>
        <time>2023-05-27T06:28:31.000Z</time>
      </trkpt>
      <trkpt lat="43.71311" lon="3.28628">
        <ele>415.60000610352</ele>
        <time>2023-05-27T06:28:32.000Z</time>
      </trkpt>
      <trkpt lat="43.71305" lon="3.28623">
        <ele>416.20001220703</ele>
        <time>2023-05-27T06:28:41.000Z</time>
      </trkpt>
      <trkpt lat="43.71301" lon="3.28619">
        <ele>416.60000610352</ele>
        <time>2023-05-27T06:28:47.000Z</time>
      </trkpt>
      <trkpt lat="43.71299" lon="3.28618">
        <ele>416.60000610352</ele>
        <time>2023-05-27T06:28:49.000Z</time>
      </trkpt>
      <trkpt lat="43.71294" lon="3.28612">
        <ele>417.39999389648</ele>
        <time>2023-05-27T06:28:57.000Z</time>
      </trkpt>
      <trkpt lat="43.71293" lon="3.28611">
        <ele>417.39999389648</ele>
        <time>2023-05-27T06:28:58.000Z</time>
      </trkpt>
      <trkpt lat="43.71291" lon="3.28609">
        <ele>417.60000610352</ele>
        <time>2023-05-27T06:29:01.000Z</time>
      </trkpt>
      <trkpt lat="43.71288" lon="3.28605">
        <ele>417.79998779297</ele>
        <time>2023-05-27T06:29:06.000Z</time>
      </trkpt>
      <trkpt lat="43.71283" lon="3.28597">
        <ele>418.60000610352</ele>
        <time>2023-05-27T06:29:15.000Z</time>
      </trkpt>
      <trkpt lat="43.71281" lon="3.28595">
        <ele>418.79998779297</ele>
        <time>2023-05-27T06:29:18.000Z</time>
      </trkpt>
      <trkpt lat="43.71279" lon="3.28593">
        <ele>419</ele>
        <time>2023-05-27T06:29:21.000Z</time>
      </trkpt>
      <trkpt lat="43.71275" lon="3.28586">
        <ele>419.39999389648</ele>
        <time>2023-05-27T06:29:29.000Z</time>
      </trkpt>
      <trkpt lat="43.71273" lon="3.28581">
        <ele>419.60000610352</ele>
        <time>2023-05-27T06:29:34.000Z</time>
      </trkpt>
      <trkpt lat="43.71271" lon="3.2858">
        <ele>419.79998779297</ele>
        <time>2023-05-27T06:29:36.000Z</time>
      </trkpt>
      <trkpt lat="43.71265" lon="3.28571">
        <ele>420.39999389648</ele>
        <time>2023-05-27T06:29:47.000Z</time>
      </trkpt>
      <trkpt lat="43.71261" lon="3.28566">
        <ele>420.60000610352</ele>
        <time>2023-05-27T06:29:53.000Z</time>
      </trkpt>
      <trkpt lat="43.71259" lon="3.28564">
        <ele>420.79998779297</ele>
        <time>2023-05-27T06:29:56.000Z</time>
      </trkpt>
      <trkpt lat="43.71256" lon="3.28562">
        <ele>421.39999389648</ele>
        <time>2023-05-27T06:30:00.000Z</time>
      </trkpt>
      <trkpt lat="43.71254" lon="3.28559">
        <ele>421.39999389648</ele>
        <time>2023-05-27T06:30:03.000Z</time>
      </trkpt>
      <trkpt lat="43.71251" lon="3.28555">
        <ele>421.60000610352</ele>
        <time>2023-05-27T06:30:08.000Z</time>
      </trkpt>
      <trkpt lat="43.71247" lon="3.28551">
        <ele>422</ele>
        <time>2023-05-27T06:30:13.000Z</time>
      </trkpt>
      <trkpt lat="43.71245" lon="3.28549">
        <ele>422.39999389648</ele>
        <time>2023-05-27T06:30:16.000Z</time>
      </trkpt>
      <trkpt lat="43.71245" lon="3.28548">
        <ele>422.60000610352</ele>
        <time>2023-05-27T06:30:18.000Z</time>
      </trkpt>
      <trkpt lat="43.71244" lon="3.28547">
        <ele>422.79998779297</ele>
        <time>2023-05-27T06:30:19.000Z</time>
      </trkpt>
      <trkpt lat="43.71238" lon="3.28541">
        <ele>423</ele>
        <time>2023-05-27T06:30:29.000Z</time>
      </trkpt>
      <trkpt lat="43.71232" lon="3.28535">
        <ele>423.60000610352</ele>
        <time>2023-05-27T06:30:38.000Z</time>
      </trkpt>
      <trkpt lat="43.7123" lon="3.28534">
        <ele>423.79998779297</ele>
        <time>2023-05-27T06:30:41.000Z</time>
      </trkpt>
      <trkpt lat="43.71227" lon="3.28531">
        <ele>424</ele>
        <time>2023-05-27T06:30:46.000Z</time>
      </trkpt>
      <trkpt lat="43.71219" lon="3.28526">
        <ele>424.60000610352</ele>
        <time>2023-05-27T06:30:55.000Z</time>
      </trkpt>
      <trkpt lat="43.71217" lon="3.28525">
        <ele>424.79998779297</ele>
        <time>2023-05-27T06:30:58.000Z</time>
      </trkpt>
      <trkpt lat="43.71215" lon="3.28524">
        <ele>425</ele>
        <time>2023-05-27T06:31:00.000Z</time>
      </trkpt>
      <trkpt lat="43.7121" lon="3.2852">
        <ele>425.20001220703</ele>
        <time>2023-05-27T06:31:07.000Z</time>
      </trkpt>
      <trkpt lat="43.71208" lon="3.28518">
        <ele>425.79998779297</ele>
        <time>2023-05-27T06:31:11.000Z</time>
      </trkpt>
      <trkpt lat="43.71206" lon="3.28517">
        <ele>425.60000610352</ele>
        <time>2023-05-27T06:31:13.000Z</time>
      </trkpt>
      <trkpt lat="43.712" lon="3.28513">
        <ele>426</ele>
        <time>2023-05-27T06:31:21.000Z</time>
      </trkpt>
      <trkpt lat="43.71194" lon="3.28508">
        <ele>426.60000610352</ele>
        <time>2023-05-27T06:31:29.000Z</time>
      </trkpt>
      <trkpt lat="43.71189" lon="3.28505">
        <ele>426.79998779297</ele>
        <time>2023-05-27T06:31:35.000Z</time>
      </trkpt>
      <trkpt lat="43.71186" lon="3.28502">
        <ele>427.20001220703</ele>
        <time>2023-05-27T06:31:39.000Z</time>
      </trkpt>
      <trkpt lat="43.71179" lon="3.28497">
        <ele>427.79998779297</ele>
        <time>2023-05-27T06:31:48.000Z</time>
      </trkpt>
      <trkpt lat="43.71178" lon="3.28497">
        <ele>427.79998779297</ele>
        <time>2023-05-27T06:31:49.000Z</time>
      </trkpt>
      <trkpt lat="43.71171" lon="3.28491">
        <ele>428.60000610352</ele>
        <time>2023-05-27T06:31:58.000Z</time>
      </trkpt>
      <trkpt lat="43.71167" lon="3.28488">
        <ele>429</ele>
        <time>2023-05-27T06:32:04.000Z</time>
      </trkpt>
      <trkpt lat="43.71165" lon="3.28487">
        <ele>429</ele>
        <time>2023-05-27T06:32:06.000Z</time>
      </trkpt>
      <trkpt lat="43.71161" lon="3.2848">
        <ele>429.79998779297</ele>
        <time>2023-05-27T06:32:15.000Z</time>
      </trkpt>
      <trkpt lat="43.71159" lon="3.28477">
        <ele>430</ele>
        <time>2023-05-27T06:32:19.000Z</time>
      </trkpt>
      <trkpt lat="43.71157" lon="3.28474">
        <ele>430.20001220703</ele>
        <time>2023-05-27T06:32:23.000Z</time>
      </trkpt>
      <trkpt lat="43.71155" lon="3.28468">
        <ele>430.60000610352</ele>
        <time>2023-05-27T06:32:30.000Z</time>
      </trkpt>
      <trkpt lat="43.71154" lon="3.28466">
        <ele>431</ele>
        <time>2023-05-27T06:32:35.000Z</time>
      </trkpt>
      <trkpt lat="43.71154" lon="3.28464">
        <ele>431</ele>
        <time>2023-05-27T06:32:37.000Z</time>
      </trkpt>
      <trkpt lat="43.71152" lon="3.28457">
        <ele>431.39999389648</ele>
        <time>2023-05-27T06:32:44.000Z</time>
      </trkpt>
      <trkpt lat="43.71151" lon="3.28448">
        <ele>432</ele>
        <time>2023-05-27T06:32:52.000Z</time>
      </trkpt>
      <trkpt lat="43.71151" lon="3.28446">
        <ele>432</ele>
        <time>2023-05-27T06:32:54.000Z</time>
      </trkpt>
      <trkpt lat="43.7115" lon="3.2844">
        <ele>432.39999389648</ele>
        <time>2023-05-27T06:33:00.000Z</time>
      </trkpt>
      <trkpt lat="43.71149" lon="3.28432">
        <ele>433</ele>
        <time>2023-05-27T06:33:08.000Z</time>
      </trkpt>
      <trkpt lat="43.71149" lon="3.28429">
        <ele>433</ele>
        <time>2023-05-27T06:33:11.000Z</time>
      </trkpt>
      <trkpt lat="43.71149" lon="3.28422">
        <ele>433.39999389648</ele>
        <time>2023-05-27T06:33:17.000Z</time>
      </trkpt>
      <trkpt lat="43.71149" lon="3.28414">
        <ele>434</ele>
        <time>2023-05-27T06:33:24.000Z</time>
      </trkpt>
      <trkpt lat="43.71149" lon="3.28413">
        <ele>434.20001220703</ele>
        <time>2023-05-27T06:33:25.000Z</time>
      </trkpt>
      <trkpt lat="43.71149" lon="3.28406">
        <ele>434.60000610352</ele>
        <time>2023-05-27T06:33:31.000Z</time>
      </trkpt>
      <trkpt lat="43.71149" lon="3.28403">
        <ele>434.79998779297</ele>
        <time>2023-05-27T06:33:34.000Z</time>
      </trkpt>
      <trkpt lat="43.71146" lon="3.28398">
        <ele>435</ele>
        <time>2023-05-27T06:33:39.000Z</time>
      </trkpt>
      <trkpt lat="43.71145" lon="3.28394">
        <ele>435</ele>
        <time>2023-05-27T06:33:42.000Z</time>
      </trkpt>
      <trkpt lat="43.71143" lon="3.2839">
        <ele>435.39999389648</ele>
        <time>2023-05-27T06:33:47.000Z</time>
      </trkpt>
      <trkpt lat="43.7114" lon="3.28384">
        <ele>436.20001220703</ele>
        <time>2023-05-27T06:33:55.000Z</time>
      </trkpt>
      <trkpt lat="43.71136" lon="3.2838">
        <ele>436.39999389648</ele>
        <time>2023-05-27T06:34:04.000Z</time>
      </trkpt>
      <trkpt lat="43.71132" lon="3.28374">
        <ele>436.79998779297</ele>
        <time>2023-05-27T06:34:11.000Z</time>
      </trkpt>
      <trkpt lat="43.7113" lon="3.28372">
        <ele>436.79998779297</ele>
        <time>2023-05-27T06:34:14.000Z</time>
      </trkpt>
      <trkpt lat="43.71128" lon="3.2837">
        <ele>437.20001220703</ele>
        <time>2023-05-27T06:34:16.000Z</time>
      </trkpt>
      <trkpt lat="43.71128" lon="3.2837">
        <ele>437.39999389648</ele>
        <time>2023-05-27T06:34:17.000Z</time>
      </trkpt>
      <trkpt lat="43.71124" lon="3.28365">
        <ele>437.39999389648</ele>
        <time>2023-05-27T06:34:23.000Z</time>
      </trkpt>
      <trkpt lat="43.71124" lon="3.28364">
        <ele>437.60000610352</ele>
        <time>2023-05-27T06:34:24.000Z</time>
      </trkpt>
      <trkpt lat="43.71122" lon="3.28362">
        <ele>438</ele>
        <time>2023-05-27T06:34:27.000Z</time>
      </trkpt>
      <trkpt lat="43.7112" lon="3.28361">
        <ele>438.39999389648</ele>
        <time>2023-05-27T06:34:29.000Z</time>
      </trkpt>
      <trkpt lat="43.71118" lon="3.28356">
        <ele>438.39999389648</ele>
        <time>2023-05-27T06:34:34.000Z</time>
      </trkpt>
      <trkpt lat="43.71117" lon="3.28354">
        <ele>438.60000610352</ele>
        <time>2023-05-27T06:34:36.000Z</time>
      </trkpt>
      <trkpt lat="43.71115" lon="3.28347">
        <ele>439</ele>
        <time>2023-05-27T06:34:42.000Z</time>
      </trkpt>
      <trkpt lat="43.71115" lon="3.28346">
        <ele>439</ele>
        <time>2023-05-27T06:34:43.000Z</time>
      </trkpt>
      <trkpt lat="43.71116" lon="3.28341">
        <ele>439.39999389648</ele>
        <time>2023-05-27T06:34:47.000Z</time>
      </trkpt>
      <trkpt lat="43.71116" lon="3.2834">
        <ele>439.39999389648</ele>
        <time>2023-05-27T06:34:48.000Z</time>
      </trkpt>
      <trkpt lat="43.71118" lon="3.28334">
        <ele>439.79998779297</ele>
        <time>2023-05-27T06:34:58.000Z</time>
      </trkpt>
      <trkpt lat="43.71118" lon="3.28333">
        <ele>440</ele>
        <time>2023-05-27T06:35:05.000Z</time>
      </trkpt>
      <trkpt lat="43.71117" lon="3.28331">
        <ele>439.20001220703</ele>
        <time>2023-05-27T06:35:16.000Z</time>
      </trkpt>
      <trkpt lat="43.7112" lon="3.28327">
        <ele>440.20001220703</ele>
        <time>2023-05-27T06:35:22.000Z</time>
      </trkpt>
      <trkpt lat="43.71127" lon="3.28323">
        <ele>440.60000610352</ele>
        <time>2023-05-27T06:35:30.000Z</time>
      </trkpt>
      <trkpt lat="43.71128" lon="3.28322">
        <ele>440.79998779297</ele>
        <time>2023-05-27T06:35:32.000Z</time>
      </trkpt>
      <trkpt lat="43.71131" lon="3.28322">
        <ele>440.79998779297</ele>
        <time>2023-05-27T06:35:35.000Z</time>
      </trkpt>
      <trkpt lat="43.71133" lon="3.28323">
        <ele>441</ele>
        <time>2023-05-27T06:35:39.000Z</time>
      </trkpt>
      <trkpt lat="43.71135" lon="3.28325">
        <ele>441.20001220703</ele>
        <time>2023-05-27T06:35:42.000Z</time>
      </trkpt>
      <trkpt lat="43.7114" lon="3.2833">
        <ele>441.39999389648</ele>
        <time>2023-05-27T06:35:49.000Z</time>
      </trkpt>
      <trkpt lat="43.71141" lon="3.28331">
        <ele>441.60000610352</ele>
        <time>2023-05-27T06:35:50.000Z</time>
      </trkpt>
      <trkpt lat="43.71143" lon="3.28334">
        <ele>441.79998779297</ele>
        <time>2023-05-27T06:35:54.000Z</time>
      </trkpt>
      <trkpt lat="43.71148" lon="3.28338">
        <ele>442.20001220703</ele>
        <time>2023-05-27T06:36:00.000Z</time>
      </trkpt>
      <trkpt lat="43.71151" lon="3.28343">
        <ele>442.39999389648</ele>
        <time>2023-05-27T06:36:05.000Z</time>
      </trkpt>
      <trkpt lat="43.71152" lon="3.28344">
        <ele>442.60000610352</ele>
        <time>2023-05-27T06:36:07.000Z</time>
      </trkpt>
      <trkpt lat="43.71155" lon="3.28348">
        <ele>442.79998779297</ele>
        <time>2023-05-27T06:36:11.000Z</time>
      </trkpt>
      <trkpt lat="43.71157" lon="3.2835">
        <ele>443</ele>
        <time>2023-05-27T06:36:14.000Z</time>
      </trkpt>
      <trkpt lat="43.7116" lon="3.28356">
        <ele>443.39999389648</ele>
        <time>2023-05-27T06:36:20.000Z</time>
      </trkpt>
      <trkpt lat="43.71161" lon="3.28357">
        <ele>443.39999389648</ele>
        <time>2023-05-27T06:36:21.000Z</time>
      </trkpt>
      <trkpt lat="43.71163" lon="3.2836">
        <ele>443.60000610352</ele>
        <time>2023-05-27T06:36:24.000Z</time>
      </trkpt>
      <trkpt lat="43.71164" lon="3.28361">
        <ele>444</ele>
        <time>2023-05-27T06:36:26.000Z</time>
      </trkpt>
      <trkpt lat="43.71166" lon="3.28366">
        <ele>444.20001220703</ele>
        <time>2023-05-27T06:36:32.000Z</time>
      </trkpt>
      <trkpt lat="43.71167" lon="3.28367">
        <ele>444.39999389648</ele>
        <time>2023-05-27T06:36:33.000Z</time>
      </trkpt>
      <trkpt lat="43.71168" lon="3.28374">
        <ele>444.60000610352</ele>
        <time>2023-05-27T06:36:40.000Z</time>
      </trkpt>
      <trkpt lat="43.71168" lon="3.28375">
        <ele>444.79998779297</ele>
        <time>2023-05-27T06:36:41.000Z</time>
      </trkpt>
      <trkpt lat="43.71169" lon="3.28378">
        <ele>444.79998779297</ele>
        <time>2023-05-27T06:36:44.000Z</time>
      </trkpt>
      <trkpt lat="43.7117" lon="3.28382">
        <ele>445</ele>
        <time>2023-05-27T06:36:47.000Z</time>
      </trkpt>
      <trkpt lat="43.71171" lon="3.28385">
        <ele>445.20001220703</ele>
        <time>2023-05-27T06:36:50.000Z</time>
      </trkpt>
      <trkpt lat="43.71172" lon="3.2839">
        <ele>445.39999389648</ele>
        <time>2023-05-27T06:36:54.000Z</time>
      </trkpt>
      <trkpt lat="43.71172" lon="3.28394">
        <ele>445.60000610352</ele>
        <time>2023-05-27T06:36:58.000Z</time>
      </trkpt>
      <trkpt lat="43.71174" lon="3.28399">
        <ele>445.79998779297</ele>
        <time>2023-05-27T06:37:02.000Z</time>
      </trkpt>
      <trkpt lat="43.71175" lon="3.28401">
        <ele>445.79998779297</ele>
        <time>2023-05-27T06:37:04.000Z</time>
      </trkpt>
      <trkpt lat="43.71177" lon="3.28404">
        <ele>446</ele>
        <time>2023-05-27T06:37:07.000Z</time>
      </trkpt>
      <trkpt lat="43.71181" lon="3.28408">
        <ele>446.39999389648</ele>
        <time>2023-05-27T06:37:12.000Z</time>
      </trkpt>
      <trkpt lat="43.71183" lon="3.2841">
        <ele>446.60000610352</ele>
        <time>2023-05-27T06:37:15.000Z</time>
      </trkpt>
      <trkpt lat="43.71189" lon="3.28414">
        <ele>446.60000610352</ele>
        <time>2023-05-27T06:37:22.000Z</time>
      </trkpt>
      <trkpt lat="43.71192" lon="3.28415">
        <ele>446.79998779297</ele>
        <time>2023-05-27T06:37:26.000Z</time>
      </trkpt>
      <trkpt lat="43.71197" lon="3.28415">
        <ele>447</ele>
        <time>2023-05-27T06:37:31.000Z</time>
      </trkpt>
      <trkpt lat="43.71202" lon="3.28415">
        <ele>447.60000610352</ele>
        <time>2023-05-27T06:37:37.000Z</time>
      </trkpt>
      <trkpt lat="43.71202" lon="3.28414">
        <ele>447.60000610352</ele>
        <time>2023-05-27T06:37:38.000Z</time>
      </trkpt>
      <trkpt lat="43.71205" lon="3.28413">
        <ele>447.79998779297</ele>
        <time>2023-05-27T06:37:41.000Z</time>
      </trkpt>
      <trkpt lat="43.71209" lon="3.28414">
        <ele>448</ele>
        <time>2023-05-27T06:37:46.000Z</time>
      </trkpt>
      <trkpt lat="43.71216" lon="3.28414">
        <ele>448.60000610352</ele>
        <time>2023-05-27T06:37:54.000Z</time>
      </trkpt>
      <trkpt lat="43.71219" lon="3.28415">
        <ele>448.79998779297</ele>
        <time>2023-05-27T06:37:57.000Z</time>
      </trkpt>
      <trkpt lat="43.71222" lon="3.28415">
        <ele>449.20001220703</ele>
        <time>2023-05-27T06:38:01.000Z</time>
      </trkpt>
      <trkpt lat="43.71226" lon="3.28415">
        <ele>449.39999389648</ele>
        <time>2023-05-27T06:38:05.000Z</time>
      </trkpt>
      <trkpt lat="43.71229" lon="3.28415">
        <ele>449.60000610352</ele>
        <time>2023-05-27T06:38:08.000Z</time>
      </trkpt>
      <trkpt lat="43.71231" lon="3.28416">
        <ele>449.79998779297</ele>
        <time>2023-05-27T06:38:11.000Z</time>
      </trkpt>
      <trkpt lat="43.71233" lon="3.28416">
        <ele>450</ele>
        <time>2023-05-27T06:38:14.000Z</time>
      </trkpt>
      <trkpt lat="43.71239" lon="3.28416">
        <ele>450.60000610352</ele>
        <time>2023-05-27T06:38:22.000Z</time>
      </trkpt>
      <trkpt lat="43.71245" lon="3.28417">
        <ele>451</ele>
        <time>2023-05-27T06:38:29.000Z</time>
      </trkpt>
      <trkpt lat="43.7125" lon="3.28418">
        <ele>451.60000610352</ele>
        <time>2023-05-27T06:38:37.000Z</time>
      </trkpt>
      <trkpt lat="43.71253" lon="3.28418">
        <ele>452</ele>
        <time>2023-05-27T06:38:41.000Z</time>
      </trkpt>
      <trkpt lat="43.71256" lon="3.28419">
        <ele>452.20001220703</ele>
        <time>2023-05-27T06:38:45.000Z</time>
      </trkpt>
      <trkpt lat="43.71261" lon="3.28421">
        <ele>452.60000610352</ele>
        <time>2023-05-27T06:38:51.000Z</time>
      </trkpt>
      <trkpt lat="43.71266" lon="3.28423">
        <ele>453</ele>
        <time>2023-05-27T06:38:56.000Z</time>
      </trkpt>
      <trkpt lat="43.71269" lon="3.28423">
        <ele>453.20001220703</ele>
        <time>2023-05-27T06:38:59.000Z</time>
      </trkpt>
      <trkpt lat="43.71278" lon="3.28425">
        <ele>453.39999389648</ele>
        <time>2023-05-27T06:39:08.000Z</time>
      </trkpt>
      <trkpt lat="43.71282" lon="3.28426">
        <ele>453.79998779297</ele>
        <time>2023-05-27T06:39:14.000Z</time>
      </trkpt>
      <trkpt lat="43.71286" lon="3.28427">
        <ele>454</ele>
        <time>2023-05-27T06:39:18.000Z</time>
      </trkpt>
      <trkpt lat="43.71288" lon="3.28427">
        <ele>454.20001220703</ele>
        <time>2023-05-27T06:39:20.000Z</time>
      </trkpt>
      <trkpt lat="43.71293" lon="3.28427">
        <ele>454.60000610352</ele>
        <time>2023-05-27T06:39:26.000Z</time>
      </trkpt>
      <trkpt lat="43.71296" lon="3.28428">
        <ele>455.20001220703</ele>
        <time>2023-05-27T06:39:30.000Z</time>
      </trkpt>
      <trkpt lat="43.71303" lon="3.28429">
        <ele>455.20001220703</ele>
        <time>2023-05-27T06:39:37.000Z</time>
      </trkpt>
      <trkpt lat="43.7131" lon="3.2843">
        <ele>455.79998779297</ele>
        <time>2023-05-27T06:39:45.000Z</time>
      </trkpt>
      <trkpt lat="43.71315" lon="3.2843">
        <ele>456.20001220703</ele>
        <time>2023-05-27T06:39:50.000Z</time>
      </trkpt>
      <trkpt lat="43.71317" lon="3.28431">
        <ele>456.20001220703</ele>
        <time>2023-05-27T06:39:52.000Z</time>
      </trkpt>
      <trkpt lat="43.71319" lon="3.28431">
        <ele>456.39999389648</ele>
        <time>2023-05-27T06:39:55.000Z</time>
      </trkpt>
      <trkpt lat="43.71323" lon="3.28432">
        <ele>456.79998779297</ele>
        <time>2023-05-27T06:40:00.000Z</time>
      </trkpt>
      <trkpt lat="43.71327" lon="3.28432">
        <ele>457</ele>
        <time>2023-05-27T06:40:04.000Z</time>
      </trkpt>
      <trkpt lat="43.71329" lon="3.28432">
        <ele>457.20001220703</ele>
        <time>2023-05-27T06:40:06.000Z</time>
      </trkpt>
      <trkpt lat="43.71333" lon="3.28432">
        <ele>457.39999389648</ele>
        <time>2023-05-27T06:40:11.000Z</time>
      </trkpt>
      <trkpt lat="43.71341" lon="3.28433">
        <ele>458</ele>
        <time>2023-05-27T06:40:20.000Z</time>
      </trkpt>
      <trkpt lat="43.71342" lon="3.28433">
        <ele>458.20001220703</ele>
        <time>2023-05-27T06:40:21.000Z</time>
      </trkpt>
      <trkpt lat="43.71347" lon="3.28432">
        <ele>458.60000610352</ele>
        <time>2023-05-27T06:40:28.000Z</time>
      </trkpt>
      <trkpt lat="43.71354" lon="3.28431">
        <ele>459</ele>
        <time>2023-05-27T06:40:37.000Z</time>
      </trkpt>
      <trkpt lat="43.71355" lon="3.28431">
        <ele>459.20001220703</ele>
        <time>2023-05-27T06:40:39.000Z</time>
      </trkpt>
      <trkpt lat="43.7136" lon="3.28431">
        <ele>460</ele>
        <time>2023-05-27T06:40:45.000Z</time>
      </trkpt>
      <trkpt lat="43.71361" lon="3.28431">
        <ele>460.39999389648</ele>
        <time>2023-05-27T06:40:50.000Z</time>
      </trkpt>
      <trkpt lat="43.71361" lon="3.28431">
        <ele>460.39999389648</ele>
        <time>2023-05-27T06:40:51.000Z</time>
      </trkpt>
      <trkpt lat="43.71364" lon="3.2843">
        <ele>460.20001220703</ele>
        <time>2023-05-27T06:40:59.000Z</time>
      </trkpt>
      <trkpt lat="43.71369" lon="3.28429">
        <ele>460.60000610352</ele>
        <time>2023-05-27T06:41:06.000Z</time>
      </trkpt>
      <trkpt lat="43.71374" lon="3.28428">
        <ele>461</ele>
        <time>2023-05-27T06:41:14.000Z</time>
      </trkpt>
      <trkpt lat="43.71379" lon="3.28427">
        <ele>461.39999389648</ele>
        <time>2023-05-27T06:41:20.000Z</time>
      </trkpt>
      <trkpt lat="43.71381" lon="3.28427">
        <ele>461.39999389648</ele>
        <time>2023-05-27T06:41:23.000Z</time>
      </trkpt>
      <trkpt lat="43.71385" lon="3.28426">
        <ele>461.60000610352</ele>
        <time>2023-05-27T06:41:29.000Z</time>
      </trkpt>
      <trkpt lat="43.71391" lon="3.28427">
        <ele>462</ele>
        <time>2023-05-27T06:41:36.000Z</time>
      </trkpt>
      <trkpt lat="43.71391" lon="3.28428">
        <ele>462</ele>
        <time>2023-05-27T06:41:37.000Z</time>
      </trkpt>
      <trkpt lat="43.71391" lon="3.28428">
        <ele>462.20001220703</ele>
        <time>2023-05-27T06:41:42.000Z</time>
      </trkpt>
      <trkpt lat="43.71391" lon="3.28428">
        <ele>462.39999389648</ele>
        <time>2023-05-27T06:41:44.000Z</time>
      </trkpt>
      <trkpt lat="43.71394" lon="3.28426">
        <ele>462.60000610352</ele>
        <time>2023-05-27T06:41:51.000Z</time>
      </trkpt>
      <trkpt lat="43.714" lon="3.28425">
        <ele>462.79998779297</ele>
        <time>2023-05-27T06:41:58.000Z</time>
      </trkpt>
      <trkpt lat="43.71407" lon="3.28424">
        <ele>463.20001220703</ele>
        <time>2023-05-27T06:42:06.000Z</time>
      </trkpt>
      <trkpt lat="43.71409" lon="3.28424">
        <ele>463.39999389648</ele>
        <time>2023-05-27T06:42:09.000Z</time>
      </trkpt>
      <trkpt lat="43.71415" lon="3.28424">
        <ele>463.79998779297</ele>
        <time>2023-05-27T06:42:15.000Z</time>
      </trkpt>
      <trkpt lat="43.71416" lon="3.28424">
        <ele>463.79998779297</ele>
        <time>2023-05-27T06:42:16.000Z</time>
      </trkpt>
      <trkpt lat="43.71423" lon="3.28423">
        <ele>464.39999389648</ele>
        <time>2023-05-27T06:42:24.000Z</time>
      </trkpt>
      <trkpt lat="43.71424" lon="3.28422">
        <ele>464.39999389648</ele>
        <time>2023-05-27T06:42:25.000Z</time>
      </trkpt>
      <trkpt lat="43.71431" lon="3.28421">
        <ele>465</ele>
        <time>2023-05-27T06:42:34.000Z</time>
      </trkpt>
      <trkpt lat="43.71435" lon="3.2842">
        <ele>465.39999389648</ele>
        <time>2023-05-27T06:42:40.000Z</time>
      </trkpt>
      <trkpt lat="43.71435" lon="3.2842">
        <ele>465.60000610352</ele>
        <time>2023-05-27T06:42:41.000Z</time>
      </trkpt>
      <trkpt lat="43.71435" lon="3.2842">
        <ele>466</ele>
        <time>2023-05-27T06:42:49.000Z</time>
      </trkpt>
      <trkpt lat="43.71438" lon="3.28417">
        <ele>466</ele>
        <time>2023-05-27T06:43:00.000Z</time>
      </trkpt>
      <trkpt lat="43.71444" lon="3.28416">
        <ele>466.39999389648</ele>
        <time>2023-05-27T06:43:09.000Z</time>
      </trkpt>
      <trkpt lat="43.71445" lon="3.28415">
        <ele>466.60000610352</ele>
        <time>2023-05-27T06:43:10.000Z</time>
      </trkpt>
      <trkpt lat="43.71451" lon="3.28413">
        <ele>466.79998779297</ele>
        <time>2023-05-27T06:43:17.000Z</time>
      </trkpt>
      <trkpt lat="43.71456" lon="3.28411">
        <ele>467.39999389648</ele>
        <time>2023-05-27T06:43:23.000Z</time>
      </trkpt>
      <trkpt lat="43.71458" lon="3.2841">
        <ele>467.60000610352</ele>
        <time>2023-05-27T06:43:25.000Z</time>
      </trkpt>
      <trkpt lat="43.71466" lon="3.28408">
        <ele>467.79998779297</ele>
        <time>2023-05-27T06:43:34.000Z</time>
      </trkpt>
      <trkpt lat="43.71474" lon="3.28405">
        <ele>468.60000610352</ele>
        <time>2023-05-27T06:43:42.000Z</time>
      </trkpt>
      <trkpt lat="43.71477" lon="3.28404">
        <ele>468.79998779297</ele>
        <time>2023-05-27T06:43:45.000Z</time>
      </trkpt>
      <trkpt lat="43.71487" lon="3.28401">
        <ele>469.60000610352</ele>
        <time>2023-05-27T06:43:55.000Z</time>
      </trkpt>
      <trkpt lat="43.71488" lon="3.28401">
        <ele>469.60000610352</ele>
        <time>2023-05-27T06:43:56.000Z</time>
      </trkpt>
      <trkpt lat="43.71495" lon="3.28398">
        <ele>470.60000610352</ele>
        <time>2023-05-27T06:44:04.000Z</time>
      </trkpt>
      <trkpt lat="43.71503" lon="3.28397">
        <ele>471</ele>
        <time>2023-05-27T06:44:12.000Z</time>
      </trkpt>
      <trkpt lat="43.71508" lon="3.28396">
        <ele>471.39999389648</ele>
        <time>2023-05-27T06:44:19.000Z</time>
      </trkpt>
      <trkpt lat="43.71512" lon="3.28395">
        <ele>471.60000610352</ele>
        <time>2023-05-27T06:44:24.000Z</time>
      </trkpt>
      <trkpt lat="43.71513" lon="3.28396">
        <ele>471.79998779297</ele>
        <time>2023-05-27T06:44:26.000Z</time>
      </trkpt>
      <trkpt lat="43.7152" lon="3.28395">
        <ele>472.39999389648</ele>
        <time>2023-05-27T06:44:35.000Z</time>
      </trkpt>
      <trkpt lat="43.71524" lon="3.28394">
        <ele>472.79998779297</ele>
        <time>2023-05-27T06:44:40.000Z</time>
      </trkpt>
      <trkpt lat="43.71526" lon="3.28394">
        <ele>472.79998779297</ele>
        <time>2023-05-27T06:44:43.000Z</time>
      </trkpt>
      <trkpt lat="43.71534" lon="3.28394">
        <ele>473.39999389648</ele>
        <time>2023-05-27T06:44:53.000Z</time>
      </trkpt>
      <trkpt lat="43.7154" lon="3.28395">
        <ele>473.79998779297</ele>
        <time>2023-05-27T06:44:59.000Z</time>
      </trkpt>
      <trkpt lat="43.71542" lon="3.28395">
        <ele>474</ele>
        <time>2023-05-27T06:45:01.000Z</time>
      </trkpt>
      <trkpt lat="43.71549" lon="3.28395">
        <ele>474.39999389648</ele>
        <time>2023-05-27T06:45:09.000Z</time>
      </trkpt>
      <trkpt lat="43.71555" lon="3.28395">
        <ele>474.79998779297</ele>
        <time>2023-05-27T06:45:15.000Z</time>
      </trkpt>
      <trkpt lat="43.71559" lon="3.28395">
        <ele>475.20001220703</ele>
        <time>2023-05-27T06:45:20.000Z</time>
      </trkpt>
      <trkpt lat="43.71559" lon="3.28396">
        <ele>475.39999389648</ele>
        <time>2023-05-27T06:45:21.000Z</time>
      </trkpt>
      <trkpt lat="43.7156" lon="3.28397">
        <ele>475.39999389648</ele>
        <time>2023-05-27T06:45:26.000Z</time>
      </trkpt>
      <trkpt lat="43.71562" lon="3.28397">
        <ele>474.79998779297</ele>
        <time>2023-05-27T06:45:43.000Z</time>
      </trkpt>
      <trkpt lat="43.71562" lon="3.28397">
        <ele>475.60000610352</ele>
        <time>2023-05-27T06:45:53.000Z</time>
      </trkpt>
      <trkpt lat="43.71563" lon="3.28397">
        <ele>475.20001220703</ele>
        <time>2023-05-27T06:45:59.000Z</time>
      </trkpt>
      <trkpt lat="43.71568" lon="3.28397">
        <ele>475.39999389648</ele>
        <time>2023-05-27T06:46:06.000Z</time>
      </trkpt>
      <trkpt lat="43.71573" lon="3.28398">
        <ele>475.79998779297</ele>
        <time>2023-05-27T06:46:13.000Z</time>
      </trkpt>
      <trkpt lat="43.71574" lon="3.28398">
        <ele>476</ele>
        <time>2023-05-27T06:46:14.000Z</time>
      </trkpt>
      <trkpt lat="43.7158" lon="3.28401">
        <ele>476.60000610352</ele>
        <time>2023-05-27T06:46:23.000Z</time>
      </trkpt>
      <trkpt lat="43.71586" lon="3.28405">
        <ele>477</ele>
        <time>2023-05-27T06:46:30.000Z</time>
      </trkpt>
      <trkpt lat="43.71587" lon="3.28406">
        <ele>477.20001220703</ele>
        <time>2023-05-27T06:46:32.000Z</time>
      </trkpt>
      <trkpt lat="43.71592" lon="3.28411">
        <ele>477.60000610352</ele>
        <time>2023-05-27T06:46:40.000Z</time>
      </trkpt>
      <trkpt lat="43.71598" lon="3.28415">
        <ele>478</ele>
        <time>2023-05-27T06:46:47.000Z</time>
      </trkpt>
      <trkpt lat="43.716" lon="3.28417">
        <ele>478</ele>
        <time>2023-05-27T06:46:50.000Z</time>
      </trkpt>
      <trkpt lat="43.71603" lon="3.28419">
        <ele>478.39999389648</ele>
        <time>2023-05-27T06:46:54.000Z</time>
      </trkpt>
      <trkpt lat="43.71604" lon="3.28421">
        <ele>478.39999389648</ele>
        <time>2023-05-27T06:46:56.000Z</time>
      </trkpt>
      <trkpt lat="43.7161" lon="3.28425">
        <ele>478.79998779297</ele>
        <time>2023-05-27T06:47:04.000Z</time>
      </trkpt>
      <trkpt lat="43.71611" lon="3.28426">
        <ele>479</ele>
        <time>2023-05-27T06:47:06.000Z</time>
      </trkpt>
      <trkpt lat="43.71614" lon="3.2843">
        <ele>479.20001220703</ele>
        <time>2023-05-27T06:47:11.000Z</time>
      </trkpt>
      <trkpt lat="43.71618" lon="3.28434">
        <ele>480</ele>
        <time>2023-05-27T06:47:17.000Z</time>
      </trkpt>
      <trkpt lat="43.71619" lon="3.28435">
        <ele>480.20001220703</ele>
        <time>2023-05-27T06:47:19.000Z</time>
      </trkpt>
      <trkpt lat="43.7162" lon="3.28436">
        <ele>480.20001220703</ele>
        <time>2023-05-27T06:47:20.000Z</time>
      </trkpt>
      <trkpt lat="43.71622" lon="3.28439">
        <ele>480.60000610352</ele>
        <time>2023-05-27T06:47:24.000Z</time>
      </trkpt>
      <trkpt lat="43.71624" lon="3.2844">
        <ele>480.60000610352</ele>
        <time>2023-05-27T06:47:26.000Z</time>
      </trkpt>
      <trkpt lat="43.71627" lon="3.28445">
        <ele>480.79998779297</ele>
        <time>2023-05-27T06:47:32.000Z</time>
      </trkpt>
      <trkpt lat="43.71629" lon="3.28447">
        <ele>481</ele>
        <time>2023-05-27T06:47:35.000Z</time>
      </trkpt>
      <trkpt lat="43.71633" lon="3.28454">
        <ele>481.39999389648</ele>
        <time>2023-05-27T06:47:43.000Z</time>
      </trkpt>
      <trkpt lat="43.71638" lon="3.2846">
        <ele>481.60000610352</ele>
        <time>2023-05-27T06:47:50.000Z</time>
      </trkpt>
      <trkpt lat="43.71639" lon="3.2846">
        <ele>481.60000610352</ele>
        <time>2023-05-27T06:47:51.000Z</time>
      </trkpt>
      <trkpt lat="43.71641" lon="3.28464">
        <ele>482</ele>
        <time>2023-05-27T06:47:55.000Z</time>
      </trkpt>
      <trkpt lat="43.71643" lon="3.28466">
        <ele>482</ele>
        <time>2023-05-27T06:47:57.000Z</time>
      </trkpt>
      <trkpt lat="43.71644" lon="3.28467">
        <ele>482</ele>
        <time>2023-05-27T06:47:58.000Z</time>
      </trkpt>
      <trkpt lat="43.71647" lon="3.28473">
        <ele>482.39999389648</ele>
        <time>2023-05-27T06:48:05.000Z</time>
      </trkpt>
      <trkpt lat="43.71652" lon="3.2848">
        <ele>483</ele>
        <time>2023-05-27T06:48:13.000Z</time>
      </trkpt>
      <trkpt lat="43.71653" lon="3.2848">
        <ele>483</ele>
        <time>2023-05-27T06:48:14.000Z</time>
      </trkpt>
      <trkpt lat="43.71656" lon="3.28485">
        <ele>483.39999389648</ele>
        <time>2023-05-27T06:48:20.000Z</time>
      </trkpt>
      <trkpt lat="43.71662" lon="3.28494">
        <ele>484</ele>
        <time>2023-05-27T06:48:30.000Z</time>
      </trkpt>
      <trkpt lat="43.71663" lon="3.28495">
        <ele>484</ele>
        <time>2023-05-27T06:48:31.000Z</time>
      </trkpt>
      <trkpt lat="43.71663" lon="3.28496">
        <ele>484.20001220703</ele>
        <time>2023-05-27T06:48:32.000Z</time>
      </trkpt>
      <trkpt lat="43.71666" lon="3.28498">
        <ele>484.20001220703</ele>
        <time>2023-05-27T06:48:35.000Z</time>
      </trkpt>
      <trkpt lat="43.71667" lon="3.285">
        <ele>484.39999389648</ele>
        <time>2023-05-27T06:48:37.000Z</time>
      </trkpt>
      <trkpt lat="43.71668" lon="3.28501">
        <ele>484.60000610352</ele>
        <time>2023-05-27T06:48:39.000Z</time>
      </trkpt>
      <trkpt lat="43.71672" lon="3.28505">
        <ele>485</ele>
        <time>2023-05-27T06:48:44.000Z</time>
      </trkpt>
      <trkpt lat="43.71672" lon="3.28506">
        <ele>484.79998779297</ele>
        <time>2023-05-27T06:48:45.000Z</time>
      </trkpt>
      <trkpt lat="43.71674" lon="3.28511">
        <ele>485.20001220703</ele>
        <time>2023-05-27T06:48:49.000Z</time>
      </trkpt>
      <trkpt lat="43.71674" lon="3.28512">
        <ele>485.20001220703</ele>
        <time>2023-05-27T06:48:50.000Z</time>
      </trkpt>
      <trkpt lat="43.71675" lon="3.28514">
        <ele>485.39999389648</ele>
        <time>2023-05-27T06:48:52.000Z</time>
      </trkpt>
      <trkpt lat="43.71676" lon="3.28515">
        <ele>485.39999389648</ele>
        <time>2023-05-27T06:48:53.000Z</time>
      </trkpt>
      <trkpt lat="43.71677" lon="3.28519">
        <ele>485.79998779297</ele>
        <time>2023-05-27T06:48:57.000Z</time>
      </trkpt>
      <trkpt lat="43.71678" lon="3.28521">
        <ele>486</ele>
        <time>2023-05-27T06:48:59.000Z</time>
      </trkpt>
      <trkpt lat="43.71679" lon="3.28522">
        <ele>486</ele>
        <time>2023-05-27T06:49:00.000Z</time>
      </trkpt>
      <trkpt lat="43.71681" lon="3.28525">
        <ele>486.20001220703</ele>
        <time>2023-05-27T06:49:03.000Z</time>
      </trkpt>
      <trkpt lat="43.71681" lon="3.28527">
        <ele>486.20001220703</ele>
        <time>2023-05-27T06:49:05.000Z</time>
      </trkpt>
      <trkpt lat="43.71682" lon="3.28527">
        <ele>486.39999389648</ele>
        <time>2023-05-27T06:49:06.000Z</time>
      </trkpt>
      <trkpt lat="43.71687" lon="3.28536">
        <ele>486.79998779297</ele>
        <time>2023-05-27T06:49:15.000Z</time>
      </trkpt>
      <trkpt lat="43.71688" lon="3.28541">
        <ele>487.20001220703</ele>
        <time>2023-05-27T06:49:19.000Z</time>
      </trkpt>
      <trkpt lat="43.71689" lon="3.28542">
        <ele>487.20001220703</ele>
        <time>2023-05-27T06:49:20.000Z</time>
      </trkpt>
      <trkpt lat="43.71689" lon="3.28543">
        <ele>487.20001220703</ele>
        <time>2023-05-27T06:49:21.000Z</time>
      </trkpt>
      <trkpt lat="43.7169" lon="3.28545">
        <ele>487.39999389648</ele>
        <time>2023-05-27T06:49:23.000Z</time>
      </trkpt>
      <trkpt lat="43.71693" lon="3.28552">
        <ele>487.79998779297</ele>
        <time>2023-05-27T06:49:29.000Z</time>
      </trkpt>
      <trkpt lat="43.71693" lon="3.28553">
        <ele>487.79998779297</ele>
        <time>2023-05-27T06:49:30.000Z</time>
      </trkpt>
      <trkpt lat="43.71696" lon="3.28558">
        <ele>488.20001220703</ele>
        <time>2023-05-27T06:49:35.000Z</time>
      </trkpt>
      <trkpt lat="43.71696" lon="3.28559">
        <ele>488.20001220703</ele>
        <time>2023-05-27T06:49:36.000Z</time>
      </trkpt>
      <trkpt lat="43.71697" lon="3.2856">
        <ele>488.20001220703</ele>
        <time>2023-05-27T06:49:37.000Z</time>
      </trkpt>
      <trkpt lat="43.717" lon="3.28572">
        <ele>489</ele>
        <time>2023-05-27T06:49:46.000Z</time>
      </trkpt>
      <trkpt lat="43.71701" lon="3.28576">
        <ele>489.20001220703</ele>
        <time>2023-05-27T06:49:50.000Z</time>
      </trkpt>
      <trkpt lat="43.71702" lon="3.28581">
        <ele>489.20001220703</ele>
        <time>2023-05-27T06:49:54.000Z</time>
      </trkpt>
      <trkpt lat="43.71703" lon="3.28583">
        <ele>490</ele>
        <time>2023-05-27T06:50:01.000Z</time>
      </trkpt>
      <trkpt lat="43.71703" lon="3.28583">
        <ele>490.20001220703</ele>
        <time>2023-05-27T06:50:03.000Z</time>
      </trkpt>
      <trkpt lat="43.71708" lon="3.28585">
        <ele>489.60000610352</ele>
        <time>2023-05-27T06:50:08.000Z</time>
      </trkpt>
      <trkpt lat="43.71711" lon="3.2858">
        <ele>490.20001220703</ele>
        <time>2023-05-27T06:50:16.000Z</time>
      </trkpt>
      <trkpt lat="43.7171" lon="3.28572">
        <ele>491</ele>
        <time>2023-05-27T06:50:23.000Z</time>
      </trkpt>
      <trkpt lat="43.71709" lon="3.28568">
        <ele>491.20001220703</ele>
        <time>2023-05-27T06:50:27.000Z</time>
      </trkpt>
      <trkpt lat="43.71708" lon="3.28563">
        <ele>491.60000610352</ele>
        <time>2023-05-27T06:50:31.000Z</time>
      </trkpt>
      <trkpt lat="43.71703" lon="3.28551">
        <ele>492.20001220703</ele>
        <time>2023-05-27T06:50:41.000Z</time>
      </trkpt>
      <trkpt lat="43.71703" lon="3.2855">
        <ele>492.20001220703</ele>
        <time>2023-05-27T06:50:42.000Z</time>
      </trkpt>
      <trkpt lat="43.71702" lon="3.28546">
        <ele>492.60000610352</ele>
        <time>2023-05-27T06:50:46.000Z</time>
      </trkpt>
      <trkpt lat="43.71701" lon="3.28544">
        <ele>492.60000610352</ele>
        <time>2023-05-27T06:50:48.000Z</time>
      </trkpt>
      <trkpt lat="43.717" lon="3.28543">
        <ele>492.79998779297</ele>
        <time>2023-05-27T06:50:50.000Z</time>
      </trkpt>
      <trkpt lat="43.717" lon="3.28542">
        <ele>493</ele>
        <time>2023-05-27T06:50:51.000Z</time>
      </trkpt>
      <trkpt lat="43.71699" lon="3.28541">
        <ele>493</ele>
        <time>2023-05-27T06:50:55.000Z</time>
      </trkpt>
      <trkpt lat="43.71698" lon="3.28539">
        <ele>493.20001220703</ele>
        <time>2023-05-27T06:51:11.000Z</time>
      </trkpt>
      <trkpt lat="43.71697" lon="3.28538">
        <ele>493.39999389648</ele>
        <time>2023-05-27T06:51:13.000Z</time>
      </trkpt>
      <trkpt lat="43.71697" lon="3.28534">
        <ele>493.20001220703</ele>
        <time>2023-05-27T06:51:17.000Z</time>
      </trkpt>
      <trkpt lat="43.71696" lon="3.28528">
        <ele>493.60000610352</ele>
        <time>2023-05-27T06:51:22.000Z</time>
      </trkpt>
      <trkpt lat="43.71694" lon="3.28524">
        <ele>494</ele>
        <time>2023-05-27T06:51:26.000Z</time>
      </trkpt>
      <trkpt lat="43.71694" lon="3.28523">
        <ele>494</ele>
        <time>2023-05-27T06:51:27.000Z</time>
      </trkpt>
      <trkpt lat="43.71692" lon="3.28517">
        <ele>494.20001220703</ele>
        <time>2023-05-27T06:51:32.000Z</time>
      </trkpt>
      <trkpt lat="43.71691" lon="3.28516">
        <ele>494.20001220703</ele>
        <time>2023-05-27T06:51:33.000Z</time>
      </trkpt>
      <trkpt lat="43.7169" lon="3.28513">
        <ele>494.39999389648</ele>
        <time>2023-05-27T06:51:36.000Z</time>
      </trkpt>
      <trkpt lat="43.7169" lon="3.28512">
        <ele>494.39999389648</ele>
        <time>2023-05-27T06:51:37.000Z</time>
      </trkpt>
      <trkpt lat="43.7169" lon="3.2851">
        <ele>494.39999389648</ele>
        <time>2023-05-27T06:51:38.000Z</time>
      </trkpt>
      <trkpt lat="43.71687" lon="3.28501">
        <ele>494.79998779297</ele>
        <time>2023-05-27T06:51:45.000Z</time>
      </trkpt>
      <trkpt lat="43.71685" lon="3.28491">
        <ele>495.39999389648</ele>
        <time>2023-05-27T06:51:53.000Z</time>
      </trkpt>
      <trkpt lat="43.71684" lon="3.2849">
        <ele>495.39999389648</ele>
        <time>2023-05-27T06:51:54.000Z</time>
      </trkpt>
      <trkpt lat="43.71683" lon="3.28483">
        <ele>495.79998779297</ele>
        <time>2023-05-27T06:51:59.000Z</time>
      </trkpt>
      <trkpt lat="43.71682" lon="3.28482">
        <ele>495.79998779297</ele>
        <time>2023-05-27T06:52:00.000Z</time>
      </trkpt>
      <trkpt lat="43.71681" lon="3.28478">
        <ele>496.20001220703</ele>
        <time>2023-05-27T06:52:03.000Z</time>
      </trkpt>
      <trkpt lat="43.7168" lon="3.28476">
        <ele>496.39999389648</ele>
        <time>2023-05-27T06:52:05.000Z</time>
      </trkpt>
      <trkpt lat="43.71679" lon="3.28473">
        <ele>496.60000610352</ele>
        <time>2023-05-27T06:52:07.000Z</time>
      </trkpt>
      <trkpt lat="43.71676" lon="3.28466">
        <ele>497</ele>
        <time>2023-05-27T06:52:13.000Z</time>
      </trkpt>
      <trkpt lat="43.71676" lon="3.28464">
        <ele>497</ele>
        <time>2023-05-27T06:52:14.000Z</time>
      </trkpt>
      <trkpt lat="43.71674" lon="3.28461">
        <ele>497.39999389648</ele>
        <time>2023-05-27T06:52:17.000Z</time>
      </trkpt>
      <trkpt lat="43.71673" lon="3.28457">
        <ele>497.60000610352</ele>
        <time>2023-05-27T06:52:20.000Z</time>
      </trkpt>
      <trkpt lat="43.7167" lon="3.2845">
        <ele>498.20001220703</ele>
        <time>2023-05-27T06:52:26.000Z</time>
      </trkpt>
      <trkpt lat="43.71669" lon="3.28447">
        <ele>498.60000610352</ele>
        <time>2023-05-27T06:52:29.000Z</time>
      </trkpt>
      <trkpt lat="43.71667" lon="3.28443">
        <ele>499.20001220703</ele>
        <time>2023-05-27T06:52:34.000Z</time>
      </trkpt>
      <trkpt lat="43.71665" lon="3.28442">
        <ele>499.39999389648</ele>
        <time>2023-05-27T06:52:42.000Z</time>
      </trkpt>
      <trkpt lat="43.71665" lon="3.28441">
        <ele>498.79998779297</ele>
        <time>2023-05-27T06:52:50.000Z</time>
      </trkpt>
      <trkpt lat="43.71665" lon="3.28439">
        <ele>499.60000610352</ele>
        <time>2023-05-27T06:53:03.000Z</time>
      </trkpt>
      <trkpt lat="43.71664" lon="3.2844">
        <ele>499.79998779297</ele>
        <time>2023-05-27T06:53:05.000Z</time>
      </trkpt>
      <trkpt lat="43.71665" lon="3.28439">
        <ele>500.39999389648</ele>
        <time>2023-05-27T06:53:13.000Z</time>
      </trkpt>
      <trkpt lat="43.71666" lon="3.28439">
        <ele>499.79998779297</ele>
        <time>2023-05-27T06:53:24.000Z</time>
      </trkpt>
      <trkpt lat="43.71666" lon="3.28438">
        <ele>499.79998779297</ele>
        <time>2023-05-27T06:53:33.000Z</time>
      </trkpt>
      <trkpt lat="43.71666" lon="3.2844">
        <ele>499.60000610352</ele>
        <time>2023-05-27T06:53:41.000Z</time>
      </trkpt>
      <trkpt lat="43.71667" lon="3.2844">
        <ele>499.60000610352</ele>
        <time>2023-05-27T06:53:53.000Z</time>
      </trkpt>
      <trkpt lat="43.71664" lon="3.28432">
        <ele>499.60000610352</ele>
        <time>2023-05-27T06:54:00.000Z</time>
      </trkpt>
      <trkpt lat="43.71659" lon="3.28423">
        <ele>500.39999389648</ele>
        <time>2023-05-27T06:54:09.000Z</time>
      </trkpt>
      <trkpt lat="43.71658" lon="3.28421">
        <ele>500.60000610352</ele>
        <time>2023-05-27T06:54:11.000Z</time>
      </trkpt>
      <trkpt lat="43.71655" lon="3.28419">
        <ele>500.60000610352</ele>
        <time>2023-05-27T06:54:15.000Z</time>
      </trkpt>
      <trkpt lat="43.71654" lon="3.28417">
        <ele>500.79998779297</ele>
        <time>2023-05-27T06:54:16.000Z</time>
      </trkpt>
      <trkpt lat="43.71651" lon="3.28413">
        <ele>501.20001220703</ele>
        <time>2023-05-27T06:54:20.000Z</time>
      </trkpt>
      <trkpt lat="43.71647" lon="3.2841">
        <ele>501.79998779297</ele>
        <time>2023-05-27T06:54:25.000Z</time>
      </trkpt>
      <trkpt lat="43.71647" lon="3.28409">
        <ele>501.79998779297</ele>
        <time>2023-05-27T06:54:26.000Z</time>
      </trkpt>
      <trkpt lat="43.71645" lon="3.28407">
        <ele>502</ele>
        <time>2023-05-27T06:54:28.000Z</time>
      </trkpt>
      <trkpt lat="43.71642" lon="3.28404">
        <ele>502.20001220703</ele>
        <time>2023-05-27T06:54:32.000Z</time>
      </trkpt>
      <trkpt lat="43.71639" lon="3.28402">
        <ele>502.20001220703</ele>
        <time>2023-05-27T06:54:34.000Z</time>
      </trkpt>
      <trkpt lat="43.71636" lon="3.284">
        <ele>502.60000610352</ele>
        <time>2023-05-27T06:54:37.000Z</time>
      </trkpt>
      <trkpt lat="43.71634" lon="3.28398">
        <ele>502.60000610352</ele>
        <time>2023-05-27T06:54:39.000Z</time>
      </trkpt>
      <trkpt lat="43.71632" lon="3.28397">
        <ele>502.79998779297</ele>
        <time>2023-05-27T06:54:41.000Z</time>
      </trkpt>
      <trkpt lat="43.71632" lon="3.28396">
        <ele>502.79998779297</ele>
        <time>2023-05-27T06:54:42.000Z</time>
      </trkpt>
      <trkpt lat="43.71631" lon="3.28394">
        <ele>503</ele>
        <time>2023-05-27T06:54:44.000Z</time>
      </trkpt>
      <trkpt lat="43.71627" lon="3.28391">
        <ele>503.39999389648</ele>
        <time>2023-05-27T06:54:49.000Z</time>
      </trkpt>
      <trkpt lat="43.71624" lon="3.28385">
        <ele>503.79998779297</ele>
        <time>2023-05-27T06:54:55.000Z</time>
      </trkpt>
      <trkpt lat="43.71623" lon="3.28384">
        <ele>503.79998779297</ele>
        <time>2023-05-27T06:54:56.000Z</time>
      </trkpt>
      <trkpt lat="43.71622" lon="3.28381">
        <ele>504</ele>
        <time>2023-05-27T06:54:59.000Z</time>
      </trkpt>
      <trkpt lat="43.71622" lon="3.28378">
        <ele>504.20001220703</ele>
        <time>2023-05-27T06:55:01.000Z</time>
      </trkpt>
      <trkpt lat="43.71622" lon="3.28376">
        <ele>504.20001220703</ele>
        <time>2023-05-27T06:55:03.000Z</time>
      </trkpt>
      <trkpt lat="43.71619" lon="3.28375">
        <ele>504.39999389648</ele>
        <time>2023-05-27T06:55:07.000Z</time>
      </trkpt>
      <trkpt lat="43.71617" lon="3.28372">
        <ele>504.60000610352</ele>
        <time>2023-05-27T06:55:10.000Z</time>
      </trkpt>
      <trkpt lat="43.71617" lon="3.28371">
        <ele>504.79998779297</ele>
        <time>2023-05-27T06:55:11.000Z</time>
      </trkpt>
      <trkpt lat="43.71616" lon="3.2837">
        <ele>504.79998779297</ele>
        <time>2023-05-27T06:55:12.000Z</time>
      </trkpt>
      <trkpt lat="43.71615" lon="3.28365">
        <ele>505</ele>
        <time>2023-05-27T06:55:16.000Z</time>
      </trkpt>
      <trkpt lat="43.71616" lon="3.28362">
        <ele>505</ele>
        <time>2023-05-27T06:55:18.000Z</time>
      </trkpt>
      <trkpt lat="43.71616" lon="3.28358">
        <ele>505.39999389648</ele>
        <time>2023-05-27T06:55:21.000Z</time>
      </trkpt>
      <trkpt lat="43.71615" lon="3.28357">
        <ele>505.39999389648</ele>
        <time>2023-05-27T06:55:22.000Z</time>
      </trkpt>
      <trkpt lat="43.71613" lon="3.28349">
        <ele>505.79998779297</ele>
        <time>2023-05-27T06:55:30.000Z</time>
      </trkpt>
      <trkpt lat="43.71613" lon="3.28348">
        <ele>506</ele>
        <time>2023-05-27T06:55:31.000Z</time>
      </trkpt>
      <trkpt lat="43.7161" lon="3.28342">
        <ele>506.60000610352</ele>
        <time>2023-05-27T06:55:38.000Z</time>
      </trkpt>
      <trkpt lat="43.71606" lon="3.28334">
        <ele>506.60000610352</ele>
        <time>2023-05-27T06:55:47.000Z</time>
      </trkpt>
      <trkpt lat="43.71605" lon="3.28331">
        <ele>506.79998779297</ele>
        <time>2023-05-27T06:55:50.000Z</time>
      </trkpt>
      <trkpt lat="43.71604" lon="3.2833">
        <ele>507</ele>
        <time>2023-05-27T06:55:51.000Z</time>
      </trkpt>
      <trkpt lat="43.71601" lon="3.28327">
        <ele>507.20001220703</ele>
        <time>2023-05-27T06:55:55.000Z</time>
      </trkpt>
      <trkpt lat="43.71594" lon="3.28321">
        <ele>508</ele>
        <time>2023-05-27T06:56:03.000Z</time>
      </trkpt>
      <trkpt lat="43.71592" lon="3.28318">
        <ele>508.39999389648</ele>
        <time>2023-05-27T06:56:07.000Z</time>
      </trkpt>
      <trkpt lat="43.71589" lon="3.28316">
        <ele>508.60000610352</ele>
        <time>2023-05-27T06:56:11.000Z</time>
      </trkpt>
      <trkpt lat="43.71584" lon="3.28314">
        <ele>509</ele>
        <time>2023-05-27T06:56:17.000Z</time>
      </trkpt>
      <trkpt lat="43.71583" lon="3.28313">
        <ele>509.20001220703</ele>
        <time>2023-05-27T06:56:19.000Z</time>
      </trkpt>
      <trkpt lat="43.71575" lon="3.28311">
        <ele>509.79998779297</ele>
        <time>2023-05-27T06:56:28.000Z</time>
      </trkpt>
      <trkpt lat="43.71571" lon="3.28309">
        <ele>510</ele>
        <time>2023-05-27T06:56:32.000Z</time>
      </trkpt>
      <trkpt lat="43.7157" lon="3.28309">
        <ele>510.20001220703</ele>
        <time>2023-05-27T06:56:34.000Z</time>
      </trkpt>
      <trkpt lat="43.71567" lon="3.28308">
        <ele>510.39999389648</ele>
        <time>2023-05-27T06:56:37.000Z</time>
      </trkpt>
      <trkpt lat="43.71563" lon="3.28306">
        <ele>510.79998779297</ele>
        <time>2023-05-27T06:56:42.000Z</time>
      </trkpt>
      <trkpt lat="43.71561" lon="3.28307">
        <ele>511.20001220703</ele>
        <time>2023-05-27T06:56:45.000Z</time>
      </trkpt>
      <trkpt lat="43.7156" lon="3.28306">
        <ele>511.20001220703</ele>
        <time>2023-05-27T06:56:46.000Z</time>
      </trkpt>
      <trkpt lat="43.71557" lon="3.28305">
        <ele>511.20001220703</ele>
        <time>2023-05-27T06:56:49.000Z</time>
      </trkpt>
      <trkpt lat="43.7155" lon="3.28303">
        <ele>511.60000610352</ele>
        <time>2023-05-27T06:56:56.000Z</time>
      </trkpt>
      <trkpt lat="43.71544" lon="3.283">
        <ele>512</ele>
        <time>2023-05-27T06:57:04.000Z</time>
      </trkpt>
      <trkpt lat="43.71542" lon="3.283">
        <ele>512.20001220703</ele>
        <time>2023-05-27T06:57:07.000Z</time>
      </trkpt>
      <trkpt lat="43.71539" lon="3.28299">
        <ele>512.40002441406</ele>
        <time>2023-05-27T06:57:10.000Z</time>
      </trkpt>
      <trkpt lat="43.71539" lon="3.28298">
        <ele>512.59997558594</ele>
        <time>2023-05-27T06:57:11.000Z</time>
      </trkpt>
      <trkpt lat="43.71536" lon="3.28298">
        <ele>513</ele>
        <time>2023-05-27T06:57:18.000Z</time>
      </trkpt>
      <trkpt lat="43.71533" lon="3.28296">
        <ele>513.20001220703</ele>
        <time>2023-05-27T06:57:26.000Z</time>
      </trkpt>
      <trkpt lat="43.71526" lon="3.28292">
        <ele>513.40002441406</ele>
        <time>2023-05-27T06:57:35.000Z</time>
      </trkpt>
      <trkpt lat="43.71519" lon="3.28289">
        <ele>513.79998779297</ele>
        <time>2023-05-27T06:57:43.000Z</time>
      </trkpt>
      <trkpt lat="43.71514" lon="3.28288">
        <ele>514.20001220703</ele>
        <time>2023-05-27T06:57:48.000Z</time>
      </trkpt>
      <trkpt lat="43.71511" lon="3.28287">
        <ele>514.40002441406</ele>
        <time>2023-05-27T06:57:52.000Z</time>
      </trkpt>
      <trkpt lat="43.71502" lon="3.28283">
        <ele>515.20001220703</ele>
        <time>2023-05-27T06:58:02.000Z</time>
      </trkpt>
      <trkpt lat="43.71494" lon="3.2828">
        <ele>516</ele>
        <time>2023-05-27T06:58:13.000Z</time>
      </trkpt>
      <trkpt lat="43.71493" lon="3.28279">
        <ele>516.20001220703</ele>
        <time>2023-05-27T06:58:14.000Z</time>
      </trkpt>
      <trkpt lat="43.71486" lon="3.28276">
        <ele>516.59997558594</ele>
        <time>2023-05-27T06:58:23.000Z</time>
      </trkpt>
      <trkpt lat="43.71482" lon="3.28274">
        <ele>517</ele>
        <time>2023-05-27T06:58:28.000Z</time>
      </trkpt>
      <trkpt lat="43.71476" lon="3.28271">
        <ele>517.20001220703</ele>
        <time>2023-05-27T06:58:35.000Z</time>
      </trkpt>
      <trkpt lat="43.71475" lon="3.2827">
        <ele>517.40002441406</ele>
        <time>2023-05-27T06:58:37.000Z</time>
      </trkpt>
      <trkpt lat="43.71473" lon="3.2827">
        <ele>517.59997558594</ele>
        <time>2023-05-27T06:58:44.000Z</time>
      </trkpt>
      <trkpt lat="43.71465" lon="3.28267">
        <ele>518</ele>
        <time>2023-05-27T06:58:53.000Z</time>
      </trkpt>
      <trkpt lat="43.71462" lon="3.28266">
        <ele>518.20001220703</ele>
        <time>2023-05-27T06:58:57.000Z</time>
      </trkpt>
      <trkpt lat="43.71457" lon="3.28264">
        <ele>518.59997558594</ele>
        <time>2023-05-27T06:59:02.000Z</time>
      </trkpt>
      <trkpt lat="43.71448" lon="3.28264">
        <ele>519</ele>
        <time>2023-05-27T06:59:11.000Z</time>
      </trkpt>
      <trkpt lat="43.71442" lon="3.28264">
        <ele>519.20001220703</ele>
        <time>2023-05-27T06:59:18.000Z</time>
      </trkpt>
      <trkpt lat="43.7144" lon="3.28264">
        <ele>519.20001220703</ele>
        <time>2023-05-27T06:59:20.000Z</time>
      </trkpt>
      <trkpt lat="43.71435" lon="3.28265">
        <ele>520</ele>
        <time>2023-05-27T06:59:26.000Z</time>
      </trkpt>
      <trkpt lat="43.71431" lon="3.28266">
        <ele>520.40002441406</ele>
        <time>2023-05-27T06:59:30.000Z</time>
      </trkpt>
      <trkpt lat="43.71429" lon="3.28266">
        <ele>520.59997558594</ele>
        <time>2023-05-27T06:59:33.000Z</time>
      </trkpt>
      <trkpt lat="43.71423" lon="3.28266">
        <ele>520.79998779297</ele>
        <time>2023-05-27T06:59:39.000Z</time>
      </trkpt>
      <trkpt lat="43.71421" lon="3.28267">
        <ele>521.40002441406</ele>
        <time>2023-05-27T06:59:42.000Z</time>
      </trkpt>
      <trkpt lat="43.71415" lon="3.28268">
        <ele>521.79998779297</ele>
        <time>2023-05-27T06:59:48.000Z</time>
      </trkpt>
      <trkpt lat="43.71406" lon="3.28267">
        <ele>522.20001220703</ele>
        <time>2023-05-27T06:59:58.000Z</time>
      </trkpt>
      <trkpt lat="43.71404" lon="3.28267">
        <ele>522.59997558594</ele>
        <time>2023-05-27T07:00:00.000Z</time>
      </trkpt>
      <trkpt lat="43.71399" lon="3.28268">
        <ele>522.79998779297</ele>
        <time>2023-05-27T07:00:06.000Z</time>
      </trkpt>
      <trkpt lat="43.71389" lon="3.28268">
        <ele>523.20001220703</ele>
        <time>2023-05-27T07:00:16.000Z</time>
      </trkpt>
      <trkpt lat="43.71384" lon="3.28268">
        <ele>523.59997558594</ele>
        <time>2023-05-27T07:00:21.000Z</time>
      </trkpt>
      <trkpt lat="43.71381" lon="3.28266">
        <ele>524</ele>
        <time>2023-05-27T07:00:25.000Z</time>
      </trkpt>
      <trkpt lat="43.71374" lon="3.28264">
        <ele>524.59997558594</ele>
        <time>2023-05-27T07:00:33.000Z</time>
      </trkpt>
      <trkpt lat="43.71373" lon="3.28264">
        <ele>524.59997558594</ele>
        <time>2023-05-27T07:00:34.000Z</time>
      </trkpt>
      <trkpt lat="43.71369" lon="3.28263">
        <ele>525</ele>
        <time>2023-05-27T07:00:38.000Z</time>
      </trkpt>
      <trkpt lat="43.71368" lon="3.28263">
        <ele>525.40002441406</ele>
        <time>2023-05-27T07:00:42.000Z</time>
      </trkpt>
      <trkpt lat="43.71368" lon="3.28263">
        <ele>525.59997558594</ele>
        <time>2023-05-27T07:00:44.000Z</time>
      </trkpt>
      <trkpt lat="43.71363" lon="3.28261">
        <ele>525.59997558594</ele>
        <time>2023-05-27T07:00:50.000Z</time>
      </trkpt>
      <trkpt lat="43.71354" lon="3.2826">
        <ele>525.79998779297</ele>
        <time>2023-05-27T07:00:59.000Z</time>
      </trkpt>
      <trkpt lat="43.71348" lon="3.28259">
        <ele>526.40002441406</ele>
        <time>2023-05-27T07:01:05.000Z</time>
      </trkpt>
      <trkpt lat="43.71347" lon="3.28259">
        <ele>526.59997558594</ele>
        <time>2023-05-27T07:01:06.000Z</time>
      </trkpt>
      <trkpt lat="43.71346" lon="3.28259">
        <ele>526.79998779297</ele>
        <time>2023-05-27T07:01:07.000Z</time>
      </trkpt>
      <trkpt lat="43.71338" lon="3.28257">
        <ele>527.20001220703</ele>
        <time>2023-05-27T07:01:16.000Z</time>
      </trkpt>
      <trkpt lat="43.71331" lon="3.28255">
        <ele>527.59997558594</ele>
        <time>2023-05-27T07:01:24.000Z</time>
      </trkpt>
      <trkpt lat="43.71321" lon="3.28253">
        <ele>528.40002441406</ele>
        <time>2023-05-27T07:01:34.000Z</time>
      </trkpt>
      <trkpt lat="43.71318" lon="3.28252">
        <ele>528.59997558594</ele>
        <time>2023-05-27T07:01:37.000Z</time>
      </trkpt>
      <trkpt lat="43.71317" lon="3.28252">
        <ele>528.59997558594</ele>
        <time>2023-05-27T07:01:38.000Z</time>
      </trkpt>
      <trkpt lat="43.71314" lon="3.28252">
        <ele>529</ele>
        <time>2023-05-27T07:01:41.000Z</time>
      </trkpt>
      <trkpt lat="43.71307" lon="3.28248">
        <ele>529.79998779297</ele>
        <time>2023-05-27T07:01:49.000Z</time>
      </trkpt>
      <trkpt lat="43.71299" lon="3.28244">
        <ele>530.59997558594</ele>
        <time>2023-05-27T07:01:59.000Z</time>
      </trkpt>
      <trkpt lat="43.71297" lon="3.28244">
        <ele>530.79998779297</ele>
        <time>2023-05-27T07:02:01.000Z</time>
      </trkpt>
      <trkpt lat="43.71294" lon="3.28242">
        <ele>531</ele>
        <time>2023-05-27T07:02:05.000Z</time>
      </trkpt>
      <trkpt lat="43.71291" lon="3.28242">
        <ele>531.20001220703</ele>
        <time>2023-05-27T07:02:08.000Z</time>
      </trkpt>
      <trkpt lat="43.71281" lon="3.28238">
        <ele>531.59997558594</ele>
        <time>2023-05-27T07:02:19.000Z</time>
      </trkpt>
      <trkpt lat="43.71278" lon="3.28237">
        <ele>531.79998779297</ele>
        <time>2023-05-27T07:02:22.000Z</time>
      </trkpt>
      <trkpt lat="43.71272" lon="3.28235">
        <ele>532.20001220703</ele>
        <time>2023-05-27T07:02:28.000Z</time>
      </trkpt>
      <trkpt lat="43.71267" lon="3.28233">
        <ele>532.79998779297</ele>
        <time>2023-05-27T07:02:34.000Z</time>
      </trkpt>
      <trkpt lat="43.71266" lon="3.28233">
        <ele>533</ele>
        <time>2023-05-27T07:02:35.000Z</time>
      </trkpt>
      <trkpt lat="43.71264" lon="3.28232">
        <ele>533.20001220703</ele>
        <time>2023-05-27T07:02:37.000Z</time>
      </trkpt>
      <trkpt lat="43.71262" lon="3.28231">
        <ele>533.59997558594</ele>
        <time>2023-05-27T07:02:40.000Z</time>
      </trkpt>
      <trkpt lat="43.71259" lon="3.28228">
        <ele>533.79998779297</ele>
        <time>2023-05-27T07:02:44.000Z</time>
      </trkpt>
      <trkpt lat="43.71258" lon="3.28228">
        <ele>533.79998779297</ele>
        <time>2023-05-27T07:02:45.000Z</time>
      </trkpt>
      <trkpt lat="43.71257" lon="3.28227">
        <ele>533.79998779297</ele>
        <time>2023-05-27T07:02:46.000Z</time>
      </trkpt>
      <trkpt lat="43.71252" lon="3.2822">
        <ele>534.40002441406</ele>
        <time>2023-05-27T07:02:54.000Z</time>
      </trkpt>
      <trkpt lat="43.7125" lon="3.28214">
        <ele>535</ele>
        <time>2023-05-27T07:02:59.000Z</time>
      </trkpt>
      <trkpt lat="43.71249" lon="3.28211">
        <ele>535</ele>
        <time>2023-05-27T07:03:01.000Z</time>
      </trkpt>
      <trkpt lat="43.7125" lon="3.28201">
        <ele>535.40002441406</ele>
        <time>2023-05-27T07:03:08.000Z</time>
      </trkpt>
      <trkpt lat="43.71255" lon="3.28192">
        <ele>535.79998779297</ele>
        <time>2023-05-27T07:03:17.000Z</time>
      </trkpt>
      <trkpt lat="43.71257" lon="3.28191">
        <ele>536</ele>
        <time>2023-05-27T07:03:20.000Z</time>
      </trkpt>
      <trkpt lat="43.71257" lon="3.28191">
        <ele>536</ele>
        <time>2023-05-27T07:03:24.000Z</time>
      </trkpt>
      <trkpt lat="43.71257" lon="3.28191">
        <ele>536</ele>
        <time>2023-05-27T07:03:32.000Z</time>
      </trkpt>
      <trkpt lat="43.71256" lon="3.28189">
        <ele>536.20001220703</ele>
        <time>2023-05-27T07:03:38.000Z</time>
      </trkpt>
      <trkpt lat="43.71253" lon="3.28187">
        <ele>536</ele>
        <time>2023-05-27T07:03:48.000Z</time>
      </trkpt>
      <trkpt lat="43.71255" lon="3.28191">
        <ele>536</ele>
        <time>2023-05-27T07:03:56.000Z</time>
      </trkpt>
      <trkpt lat="43.71254" lon="3.28193">
        <ele>536</ele>
        <time>2023-05-27T07:04:06.000Z</time>
      </trkpt>
      <trkpt lat="43.71254" lon="3.28192">
        <ele>536.20001220703</ele>
        <time>2023-05-27T07:04:13.000Z</time>
      </trkpt>
      <trkpt lat="43.71254" lon="3.28191">
        <ele>536.40002441406</ele>
        <time>2023-05-27T07:04:25.000Z</time>
      </trkpt>
      <trkpt lat="43.7126" lon="3.28185">
        <ele>536.20001220703</ele>
        <time>2023-05-27T07:04:33.000Z</time>
      </trkpt>
      <trkpt lat="43.71261" lon="3.28185">
        <ele>536.20001220703</ele>
        <time>2023-05-27T07:04:39.000Z</time>
      </trkpt>
      <trkpt lat="43.7126" lon="3.28185">
        <ele>536.40002441406</ele>
        <time>2023-05-27T07:04:59.000Z</time>
      </trkpt>
      <trkpt lat="43.7126" lon="3.28187">
        <ele>536.40002441406</ele>
        <time>2023-05-27T07:05:09.000Z</time>
      </trkpt>
      <trkpt lat="43.71258" lon="3.28181">
        <ele>536.59997558594</ele>
        <time>2023-05-27T07:05:16.000Z</time>
      </trkpt>
      <trkpt lat="43.71255" lon="3.28183">
        <ele>536.40002441406</ele>
        <time>2023-05-27T07:05:23.000Z</time>
      </trkpt>
      <trkpt lat="43.71253" lon="3.28183">
        <ele>536.40002441406</ele>
        <time>2023-05-27T07:05:30.000Z</time>
      </trkpt>
      <trkpt lat="43.71251" lon="3.28183">
        <ele>536.40002441406</ele>
        <time>2023-05-27T07:05:40.000Z</time>
      </trkpt>
      <trkpt lat="43.71251" lon="3.28184">
        <ele>536.59997558594</ele>
        <time>2023-05-27T07:05:50.000Z</time>
      </trkpt>
      <trkpt lat="43.71253" lon="3.2819">
        <ele>536.20001220703</ele>
        <time>2023-05-27T07:05:56.000Z</time>
      </trkpt>
      <trkpt lat="43.71254" lon="3.2819">
        <ele>536.40002441406</ele>
        <time>2023-05-27T07:06:03.000Z</time>
      </trkpt>
      <trkpt lat="43.71253" lon="3.28191">
        <ele>536.40002441406</ele>
        <time>2023-05-27T07:06:08.000Z</time>
      </trkpt>
      <trkpt lat="43.71253" lon="3.28192">
        <ele>536.79998779297</ele>
        <time>2023-05-27T07:06:16.000Z</time>
      </trkpt>
      <trkpt lat="43.71253" lon="3.28192">
        <ele>537</ele>
        <time>2023-05-27T07:06:18.000Z</time>
      </trkpt>
      <trkpt lat="43.71253" lon="3.28192">
        <ele>536.79998779297</ele>
        <time>2023-05-27T07:06:22.000Z</time>
      </trkpt>
      <trkpt lat="43.71253" lon="3.28193">
        <ele>536.79998779297</ele>
        <time>2023-05-27T07:06:29.000Z</time>
      </trkpt>
      <trkpt lat="43.71253" lon="3.28192">
        <ele>536.40002441406</ele>
        <time>2023-05-27T07:06:37.000Z</time>
      </trkpt>
      <trkpt lat="43.71252" lon="3.28192">
        <ele>536.40002441406</ele>
        <time>2023-05-27T07:06:45.000Z</time>
      </trkpt>
      <trkpt lat="43.71252" lon="3.28191">
        <ele>537</ele>
        <time>2023-05-27T07:06:58.000Z</time>
      </trkpt>
      <trkpt lat="43.71252" lon="3.28191">
        <ele>536.59997558594</ele>
        <time>2023-05-27T07:07:06.000Z</time>
      </trkpt>
      <trkpt lat="43.7125" lon="3.2819">
        <ele>536.40002441406</ele>
        <time>2023-05-27T07:07:30.000Z</time>
      </trkpt>
      <trkpt lat="43.71251" lon="3.28191">
        <ele>536.40002441406</ele>
        <time>2023-05-27T07:07:35.000Z</time>
      </trkpt>
      <trkpt lat="43.71252" lon="3.28191">
        <ele>536.59997558594</ele>
        <time>2023-05-27T07:07:46.000Z</time>
      </trkpt>
      <trkpt lat="43.71252" lon="3.28191">
        <ele>536.79998779297</ele>
        <time>2023-05-27T07:07:58.000Z</time>
      </trkpt>
      <trkpt lat="43.71252" lon="3.28191">
        <ele>536.79998779297</ele>
        <time>2023-05-27T07:08:13.000Z</time>
      </trkpt>
      <trkpt lat="43.71252" lon="3.28192">
        <ele>536.40002441406</ele>
        <time>2023-05-27T07:08:38.000Z</time>
      </trkpt>
      <trkpt lat="43.71252" lon="3.28192">
        <ele>536.40002441406</ele>
        <time>2023-05-27T07:08:56.000Z</time>
      </trkpt>
      <trkpt lat="43.71252" lon="3.28192">
        <ele>536.79998779297</ele>
        <time>2023-05-27T07:09:15.000Z</time>
      </trkpt>
      <trkpt lat="43.71253" lon="3.28193">
        <ele>536.59997558594</ele>
        <time>2023-05-27T07:09:44.000Z</time>
      </trkpt>
      <trkpt lat="43.71253" lon="3.28193">
        <ele>536.40002441406</ele>
        <time>2023-05-27T07:09:56.000Z</time>
      </trkpt>
      <trkpt lat="43.71253" lon="3.28193">
        <ele>535.79998779297</ele>
        <time>2023-05-27T07:10:01.000Z</time>
      </trkpt>
      <trkpt lat="43.71253" lon="3.28194">
        <ele>536.79998779297</ele>
        <time>2023-05-27T07:10:03.000Z</time>
      </trkpt>
      <trkpt lat="43.71253" lon="3.28194">
        <ele>538.79998779297</ele>
        <time>2023-05-27T07:10:05.000Z</time>
      </trkpt>
      <trkpt lat="43.71253" lon="3.28194">
        <ele>537.59997558594</ele>
        <time>2023-05-27T07:10:06.000Z</time>
      </trkpt>
      <trkpt lat="43.71252" lon="3.28195">
        <ele>538.20001220703</ele>
        <time>2023-05-27T07:10:17.000Z</time>
      </trkpt>
      <trkpt lat="43.71252" lon="3.28195">
        <ele>538.59997558594</ele>
        <time>2023-05-27T07:10:23.000Z</time>
      </trkpt>
      <trkpt lat="43.71251" lon="3.28195">
        <ele>539.20001220703</ele>
        <time>2023-05-27T07:10:36.000Z</time>
      </trkpt>
      <trkpt lat="43.71251" lon="3.28195">
        <ele>539</ele>
        <time>2023-05-27T07:10:47.000Z</time>
      </trkpt>
      <trkpt lat="43.71251" lon="3.28194">
        <ele>538.79998779297</ele>
        <time>2023-05-27T07:10:56.000Z</time>
      </trkpt>
      <trkpt lat="43.71251" lon="3.28192">
        <ele>538.79998779297</ele>
        <time>2023-05-27T07:11:07.000Z</time>
      </trkpt>
      <trkpt lat="43.71251" lon="3.28191">
        <ele>539.20001220703</ele>
        <time>2023-05-27T07:11:13.000Z</time>
      </trkpt>
      <trkpt lat="43.71249" lon="3.28186">
        <ele>539.40002441406</ele>
        <time>2023-05-27T07:11:16.000Z</time>
      </trkpt>
      <trkpt lat="43.71251" lon="3.28187">
        <ele>539</ele>
        <time>2023-05-27T07:11:22.000Z</time>
      </trkpt>
      <trkpt lat="43.71249" lon="3.2819">
        <ele>539.40002441406</ele>
        <time>2023-05-27T07:11:25.000Z</time>
      </trkpt>
      <trkpt lat="43.71248" lon="3.2819">
        <ele>538.59997558594</ele>
        <time>2023-05-27T07:11:32.000Z</time>
      </trkpt>
      <trkpt lat="43.71248" lon="3.28191">
        <ele>537.40002441406</ele>
        <time>2023-05-27T07:11:39.000Z</time>
      </trkpt>
      <trkpt lat="43.71248" lon="3.28191">
        <ele>537</ele>
        <time>2023-05-27T07:11:41.000Z</time>
      </trkpt>
      <trkpt lat="43.71248" lon="3.2819">
        <ele>536.20001220703</ele>
        <time>2023-05-27T07:11:48.000Z</time>
      </trkpt>
      <trkpt lat="43.71248" lon="3.2819">
        <ele>536.20001220703</ele>
        <time>2023-05-27T07:11:49.000Z</time>
      </trkpt>
      <trkpt lat="43.71252" lon="3.28192">
        <ele>536.40002441406</ele>
        <time>2023-05-27T07:11:55.000Z</time>
      </trkpt>
      <trkpt lat="43.71253" lon="3.28192">
        <ele>537.40002441406</ele>
        <time>2023-05-27T07:12:01.000Z</time>
      </trkpt>
      <trkpt lat="43.71254" lon="3.28191">
        <ele>537.79998779297</ele>
        <time>2023-05-27T07:12:03.000Z</time>
      </trkpt>
      <trkpt lat="43.71252" lon="3.2819">
        <ele>537.79998779297</ele>
        <time>2023-05-27T07:12:15.000Z</time>
      </trkpt>
      <trkpt lat="43.71253" lon="3.2819">
        <ele>537.59997558594</ele>
        <time>2023-05-27T07:12:22.000Z</time>
      </trkpt>
      <trkpt lat="43.71252" lon="3.28191">
        <ele>537.79998779297</ele>
        <time>2023-05-27T07:12:34.000Z</time>
      </trkpt>
      <trkpt lat="43.71253" lon="3.28192">
        <ele>537.40002441406</ele>
        <time>2023-05-27T07:12:44.000Z</time>
      </trkpt>
      <trkpt lat="43.7125" lon="3.2819">
        <ele>537.40002441406</ele>
        <time>2023-05-27T07:12:52.000Z</time>
      </trkpt>
      <trkpt lat="43.71252" lon="3.28186">
        <ele>537</ele>
        <time>2023-05-27T07:12:56.000Z</time>
      </trkpt>
      <trkpt lat="43.71252" lon="3.28186">
        <ele>536.40002441406</ele>
        <time>2023-05-27T07:13:03.000Z</time>
      </trkpt>
      <trkpt lat="43.71253" lon="3.28192">
        <ele>536.79998779297</ele>
        <time>2023-05-27T07:13:08.000Z</time>
      </trkpt>
      <trkpt lat="43.71253" lon="3.28193">
        <ele>536.79998779297</ele>
        <time>2023-05-27T07:13:13.000Z</time>
      </trkpt>
      <trkpt lat="43.71253" lon="3.28193">
        <ele>537</ele>
        <time>2023-05-27T07:13:18.000Z</time>
      </trkpt>
      <trkpt lat="43.71253" lon="3.28194">
        <ele>536.79998779297</ele>
        <time>2023-05-27T07:13:26.000Z</time>
      </trkpt>
      <trkpt lat="43.71253" lon="3.28194">
        <ele>537</ele>
        <time>2023-05-27T07:13:42.000Z</time>
      </trkpt>
      <trkpt lat="43.71251" lon="3.28189">
        <ele>537.59997558594</ele>
        <time>2023-05-27T07:13:58.000Z</time>
      </trkpt>
      <trkpt lat="43.71251" lon="3.28189">
        <ele>537.20001220703</ele>
        <time>2023-05-27T07:14:06.000Z</time>
      </trkpt>
      <trkpt lat="43.71252" lon="3.28191">
        <ele>537.20001220703</ele>
        <time>2023-05-27T07:14:15.000Z</time>
      </trkpt>
      <trkpt lat="43.71252" lon="3.28191">
        <ele>537.20001220703</ele>
        <time>2023-05-27T07:14:20.000Z</time>
      </trkpt>
      <trkpt lat="43.71252" lon="3.28191">
        <ele>536.79998779297</ele>
        <time>2023-05-27T07:14:35.000Z</time>
      </trkpt>
      <trkpt lat="43.7125" lon="3.28189">
        <ele>537</ele>
        <time>2023-05-27T07:14:53.000Z</time>
      </trkpt>
      <trkpt lat="43.7125" lon="3.2819">
        <ele>536.79998779297</ele>
        <time>2023-05-27T07:15:18.000Z</time>
      </trkpt>
      <trkpt lat="43.7125" lon="3.28189">
        <ele>537.20001220703</ele>
        <time>2023-05-27T07:15:24.000Z</time>
      </trkpt>
      <trkpt lat="43.7125" lon="3.28188">
        <ele>537</ele>
        <time>2023-05-27T07:15:43.000Z</time>
      </trkpt>
      <trkpt lat="43.7125" lon="3.2819">
        <ele>537.20001220703</ele>
        <time>2023-05-27T07:15:49.000Z</time>
      </trkpt>
      <trkpt lat="43.71251" lon="3.2819">
        <ele>537.40002441406</ele>
        <time>2023-05-27T07:15:57.000Z</time>
      </trkpt>
      <trkpt lat="43.71251" lon="3.28191">
        <ele>537.20001220703</ele>
        <time>2023-05-27T07:16:11.000Z</time>
      </trkpt>
      <trkpt lat="43.71251" lon="3.2819">
        <ele>537</ele>
        <time>2023-05-27T07:16:19.000Z</time>
      </trkpt>
      <trkpt lat="43.71251" lon="3.28191">
        <ele>537.20001220703</ele>
        <time>2023-05-27T07:16:25.000Z</time>
      </trkpt>
      <trkpt lat="43.71251" lon="3.2819">
        <ele>536.79998779297</ele>
        <time>2023-05-27T07:16:33.000Z</time>
      </trkpt>
      <trkpt lat="43.71251" lon="3.28186">
        <ele>537.20001220703</ele>
        <time>2023-05-27T07:16:40.000Z</time>
      </trkpt>
      <trkpt lat="43.71251" lon="3.28186">
        <ele>537.20001220703</ele>
        <time>2023-05-27T07:16:50.000Z</time>
      </trkpt>
      <trkpt lat="43.71251" lon="3.28187">
        <ele>536.59997558594</ele>
        <time>2023-05-27T07:16:56.000Z</time>
      </trkpt>
      <trkpt lat="43.71253" lon="3.28188">
        <ele>536.79998779297</ele>
        <time>2023-05-27T07:17:01.000Z</time>
      </trkpt>
      <trkpt lat="43.71253" lon="3.28191">
        <ele>537.20001220703</ele>
        <time>2023-05-27T07:17:08.000Z</time>
      </trkpt>
      <trkpt lat="43.71255" lon="3.28187">
        <ele>537</ele>
        <time>2023-05-27T07:17:14.000Z</time>
      </trkpt>
      <trkpt lat="43.71257" lon="3.28185">
        <ele>537.40002441406</ele>
        <time>2023-05-27T07:17:21.000Z</time>
      </trkpt>
      <trkpt lat="43.71256" lon="3.28184">
        <ele>537.59997558594</ele>
        <time>2023-05-27T07:17:27.000Z</time>
      </trkpt>
      <trkpt lat="43.71255" lon="3.28183">
        <ele>537.59997558594</ele>
        <time>2023-05-27T07:17:40.000Z</time>
      </trkpt>
      <trkpt lat="43.71255" lon="3.28182">
        <ele>537.79998779297</ele>
        <time>2023-05-27T07:17:47.000Z</time>
      </trkpt>
      <trkpt lat="43.71255" lon="3.28183">
        <ele>537.20001220703</ele>
        <time>2023-05-27T07:17:55.000Z</time>
      </trkpt>
      <trkpt lat="43.71255" lon="3.28182">
        <ele>537.59997558594</ele>
        <time>2023-05-27T07:18:03.000Z</time>
      </trkpt>
      <trkpt lat="43.71254" lon="3.28184">
        <ele>537.20001220703</ele>
        <time>2023-05-27T07:18:11.000Z</time>
      </trkpt>
      <trkpt lat="43.71255" lon="3.28182">
        <ele>537.40002441406</ele>
        <time>2023-05-27T07:18:24.000Z</time>
      </trkpt>
      <trkpt lat="43.71257" lon="3.28183">
        <ele>537.40002441406</ele>
        <time>2023-05-27T07:18:40.000Z</time>
      </trkpt>
      <trkpt lat="43.71256" lon="3.28182">
        <ele>537.40002441406</ele>
        <time>2023-05-27T07:19:01.000Z</time>
      </trkpt>
      <trkpt lat="43.71255" lon="3.28184">
        <ele>537.40002441406</ele>
        <time>2023-05-27T07:19:08.000Z</time>
      </trkpt>
      <trkpt lat="43.71255" lon="3.28183">
        <ele>537.20001220703</ele>
        <time>2023-05-27T07:19:13.000Z</time>
      </trkpt>
      <trkpt lat="43.71257" lon="3.28184">
        <ele>537.20001220703</ele>
        <time>2023-05-27T07:19:19.000Z</time>
      </trkpt>
      <trkpt lat="43.71254" lon="3.28183">
        <ele>537.40002441406</ele>
        <time>2023-05-27T07:19:25.000Z</time>
      </trkpt>
      <trkpt lat="43.71254" lon="3.28185">
        <ele>537.59997558594</ele>
        <time>2023-05-27T07:19:35.000Z</time>
      </trkpt>
      <trkpt lat="43.71252" lon="3.28186">
        <ele>537.59997558594</ele>
        <time>2023-05-27T07:19:42.000Z</time>
      </trkpt>
      <trkpt lat="43.71252" lon="3.28185">
        <ele>537.40002441406</ele>
        <time>2023-05-27T07:19:48.000Z</time>
      </trkpt>
      <trkpt lat="43.71253" lon="3.28185">
        <ele>537.20001220703</ele>
        <time>2023-05-27T07:19:54.000Z</time>
      </trkpt>
      <trkpt lat="43.71253" lon="3.28186">
        <ele>537.20001220703</ele>
        <time>2023-05-27T07:20:01.000Z</time>
      </trkpt>
      <trkpt lat="43.71255" lon="3.28186">
        <ele>537.59997558594</ele>
        <time>2023-05-27T07:20:06.000Z</time>
      </trkpt>
      <trkpt lat="43.71261" lon="3.2818">
        <ele>537.59997558594</ele>
        <time>2023-05-27T07:20:13.000Z</time>
      </trkpt>
      <trkpt lat="43.71268" lon="3.28176">
        <ele>537.79998779297</ele>
        <time>2023-05-27T07:20:20.000Z</time>
      </trkpt>
      <trkpt lat="43.71278" lon="3.28171">
        <ele>538.40002441406</ele>
        <time>2023-05-27T07:20:31.000Z</time>
      </trkpt>
      <trkpt lat="43.71283" lon="3.28166">
        <ele>538.59997558594</ele>
        <time>2023-05-27T07:20:37.000Z</time>
      </trkpt>
      <trkpt lat="43.71285" lon="3.28162">
        <ele>539</ele>
        <time>2023-05-27T07:20:40.000Z</time>
      </trkpt>
      <trkpt lat="43.71289" lon="3.2815">
        <ele>538.79998779297</ele>
        <time>2023-05-27T07:20:49.000Z</time>
      </trkpt>
      <trkpt lat="43.71286" lon="3.28135">
        <ele>539.20001220703</ele>
        <time>2023-05-27T07:20:59.000Z</time>
      </trkpt>
      <trkpt lat="43.71283" lon="3.28122">
        <ele>539.59997558594</ele>
        <time>2023-05-27T07:21:07.000Z</time>
      </trkpt>
      <trkpt lat="43.71278" lon="3.28105">
        <ele>539.79998779297</ele>
        <time>2023-05-27T07:21:18.000Z</time>
      </trkpt>
      <trkpt lat="43.71274" lon="3.28094">
        <ele>539.79998779297</ele>
        <time>2023-05-27T07:21:25.000Z</time>
      </trkpt>
      <trkpt lat="43.71271" lon="3.28083">
        <ele>540.40002441406</ele>
        <time>2023-05-27T07:21:33.000Z</time>
      </trkpt>
      <trkpt lat="43.71266" lon="3.2807">
        <ele>540.40002441406</ele>
        <time>2023-05-27T07:21:44.000Z</time>
      </trkpt>
      <trkpt lat="43.71262" lon="3.2806">
        <ele>540.40002441406</ele>
        <time>2023-05-27T07:21:52.000Z</time>
      </trkpt>
      <trkpt lat="43.71256" lon="3.28051">
        <ele>540.40002441406</ele>
        <time>2023-05-27T07:22:01.000Z</time>
      </trkpt>
      <trkpt lat="43.71254" lon="3.28046">
        <ele>540.79998779297</ele>
        <time>2023-05-27T07:22:08.000Z</time>
      </trkpt>
      <trkpt lat="43.71247" lon="3.28038">
        <ele>540.79998779297</ele>
        <time>2023-05-27T07:22:18.000Z</time>
      </trkpt>
      <trkpt lat="43.71241" lon="3.2803">
        <ele>541.20001220703</ele>
        <time>2023-05-27T07:22:27.000Z</time>
      </trkpt>
      <trkpt lat="43.71234" lon="3.2802">
        <ele>541.79998779297</ele>
        <time>2023-05-27T07:22:37.000Z</time>
      </trkpt>
      <trkpt lat="43.71233" lon="3.28019">
        <ele>541.79998779297</ele>
        <time>2023-05-27T07:22:38.000Z</time>
      </trkpt>
      <trkpt lat="43.71224" lon="3.28007">
        <ele>542</ele>
        <time>2023-05-27T07:22:49.000Z</time>
      </trkpt>
      <trkpt lat="43.71217" lon="3.27997">
        <ele>542.40002441406</ele>
        <time>2023-05-27T07:22:58.000Z</time>
      </trkpt>
      <trkpt lat="43.71211" lon="3.27988">
        <ele>542.59997558594</ele>
        <time>2023-05-27T07:23:06.000Z</time>
      </trkpt>
      <trkpt lat="43.71206" lon="3.27981">
        <ele>542.79998779297</ele>
        <time>2023-05-27T07:23:13.000Z</time>
      </trkpt>
      <trkpt lat="43.71205" lon="3.27977">
        <ele>542.79998779297</ele>
        <time>2023-05-27T07:23:16.000Z</time>
      </trkpt>
      <trkpt lat="43.71201" lon="3.27965">
        <ele>543.20001220703</ele>
        <time>2023-05-27T07:23:25.000Z</time>
      </trkpt>
      <trkpt lat="43.71199" lon="3.27955">
        <ele>543.40002441406</ele>
        <time>2023-05-27T07:23:33.000Z</time>
      </trkpt>
      <trkpt lat="43.71197" lon="3.27943">
        <ele>543.59997558594</ele>
        <time>2023-05-27T07:23:41.000Z</time>
      </trkpt>
      <trkpt lat="43.71197" lon="3.27937">
        <ele>543.79998779297</ele>
        <time>2023-05-27T07:23:45.000Z</time>
      </trkpt>
      <trkpt lat="43.71196" lon="3.27933">
        <ele>543.79998779297</ele>
        <time>2023-05-27T07:23:48.000Z</time>
      </trkpt>
      <trkpt lat="43.71195" lon="3.27925">
        <ele>544</ele>
        <time>2023-05-27T07:23:54.000Z</time>
      </trkpt>
      <trkpt lat="43.71194" lon="3.27913">
        <ele>544.20001220703</ele>
        <time>2023-05-27T07:24:03.000Z</time>
      </trkpt>
      <trkpt lat="43.71193" lon="3.27899">
        <ele>544.40002441406</ele>
        <time>2023-05-27T07:24:13.000Z</time>
      </trkpt>
      <trkpt lat="43.71192" lon="3.27886">
        <ele>544.79998779297</ele>
        <time>2023-05-27T07:24:23.000Z</time>
      </trkpt>
      <trkpt lat="43.71192" lon="3.27882">
        <ele>544.79998779297</ele>
        <time>2023-05-27T07:24:26.000Z</time>
      </trkpt>
      <trkpt lat="43.71191" lon="3.27875">
        <ele>545</ele>
        <time>2023-05-27T07:24:31.000Z</time>
      </trkpt>
      <trkpt lat="43.71191" lon="3.27858">
        <ele>545</ele>
        <time>2023-05-27T07:24:42.000Z</time>
      </trkpt>
      <trkpt lat="43.7119" lon="3.27848">
        <ele>545.59997558594</ele>
        <time>2023-05-27T07:24:49.000Z</time>
      </trkpt>
      <trkpt lat="43.71186" lon="3.27835">
        <ele>545.59997558594</ele>
        <time>2023-05-27T07:24:59.000Z</time>
      </trkpt>
      <trkpt lat="43.71185" lon="3.27831">
        <ele>545.79998779297</ele>
        <time>2023-05-27T07:25:02.000Z</time>
      </trkpt>
      <trkpt lat="43.71181" lon="3.27823">
        <ele>546</ele>
        <time>2023-05-27T07:25:09.000Z</time>
      </trkpt>
      <trkpt lat="43.71175" lon="3.27814">
        <ele>546.20001220703</ele>
        <time>2023-05-27T07:25:18.000Z</time>
      </trkpt>
      <trkpt lat="43.71167" lon="3.27807">
        <ele>546.40002441406</ele>
        <time>2023-05-27T07:25:27.000Z</time>
      </trkpt>
      <trkpt lat="43.71157" lon="3.27801">
        <ele>546.79998779297</ele>
        <time>2023-05-27T07:25:37.000Z</time>
      </trkpt>
      <trkpt lat="43.71154" lon="3.27798">
        <ele>546.79998779297</ele>
        <time>2023-05-27T07:25:42.000Z</time>
      </trkpt>
      <trkpt lat="43.71153" lon="3.27798">
        <ele>547</ele>
        <time>2023-05-27T07:25:43.000Z</time>
      </trkpt>
      <trkpt lat="43.71146" lon="3.27792">
        <ele>547.20001220703</ele>
        <time>2023-05-27T07:25:51.000Z</time>
      </trkpt>
      <trkpt lat="43.71144" lon="3.27789">
        <ele>547.20001220703</ele>
        <time>2023-05-27T07:25:56.000Z</time>
      </trkpt>
      <trkpt lat="43.71144" lon="3.27789">
        <ele>547.20001220703</ele>
        <time>2023-05-27T07:25:57.000Z</time>
      </trkpt>
      <trkpt lat="43.71141" lon="3.27786">
        <ele>547.59997558594</ele>
        <time>2023-05-27T07:26:04.000Z</time>
      </trkpt>
      <trkpt lat="43.71133" lon="3.27778">
        <ele>547.40002441406</ele>
        <time>2023-05-27T07:26:13.000Z</time>
      </trkpt>
      <trkpt lat="43.71126" lon="3.2777">
        <ele>547.59997558594</ele>
        <time>2023-05-27T07:26:21.000Z</time>
      </trkpt>
      <trkpt lat="43.71117" lon="3.27761">
        <ele>547.59997558594</ele>
        <time>2023-05-27T07:26:31.000Z</time>
      </trkpt>
      <trkpt lat="43.71115" lon="3.27758">
        <ele>548</ele>
        <time>2023-05-27T07:26:34.000Z</time>
      </trkpt>
      <trkpt lat="43.7111" lon="3.27753">
        <ele>548.40002441406</ele>
        <time>2023-05-27T07:26:40.000Z</time>
      </trkpt>
      <trkpt lat="43.71104" lon="3.27744">
        <ele>548.20001220703</ele>
        <time>2023-05-27T07:26:48.000Z</time>
      </trkpt>
      <trkpt lat="43.71096" lon="3.27736">
        <ele>548.79998779297</ele>
        <time>2023-05-27T07:26:57.000Z</time>
      </trkpt>
      <trkpt lat="43.71093" lon="3.27731">
        <ele>549</ele>
        <time>2023-05-27T07:27:02.000Z</time>
      </trkpt>
      <trkpt lat="43.71089" lon="3.27728">
        <ele>549.20001220703</ele>
        <time>2023-05-27T07:27:06.000Z</time>
      </trkpt>
      <trkpt lat="43.7108" lon="3.27721">
        <ele>549.40002441406</ele>
        <time>2023-05-27T07:27:16.000Z</time>
      </trkpt>
      <trkpt lat="43.71069" lon="3.27717">
        <ele>549.79998779297</ele>
        <time>2023-05-27T07:27:28.000Z</time>
      </trkpt>
      <trkpt lat="43.71059" lon="3.27715">
        <ele>549.79998779297</ele>
        <time>2023-05-27T07:27:37.000Z</time>
      </trkpt>
      <trkpt lat="43.71055" lon="3.27713">
        <ele>550</ele>
        <time>2023-05-27T07:27:41.000Z</time>
      </trkpt>
      <trkpt lat="43.71052" lon="3.27712">
        <ele>550</ele>
        <time>2023-05-27T07:27:47.000Z</time>
      </trkpt>
      <trkpt lat="43.7105" lon="3.2771">
        <ele>550.20001220703</ele>
        <time>2023-05-27T07:27:50.000Z</time>
      </trkpt>
      <trkpt lat="43.71047" lon="3.27709">
        <ele>550.40002441406</ele>
        <time>2023-05-27T07:27:53.000Z</time>
      </trkpt>
      <trkpt lat="43.71039" lon="3.27702">
        <ele>550.59997558594</ele>
        <time>2023-05-27T07:28:02.000Z</time>
      </trkpt>
      <trkpt lat="43.71031" lon="3.27692">
        <ele>550.79998779297</ele>
        <time>2023-05-27T07:28:12.000Z</time>
      </trkpt>
      <trkpt lat="43.71024" lon="3.27683">
        <ele>550.59997558594</ele>
        <time>2023-05-27T07:28:21.000Z</time>
      </trkpt>
      <trkpt lat="43.71017" lon="3.27671">
        <ele>550.79998779297</ele>
        <time>2023-05-27T07:28:32.000Z</time>
      </trkpt>
      <trkpt lat="43.71013" lon="3.27665">
        <ele>551</ele>
        <time>2023-05-27T07:28:38.000Z</time>
      </trkpt>
      <trkpt lat="43.71011" lon="3.27661">
        <ele>551</ele>
        <time>2023-05-27T07:28:42.000Z</time>
      </trkpt>
      <trkpt lat="43.71004" lon="3.27651">
        <ele>551</ele>
        <time>2023-05-27T07:28:52.000Z</time>
      </trkpt>
      <trkpt lat="43.70998" lon="3.27644">
        <ele>551.59997558594</ele>
        <time>2023-05-27T07:29:01.000Z</time>
      </trkpt>
      <trkpt lat="43.70988" lon="3.27636">
        <ele>551.79998779297</ele>
        <time>2023-05-27T07:29:12.000Z</time>
      </trkpt>
      <trkpt lat="43.7098" lon="3.27631">
        <ele>551.79998779297</ele>
        <time>2023-05-27T07:29:21.000Z</time>
      </trkpt>
      <trkpt lat="43.70975" lon="3.27628">
        <ele>552</ele>
        <time>2023-05-27T07:29:26.000Z</time>
      </trkpt>
      <trkpt lat="43.70971" lon="3.27626">
        <ele>552.40002441406</ele>
        <time>2023-05-27T07:29:30.000Z</time>
      </trkpt>
      <trkpt lat="43.70963" lon="3.27621">
        <ele>552.59997558594</ele>
        <time>2023-05-27T07:29:39.000Z</time>
      </trkpt>
      <trkpt lat="43.70955" lon="3.27617">
        <ele>553.20001220703</ele>
        <time>2023-05-27T07:29:47.000Z</time>
      </trkpt>
      <trkpt lat="43.70954" lon="3.27616">
        <ele>553.20001220703</ele>
        <time>2023-05-27T07:29:49.000Z</time>
      </trkpt>
      <trkpt lat="43.70952" lon="3.27615">
        <ele>553.20001220703</ele>
        <time>2023-05-27T07:29:51.000Z</time>
      </trkpt>
      <trkpt lat="43.70947" lon="3.27612">
        <ele>553.40002441406</ele>
        <time>2023-05-27T07:29:56.000Z</time>
      </trkpt>
      <trkpt lat="43.70938" lon="3.27604">
        <ele>553.40002441406</ele>
        <time>2023-05-27T07:30:07.000Z</time>
      </trkpt>
      <trkpt lat="43.70929" lon="3.27598">
        <ele>553.59997558594</ele>
        <time>2023-05-27T07:30:17.000Z</time>
      </trkpt>
      <trkpt lat="43.70919" lon="3.27592">
        <ele>553.59997558594</ele>
        <time>2023-05-27T07:30:27.000Z</time>
      </trkpt>
      <trkpt lat="43.70911" lon="3.27587">
        <ele>554</ele>
        <time>2023-05-27T07:30:35.000Z</time>
      </trkpt>
      <trkpt lat="43.7091" lon="3.27586">
        <ele>554.20001220703</ele>
        <time>2023-05-27T07:30:36.000Z</time>
      </trkpt>
      <trkpt lat="43.70902" lon="3.2758">
        <ele>554</ele>
        <time>2023-05-27T07:30:44.000Z</time>
      </trkpt>
      <trkpt lat="43.70896" lon="3.27574">
        <ele>554.20001220703</ele>
        <time>2023-05-27T07:30:52.000Z</time>
      </trkpt>
      <trkpt lat="43.70896" lon="3.27574">
        <ele>554.20001220703</ele>
        <time>2023-05-27T07:30:53.000Z</time>
      </trkpt>
      <trkpt lat="43.70895" lon="3.27573">
        <ele>554.40002441406</ele>
        <time>2023-05-27T07:30:55.000Z</time>
      </trkpt>
      <trkpt lat="43.70892" lon="3.27571">
        <ele>554.59997558594</ele>
        <time>2023-05-27T07:30:59.000Z</time>
      </trkpt>
      <trkpt lat="43.7089" lon="3.27568">
        <ele>554.59997558594</ele>
        <time>2023-05-27T07:31:05.000Z</time>
      </trkpt>
      <trkpt lat="43.70888" lon="3.27567">
        <ele>554.59997558594</ele>
        <time>2023-05-27T07:31:11.000Z</time>
      </trkpt>
      <trkpt lat="43.70885" lon="3.27566">
        <ele>554.79998779297</ele>
        <time>2023-05-27T07:31:18.000Z</time>
      </trkpt>
      <trkpt lat="43.70883" lon="3.27565">
        <ele>555</ele>
        <time>2023-05-27T07:31:27.000Z</time>
      </trkpt>
      <trkpt lat="43.70877" lon="3.27555">
        <ele>554.59997558594</ele>
        <time>2023-05-27T07:31:36.000Z</time>
      </trkpt>
      <trkpt lat="43.70872" lon="3.27545">
        <ele>554.79998779297</ele>
        <time>2023-05-27T07:31:44.000Z</time>
      </trkpt>
      <trkpt lat="43.70871" lon="3.27533">
        <ele>555.20001220703</ele>
        <time>2023-05-27T07:31:53.000Z</time>
      </trkpt>
      <trkpt lat="43.70871" lon="3.27527">
        <ele>555.40002441406</ele>
        <time>2023-05-27T07:32:00.000Z</time>
      </trkpt>
      <trkpt lat="43.70872" lon="3.2752">
        <ele>555.79998779297</ele>
        <time>2023-05-27T07:32:09.000Z</time>
      </trkpt>
      <trkpt lat="43.70873" lon="3.27506">
        <ele>555.79998779297</ele>
        <time>2023-05-27T07:32:18.000Z</time>
      </trkpt>
      <trkpt lat="43.70876" lon="3.27487">
        <ele>555.59997558594</ele>
        <time>2023-05-27T07:32:30.000Z</time>
      </trkpt>
      <trkpt lat="43.70878" lon="3.27472">
        <ele>556</ele>
        <time>2023-05-27T07:32:40.000Z</time>
      </trkpt>
      <trkpt lat="43.7088" lon="3.27464">
        <ele>556.20001220703</ele>
        <time>2023-05-27T07:32:45.000Z</time>
      </trkpt>
      <trkpt lat="43.70881" lon="3.27457">
        <ele>556.40002441406</ele>
        <time>2023-05-27T07:32:50.000Z</time>
      </trkpt>
      <trkpt lat="43.70884" lon="3.27443">
        <ele>556.59997558594</ele>
        <time>2023-05-27T07:33:00.000Z</time>
      </trkpt>
      <trkpt lat="43.70888" lon="3.27425">
        <ele>556.79998779297</ele>
        <time>2023-05-27T07:33:13.000Z</time>
      </trkpt>
      <trkpt lat="43.70892" lon="3.27409">
        <ele>557.20001220703</ele>
        <time>2023-05-27T07:33:25.000Z</time>
      </trkpt>
      <trkpt lat="43.70893" lon="3.27408">
        <ele>557.20001220703</ele>
        <time>2023-05-27T07:33:26.000Z</time>
      </trkpt>
      <trkpt lat="43.70896" lon="3.27392">
        <ele>557.40002441406</ele>
        <time>2023-05-27T07:33:37.000Z</time>
      </trkpt>
      <trkpt lat="43.70898" lon="3.2738">
        <ele>557.59997558594</ele>
        <time>2023-05-27T07:33:45.000Z</time>
      </trkpt>
      <trkpt lat="43.70898" lon="3.27376">
        <ele>558</ele>
        <time>2023-05-27T07:33:48.000Z</time>
      </trkpt>
      <trkpt lat="43.70897" lon="3.27373">
        <ele>558.20001220703</ele>
        <time>2023-05-27T07:33:50.000Z</time>
      </trkpt>
      <trkpt lat="43.70897" lon="3.2737">
        <ele>558.20001220703</ele>
        <time>2023-05-27T07:33:52.000Z</time>
      </trkpt>
      <trkpt lat="43.70898" lon="3.27369">
        <ele>558.20001220703</ele>
        <time>2023-05-27T07:33:53.000Z</time>
      </trkpt>
      <trkpt lat="43.70897" lon="3.27359">
        <ele>558.20001220703</ele>
        <time>2023-05-27T07:34:00.000Z</time>
      </trkpt>
      <trkpt lat="43.70897" lon="3.27356">
        <ele>558.20001220703</ele>
        <time>2023-05-27T07:34:02.000Z</time>
      </trkpt>
      <trkpt lat="43.70896" lon="3.27352">
        <ele>558.40002441406</ele>
        <time>2023-05-27T07:34:05.000Z</time>
      </trkpt>
      <trkpt lat="43.70896" lon="3.27347">
        <ele>558.40002441406</ele>
        <time>2023-05-27T07:34:08.000Z</time>
      </trkpt>
      <trkpt lat="43.70895" lon="3.27337">
        <ele>558.59997558594</ele>
        <time>2023-05-27T07:34:15.000Z</time>
      </trkpt>
      <trkpt lat="43.70893" lon="3.27326">
        <ele>559</ele>
        <time>2023-05-27T07:34:22.000Z</time>
      </trkpt>
      <trkpt lat="43.70893" lon="3.27323">
        <ele>559.20001220703</ele>
        <time>2023-05-27T07:34:24.000Z</time>
      </trkpt>
      <trkpt lat="43.70892" lon="3.27313">
        <ele>559.20001220703</ele>
        <time>2023-05-27T07:34:31.000Z</time>
      </trkpt>
      <trkpt lat="43.70891" lon="3.27306">
        <ele>559.20001220703</ele>
        <time>2023-05-27T07:34:37.000Z</time>
      </trkpt>
      <trkpt lat="43.70891" lon="3.27305">
        <ele>559.20001220703</ele>
        <time>2023-05-27T07:34:38.000Z</time>
      </trkpt>
      <trkpt lat="43.7089" lon="3.27292">
        <ele>559.59997558594</ele>
        <time>2023-05-27T07:34:47.000Z</time>
      </trkpt>
      <trkpt lat="43.7089" lon="3.27278">
        <ele>560</ele>
        <time>2023-05-27T07:34:57.000Z</time>
      </trkpt>
      <trkpt lat="43.70891" lon="3.27266">
        <ele>560.20001220703</ele>
        <time>2023-05-27T07:35:05.000Z</time>
      </trkpt>
      <trkpt lat="43.70891" lon="3.27262">
        <ele>560.20001220703</ele>
        <time>2023-05-27T07:35:08.000Z</time>
      </trkpt>
      <trkpt lat="43.70894" lon="3.27247">
        <ele>560.40002441406</ele>
        <time>2023-05-27T07:35:19.000Z</time>
      </trkpt>
      <trkpt lat="43.70898" lon="3.27234">
        <ele>560.59997558594</ele>
        <time>2023-05-27T07:35:29.000Z</time>
      </trkpt>
      <trkpt lat="43.70903" lon="3.27223">
        <ele>561</ele>
        <time>2023-05-27T07:35:38.000Z</time>
      </trkpt>
      <trkpt lat="43.70909" lon="3.27212">
        <ele>561</ele>
        <time>2023-05-27T07:35:48.000Z</time>
      </trkpt>
      <trkpt lat="43.70915" lon="3.27201">
        <ele>561.20001220703</ele>
        <time>2023-05-27T07:35:57.000Z</time>
      </trkpt>
      <trkpt lat="43.70919" lon="3.27191">
        <ele>561.79998779297</ele>
        <time>2023-05-27T07:36:04.000Z</time>
      </trkpt>
      <trkpt lat="43.70924" lon="3.27183">
        <ele>561.59997558594</ele>
        <time>2023-05-27T07:36:11.000Z</time>
      </trkpt>
      <trkpt lat="43.7093" lon="3.27169">
        <ele>561.79998779297</ele>
        <time>2023-05-27T07:36:22.000Z</time>
      </trkpt>
      <trkpt lat="43.70934" lon="3.27158">
        <ele>562.20001220703</ele>
        <time>2023-05-27T07:36:31.000Z</time>
      </trkpt>
      <trkpt lat="43.70936" lon="3.27154">
        <ele>562.20001220703</ele>
        <time>2023-05-27T07:36:34.000Z</time>
      </trkpt>
      <trkpt lat="43.7094" lon="3.27144">
        <ele>562.40002441406</ele>
        <time>2023-05-27T07:36:42.000Z</time>
      </trkpt>
      <trkpt lat="43.70943" lon="3.27133">
        <ele>563</ele>
        <time>2023-05-27T07:36:50.000Z</time>
      </trkpt>
      <trkpt lat="43.70947" lon="3.2712">
        <ele>563.20001220703</ele>
        <time>2023-05-27T07:37:00.000Z</time>
      </trkpt>
      <trkpt lat="43.70948" lon="3.27116">
        <ele>563.20001220703</ele>
        <time>2023-05-27T07:37:03.000Z</time>
      </trkpt>
      <trkpt lat="43.70949" lon="3.27109">
        <ele>563.40002441406</ele>
        <time>2023-05-27T07:37:08.000Z</time>
      </trkpt>
      <trkpt lat="43.70951" lon="3.27096">
        <ele>563.40002441406</ele>
        <time>2023-05-27T07:37:17.000Z</time>
      </trkpt>
      <trkpt lat="43.70951" lon="3.27081">
        <ele>563.79998779297</ele>
        <time>2023-05-27T07:37:27.000Z</time>
      </trkpt>
      <trkpt lat="43.70952" lon="3.27068">
        <ele>564.20001220703</ele>
        <time>2023-05-27T07:37:36.000Z</time>
      </trkpt>
      <trkpt lat="43.70952" lon="3.27055">
        <ele>564.20001220703</ele>
        <time>2023-05-27T07:37:45.000Z</time>
      </trkpt>
      <trkpt lat="43.70952" lon="3.27054">
        <ele>564.20001220703</ele>
        <time>2023-05-27T07:37:46.000Z</time>
      </trkpt>
      <trkpt lat="43.70952" lon="3.27041">
        <ele>564.59997558594</ele>
        <time>2023-05-27T07:37:55.000Z</time>
      </trkpt>
      <trkpt lat="43.70952" lon="3.27027">
        <ele>564.79998779297</ele>
        <time>2023-05-27T07:38:05.000Z</time>
      </trkpt>
      <trkpt lat="43.70953" lon="3.27011">
        <ele>565.40002441406</ele>
        <time>2023-05-27T07:38:16.000Z</time>
      </trkpt>
      <trkpt lat="43.70953" lon="3.26997">
        <ele>565.59997558594</ele>
        <time>2023-05-27T07:38:26.000Z</time>
      </trkpt>
      <trkpt lat="43.70954" lon="3.26984">
        <ele>565.79998779297</ele>
        <time>2023-05-27T07:38:35.000Z</time>
      </trkpt>
      <trkpt lat="43.70954" lon="3.26969">
        <ele>566.20001220703</ele>
        <time>2023-05-27T07:38:46.000Z</time>
      </trkpt>
      <trkpt lat="43.70955" lon="3.26957">
        <ele>566.40002441406</ele>
        <time>2023-05-27T07:38:54.000Z</time>
      </trkpt>
      <trkpt lat="43.70955" lon="3.26953">
        <ele>566.40002441406</ele>
        <time>2023-05-27T07:38:57.000Z</time>
      </trkpt>
      <trkpt lat="43.70956" lon="3.2694">
        <ele>566.59997558594</ele>
        <time>2023-05-27T07:39:06.000Z</time>
      </trkpt>
      <trkpt lat="43.70958" lon="3.26932">
        <ele>566.79998779297</ele>
        <time>2023-05-27T07:39:13.000Z</time>
      </trkpt>
      <trkpt lat="43.70959" lon="3.26917">
        <ele>567.20001220703</ele>
        <time>2023-05-27T07:39:23.000Z</time>
      </trkpt>
      <trkpt lat="43.70961" lon="3.26907">
        <ele>567.40002441406</ele>
        <time>2023-05-27T07:39:30.000Z</time>
      </trkpt>
      <trkpt lat="43.70962" lon="3.26902">
        <ele>567.40002441406</ele>
        <time>2023-05-27T07:39:34.000Z</time>
      </trkpt>
      <trkpt lat="43.70963" lon="3.26891">
        <ele>567.59997558594</ele>
        <time>2023-05-27T07:39:42.000Z</time>
      </trkpt>
      <trkpt lat="43.70965" lon="3.26876">
        <ele>567.79998779297</ele>
        <time>2023-05-27T07:39:52.000Z</time>
      </trkpt>
      <trkpt lat="43.70966" lon="3.26867">
        <ele>568</ele>
        <time>2023-05-27T07:40:00.000Z</time>
      </trkpt>
      <trkpt lat="43.70966" lon="3.26864">
        <ele>568</ele>
        <time>2023-05-27T07:40:10.000Z</time>
      </trkpt>
      <trkpt lat="43.70967" lon="3.26854">
        <ele>568</ele>
        <time>2023-05-27T07:40:17.000Z</time>
      </trkpt>
      <trkpt lat="43.70965" lon="3.2684">
        <ele>567.59997558594</ele>
        <time>2023-05-27T07:40:26.000Z</time>
      </trkpt>
      <trkpt lat="43.70959" lon="3.26826">
        <ele>568.40002441406</ele>
        <time>2023-05-27T07:40:36.000Z</time>
      </trkpt>
      <trkpt lat="43.70949" lon="3.26815">
        <ele>568.40002441406</ele>
        <time>2023-05-27T07:40:46.000Z</time>
      </trkpt>
      <trkpt lat="43.70935" lon="3.26809">
        <ele>568.20001220703</ele>
        <time>2023-05-27T07:40:58.000Z</time>
      </trkpt>
      <trkpt lat="43.70923" lon="3.26808">
        <ele>568.20001220703</ele>
        <time>2023-05-27T07:41:08.000Z</time>
      </trkpt>
      <trkpt lat="43.70914" lon="3.26809">
        <ele>568.59997558594</ele>
        <time>2023-05-27T07:41:16.000Z</time>
      </trkpt>
      <trkpt lat="43.70906" lon="3.26811">
        <ele>568.79998779297</ele>
        <time>2023-05-27T07:41:24.000Z</time>
      </trkpt>
      <trkpt lat="43.70897" lon="3.26813">
        <ele>568.79998779297</ele>
        <time>2023-05-27T07:41:33.000Z</time>
      </trkpt>
      <trkpt lat="43.70886" lon="3.26814">
        <ele>569</ele>
        <time>2023-05-27T07:41:44.000Z</time>
      </trkpt>
      <trkpt lat="43.70882" lon="3.26815">
        <ele>569.40002441406</ele>
        <time>2023-05-27T07:41:47.000Z</time>
      </trkpt>
      <trkpt lat="43.70878" lon="3.26816">
        <ele>569.79998779297</ele>
        <time>2023-05-27T07:41:51.000Z</time>
      </trkpt>
      <trkpt lat="43.70869" lon="3.26817">
        <ele>569.20001220703</ele>
        <time>2023-05-27T07:42:00.000Z</time>
      </trkpt>
      <trkpt lat="43.70861" lon="3.26817">
        <ele>569.40002441406</ele>
        <time>2023-05-27T07:42:08.000Z</time>
      </trkpt>
      <trkpt lat="43.70861" lon="3.26817">
        <ele>569.59997558594</ele>
        <time>2023-05-27T07:42:09.000Z</time>
      </trkpt>
      <trkpt lat="43.70861" lon="3.26819">
        <ele>569.59997558594</ele>
        <time>2023-05-27T07:42:18.000Z</time>
      </trkpt>
      <trkpt lat="43.7086" lon="3.26818">
        <ele>569.40002441406</ele>
        <time>2023-05-27T07:42:30.000Z</time>
      </trkpt>
      <trkpt lat="43.70854" lon="3.26819">
        <ele>569.79998779297</ele>
        <time>2023-05-27T07:42:36.000Z</time>
      </trkpt>
      <trkpt lat="43.70847" lon="3.26817">
        <ele>570.20001220703</ele>
        <time>2023-05-27T07:42:43.000Z</time>
      </trkpt>
      <trkpt lat="43.70839" lon="3.26819">
        <ele>570.40002441406</ele>
        <time>2023-05-27T07:42:52.000Z</time>
      </trkpt>
      <trkpt lat="43.70837" lon="3.26819">
        <ele>570.59997558594</ele>
        <time>2023-05-27T07:42:53.000Z</time>
      </trkpt>
      <trkpt lat="43.70832" lon="3.2682">
        <ele>571</ele>
        <time>2023-05-27T07:42:59.000Z</time>
      </trkpt>
      <trkpt lat="43.70827" lon="3.26821">
        <ele>571.40002441406</ele>
        <time>2023-05-27T07:43:04.000Z</time>
      </trkpt>
      <trkpt lat="43.70823" lon="3.26821">
        <ele>571.59997558594</ele>
        <time>2023-05-27T07:43:07.000Z</time>
      </trkpt>
      <trkpt lat="43.70815" lon="3.26822">
        <ele>572.40002441406</ele>
        <time>2023-05-27T07:43:15.000Z</time>
      </trkpt>
      <trkpt lat="43.70814" lon="3.26823">
        <ele>572.59997558594</ele>
        <time>2023-05-27T07:43:16.000Z</time>
      </trkpt>
      <trkpt lat="43.70803" lon="3.26823">
        <ele>573.59997558594</ele>
        <time>2023-05-27T07:43:27.000Z</time>
      </trkpt>
      <trkpt lat="43.70794" lon="3.26822">
        <ele>574.40002441406</ele>
        <time>2023-05-27T07:43:35.000Z</time>
      </trkpt>
      <trkpt lat="43.70793" lon="3.26822">
        <ele>574.59997558594</ele>
        <time>2023-05-27T07:43:36.000Z</time>
      </trkpt>
      <trkpt lat="43.70785" lon="3.2682">
        <ele>575.40002441406</ele>
        <time>2023-05-27T07:43:44.000Z</time>
      </trkpt>
      <trkpt lat="43.70783" lon="3.2682">
        <ele>575.79998779297</ele>
        <time>2023-05-27T07:43:45.000Z</time>
      </trkpt>
      <trkpt lat="43.70776" lon="3.26818">
        <ele>576.59997558594</ele>
        <time>2023-05-27T07:43:52.000Z</time>
      </trkpt>
      <trkpt lat="43.70773" lon="3.26816">
        <ele>576.79998779297</ele>
        <time>2023-05-27T07:43:55.000Z</time>
      </trkpt>
      <trkpt lat="43.70767" lon="3.26812">
        <ele>577</ele>
        <time>2023-05-27T07:44:01.000Z</time>
      </trkpt>
      <trkpt lat="43.70758" lon="3.26805">
        <ele>577.40002441406</ele>
        <time>2023-05-27T07:44:11.000Z</time>
      </trkpt>
      <trkpt lat="43.70755" lon="3.26801">
        <ele>577.79998779297</ele>
        <time>2023-05-27T07:44:15.000Z</time>
      </trkpt>
      <trkpt lat="43.70752" lon="3.26799">
        <ele>578</ele>
        <time>2023-05-27T07:44:18.000Z</time>
      </trkpt>
      <trkpt lat="43.70746" lon="3.2679">
        <ele>578</ele>
        <time>2023-05-27T07:44:27.000Z</time>
      </trkpt>
      <trkpt lat="43.7074" lon="3.26781">
        <ele>578.40002441406</ele>
        <time>2023-05-27T07:44:35.000Z</time>
      </trkpt>
      <trkpt lat="43.70734" lon="3.26773">
        <ele>578.40002441406</ele>
        <time>2023-05-27T07:44:43.000Z</time>
      </trkpt>
      <trkpt lat="43.70728" lon="3.26762">
        <ele>578.59997558594</ele>
        <time>2023-05-27T07:44:53.000Z</time>
      </trkpt>
      <trkpt lat="43.70725" lon="3.26757">
        <ele>578.79998779297</ele>
        <time>2023-05-27T07:44:58.000Z</time>
      </trkpt>
      <trkpt lat="43.70723" lon="3.26752">
        <ele>579.40002441406</ele>
        <time>2023-05-27T07:45:02.000Z</time>
      </trkpt>
      <trkpt lat="43.70717" lon="3.26741">
        <ele>579.40002441406</ele>
        <time>2023-05-27T07:45:12.000Z</time>
      </trkpt>
      <trkpt lat="43.70709" lon="3.26729">
        <ele>579.79998779297</ele>
        <time>2023-05-27T07:45:23.000Z</time>
      </trkpt>
      <trkpt lat="43.70707" lon="3.26727">
        <ele>579.79998779297</ele>
        <time>2023-05-27T07:45:25.000Z</time>
      </trkpt>
      <trkpt lat="43.70701" lon="3.26719">
        <ele>579.79998779297</ele>
        <time>2023-05-27T07:45:33.000Z</time>
      </trkpt>
      <trkpt lat="43.70692" lon="3.26708">
        <ele>580</ele>
        <time>2023-05-27T07:45:45.000Z</time>
      </trkpt>
      <trkpt lat="43.70683" lon="3.26697">
        <ele>580.20001220703</ele>
        <time>2023-05-27T07:45:56.000Z</time>
      </trkpt>
      <trkpt lat="43.70675" lon="3.26688">
        <ele>580.20001220703</ele>
        <time>2023-05-27T07:46:06.000Z</time>
      </trkpt>
      <trkpt lat="43.70668" lon="3.2668">
        <ele>580.40002441406</ele>
        <time>2023-05-27T07:46:15.000Z</time>
      </trkpt>
      <trkpt lat="43.70662" lon="3.2667">
        <ele>580.40002441406</ele>
        <time>2023-05-27T07:46:24.000Z</time>
      </trkpt>
      <trkpt lat="43.70657" lon="3.26658">
        <ele>580.20001220703</ele>
        <time>2023-05-27T07:46:34.000Z</time>
      </trkpt>
      <trkpt lat="43.70652" lon="3.26641">
        <ele>579.59997558594</ele>
        <time>2023-05-27T07:46:47.000Z</time>
      </trkpt>
      <trkpt lat="43.70649" lon="3.2663">
        <ele>579.59997558594</ele>
        <time>2023-05-27T07:46:56.000Z</time>
      </trkpt>
      <trkpt lat="43.70646" lon="3.26623">
        <ele>579.79998779297</ele>
        <time>2023-05-27T07:47:03.000Z</time>
      </trkpt>
      <trkpt lat="43.70642" lon="3.26614">
        <ele>580.20001220703</ele>
        <time>2023-05-27T07:47:12.000Z</time>
      </trkpt>
      <trkpt lat="43.70638" lon="3.26605">
        <ele>580.79998779297</ele>
        <time>2023-05-27T07:47:21.000Z</time>
      </trkpt>
      <trkpt lat="43.70634" lon="3.266">
        <ele>581.40002441406</ele>
        <time>2023-05-27T07:47:28.000Z</time>
      </trkpt>
      <trkpt lat="43.70632" lon="3.26596">
        <ele>581.79998779297</ele>
        <time>2023-05-27T07:47:33.000Z</time>
      </trkpt>
      <trkpt lat="43.7063" lon="3.26593">
        <ele>582.20001220703</ele>
        <time>2023-05-27T07:47:37.000Z</time>
      </trkpt>
      <trkpt lat="43.70626" lon="3.26589">
        <ele>582.79998779297</ele>
        <time>2023-05-27T07:47:43.000Z</time>
      </trkpt>
      <trkpt lat="43.70625" lon="3.26588">
        <ele>583</ele>
        <time>2023-05-27T07:47:45.000Z</time>
      </trkpt>
      <trkpt lat="43.70622" lon="3.26584">
        <ele>583.59997558594</ele>
        <time>2023-05-27T07:47:51.000Z</time>
      </trkpt>
      <trkpt lat="43.70619" lon="3.26582">
        <ele>583.79998779297</ele>
        <time>2023-05-27T07:47:55.000Z</time>
      </trkpt>
      <trkpt lat="43.70616" lon="3.2658">
        <ele>584.40002441406</ele>
        <time>2023-05-27T07:48:00.000Z</time>
      </trkpt>
      <trkpt lat="43.70613" lon="3.26577">
        <ele>584.79998779297</ele>
        <time>2023-05-27T07:48:06.000Z</time>
      </trkpt>
      <trkpt lat="43.70611" lon="3.26577">
        <ele>585</ele>
        <time>2023-05-27T07:48:09.000Z</time>
      </trkpt>
      <trkpt lat="43.70605" lon="3.26575">
        <ele>585.40002441406</ele>
        <time>2023-05-27T07:48:16.000Z</time>
      </trkpt>
      <trkpt lat="43.70598" lon="3.26576">
        <ele>586</ele>
        <time>2023-05-27T07:48:24.000Z</time>
      </trkpt>
      <trkpt lat="43.70597" lon="3.26576">
        <ele>586</ele>
        <time>2023-05-27T07:48:25.000Z</time>
      </trkpt>
      <trkpt lat="43.70589" lon="3.26576">
        <ele>586.40002441406</ele>
        <time>2023-05-27T07:48:33.000Z</time>
      </trkpt>
      <trkpt lat="43.70582" lon="3.26575">
        <ele>586.59997558594</ele>
        <time>2023-05-27T07:48:41.000Z</time>
      </trkpt>
      <trkpt lat="43.70577" lon="3.26574">
        <ele>587</ele>
        <time>2023-05-27T07:48:46.000Z</time>
      </trkpt>
      <trkpt lat="43.70575" lon="3.26574">
        <ele>587.20001220703</ele>
        <time>2023-05-27T07:48:48.000Z</time>
      </trkpt>
      <trkpt lat="43.70575" lon="3.26573">
        <ele>587.20001220703</ele>
        <time>2023-05-27T07:48:49.000Z</time>
      </trkpt>
      <trkpt lat="43.70567" lon="3.2657">
        <ele>587.59997558594</ele>
        <time>2023-05-27T07:48:58.000Z</time>
      </trkpt>
      <trkpt lat="43.70564" lon="3.26569">
        <ele>588</ele>
        <time>2023-05-27T07:49:01.000Z</time>
      </trkpt>
      <trkpt lat="43.70561" lon="3.26567">
        <ele>588.20001220703</ele>
        <time>2023-05-27T07:49:05.000Z</time>
      </trkpt>
      <trkpt lat="43.70554" lon="3.26563">
        <ele>589.20001220703</ele>
        <time>2023-05-27T07:49:15.000Z</time>
      </trkpt>
      <trkpt lat="43.70553" lon="3.26562">
        <ele>589.20001220703</ele>
        <time>2023-05-27T07:49:16.000Z</time>
      </trkpt>
      <trkpt lat="43.70547" lon="3.26558">
        <ele>590.20001220703</ele>
        <time>2023-05-27T07:49:25.000Z</time>
      </trkpt>
      <trkpt lat="43.70546" lon="3.26558">
        <ele>590.20001220703</ele>
        <time>2023-05-27T07:49:26.000Z</time>
      </trkpt>
      <trkpt lat="43.70543" lon="3.26555">
        <ele>590.40002441406</ele>
        <time>2023-05-27T07:49:31.000Z</time>
      </trkpt>
      <trkpt lat="43.7054" lon="3.26553">
        <ele>590.59997558594</ele>
        <time>2023-05-27T07:49:38.000Z</time>
      </trkpt>
      <trkpt lat="43.70537" lon="3.26551">
        <ele>590.59997558594</ele>
        <time>2023-05-27T07:49:44.000Z</time>
      </trkpt>
      <trkpt lat="43.70536" lon="3.26549">
        <ele>590.59997558594</ele>
        <time>2023-05-27T07:49:52.000Z</time>
      </trkpt>
      <trkpt lat="43.70536" lon="3.26546">
        <ele>591</ele>
        <time>2023-05-27T07:49:59.000Z</time>
      </trkpt>
      <trkpt lat="43.70532" lon="3.26543">
        <ele>590.79998779297</ele>
        <time>2023-05-27T07:50:07.000Z</time>
      </trkpt>
      <trkpt lat="43.70527" lon="3.26533">
        <ele>591.20001220703</ele>
        <time>2023-05-27T07:50:16.000Z</time>
      </trkpt>
      <trkpt lat="43.70521" lon="3.26522">
        <ele>592</ele>
        <time>2023-05-27T07:50:25.000Z</time>
      </trkpt>
      <trkpt lat="43.70514" lon="3.26512">
        <ele>591.40002441406</ele>
        <time>2023-05-27T07:50:33.000Z</time>
      </trkpt>
      <trkpt lat="43.70507" lon="3.26497">
        <ele>591.79998779297</ele>
        <time>2023-05-27T07:50:44.000Z</time>
      </trkpt>
      <trkpt lat="43.70506" lon="3.26496">
        <ele>592.20001220703</ele>
        <time>2023-05-27T07:50:48.000Z</time>
      </trkpt>
      <trkpt lat="43.70506" lon="3.26496">
        <ele>592.40002441406</ele>
        <time>2023-05-27T07:50:49.000Z</time>
      </trkpt>
      <trkpt lat="43.70503" lon="3.26489">
        <ele>592.20001220703</ele>
        <time>2023-05-27T07:50:56.000Z</time>
      </trkpt>
      <trkpt lat="43.70498" lon="3.26474">
        <ele>592.40002441406</ele>
        <time>2023-05-27T07:51:06.000Z</time>
      </trkpt>
      <trkpt lat="43.70493" lon="3.26458">
        <ele>592.40002441406</ele>
        <time>2023-05-27T07:51:16.000Z</time>
      </trkpt>
      <trkpt lat="43.7049" lon="3.26444">
        <ele>592.40002441406</ele>
        <time>2023-05-27T07:51:25.000Z</time>
      </trkpt>
      <trkpt lat="43.70487" lon="3.26431">
        <ele>592.59997558594</ele>
        <time>2023-05-27T07:51:35.000Z</time>
      </trkpt>
      <trkpt lat="43.70484" lon="3.26421">
        <ele>592.79998779297</ele>
        <time>2023-05-27T07:51:43.000Z</time>
      </trkpt>
      <trkpt lat="43.70481" lon="3.26405">
        <ele>592.59997558594</ele>
        <time>2023-05-27T07:51:54.000Z</time>
      </trkpt>
      <trkpt lat="43.70476" lon="3.26387">
        <ele>592.40002441406</ele>
        <time>2023-05-27T07:52:06.000Z</time>
      </trkpt>
      <trkpt lat="43.70473" lon="3.26377">
        <ele>592.59997558594</ele>
        <time>2023-05-27T07:52:14.000Z</time>
      </trkpt>
      <trkpt lat="43.70469" lon="3.26365">
        <ele>592.79998779297</ele>
        <time>2023-05-27T07:52:23.000Z</time>
      </trkpt>
      <trkpt lat="43.70464" lon="3.26352">
        <ele>592.59997558594</ele>
        <time>2023-05-27T07:52:33.000Z</time>
      </trkpt>
      <trkpt lat="43.7046" lon="3.26339">
        <ele>593.40002441406</ele>
        <time>2023-05-27T07:52:43.000Z</time>
      </trkpt>
      <trkpt lat="43.7046" lon="3.26338">
        <ele>593.40002441406</ele>
        <time>2023-05-27T07:52:44.000Z</time>
      </trkpt>
      <trkpt lat="43.70459" lon="3.26333">
        <ele>593.59997558594</ele>
        <time>2023-05-27T07:52:49.000Z</time>
      </trkpt>
      <trkpt lat="43.70458" lon="3.26331">
        <ele>593.79998779297</ele>
        <time>2023-05-27T07:52:51.000Z</time>
      </trkpt>
      <trkpt lat="43.70457" lon="3.26328">
        <ele>593.79998779297</ele>
        <time>2023-05-27T07:52:53.000Z</time>
      </trkpt>
      <trkpt lat="43.70455" lon="3.2632">
        <ele>593.79998779297</ele>
        <time>2023-05-27T07:52:59.000Z</time>
      </trkpt>
      <trkpt lat="43.70452" lon="3.26306">
        <ele>594</ele>
        <time>2023-05-27T07:53:09.000Z</time>
      </trkpt>
      <trkpt lat="43.70449" lon="3.26296">
        <ele>594.40002441406</ele>
        <time>2023-05-27T07:53:16.000Z</time>
      </trkpt>
      <trkpt lat="43.70448" lon="3.26292">
        <ele>594.59997558594</ele>
        <time>2023-05-27T07:53:19.000Z</time>
      </trkpt>
      <trkpt lat="43.70444" lon="3.2628">
        <ele>595.20001220703</ele>
        <time>2023-05-27T07:53:29.000Z</time>
      </trkpt>
      <trkpt lat="43.70442" lon="3.26273">
        <ele>595.40002441406</ele>
        <time>2023-05-27T07:53:34.000Z</time>
      </trkpt>
      <trkpt lat="43.70441" lon="3.26267">
        <ele>595.59997558594</ele>
        <time>2023-05-27T07:53:38.000Z</time>
      </trkpt>
      <trkpt lat="43.70438" lon="3.26255">
        <ele>596</ele>
        <time>2023-05-27T07:53:48.000Z</time>
      </trkpt>
      <trkpt lat="43.70437" lon="3.26249">
        <ele>596.40002441406</ele>
        <time>2023-05-27T07:53:53.000Z</time>
      </trkpt>
      <trkpt lat="43.70436" lon="3.26245">
        <ele>596.59997558594</ele>
        <time>2023-05-27T07:53:56.000Z</time>
      </trkpt>
      <trkpt lat="43.70433" lon="3.26231">
        <ele>597</ele>
        <time>2023-05-27T07:54:06.000Z</time>
      </trkpt>
      <trkpt lat="43.70431" lon="3.26224">
        <ele>597.40002441406</ele>
        <time>2023-05-27T07:54:11.000Z</time>
      </trkpt>
      <trkpt lat="43.7043" lon="3.26221">
        <ele>597.59997558594</ele>
        <time>2023-05-27T07:54:13.000Z</time>
      </trkpt>
      <trkpt lat="43.70427" lon="3.26208">
        <ele>597.79998779297</ele>
        <time>2023-05-27T07:54:22.000Z</time>
      </trkpt>
      <trkpt lat="43.70424" lon="3.26196">
        <ele>598.20001220703</ele>
        <time>2023-05-27T07:54:31.000Z</time>
      </trkpt>
      <trkpt lat="43.70421" lon="3.26186">
        <ele>598.59997558594</ele>
        <time>2023-05-27T07:54:38.000Z</time>
      </trkpt>
      <trkpt lat="43.70421" lon="3.26185">
        <ele>598.59997558594</ele>
        <time>2023-05-27T07:54:39.000Z</time>
      </trkpt>
      <trkpt lat="43.70417" lon="3.26174">
        <ele>599.40002441406</ele>
        <time>2023-05-27T07:54:48.000Z</time>
      </trkpt>
      <trkpt lat="43.70415" lon="3.26167">
        <ele>599.59997558594</ele>
        <time>2023-05-27T07:54:54.000Z</time>
      </trkpt>
      <trkpt lat="43.70413" lon="3.26163">
        <ele>599.79998779297</ele>
        <time>2023-05-27T07:54:57.000Z</time>
      </trkpt>
      <trkpt lat="43.70409" lon="3.2615">
        <ele>600.59997558594</ele>
        <time>2023-05-27T07:55:07.000Z</time>
      </trkpt>
      <trkpt lat="43.70408" lon="3.26146">
        <ele>600.59997558594</ele>
        <time>2023-05-27T07:55:11.000Z</time>
      </trkpt>
      <trkpt lat="43.70406" lon="3.26138">
        <ele>601.20001220703</ele>
        <time>2023-05-27T07:55:18.000Z</time>
      </trkpt>
      <trkpt lat="43.70406" lon="3.26135">
        <ele>601.59997558594</ele>
        <time>2023-05-27T07:55:23.000Z</time>
      </trkpt>
      <trkpt lat="43.70405" lon="3.26135">
        <ele>601.79998779297</ele>
        <time>2023-05-27T07:55:26.000Z</time>
      </trkpt>
      <trkpt lat="43.70405" lon="3.26134">
        <ele>602.20001220703</ele>
        <time>2023-05-27T07:55:35.000Z</time>
      </trkpt>
      <trkpt lat="43.70405" lon="3.26134">
        <ele>601.79998779297</ele>
        <time>2023-05-27T07:55:41.000Z</time>
      </trkpt>
      <trkpt lat="43.70405" lon="3.26134">
        <ele>599.40002441406</ele>
        <time>2023-05-27T07:55:49.000Z</time>
      </trkpt>
      <trkpt lat="43.70405" lon="3.26134">
        <ele>599.59997558594</ele>
        <time>2023-05-27T07:55:51.000Z</time>
      </trkpt>
      <trkpt lat="43.70406" lon="3.26134">
        <ele>600.59997558594</ele>
        <time>2023-05-27T07:55:53.000Z</time>
      </trkpt>
      <trkpt lat="43.70406" lon="3.26134">
        <ele>602</ele>
        <time>2023-05-27T07:55:54.000Z</time>
      </trkpt>
      <trkpt lat="43.70406" lon="3.26135">
        <ele>601.79998779297</ele>
        <time>2023-05-27T07:56:00.000Z</time>
      </trkpt>
      <trkpt lat="43.70413" lon="3.26141">
        <ele>601.79998779297</ele>
        <time>2023-05-27T07:56:08.000Z</time>
      </trkpt>
      <trkpt lat="43.70414" lon="3.26143">
        <ele>602</ele>
        <time>2023-05-27T07:56:10.000Z</time>
      </trkpt>
      <trkpt lat="43.70418" lon="3.26146">
        <ele>602.20001220703</ele>
        <time>2023-05-27T07:56:14.000Z</time>
      </trkpt>
      <trkpt lat="43.70425" lon="3.26154">
        <ele>602.79998779297</ele>
        <time>2023-05-27T07:56:23.000Z</time>
      </trkpt>
      <trkpt lat="43.70428" lon="3.26156">
        <ele>603</ele>
        <time>2023-05-27T07:56:27.000Z</time>
      </trkpt>
      <trkpt lat="43.70433" lon="3.2616">
        <ele>603.20001220703</ele>
        <time>2023-05-27T07:56:32.000Z</time>
      </trkpt>
      <trkpt lat="43.7044" lon="3.26167">
        <ele>603.20001220703</ele>
        <time>2023-05-27T07:56:41.000Z</time>
      </trkpt>
      <trkpt lat="43.7045" lon="3.26174">
        <ele>603.20001220703</ele>
        <time>2023-05-27T07:56:51.000Z</time>
      </trkpt>
      <trkpt lat="43.70458" lon="3.26179">
        <ele>603.59997558594</ele>
        <time>2023-05-27T07:57:00.000Z</time>
      </trkpt>
      <trkpt lat="43.70462" lon="3.26183">
        <ele>604</ele>
        <time>2023-05-27T07:57:06.000Z</time>
      </trkpt>
      <trkpt lat="43.70464" lon="3.26186">
        <ele>604.40002441406</ele>
        <time>2023-05-27T07:57:09.000Z</time>
      </trkpt>
      <trkpt lat="43.70464" lon="3.26188">
        <ele>604.79998779297</ele>
        <time>2023-05-27T07:57:15.000Z</time>
      </trkpt>
      <trkpt lat="43.70465" lon="3.26189">
        <ele>604.79998779297</ele>
        <time>2023-05-27T07:57:24.000Z</time>
      </trkpt>
      <trkpt lat="43.70465" lon="3.26189">
        <ele>604.79998779297</ele>
        <time>2023-05-27T07:57:30.000Z</time>
      </trkpt>
      <trkpt lat="43.70464" lon="3.26187">
        <ele>604.79998779297</ele>
        <time>2023-05-27T07:57:38.000Z</time>
      </trkpt>
      <trkpt lat="43.70463" lon="3.26186">
        <ele>604.79998779297</ele>
        <time>2023-05-27T07:57:48.000Z</time>
      </trkpt>
      <trkpt lat="43.70465" lon="3.26181">
        <ele>605</ele>
        <time>2023-05-27T07:57:54.000Z</time>
      </trkpt>
      <trkpt lat="43.70465" lon="3.26181">
        <ele>605</ele>
        <time>2023-05-27T07:57:55.000Z</time>
      </trkpt>
      <trkpt lat="43.70468" lon="3.26182">
        <ele>605.40002441406</ele>
        <time>2023-05-27T07:57:59.000Z</time>
      </trkpt>
      <trkpt lat="43.70474" lon="3.26185">
        <ele>605.59997558594</ele>
        <time>2023-05-27T07:58:07.000Z</time>
      </trkpt>
      <trkpt lat="43.70478" lon="3.26186">
        <ele>606.20001220703</ele>
        <time>2023-05-27T07:58:12.000Z</time>
      </trkpt>
      <trkpt lat="43.70482" lon="3.26187">
        <ele>606.79998779297</ele>
        <time>2023-05-27T07:58:16.000Z</time>
      </trkpt>
      <trkpt lat="43.70484" lon="3.26187">
        <ele>607.20001220703</ele>
        <time>2023-05-27T07:58:18.000Z</time>
      </trkpt>
      <trkpt lat="43.70488" lon="3.26188">
        <ele>607.59997558594</ele>
        <time>2023-05-27T07:58:23.000Z</time>
      </trkpt>
      <trkpt lat="43.7049" lon="3.26189">
        <ele>605</ele>
        <time>2023-05-27T07:58:26.000Z</time>
      </trkpt>
      <trkpt lat="43.70493" lon="3.2619">
        <ele>605.59997558594</ele>
        <time>2023-05-27T07:58:29.000Z</time>
      </trkpt>
      <trkpt lat="43.70494" lon="3.2619">
        <ele>609</ele>
        <time>2023-05-27T07:58:31.000Z</time>
      </trkpt>
      <trkpt lat="43.70496" lon="3.26191">
        <ele>609</ele>
        <time>2023-05-27T07:58:33.000Z</time>
      </trkpt>
      <trkpt lat="43.70497" lon="3.26192">
        <ele>609</ele>
        <time>2023-05-27T07:58:35.000Z</time>
      </trkpt>
      <trkpt lat="43.70503" lon="3.26195">
        <ele>609.79998779297</ele>
        <time>2023-05-27T07:58:42.000Z</time>
      </trkpt>
      <trkpt lat="43.70505" lon="3.26196">
        <ele>610</ele>
        <time>2023-05-27T07:58:44.000Z</time>
      </trkpt>
      <trkpt lat="43.7051" lon="3.262">
        <ele>611</ele>
        <time>2023-05-27T07:58:51.000Z</time>
      </trkpt>
      <trkpt lat="43.70516" lon="3.26206">
        <ele>611.79998779297</ele>
        <time>2023-05-27T07:59:00.000Z</time>
      </trkpt>
      <trkpt lat="43.70519" lon="3.26209">
        <ele>612</ele>
        <time>2023-05-27T07:59:04.000Z</time>
      </trkpt>
      <trkpt lat="43.70522" lon="3.26213">
        <ele>612.79998779297</ele>
        <time>2023-05-27T07:59:09.000Z</time>
      </trkpt>
      <trkpt lat="43.70524" lon="3.26216">
        <ele>613.20001220703</ele>
        <time>2023-05-27T07:59:11.000Z</time>
      </trkpt>
      <trkpt lat="43.70528" lon="3.26223">
        <ele>613.40002441406</ele>
        <time>2023-05-27T07:59:18.000Z</time>
      </trkpt>
      <trkpt lat="43.70535" lon="3.26232">
        <ele>614.20001220703</ele>
        <time>2023-05-27T07:59:28.000Z</time>
      </trkpt>
      <trkpt lat="43.70535" lon="3.26233">
        <ele>614.20001220703</ele>
        <time>2023-05-27T07:59:29.000Z</time>
      </trkpt>
      <trkpt lat="43.7054" lon="3.26241">
        <ele>614.79998779297</ele>
        <time>2023-05-27T07:59:38.000Z</time>
      </trkpt>
      <trkpt lat="43.70542" lon="3.26244">
        <ele>615.40002441406</ele>
        <time>2023-05-27T07:59:42.000Z</time>
      </trkpt>
      <trkpt lat="43.70545" lon="3.26248">
        <ele>615.79998779297</ele>
        <time>2023-05-27T07:59:47.000Z</time>
      </trkpt>
      <trkpt lat="43.70549" lon="3.26255">
        <ele>616.40002441406</ele>
        <time>2023-05-27T07:59:56.000Z</time>
      </trkpt>
      <trkpt lat="43.70549" lon="3.26255">
        <ele>616.59997558594</ele>
        <time>2023-05-27T07:59:58.000Z</time>
      </trkpt>
      <trkpt lat="43.70552" lon="3.26259">
        <ele>616.79998779297</ele>
        <time>2023-05-27T08:00:05.000Z</time>
      </trkpt>
      <trkpt lat="43.70556" lon="3.26264">
        <ele>617.40002441406</ele>
        <time>2023-05-27T08:00:12.000Z</time>
      </trkpt>
      <trkpt lat="43.70558" lon="3.26266">
        <ele>617.59997558594</ele>
        <time>2023-05-27T08:00:15.000Z</time>
      </trkpt>
      <trkpt lat="43.70562" lon="3.26267">
        <ele>618.40002441406</ele>
        <time>2023-05-27T08:00:23.000Z</time>
      </trkpt>
      <trkpt lat="43.70567" lon="3.26268">
        <ele>618.79998779297</ele>
        <time>2023-05-27T08:00:30.000Z</time>
      </trkpt>
      <trkpt lat="43.7057" lon="3.26267">
        <ele>619.59997558594</ele>
        <time>2023-05-27T08:00:36.000Z</time>
      </trkpt>
      <trkpt lat="43.70572" lon="3.26267">
        <ele>620</ele>
        <time>2023-05-27T08:00:39.000Z</time>
      </trkpt>
      <trkpt lat="43.70573" lon="3.26266">
        <ele>620.59997558594</ele>
        <time>2023-05-27T08:00:45.000Z</time>
      </trkpt>
      <trkpt lat="43.70573" lon="3.26266">
        <ele>620.79998779297</ele>
        <time>2023-05-27T08:00:46.000Z</time>
      </trkpt>
      <trkpt lat="43.70578" lon="3.26264">
        <ele>621.20001220703</ele>
        <time>2023-05-27T08:00:53.000Z</time>
      </trkpt>
      <trkpt lat="43.70582" lon="3.26263">
        <ele>621.79998779297</ele>
        <time>2023-05-27T08:00:59.000Z</time>
      </trkpt>
      <trkpt lat="43.70582" lon="3.26262">
        <ele>621.79998779297</ele>
        <time>2023-05-27T08:01:00.000Z</time>
      </trkpt>
      <trkpt lat="43.70586" lon="3.26262">
        <ele>622.20001220703</ele>
        <time>2023-05-27T08:01:06.000Z</time>
      </trkpt>
      <trkpt lat="43.70589" lon="3.26261">
        <ele>622.79998779297</ele>
        <time>2023-05-27T08:01:11.000Z</time>
      </trkpt>
      <trkpt lat="43.7059" lon="3.26261">
        <ele>623.20001220703</ele>
        <time>2023-05-27T08:01:15.000Z</time>
      </trkpt>
      <trkpt lat="43.70593" lon="3.26261">
        <ele>623.79998779297</ele>
        <time>2023-05-27T08:01:22.000Z</time>
      </trkpt>
      <trkpt lat="43.70594" lon="3.26261">
        <ele>623.79998779297</ele>
        <time>2023-05-27T08:01:23.000Z</time>
      </trkpt>
      <trkpt lat="43.706" lon="3.26262">
        <ele>624.59997558594</ele>
        <time>2023-05-27T08:01:32.000Z</time>
      </trkpt>
      <trkpt lat="43.70603" lon="3.26263">
        <ele>624.79998779297</ele>
        <time>2023-05-27T08:01:36.000Z</time>
      </trkpt>
      <trkpt lat="43.70605" lon="3.26263">
        <ele>625.40002441406</ele>
        <time>2023-05-27T08:01:40.000Z</time>
      </trkpt>
      <trkpt lat="43.70607" lon="3.26264">
        <ele>625.79998779297</ele>
        <time>2023-05-27T08:01:43.000Z</time>
      </trkpt>
      <trkpt lat="43.70611" lon="3.26265">
        <ele>626.59997558594</ele>
        <time>2023-05-27T08:01:48.000Z</time>
      </trkpt>
      <trkpt lat="43.70613" lon="3.26265">
        <ele>627</ele>
        <time>2023-05-27T08:01:50.000Z</time>
      </trkpt>
      <trkpt lat="43.70619" lon="3.26268">
        <ele>627.59997558594</ele>
        <time>2023-05-27T08:01:59.000Z</time>
      </trkpt>
      <trkpt lat="43.70624" lon="3.2627">
        <ele>628</ele>
        <time>2023-05-27T08:02:05.000Z</time>
      </trkpt>
      <trkpt lat="43.70625" lon="3.26271">
        <ele>628</ele>
        <time>2023-05-27T08:02:07.000Z</time>
      </trkpt>
      <trkpt lat="43.70631" lon="3.26274">
        <ele>628.20001220703</ele>
        <time>2023-05-27T08:02:15.000Z</time>
      </trkpt>
      <trkpt lat="43.70636" lon="3.26276">
        <ele>628.79998779297</ele>
        <time>2023-05-27T08:02:23.000Z</time>
      </trkpt>
      <trkpt lat="43.70643" lon="3.26277">
        <ele>629</ele>
        <time>2023-05-27T08:02:31.000Z</time>
      </trkpt>
      <trkpt lat="43.70643" lon="3.26277">
        <ele>629</ele>
        <time>2023-05-27T08:02:32.000Z</time>
      </trkpt>
      <trkpt lat="43.70651" lon="3.26278">
        <ele>630</ele>
        <time>2023-05-27T08:02:42.000Z</time>
      </trkpt>
      <trkpt lat="43.70657" lon="3.2628">
        <ele>630.79998779297</ele>
        <time>2023-05-27T08:02:51.000Z</time>
      </trkpt>
      <trkpt lat="43.70659" lon="3.26281">
        <ele>631</ele>
        <time>2023-05-27T08:02:54.000Z</time>
      </trkpt>
      <trkpt lat="43.70665" lon="3.26281">
        <ele>631.40002441406</ele>
        <time>2023-05-27T08:03:00.000Z</time>
      </trkpt>
      <trkpt lat="43.70672" lon="3.26283">
        <ele>631.40002441406</ele>
        <time>2023-05-27T08:03:08.000Z</time>
      </trkpt>
      <trkpt lat="43.7068" lon="3.26284">
        <ele>631.79998779297</ele>
        <time>2023-05-27T08:03:16.000Z</time>
      </trkpt>
      <trkpt lat="43.70688" lon="3.26286">
        <ele>632</ele>
        <time>2023-05-27T08:03:26.000Z</time>
      </trkpt>
      <trkpt lat="43.70689" lon="3.26287">
        <ele>632.20001220703</ele>
        <time>2023-05-27T08:03:27.000Z</time>
      </trkpt>
      <trkpt lat="43.70695" lon="3.26288">
        <ele>632.40002441406</ele>
        <time>2023-05-27T08:03:33.000Z</time>
      </trkpt>
      <trkpt lat="43.70703" lon="3.26288">
        <ele>632.79998779297</ele>
        <time>2023-05-27T08:03:42.000Z</time>
      </trkpt>
      <trkpt lat="43.70707" lon="3.26289">
        <ele>633.20001220703</ele>
        <time>2023-05-27T08:03:46.000Z</time>
      </trkpt>
      <trkpt lat="43.70713" lon="3.26289">
        <ele>633.79998779297</ele>
        <time>2023-05-27T08:03:52.000Z</time>
      </trkpt>
      <trkpt lat="43.70721" lon="3.26289">
        <ele>634.20001220703</ele>
        <time>2023-05-27T08:04:01.000Z</time>
      </trkpt>
      <trkpt lat="43.70728" lon="3.26289">
        <ele>634.40002441406</ele>
        <time>2023-05-27T08:04:09.000Z</time>
      </trkpt>
      <trkpt lat="43.70735" lon="3.26288">
        <ele>634.59997558594</ele>
        <time>2023-05-27T08:04:17.000Z</time>
      </trkpt>
      <trkpt lat="43.70742" lon="3.26289">
        <ele>635.20001220703</ele>
        <time>2023-05-27T08:04:26.000Z</time>
      </trkpt>
      <trkpt lat="43.70743" lon="3.26289">
        <ele>635.20001220703</ele>
        <time>2023-05-27T08:04:27.000Z</time>
      </trkpt>
      <trkpt lat="43.70749" lon="3.26289">
        <ele>635.59997558594</ele>
        <time>2023-05-27T08:04:34.000Z</time>
      </trkpt>
      <trkpt lat="43.70757" lon="3.26287">
        <ele>636.20001220703</ele>
        <time>2023-05-27T08:04:43.000Z</time>
      </trkpt>
      <trkpt lat="43.70759" lon="3.26286">
        <ele>636.20001220703</ele>
        <time>2023-05-27T08:04:45.000Z</time>
      </trkpt>
      <trkpt lat="43.70761" lon="3.26285">
        <ele>636.40002441406</ele>
        <time>2023-05-27T08:04:47.000Z</time>
      </trkpt>
      <trkpt lat="43.70764" lon="3.26283">
        <ele>636.59997558594</ele>
        <time>2023-05-27T08:04:50.000Z</time>
      </trkpt>
      <trkpt lat="43.70765" lon="3.26282">
        <ele>636.59997558594</ele>
        <time>2023-05-27T08:04:52.000Z</time>
      </trkpt>
      <trkpt lat="43.7077" lon="3.26279">
        <ele>637.20001220703</ele>
        <time>2023-05-27T08:04:57.000Z</time>
      </trkpt>
      <trkpt lat="43.70774" lon="3.26276">
        <ele>637.20001220703</ele>
        <time>2023-05-27T08:05:04.000Z</time>
      </trkpt>
      <trkpt lat="43.70779" lon="3.26271">
        <ele>637.20001220703</ele>
        <time>2023-05-27T08:05:10.000Z</time>
      </trkpt>
      <trkpt lat="43.70781" lon="3.2627">
        <ele>637.20001220703</ele>
        <time>2023-05-27T08:05:12.000Z</time>
      </trkpt>
      <trkpt lat="43.70788" lon="3.26264">
        <ele>637.59997558594</ele>
        <time>2023-05-27T08:05:20.000Z</time>
      </trkpt>
      <trkpt lat="43.70789" lon="3.26263">
        <ele>637.59997558594</ele>
        <time>2023-05-27T08:05:22.000Z</time>
      </trkpt>
      <trkpt lat="43.70792" lon="3.26261">
        <ele>636</ele>
        <time>2023-05-27T08:05:25.000Z</time>
      </trkpt>
      <trkpt lat="43.70794" lon="3.2626">
        <ele>635.20001220703</ele>
        <time>2023-05-27T08:05:27.000Z</time>
      </trkpt>
      <trkpt lat="43.70795" lon="3.26259">
        <ele>632.59997558594</ele>
        <time>2023-05-27T08:05:28.000Z</time>
      </trkpt>
      <trkpt lat="43.70795" lon="3.26258">
        <ele>629.40002441406</ele>
        <time>2023-05-27T08:05:29.000Z</time>
      </trkpt>
      <trkpt lat="43.70799" lon="3.26256">
        <ele>631.40002441406</ele>
        <time>2023-05-27T08:05:32.000Z</time>
      </trkpt>
      <trkpt lat="43.70799" lon="3.26255">
        <ele>632.79998779297</ele>
        <time>2023-05-27T08:05:33.000Z</time>
      </trkpt>
      <trkpt lat="43.70801" lon="3.26254">
        <ele>634.79998779297</ele>
        <time>2023-05-27T08:05:34.000Z</time>
      </trkpt>
      <trkpt lat="43.70802" lon="3.26253">
        <ele>638.40002441406</ele>
        <time>2023-05-27T08:05:35.000Z</time>
      </trkpt>
      <trkpt lat="43.70804" lon="3.26251">
        <ele>637.59997558594</ele>
        <time>2023-05-27T08:05:37.000Z</time>
      </trkpt>
      <trkpt lat="43.70808" lon="3.26248">
        <ele>636.79998779297</ele>
        <time>2023-05-27T08:05:41.000Z</time>
      </trkpt>
      <trkpt lat="43.70811" lon="3.26245">
        <ele>636.59997558594</ele>
        <time>2023-05-27T08:05:44.000Z</time>
      </trkpt>
      <trkpt lat="43.70822" lon="3.26237">
        <ele>637.59997558594</ele>
        <time>2023-05-27T08:05:54.000Z</time>
      </trkpt>
      <trkpt lat="43.70826" lon="3.26235">
        <ele>642</ele>
        <time>2023-05-27T08:05:58.000Z</time>
      </trkpt>
      <trkpt lat="43.70831" lon="3.2623">
        <ele>638.40002441406</ele>
        <time>2023-05-27T08:06:03.000Z</time>
      </trkpt>
      <trkpt lat="43.70833" lon="3.26229">
        <ele>638.40002441406</ele>
        <time>2023-05-27T08:06:05.000Z</time>
      </trkpt>
      <trkpt lat="43.70841" lon="3.26221">
        <ele>638.40002441406</ele>
        <time>2023-05-27T08:06:14.000Z</time>
      </trkpt>
      <trkpt lat="43.70842" lon="3.2622">
        <ele>638.40002441406</ele>
        <time>2023-05-27T08:06:15.000Z</time>
      </trkpt>
      <trkpt lat="43.70846" lon="3.26216">
        <ele>638.59997558594</ele>
        <time>2023-05-27T08:06:19.000Z</time>
      </trkpt>
      <trkpt lat="43.70848" lon="3.26215">
        <ele>638.59997558594</ele>
        <time>2023-05-27T08:06:21.000Z</time>
      </trkpt>
      <trkpt lat="43.70852" lon="3.26211">
        <ele>638.59997558594</ele>
        <time>2023-05-27T08:06:25.000Z</time>
      </trkpt>
      <trkpt lat="43.7086" lon="3.26205">
        <ele>639.20001220703</ele>
        <time>2023-05-27T08:06:33.000Z</time>
      </trkpt>
      <trkpt lat="43.70871" lon="3.26198">
        <ele>639.20001220703</ele>
        <time>2023-05-27T08:06:43.000Z</time>
      </trkpt>
      <trkpt lat="43.7088" lon="3.26192">
        <ele>638.59997558594</ele>
        <time>2023-05-27T08:06:52.000Z</time>
      </trkpt>
      <trkpt lat="43.7089" lon="3.26186">
        <ele>638</ele>
        <time>2023-05-27T08:07:01.000Z</time>
      </trkpt>
      <trkpt lat="43.70899" lon="3.26183">
        <ele>637.79998779297</ele>
        <time>2023-05-27T08:07:09.000Z</time>
      </trkpt>
      <trkpt lat="43.70905" lon="3.26181">
        <ele>637.59997558594</ele>
        <time>2023-05-27T08:07:14.000Z</time>
      </trkpt>
      <trkpt lat="43.70907" lon="3.2618">
        <ele>637.59997558594</ele>
        <time>2023-05-27T08:07:16.000Z</time>
      </trkpt>
      <trkpt lat="43.7091" lon="3.26179">
        <ele>637.59997558594</ele>
        <time>2023-05-27T08:07:19.000Z</time>
      </trkpt>
      <trkpt lat="43.70917" lon="3.26176">
        <ele>637.59997558594</ele>
        <time>2023-05-27T08:07:25.000Z</time>
      </trkpt>
      <trkpt lat="43.70928" lon="3.26171">
        <ele>638.20001220703</ele>
        <time>2023-05-27T08:07:35.000Z</time>
      </trkpt>
      <trkpt lat="43.70937" lon="3.26167">
        <ele>639.20001220703</ele>
        <time>2023-05-27T08:07:44.000Z</time>
      </trkpt>
      <trkpt lat="43.70945" lon="3.26163">
        <ele>639.40002441406</ele>
        <time>2023-05-27T08:07:51.000Z</time>
      </trkpt>
      <trkpt lat="43.70952" lon="3.26162">
        <ele>639.40002441406</ele>
        <time>2023-05-27T08:07:58.000Z</time>
      </trkpt>
      <trkpt lat="43.7096" lon="3.26159">
        <ele>639.20001220703</ele>
        <time>2023-05-27T08:08:06.000Z</time>
      </trkpt>
      <trkpt lat="43.70972" lon="3.26157">
        <ele>638.59997558594</ele>
        <time>2023-05-27T08:08:17.000Z</time>
      </trkpt>
      <trkpt lat="43.70977" lon="3.26156">
        <ele>638</ele>
        <time>2023-05-27T08:08:23.000Z</time>
      </trkpt>
      <trkpt lat="43.70984" lon="3.26155">
        <ele>637.40002441406</ele>
        <time>2023-05-27T08:08:29.000Z</time>
      </trkpt>
      <trkpt lat="43.70986" lon="3.26155">
        <ele>637.40002441406</ele>
        <time>2023-05-27T08:08:31.000Z</time>
      </trkpt>
      <trkpt lat="43.7099" lon="3.26155">
        <ele>637.20001220703</ele>
        <time>2023-05-27T08:08:36.000Z</time>
      </trkpt>
      <trkpt lat="43.70999" lon="3.26152">
        <ele>636.79998779297</ele>
        <time>2023-05-27T08:08:44.000Z</time>
      </trkpt>
      <trkpt lat="43.71006" lon="3.2615">
        <ele>636.59997558594</ele>
        <time>2023-05-27T08:08:51.000Z</time>
      </trkpt>
      <trkpt lat="43.7101" lon="3.26149">
        <ele>636.40002441406</ele>
        <time>2023-05-27T08:08:54.000Z</time>
      </trkpt>
      <trkpt lat="43.71015" lon="3.26149">
        <ele>636.40002441406</ele>
        <time>2023-05-27T08:08:59.000Z</time>
      </trkpt>
      <trkpt lat="43.71024" lon="3.26149">
        <ele>636.40002441406</ele>
        <time>2023-05-27T08:09:07.000Z</time>
      </trkpt>
      <trkpt lat="43.71035" lon="3.26152">
        <ele>636.59997558594</ele>
        <time>2023-05-27T08:09:17.000Z</time>
      </trkpt>
      <trkpt lat="43.71048" lon="3.26155">
        <ele>636.79998779297</ele>
        <time>2023-05-27T08:09:29.000Z</time>
      </trkpt>
      <trkpt lat="43.71059" lon="3.26156">
        <ele>637.40002441406</ele>
        <time>2023-05-27T08:09:38.000Z</time>
      </trkpt>
      <trkpt lat="43.7106" lon="3.26156">
        <ele>637.40002441406</ele>
        <time>2023-05-27T08:09:39.000Z</time>
      </trkpt>
      <trkpt lat="43.71075" lon="3.26155">
        <ele>637.40002441406</ele>
        <time>2023-05-27T08:09:52.000Z</time>
      </trkpt>
      <trkpt lat="43.71083" lon="3.26152">
        <ele>637.40002441406</ele>
        <time>2023-05-27T08:10:00.000Z</time>
      </trkpt>
      <trkpt lat="43.71093" lon="3.26145">
        <ele>637.79998779297</ele>
        <time>2023-05-27T08:10:10.000Z</time>
      </trkpt>
      <trkpt lat="43.71101" lon="3.26139">
        <ele>638.20001220703</ele>
        <time>2023-05-27T08:10:19.000Z</time>
      </trkpt>
      <trkpt lat="43.71102" lon="3.26138">
        <ele>638.40002441406</ele>
        <time>2023-05-27T08:10:21.000Z</time>
      </trkpt>
      <trkpt lat="43.71106" lon="3.26133">
        <ele>639</ele>
        <time>2023-05-27T08:10:26.000Z</time>
      </trkpt>
      <trkpt lat="43.71112" lon="3.26124">
        <ele>639.40002441406</ele>
        <time>2023-05-27T08:10:34.000Z</time>
      </trkpt>
      <trkpt lat="43.71115" lon="3.26121">
        <ele>639.40002441406</ele>
        <time>2023-05-27T08:10:38.000Z</time>
      </trkpt>
      <trkpt lat="43.71118" lon="3.26115">
        <ele>640</ele>
        <time>2023-05-27T08:10:43.000Z</time>
      </trkpt>
      <trkpt lat="43.71122" lon="3.2611">
        <ele>640.59997558594</ele>
        <time>2023-05-27T08:10:49.000Z</time>
      </trkpt>
      <trkpt lat="43.71125" lon="3.26108">
        <ele>640.79998779297</ele>
        <time>2023-05-27T08:10:52.000Z</time>
      </trkpt>
      <trkpt lat="43.71127" lon="3.26104">
        <ele>641</ele>
        <time>2023-05-27T08:10:56.000Z</time>
      </trkpt>
      <trkpt lat="43.71129" lon="3.26102">
        <ele>641.20001220703</ele>
        <time>2023-05-27T08:10:59.000Z</time>
      </trkpt>
      <trkpt lat="43.7113" lon="3.26101">
        <ele>641.40002441406</ele>
        <time>2023-05-27T08:11:00.000Z</time>
      </trkpt>
      <trkpt lat="43.71132" lon="3.261">
        <ele>641.59997558594</ele>
        <time>2023-05-27T08:11:02.000Z</time>
      </trkpt>
      <trkpt lat="43.71134" lon="3.26099">
        <ele>641.79998779297</ele>
        <time>2023-05-27T08:11:05.000Z</time>
      </trkpt>
      <trkpt lat="43.7114" lon="3.26096">
        <ele>642.59997558594</ele>
        <time>2023-05-27T08:11:13.000Z</time>
      </trkpt>
      <trkpt lat="43.71141" lon="3.26096">
        <ele>642.59997558594</ele>
        <time>2023-05-27T08:11:14.000Z</time>
      </trkpt>
      <trkpt lat="43.71145" lon="3.26095">
        <ele>643.59997558594</ele>
        <time>2023-05-27T08:11:20.000Z</time>
      </trkpt>
      <trkpt lat="43.71145" lon="3.26095">
        <ele>643.79998779297</ele>
        <time>2023-05-27T08:11:21.000Z</time>
      </trkpt>
      <trkpt lat="43.71151" lon="3.2609">
        <ele>644.40002441406</ele>
        <time>2023-05-27T08:11:29.000Z</time>
      </trkpt>
      <trkpt lat="43.71154" lon="3.26089">
        <ele>644.79998779297</ele>
        <time>2023-05-27T08:11:32.000Z</time>
      </trkpt>
      <trkpt lat="43.71157" lon="3.26086">
        <ele>645</ele>
        <time>2023-05-27T08:11:37.000Z</time>
      </trkpt>
      <trkpt lat="43.71163" lon="3.26081">
        <ele>645.79998779297</ele>
        <time>2023-05-27T08:11:45.000Z</time>
      </trkpt>
      <trkpt lat="43.71164" lon="3.26081">
        <ele>645.79998779297</ele>
        <time>2023-05-27T08:11:46.000Z</time>
      </trkpt>
      <trkpt lat="43.71165" lon="3.2608">
        <ele>648.59997558594</ele>
        <time>2023-05-27T08:11:47.000Z</time>
      </trkpt>
      <trkpt lat="43.71168" lon="3.26077">
        <ele>648.79998779297</ele>
        <time>2023-05-27T08:11:51.000Z</time>
      </trkpt>
      <trkpt lat="43.7117" lon="3.26076">
        <ele>646.59997558594</ele>
        <time>2023-05-27T08:11:53.000Z</time>
      </trkpt>
      <trkpt lat="43.71172" lon="3.26074">
        <ele>647.20001220703</ele>
        <time>2023-05-27T08:11:56.000Z</time>
      </trkpt>
      <trkpt lat="43.71174" lon="3.26072">
        <ele>647.20001220703</ele>
        <time>2023-05-27T08:11:58.000Z</time>
      </trkpt>
      <trkpt lat="43.71181" lon="3.26067">
        <ele>647.40002441406</ele>
        <time>2023-05-27T08:12:07.000Z</time>
      </trkpt>
      <trkpt lat="43.71186" lon="3.26061">
        <ele>647.59997558594</ele>
        <time>2023-05-27T08:12:14.000Z</time>
      </trkpt>
      <trkpt lat="43.71187" lon="3.26061">
        <ele>647.79998779297</ele>
        <time>2023-05-27T08:12:15.000Z</time>
      </trkpt>
      <trkpt lat="43.71192" lon="3.26056">
        <ele>648</ele>
        <time>2023-05-27T08:12:21.000Z</time>
      </trkpt>
      <trkpt lat="43.71197" lon="3.26049">
        <ele>648.20001220703</ele>
        <time>2023-05-27T08:12:29.000Z</time>
      </trkpt>
      <trkpt lat="43.71201" lon="3.26041">
        <ele>648.59997558594</ele>
        <time>2023-05-27T08:12:36.000Z</time>
      </trkpt>
      <trkpt lat="43.71202" lon="3.2604">
        <ele>648.79998779297</ele>
        <time>2023-05-27T08:12:37.000Z</time>
      </trkpt>
      <trkpt lat="43.71206" lon="3.26033">
        <ele>649</ele>
        <time>2023-05-27T08:12:44.000Z</time>
      </trkpt>
      <trkpt lat="43.7121" lon="3.26024">
        <ele>649.59997558594</ele>
        <time>2023-05-27T08:12:52.000Z</time>
      </trkpt>
      <trkpt lat="43.71211" lon="3.26022">
        <ele>649.79998779297</ele>
        <time>2023-05-27T08:12:54.000Z</time>
      </trkpt>
      <trkpt lat="43.71216" lon="3.26011">
        <ele>650</ele>
        <time>2023-05-27T08:13:03.000Z</time>
      </trkpt>
      <trkpt lat="43.71218" lon="3.26004">
        <ele>650.20001220703</ele>
        <time>2023-05-27T08:13:08.000Z</time>
      </trkpt>
      <trkpt lat="43.7122" lon="3.26">
        <ele>650.20001220703</ele>
        <time>2023-05-27T08:13:11.000Z</time>
      </trkpt>
      <trkpt lat="43.71224" lon="3.25989">
        <ele>650.40002441406</ele>
        <time>2023-05-27T08:13:20.000Z</time>
      </trkpt>
      <trkpt lat="43.71226" lon="3.25983">
        <ele>650.40002441406</ele>
        <time>2023-05-27T08:13:25.000Z</time>
      </trkpt>
      <trkpt lat="43.71228" lon="3.25979">
        <ele>650.40002441406</ele>
        <time>2023-05-27T08:13:28.000Z</time>
      </trkpt>
      <trkpt lat="43.7123" lon="3.25973">
        <ele>650.59997558594</ele>
        <time>2023-05-27T08:13:35.000Z</time>
      </trkpt>
      <trkpt lat="43.71231" lon="3.25973">
        <ele>650.40002441406</ele>
        <time>2023-05-27T08:13:36.000Z</time>
      </trkpt>
      <trkpt lat="43.71234" lon="3.25968">
        <ele>650.59997558594</ele>
        <time>2023-05-27T08:13:40.000Z</time>
      </trkpt>
      <trkpt lat="43.71235" lon="3.25966">
        <ele>650.79998779297</ele>
        <time>2023-05-27T08:13:42.000Z</time>
      </trkpt>
      <trkpt lat="43.71237" lon="3.25963">
        <ele>650.79998779297</ele>
        <time>2023-05-27T08:13:45.000Z</time>
      </trkpt>
      <trkpt lat="43.71239" lon="3.25961">
        <ele>650.79998779297</ele>
        <time>2023-05-27T08:13:47.000Z</time>
      </trkpt>
      <trkpt lat="43.71242" lon="3.25956">
        <ele>650.59997558594</ele>
        <time>2023-05-27T08:13:52.000Z</time>
      </trkpt>
      <trkpt lat="43.71242" lon="3.25955">
        <ele>650.59997558594</ele>
        <time>2023-05-27T08:13:53.000Z</time>
      </trkpt>
      <trkpt lat="43.71242" lon="3.25955">
        <ele>650.59997558594</ele>
        <time>2023-05-27T08:13:59.000Z</time>
      </trkpt>
      <trkpt lat="43.71241" lon="3.25953">
        <ele>650.40002441406</ele>
        <time>2023-05-27T08:14:06.000Z</time>
      </trkpt>
      <trkpt lat="43.71241" lon="3.25953">
        <ele>650.59997558594</ele>
        <time>2023-05-27T08:14:13.000Z</time>
      </trkpt>
      <trkpt lat="43.71241" lon="3.25951">
        <ele>650.59997558594</ele>
        <time>2023-05-27T08:14:21.000Z</time>
      </trkpt>
      <trkpt lat="43.71247" lon="3.25947">
        <ele>650.40002441406</ele>
        <time>2023-05-27T08:14:28.000Z</time>
      </trkpt>
      <trkpt lat="43.7125" lon="3.2594">
        <ele>650</ele>
        <time>2023-05-27T08:14:34.000Z</time>
      </trkpt>
      <trkpt lat="43.71253" lon="3.25937">
        <ele>649.79998779297</ele>
        <time>2023-05-27T08:14:38.000Z</time>
      </trkpt>
      <trkpt lat="43.71255" lon="3.25933">
        <ele>649.40002441406</ele>
        <time>2023-05-27T08:14:41.000Z</time>
      </trkpt>
      <trkpt lat="43.71256" lon="3.25931">
        <ele>649.20001220703</ele>
        <time>2023-05-27T08:14:43.000Z</time>
      </trkpt>
      <trkpt lat="43.71257" lon="3.25928">
        <ele>649</ele>
        <time>2023-05-27T08:14:46.000Z</time>
      </trkpt>
      <trkpt lat="43.71259" lon="3.25923">
        <ele>648.59997558594</ele>
        <time>2023-05-27T08:14:51.000Z</time>
      </trkpt>
      <trkpt lat="43.71259" lon="3.25921">
        <ele>648.59997558594</ele>
        <time>2023-05-27T08:14:52.000Z</time>
      </trkpt>
      <trkpt lat="43.71261" lon="3.25916">
        <ele>647.59997558594</ele>
        <time>2023-05-27T08:14:57.000Z</time>
      </trkpt>
      <trkpt lat="43.71261" lon="3.25915">
        <ele>647.40002441406</ele>
        <time>2023-05-27T08:14:58.000Z</time>
      </trkpt>
      <trkpt lat="43.71262" lon="3.25914">
        <ele>647.40002441406</ele>
        <time>2023-05-27T08:14:59.000Z</time>
      </trkpt>
      <trkpt lat="43.71262" lon="3.25912">
        <ele>647.20001220703</ele>
        <time>2023-05-27T08:15:00.000Z</time>
      </trkpt>
      <trkpt lat="43.71264" lon="3.2591">
        <ele>647</ele>
        <time>2023-05-27T08:15:03.000Z</time>
      </trkpt>
      <trkpt lat="43.71265" lon="3.25906">
        <ele>646.40002441406</ele>
        <time>2023-05-27T08:15:08.000Z</time>
      </trkpt>
      <trkpt lat="43.71266" lon="3.25903">
        <ele>645.79998779297</ele>
        <time>2023-05-27T08:15:12.000Z</time>
      </trkpt>
      <trkpt lat="43.7127" lon="3.25897">
        <ele>645.59997558594</ele>
        <time>2023-05-27T08:15:17.000Z</time>
      </trkpt>
      <trkpt lat="43.71272" lon="3.25894">
        <ele>645.20001220703</ele>
        <time>2023-05-27T08:15:21.000Z</time>
      </trkpt>
      <trkpt lat="43.71273" lon="3.25891">
        <ele>645</ele>
        <time>2023-05-27T08:15:23.000Z</time>
      </trkpt>
      <trkpt lat="43.71276" lon="3.25887">
        <ele>644.79998779297</ele>
        <time>2023-05-27T08:15:29.000Z</time>
      </trkpt>
      <trkpt lat="43.71276" lon="3.25885">
        <ele>644.79998779297</ele>
        <time>2023-05-27T08:15:31.000Z</time>
      </trkpt>
      <trkpt lat="43.71279" lon="3.25882">
        <ele>644.20001220703</ele>
        <time>2023-05-27T08:15:35.000Z</time>
      </trkpt>
      <trkpt lat="43.7128" lon="3.2588">
        <ele>643.59997558594</ele>
        <time>2023-05-27T08:15:37.000Z</time>
      </trkpt>
      <trkpt lat="43.71281" lon="3.25878">
        <ele>643.40002441406</ele>
        <time>2023-05-27T08:15:39.000Z</time>
      </trkpt>
      <trkpt lat="43.71283" lon="3.25876">
        <ele>643</ele>
        <time>2023-05-27T08:15:42.000Z</time>
      </trkpt>
      <trkpt lat="43.71284" lon="3.25873">
        <ele>642.79998779297</ele>
        <time>2023-05-27T08:15:44.000Z</time>
      </trkpt>
      <trkpt lat="43.71285" lon="3.25872">
        <ele>642.59997558594</ele>
        <time>2023-05-27T08:15:45.000Z</time>
      </trkpt>
      <trkpt lat="43.71288" lon="3.25866">
        <ele>642</ele>
        <time>2023-05-27T08:15:50.000Z</time>
      </trkpt>
      <trkpt lat="43.71289" lon="3.25865">
        <ele>642</ele>
        <time>2023-05-27T08:15:51.000Z</time>
      </trkpt>
      <trkpt lat="43.71289" lon="3.25865">
        <ele>641.79998779297</ele>
        <time>2023-05-27T08:15:52.000Z</time>
      </trkpt>
      <trkpt lat="43.71289" lon="3.25864">
        <ele>641.40002441406</ele>
        <time>2023-05-27T08:15:58.000Z</time>
      </trkpt>
      <trkpt lat="43.7129" lon="3.25862">
        <ele>641.40002441406</ele>
        <time>2023-05-27T08:16:05.000Z</time>
      </trkpt>
      <trkpt lat="43.7129" lon="3.25861">
        <ele>641.59997558594</ele>
        <time>2023-05-27T08:16:12.000Z</time>
      </trkpt>
      <trkpt lat="43.7129" lon="3.25862">
        <ele>641.59997558594</ele>
        <time>2023-05-27T08:16:19.000Z</time>
      </trkpt>
      <trkpt lat="43.7129" lon="3.25862">
        <ele>641.40002441406</ele>
        <time>2023-05-27T08:16:25.000Z</time>
      </trkpt>
      <trkpt lat="43.7129" lon="3.25861">
        <ele>641</ele>
        <time>2023-05-27T08:16:34.000Z</time>
      </trkpt>
      <trkpt lat="43.7129" lon="3.25861">
        <ele>641</ele>
        <time>2023-05-27T08:16:35.000Z</time>
      </trkpt>
      <trkpt lat="43.71291" lon="3.25861">
        <ele>641.40002441406</ele>
        <time>2023-05-27T08:16:40.000Z</time>
      </trkpt>
      <trkpt lat="43.7129" lon="3.25861">
        <ele>641.40002441406</ele>
        <time>2023-05-27T08:16:47.000Z</time>
      </trkpt>
      <trkpt lat="43.7129" lon="3.2586">
        <ele>641</ele>
        <time>2023-05-27T08:16:58.000Z</time>
      </trkpt>
      <trkpt lat="43.7129" lon="3.25861">
        <ele>641.59997558594</ele>
        <time>2023-05-27T08:17:07.000Z</time>
      </trkpt>
      <trkpt lat="43.71289" lon="3.25861">
        <ele>641</ele>
        <time>2023-05-27T08:17:14.000Z</time>
      </trkpt>
      <trkpt lat="43.71289" lon="3.25861">
        <ele>641.40002441406</ele>
        <time>2023-05-27T08:17:21.000Z</time>
      </trkpt>
      <trkpt lat="43.7129" lon="3.25862">
        <ele>641.59997558594</ele>
        <time>2023-05-27T08:17:22.000Z</time>
      </trkpt>
      <trkpt lat="43.71293" lon="3.25857">
        <ele>641.20001220703</ele>
        <time>2023-05-27T08:32:16.000Z</time>
      </trkpt>
      <trkpt lat="43.71295" lon="3.25852">
        <ele>641</ele>
        <time>2023-05-27T08:32:22.000Z</time>
      </trkpt>
      <trkpt lat="43.71298" lon="3.25846">
        <ele>640.40002441406</ele>
        <time>2023-05-27T08:32:28.000Z</time>
      </trkpt>
      <trkpt lat="43.713" lon="3.25842">
        <ele>640</ele>
        <time>2023-05-27T08:32:31.000Z</time>
      </trkpt>
      <trkpt lat="43.713" lon="3.25841">
        <ele>640</ele>
        <time>2023-05-27T08:32:32.000Z</time>
      </trkpt>
      <trkpt lat="43.71302" lon="3.2584">
        <ele>639.79998779297</ele>
        <time>2023-05-27T08:32:34.000Z</time>
      </trkpt>
      <trkpt lat="43.71304" lon="3.25838">
        <ele>639.79998779297</ele>
        <time>2023-05-27T08:32:37.000Z</time>
      </trkpt>
      <trkpt lat="43.71306" lon="3.25834">
        <ele>639.59997558594</ele>
        <time>2023-05-27T08:32:40.000Z</time>
      </trkpt>
      <trkpt lat="43.7131" lon="3.25828">
        <ele>639</ele>
        <time>2023-05-27T08:32:46.000Z</time>
      </trkpt>
      <trkpt lat="43.7131" lon="3.25827">
        <ele>638.79998779297</ele>
        <time>2023-05-27T08:32:47.000Z</time>
      </trkpt>
      <trkpt lat="43.71313" lon="3.25825">
        <ele>638.59997558594</ele>
        <time>2023-05-27T08:32:51.000Z</time>
      </trkpt>
      <trkpt lat="43.71313" lon="3.25824">
        <ele>638.40002441406</ele>
        <time>2023-05-27T08:32:52.000Z</time>
      </trkpt>
      <trkpt lat="43.71314" lon="3.25824">
        <ele>638.40002441406</ele>
        <time>2023-05-27T08:32:53.000Z</time>
      </trkpt>
      <trkpt lat="43.71315" lon="3.25823">
        <ele>638</ele>
        <time>2023-05-27T08:32:56.000Z</time>
      </trkpt>
      <trkpt lat="43.71318" lon="3.25821">
        <ele>637.20001220703</ele>
        <time>2023-05-27T08:33:00.000Z</time>
      </trkpt>
      <trkpt lat="43.71319" lon="3.2582">
        <ele>636.79998779297</ele>
        <time>2023-05-27T08:33:02.000Z</time>
      </trkpt>
      <trkpt lat="43.71323" lon="3.25816">
        <ele>636</ele>
        <time>2023-05-27T08:33:08.000Z</time>
      </trkpt>
      <trkpt lat="43.71323" lon="3.25816">
        <ele>635.79998779297</ele>
        <time>2023-05-27T08:33:09.000Z</time>
      </trkpt>
      <trkpt lat="43.71328" lon="3.25812">
        <ele>635.20001220703</ele>
        <time>2023-05-27T08:33:16.000Z</time>
      </trkpt>
      <trkpt lat="43.71331" lon="3.25811">
        <ele>634.79998779297</ele>
        <time>2023-05-27T08:33:20.000Z</time>
      </trkpt>
      <trkpt lat="43.71334" lon="3.25809">
        <ele>634.40002441406</ele>
        <time>2023-05-27T08:33:24.000Z</time>
      </trkpt>
      <trkpt lat="43.71337" lon="3.25808">
        <ele>633.79998779297</ele>
        <time>2023-05-27T08:33:29.000Z</time>
      </trkpt>
      <trkpt lat="43.71337" lon="3.25808">
        <ele>633.40002441406</ele>
        <time>2023-05-27T08:33:31.000Z</time>
      </trkpt>
      <trkpt lat="43.71337" lon="3.25806">
        <ele>632.79998779297</ele>
        <time>2023-05-27T08:33:36.000Z</time>
      </trkpt>
      <trkpt lat="43.71337" lon="3.25806">
        <ele>633</ele>
        <time>2023-05-27T08:33:39.000Z</time>
      </trkpt>
      <trkpt lat="43.71339" lon="3.25805">
        <ele>633.40002441406</ele>
        <time>2023-05-27T08:33:52.000Z</time>
      </trkpt>
      <trkpt lat="43.71344" lon="3.25802">
        <ele>632.79998779297</ele>
        <time>2023-05-27T08:33:58.000Z</time>
      </trkpt>
      <trkpt lat="43.71351" lon="3.25798">
        <ele>632.40002441406</ele>
        <time>2023-05-27T08:34:05.000Z</time>
      </trkpt>
      <trkpt lat="43.71359" lon="3.25793">
        <ele>631.79998779297</ele>
        <time>2023-05-27T08:34:13.000Z</time>
      </trkpt>
      <trkpt lat="43.71364" lon="3.25789">
        <ele>631.59997558594</ele>
        <time>2023-05-27T08:34:19.000Z</time>
      </trkpt>
      <trkpt lat="43.71368" lon="3.25787">
        <ele>631.40002441406</ele>
        <time>2023-05-27T08:34:22.000Z</time>
      </trkpt>
      <trkpt lat="43.7137" lon="3.25786">
        <ele>631.20001220703</ele>
        <time>2023-05-27T08:34:24.000Z</time>
      </trkpt>
      <trkpt lat="43.71374" lon="3.25782">
        <ele>630.79998779297</ele>
        <time>2023-05-27T08:34:29.000Z</time>
      </trkpt>
      <trkpt lat="43.71375" lon="3.2578">
        <ele>630.79998779297</ele>
        <time>2023-05-27T08:34:31.000Z</time>
      </trkpt>
      <trkpt lat="43.71377" lon="3.25773">
        <ele>630.79998779297</ele>
        <time>2023-05-27T08:34:36.000Z</time>
      </trkpt>
      <trkpt lat="43.71378" lon="3.2577">
        <ele>630.59997558594</ele>
        <time>2023-05-27T08:34:38.000Z</time>
      </trkpt>
      <trkpt lat="43.71377" lon="3.25761">
        <ele>630</ele>
        <time>2023-05-27T08:34:45.000Z</time>
      </trkpt>
      <trkpt lat="43.71376" lon="3.25757">
        <ele>629.59997558594</ele>
        <time>2023-05-27T08:34:48.000Z</time>
      </trkpt>
      <trkpt lat="43.71376" lon="3.25752">
        <ele>629.20001220703</ele>
        <time>2023-05-27T08:34:52.000Z</time>
      </trkpt>
      <trkpt lat="43.71375" lon="3.25744">
        <ele>628.59997558594</ele>
        <time>2023-05-27T08:35:00.000Z</time>
      </trkpt>
      <trkpt lat="43.71374" lon="3.25736">
        <ele>627.79998779297</ele>
        <time>2023-05-27T08:35:08.000Z</time>
      </trkpt>
      <trkpt lat="43.71374" lon="3.25733">
        <ele>627.59997558594</ele>
        <time>2023-05-27T08:35:10.000Z</time>
      </trkpt>
      <trkpt lat="43.71374" lon="3.2573">
        <ele>627.20001220703</ele>
        <time>2023-05-27T08:35:14.000Z</time>
      </trkpt>
      <trkpt lat="43.71374" lon="3.25725">
        <ele>626.79998779297</ele>
        <time>2023-05-27T08:35:19.000Z</time>
      </trkpt>
      <trkpt lat="43.71374" lon="3.25721">
        <ele>626.59997558594</ele>
        <time>2023-05-27T08:35:22.000Z</time>
      </trkpt>
      <trkpt lat="43.71374" lon="3.25713">
        <ele>625.79998779297</ele>
        <time>2023-05-27T08:35:28.000Z</time>
      </trkpt>
      <trkpt lat="43.71374" lon="3.25706">
        <ele>625.40002441406</ele>
        <time>2023-05-27T08:35:33.000Z</time>
      </trkpt>
      <trkpt lat="43.71375" lon="3.25702">
        <ele>625</ele>
        <time>2023-05-27T08:35:36.000Z</time>
      </trkpt>
      <trkpt lat="43.71375" lon="3.25698">
        <ele>624.40002441406</ele>
        <time>2023-05-27T08:35:40.000Z</time>
      </trkpt>
      <trkpt lat="43.71376" lon="3.25694">
        <ele>624</ele>
        <time>2023-05-27T08:35:43.000Z</time>
      </trkpt>
      <trkpt lat="43.71377" lon="3.25689">
        <ele>623.40002441406</ele>
        <time>2023-05-27T08:35:47.000Z</time>
      </trkpt>
      <trkpt lat="43.71378" lon="3.2568">
        <ele>622.40002441406</ele>
        <time>2023-05-27T08:35:55.000Z</time>
      </trkpt>
      <trkpt lat="43.7138" lon="3.25668">
        <ele>621.59997558594</ele>
        <time>2023-05-27T08:36:04.000Z</time>
      </trkpt>
      <trkpt lat="43.7138" lon="3.25663">
        <ele>621.40002441406</ele>
        <time>2023-05-27T08:36:08.000Z</time>
      </trkpt>
      <trkpt lat="43.71382" lon="3.25657">
        <ele>620.79998779297</ele>
        <time>2023-05-27T08:36:13.000Z</time>
      </trkpt>
      <trkpt lat="43.71383" lon="3.2565">
        <ele>620.20001220703</ele>
        <time>2023-05-27T08:36:19.000Z</time>
      </trkpt>
      <trkpt lat="43.71385" lon="3.25645">
        <ele>619.79998779297</ele>
        <time>2023-05-27T08:36:23.000Z</time>
      </trkpt>
      <trkpt lat="43.71387" lon="3.25637">
        <ele>619.20001220703</ele>
        <time>2023-05-27T08:36:29.000Z</time>
      </trkpt>
      <trkpt lat="43.71388" lon="3.25633">
        <ele>618.79998779297</ele>
        <time>2023-05-27T08:36:32.000Z</time>
      </trkpt>
      <trkpt lat="43.71391" lon="3.25625">
        <ele>618.20001220703</ele>
        <time>2023-05-27T08:36:39.000Z</time>
      </trkpt>
      <trkpt lat="43.71392" lon="3.25623">
        <ele>618.20001220703</ele>
        <time>2023-05-27T08:36:40.000Z</time>
      </trkpt>
      <trkpt lat="43.71395" lon="3.25616">
        <ele>617.59997558594</ele>
        <time>2023-05-27T08:36:47.000Z</time>
      </trkpt>
      <trkpt lat="43.71397" lon="3.25612">
        <ele>617.20001220703</ele>
        <time>2023-05-27T08:36:50.000Z</time>
      </trkpt>
      <trkpt lat="43.71399" lon="3.25606">
        <ele>616.59997558594</ele>
        <time>2023-05-27T08:36:55.000Z</time>
      </trkpt>
      <trkpt lat="43.71403" lon="3.25597">
        <ele>616.20001220703</ele>
        <time>2023-05-27T08:37:03.000Z</time>
      </trkpt>
      <trkpt lat="43.71404" lon="3.25596">
        <ele>616.20001220703</ele>
        <time>2023-05-27T08:37:04.000Z</time>
      </trkpt>
      <trkpt lat="43.71408" lon="3.25585">
        <ele>615.20001220703</ele>
        <time>2023-05-27T08:37:13.000Z</time>
      </trkpt>
      <trkpt lat="43.7141" lon="3.2558">
        <ele>615</ele>
        <time>2023-05-27T08:37:17.000Z</time>
      </trkpt>
      <trkpt lat="43.71412" lon="3.25575">
        <ele>614.59997558594</ele>
        <time>2023-05-27T08:37:21.000Z</time>
      </trkpt>
      <trkpt lat="43.71414" lon="3.2557">
        <ele>614</ele>
        <time>2023-05-27T08:37:25.000Z</time>
      </trkpt>
      <trkpt lat="43.71417" lon="3.25564">
        <ele>613.40002441406</ele>
        <time>2023-05-27T08:37:30.000Z</time>
      </trkpt>
      <trkpt lat="43.71419" lon="3.25559">
        <ele>613</ele>
        <time>2023-05-27T08:37:34.000Z</time>
      </trkpt>
      <trkpt lat="43.71419" lon="3.25558">
        <ele>613</ele>
        <time>2023-05-27T08:37:35.000Z</time>
      </trkpt>
      <trkpt lat="43.7142" lon="3.25556">
        <ele>613</ele>
        <time>2023-05-27T08:37:37.000Z</time>
      </trkpt>
      <trkpt lat="43.71421" lon="3.25554">
        <ele>613</ele>
        <time>2023-05-27T08:37:39.000Z</time>
      </trkpt>
      <trkpt lat="43.71424" lon="3.25547">
        <ele>612</ele>
        <time>2023-05-27T08:37:45.000Z</time>
      </trkpt>
      <trkpt lat="43.71429" lon="3.25534">
        <ele>611</ele>
        <time>2023-05-27T08:37:56.000Z</time>
      </trkpt>
      <trkpt lat="43.7143" lon="3.25533">
        <ele>610.79998779297</ele>
        <time>2023-05-27T08:37:57.000Z</time>
      </trkpt>
      <trkpt lat="43.71435" lon="3.25527">
        <ele>609.79998779297</ele>
        <time>2023-05-27T08:38:04.000Z</time>
      </trkpt>
      <trkpt lat="43.71435" lon="3.25526">
        <ele>609.79998779297</ele>
        <time>2023-05-27T08:38:05.000Z</time>
      </trkpt>
      <trkpt lat="43.71439" lon="3.2552">
        <ele>609.20001220703</ele>
        <time>2023-05-27T08:38:11.000Z</time>
      </trkpt>
      <trkpt lat="43.71441" lon="3.25516">
        <ele>608.79998779297</ele>
        <time>2023-05-27T08:38:15.000Z</time>
      </trkpt>
      <trkpt lat="43.71444" lon="3.25509">
        <ele>608.20001220703</ele>
        <time>2023-05-27T08:38:20.000Z</time>
      </trkpt>
      <trkpt lat="43.71451" lon="3.25503">
        <ele>607.79998779297</ele>
        <time>2023-05-27T08:38:28.000Z</time>
      </trkpt>
      <trkpt lat="43.71452" lon="3.25502">
        <ele>607.79998779297</ele>
        <time>2023-05-27T08:38:29.000Z</time>
      </trkpt>
      <trkpt lat="43.71458" lon="3.25498">
        <ele>606.79998779297</ele>
        <time>2023-05-27T08:38:37.000Z</time>
      </trkpt>
      <trkpt lat="43.71459" lon="3.25498">
        <ele>606.59997558594</ele>
        <time>2023-05-27T08:38:38.000Z</time>
      </trkpt>
      <trkpt lat="43.71463" lon="3.25495">
        <ele>605.79998779297</ele>
        <time>2023-05-27T08:38:43.000Z</time>
      </trkpt>
      <trkpt lat="43.71467" lon="3.25494">
        <ele>605.59997558594</ele>
        <time>2023-05-27T08:38:48.000Z</time>
      </trkpt>
      <trkpt lat="43.71468" lon="3.25494">
        <ele>605.40002441406</ele>
        <time>2023-05-27T08:38:49.000Z</time>
      </trkpt>
      <trkpt lat="43.71473" lon="3.25492">
        <ele>604.40002441406</ele>
        <time>2023-05-27T08:38:55.000Z</time>
      </trkpt>
      <trkpt lat="43.71475" lon="3.25491">
        <ele>604.20001220703</ele>
        <time>2023-05-27T08:38:57.000Z</time>
      </trkpt>
      <trkpt lat="43.71479" lon="3.2549">
        <ele>603.79998779297</ele>
        <time>2023-05-27T08:39:01.000Z</time>
      </trkpt>
      <trkpt lat="43.71481" lon="3.25489">
        <ele>603.40002441406</ele>
        <time>2023-05-27T08:39:03.000Z</time>
      </trkpt>
      <trkpt lat="43.71481" lon="3.25489">
        <ele>603.40002441406</ele>
        <time>2023-05-27T08:39:04.000Z</time>
      </trkpt>
      <trkpt lat="43.71485" lon="3.25486">
        <ele>602.79998779297</ele>
        <time>2023-05-27T08:39:08.000Z</time>
      </trkpt>
      <trkpt lat="43.71487" lon="3.25485">
        <ele>602.40002441406</ele>
        <time>2023-05-27T08:39:10.000Z</time>
      </trkpt>
      <trkpt lat="43.71488" lon="3.25484">
        <ele>602.40002441406</ele>
        <time>2023-05-27T08:39:11.000Z</time>
      </trkpt>
      <trkpt lat="43.71494" lon="3.25478">
        <ele>601.79998779297</ele>
        <time>2023-05-27T08:39:18.000Z</time>
      </trkpt>
      <trkpt lat="43.71498" lon="3.25474">
        <ele>601.40002441406</ele>
        <time>2023-05-27T08:39:23.000Z</time>
      </trkpt>
      <trkpt lat="43.71501" lon="3.25471">
        <ele>601.20001220703</ele>
        <time>2023-05-27T08:39:26.000Z</time>
      </trkpt>
      <trkpt lat="43.71502" lon="3.2547">
        <ele>601</ele>
        <time>2023-05-27T08:39:28.000Z</time>
      </trkpt>
      <trkpt lat="43.71504" lon="3.25468">
        <ele>600.79998779297</ele>
        <time>2023-05-27T08:39:30.000Z</time>
      </trkpt>
      <trkpt lat="43.7151" lon="3.25461">
        <ele>600.40002441406</ele>
        <time>2023-05-27T08:39:38.000Z</time>
      </trkpt>
      <trkpt lat="43.71513" lon="3.25457">
        <ele>600.40002441406</ele>
        <time>2023-05-27T08:39:43.000Z</time>
      </trkpt>
      <trkpt lat="43.71514" lon="3.25456">
        <ele>600.40002441406</ele>
        <time>2023-05-27T08:39:44.000Z</time>
      </trkpt>
      <trkpt lat="43.71518" lon="3.25451">
        <ele>599.79998779297</ele>
        <time>2023-05-27T08:39:50.000Z</time>
      </trkpt>
      <trkpt lat="43.7152" lon="3.25449">
        <ele>599.40002441406</ele>
        <time>2023-05-27T08:39:53.000Z</time>
      </trkpt>
      <trkpt lat="43.71522" lon="3.25447">
        <ele>599.40002441406</ele>
        <time>2023-05-27T08:39:55.000Z</time>
      </trkpt>
      <trkpt lat="43.71523" lon="3.25445">
        <ele>599.20001220703</ele>
        <time>2023-05-27T08:39:57.000Z</time>
      </trkpt>
      <trkpt lat="43.71528" lon="3.25436">
        <ele>598.79998779297</ele>
        <time>2023-05-27T08:40:05.000Z</time>
      </trkpt>
      <trkpt lat="43.71532" lon="3.25424">
        <ele>598.40002441406</ele>
        <time>2023-05-27T08:40:13.000Z</time>
      </trkpt>
      <trkpt lat="43.71534" lon="3.25413">
        <ele>598.40002441406</ele>
        <time>2023-05-27T08:40:20.000Z</time>
      </trkpt>
      <trkpt lat="43.71537" lon="3.25405">
        <ele>598</ele>
        <time>2023-05-27T08:40:27.000Z</time>
      </trkpt>
      <trkpt lat="43.71538" lon="3.25402">
        <ele>598</ele>
        <time>2023-05-27T08:40:29.000Z</time>
      </trkpt>
      <trkpt lat="43.71539" lon="3.25395">
        <ele>597.59997558594</ele>
        <time>2023-05-27T08:40:33.000Z</time>
      </trkpt>
      <trkpt lat="43.7154" lon="3.25391">
        <ele>597.40002441406</ele>
        <time>2023-05-27T08:40:36.000Z</time>
      </trkpt>
      <trkpt lat="43.71541" lon="3.2539">
        <ele>597.20001220703</ele>
        <time>2023-05-27T08:40:37.000Z</time>
      </trkpt>
      <trkpt lat="43.71541" lon="3.25386">
        <ele>597</ele>
        <time>2023-05-27T08:40:39.000Z</time>
      </trkpt>
      <trkpt lat="43.71543" lon="3.25376">
        <ele>596.20001220703</ele>
        <time>2023-05-27T08:40:45.000Z</time>
      </trkpt>
      <trkpt lat="43.71545" lon="3.25371">
        <ele>596</ele>
        <time>2023-05-27T08:40:49.000Z</time>
      </trkpt>
      <trkpt lat="43.71547" lon="3.25362">
        <ele>595.59997558594</ele>
        <time>2023-05-27T08:40:56.000Z</time>
      </trkpt>
      <trkpt lat="43.71549" lon="3.25356">
        <ele>595.59997558594</ele>
        <time>2023-05-27T08:41:00.000Z</time>
      </trkpt>
      <trkpt lat="43.71552" lon="3.25351">
        <ele>595.40002441406</ele>
        <time>2023-05-27T08:41:05.000Z</time>
      </trkpt>
      <trkpt lat="43.71554" lon="3.25344">
        <ele>595.40002441406</ele>
        <time>2023-05-27T08:41:11.000Z</time>
      </trkpt>
      <trkpt lat="43.71556" lon="3.25342">
        <ele>595</ele>
        <time>2023-05-27T08:41:14.000Z</time>
      </trkpt>
      <trkpt lat="43.71558" lon="3.25337">
        <ele>594.59997558594</ele>
        <time>2023-05-27T08:41:17.000Z</time>
      </trkpt>
      <trkpt lat="43.71561" lon="3.25332">
        <ele>594</ele>
        <time>2023-05-27T08:41:23.000Z</time>
      </trkpt>
      <trkpt lat="43.71561" lon="3.25331">
        <ele>594</ele>
        <time>2023-05-27T08:41:24.000Z</time>
      </trkpt>
      <trkpt lat="43.71565" lon="3.25325">
        <ele>593.20001220703</ele>
        <time>2023-05-27T08:41:29.000Z</time>
      </trkpt>
      <trkpt lat="43.71566" lon="3.25323">
        <ele>593</ele>
        <time>2023-05-27T08:41:31.000Z</time>
      </trkpt>
      <trkpt lat="43.71568" lon="3.25317">
        <ele>592.40002441406</ele>
        <time>2023-05-27T08:41:35.000Z</time>
      </trkpt>
      <trkpt lat="43.71569" lon="3.25311">
        <ele>592</ele>
        <time>2023-05-27T08:41:40.000Z</time>
      </trkpt>
      <trkpt lat="43.7157" lon="3.2531">
        <ele>592</ele>
        <time>2023-05-27T08:41:41.000Z</time>
      </trkpt>
      <trkpt lat="43.71571" lon="3.25308">
        <ele>592</ele>
        <time>2023-05-27T08:41:44.000Z</time>
      </trkpt>
      <trkpt lat="43.71572" lon="3.25305">
        <ele>592.20001220703</ele>
        <time>2023-05-27T08:41:47.000Z</time>
      </trkpt>
      <trkpt lat="43.71573" lon="3.25303">
        <ele>592.40002441406</ele>
        <time>2023-05-27T08:41:49.000Z</time>
      </trkpt>
      <trkpt lat="43.71574" lon="3.25298">
        <ele>593</ele>
        <time>2023-05-27T08:41:52.000Z</time>
      </trkpt>
      <trkpt lat="43.71574" lon="3.25297">
        <ele>593.20001220703</ele>
        <time>2023-05-27T08:41:53.000Z</time>
      </trkpt>
      <trkpt lat="43.71575" lon="3.25293">
        <ele>593.59997558594</ele>
        <time>2023-05-27T08:41:56.000Z</time>
      </trkpt>
      <trkpt lat="43.71576" lon="3.25289">
        <ele>593.79998779297</ele>
        <time>2023-05-27T08:41:59.000Z</time>
      </trkpt>
      <trkpt lat="43.71577" lon="3.25283">
        <ele>594</ele>
        <time>2023-05-27T08:42:03.000Z</time>
      </trkpt>
      <trkpt lat="43.71577" lon="3.25282">
        <ele>594</ele>
        <time>2023-05-27T08:42:04.000Z</time>
      </trkpt>
      <trkpt lat="43.71578" lon="3.2528">
        <ele>594.20001220703</ele>
        <time>2023-05-27T08:42:06.000Z</time>
      </trkpt>
      <trkpt lat="43.71579" lon="3.25277">
        <ele>594.20001220703</ele>
        <time>2023-05-27T08:42:09.000Z</time>
      </trkpt>
      <trkpt lat="43.7158" lon="3.25276">
        <ele>594.20001220703</ele>
        <time>2023-05-27T08:42:11.000Z</time>
      </trkpt>
      <trkpt lat="43.71581" lon="3.25272">
        <ele>594.20001220703</ele>
        <time>2023-05-27T08:42:18.000Z</time>
      </trkpt>
      <trkpt lat="43.71583" lon="3.25267">
        <ele>594</ele>
        <time>2023-05-27T08:42:24.000Z</time>
      </trkpt>
      <trkpt lat="43.71587" lon="3.2526">
        <ele>594.59997558594</ele>
        <time>2023-05-27T08:42:31.000Z</time>
      </trkpt>
      <trkpt lat="43.71592" lon="3.25253">
        <ele>594.59997558594</ele>
        <time>2023-05-27T08:42:38.000Z</time>
      </trkpt>
      <trkpt lat="43.71593" lon="3.25252">
        <ele>594.59997558594</ele>
        <time>2023-05-27T08:42:39.000Z</time>
      </trkpt>
      <trkpt lat="43.71597" lon="3.25247">
        <ele>594.79998779297</ele>
        <time>2023-05-27T08:42:46.000Z</time>
      </trkpt>
      <trkpt lat="43.71598" lon="3.25245">
        <ele>595</ele>
        <time>2023-05-27T08:42:48.000Z</time>
      </trkpt>
      <trkpt lat="43.71599" lon="3.25244">
        <ele>595</ele>
        <time>2023-05-27T08:42:50.000Z</time>
      </trkpt>
      <trkpt lat="43.716" lon="3.25242">
        <ele>595.20001220703</ele>
        <time>2023-05-27T08:42:52.000Z</time>
      </trkpt>
      <trkpt lat="43.71605" lon="3.25236">
        <ele>595.40002441406</ele>
        <time>2023-05-27T08:43:00.000Z</time>
      </trkpt>
      <trkpt lat="43.71613" lon="3.2523">
        <ele>595.79998779297</ele>
        <time>2023-05-27T08:43:10.000Z</time>
      </trkpt>
      <trkpt lat="43.71613" lon="3.25229">
        <ele>595.79998779297</ele>
        <time>2023-05-27T08:43:11.000Z</time>
      </trkpt>
      <trkpt lat="43.71617" lon="3.25227">
        <ele>596.20001220703</ele>
        <time>2023-05-27T08:43:15.000Z</time>
      </trkpt>
      <trkpt lat="43.71618" lon="3.25227">
        <ele>596.40002441406</ele>
        <time>2023-05-27T08:43:16.000Z</time>
      </trkpt>
      <trkpt lat="43.71625" lon="3.25225">
        <ele>596.40002441406</ele>
        <time>2023-05-27T08:43:24.000Z</time>
      </trkpt>
      <trkpt lat="43.71626" lon="3.25224">
        <ele>596.40002441406</ele>
        <time>2023-05-27T08:43:25.000Z</time>
      </trkpt>
      <trkpt lat="43.71632" lon="3.25223">
        <ele>597.20001220703</ele>
        <time>2023-05-27T08:43:32.000Z</time>
      </trkpt>
      <trkpt lat="43.71633" lon="3.25222">
        <ele>597.20001220703</ele>
        <time>2023-05-27T08:43:33.000Z</time>
      </trkpt>
      <trkpt lat="43.71638" lon="3.25222">
        <ele>597.59997558594</ele>
        <time>2023-05-27T08:43:40.000Z</time>
      </trkpt>
      <trkpt lat="43.71645" lon="3.25222">
        <ele>598.20001220703</ele>
        <time>2023-05-27T08:43:48.000Z</time>
      </trkpt>
      <trkpt lat="43.71646" lon="3.25222">
        <ele>598.40002441406</ele>
        <time>2023-05-27T08:43:49.000Z</time>
      </trkpt>
      <trkpt lat="43.71651" lon="3.25222">
        <ele>598.79998779297</ele>
        <time>2023-05-27T08:43:56.000Z</time>
      </trkpt>
      <trkpt lat="43.71655" lon="3.25223">
        <ele>599.40002441406</ele>
        <time>2023-05-27T08:44:01.000Z</time>
      </trkpt>
      <trkpt lat="43.71658" lon="3.25223">
        <ele>599.79998779297</ele>
        <time>2023-05-27T08:44:05.000Z</time>
      </trkpt>
      <trkpt lat="43.71662" lon="3.25224">
        <ele>600.59997558594</ele>
        <time>2023-05-27T08:44:11.000Z</time>
      </trkpt>
      <trkpt lat="43.71665" lon="3.25225">
        <ele>601</ele>
        <time>2023-05-27T08:44:17.000Z</time>
      </trkpt>
      <trkpt lat="43.71666" lon="3.25225">
        <ele>601.40002441406</ele>
        <time>2023-05-27T08:44:24.000Z</time>
      </trkpt>
      <trkpt lat="43.71666" lon="3.25225">
        <ele>601.20001220703</ele>
        <time>2023-05-27T08:44:34.000Z</time>
      </trkpt>
      <trkpt lat="43.71667" lon="3.25225">
        <ele>601</ele>
        <time>2023-05-27T08:44:45.000Z</time>
      </trkpt>
      <trkpt lat="43.71667" lon="3.25224">
        <ele>601</ele>
        <time>2023-05-27T08:44:53.000Z</time>
      </trkpt>
      <trkpt lat="43.71667" lon="3.25224">
        <ele>601</ele>
        <time>2023-05-27T08:45:02.000Z</time>
      </trkpt>
      <trkpt lat="43.71667" lon="3.25224">
        <ele>601.20001220703</ele>
        <time>2023-05-27T08:45:10.000Z</time>
      </trkpt>
      <trkpt lat="43.71668" lon="3.25226">
        <ele>601.59997558594</ele>
        <time>2023-05-27T08:45:12.000Z</time>
      </trkpt>
      <trkpt lat="43.71668" lon="3.25226">
        <ele>601.20001220703</ele>
        <time>2023-05-27T08:45:17.000Z</time>
      </trkpt>
      <trkpt lat="43.71668" lon="3.25226">
        <ele>601</ele>
        <time>2023-05-27T08:45:28.000Z</time>
      </trkpt>
      <trkpt lat="43.71669" lon="3.25226">
        <ele>601</ele>
        <time>2023-05-27T08:45:43.000Z</time>
      </trkpt>
      <trkpt lat="43.71669" lon="3.25225">
        <ele>601.20001220703</ele>
        <time>2023-05-27T08:45:50.000Z</time>
      </trkpt>
      <trkpt lat="43.71669" lon="3.25225">
        <ele>601.40002441406</ele>
        <time>2023-05-27T08:45:59.000Z</time>
      </trkpt>
      <trkpt lat="43.71669" lon="3.25225">
        <ele>601.40002441406</ele>
        <time>2023-05-27T08:46:10.000Z</time>
      </trkpt>
      <trkpt lat="43.7167" lon="3.25225">
        <ele>601.40002441406</ele>
        <time>2023-05-27T08:46:22.000Z</time>
      </trkpt>
      <trkpt lat="43.7167" lon="3.25225">
        <ele>601.59997558594</ele>
        <time>2023-05-27T08:46:33.000Z</time>
      </trkpt>
      <trkpt lat="43.71671" lon="3.25226">
        <ele>601.40002441406</ele>
        <time>2023-05-27T08:46:50.000Z</time>
      </trkpt>
      <trkpt lat="43.71671" lon="3.25227">
        <ele>601.40002441406</ele>
        <time>2023-05-27T08:46:57.000Z</time>
      </trkpt>
      <trkpt lat="43.71673" lon="3.25227">
        <ele>601.20001220703</ele>
        <time>2023-05-27T08:47:03.000Z</time>
      </trkpt>
      <trkpt lat="43.71681" lon="3.25231">
        <ele>601.20001220703</ele>
        <time>2023-05-27T08:47:12.000Z</time>
      </trkpt>
      <trkpt lat="43.7169" lon="3.25238">
        <ele>601.59997558594</ele>
        <time>2023-05-27T08:47:23.000Z</time>
      </trkpt>
      <trkpt lat="43.71697" lon="3.25243">
        <ele>602</ele>
        <time>2023-05-27T08:47:32.000Z</time>
      </trkpt>
      <trkpt lat="43.71704" lon="3.25248">
        <ele>602.20001220703</ele>
        <time>2023-05-27T08:47:41.000Z</time>
      </trkpt>
      <trkpt lat="43.7171" lon="3.25253">
        <ele>602.59997558594</ele>
        <time>2023-05-27T08:47:49.000Z</time>
      </trkpt>
      <trkpt lat="43.71711" lon="3.25254">
        <ele>602.59997558594</ele>
        <time>2023-05-27T08:47:50.000Z</time>
      </trkpt>
      <trkpt lat="43.71715" lon="3.25255">
        <ele>602.79998779297</ele>
        <time>2023-05-27T08:47:56.000Z</time>
      </trkpt>
      <trkpt lat="43.71723" lon="3.2526">
        <ele>603.40002441406</ele>
        <time>2023-05-27T08:48:05.000Z</time>
      </trkpt>
      <trkpt lat="43.71725" lon="3.25261">
        <ele>603.59997558594</ele>
        <time>2023-05-27T08:48:07.000Z</time>
      </trkpt>
      <trkpt lat="43.71731" lon="3.25265">
        <ele>604.20001220703</ele>
        <time>2023-05-27T08:48:15.000Z</time>
      </trkpt>
      <trkpt lat="43.7174" lon="3.2527">
        <ele>604.40002441406</ele>
        <time>2023-05-27T08:48:26.000Z</time>
      </trkpt>
      <trkpt lat="43.71745" lon="3.25273">
        <ele>604.59997558594</ele>
        <time>2023-05-27T08:48:31.000Z</time>
      </trkpt>
      <trkpt lat="43.71747" lon="3.25274">
        <ele>604.79998779297</ele>
        <time>2023-05-27T08:48:34.000Z</time>
      </trkpt>
      <trkpt lat="43.71754" lon="3.25278">
        <ele>605.40002441406</ele>
        <time>2023-05-27T08:48:42.000Z</time>
      </trkpt>
      <trkpt lat="43.71761" lon="3.25282">
        <ele>605.40002441406</ele>
        <time>2023-05-27T08:48:50.000Z</time>
      </trkpt>
      <trkpt lat="43.71768" lon="3.25286">
        <ele>605.40002441406</ele>
        <time>2023-05-27T08:48:58.000Z</time>
      </trkpt>
      <trkpt lat="43.71776" lon="3.25287">
        <ele>605.40002441406</ele>
        <time>2023-05-27T08:49:06.000Z</time>
      </trkpt>
      <trkpt lat="43.71785" lon="3.25288">
        <ele>605</ele>
        <time>2023-05-27T08:49:15.000Z</time>
      </trkpt>
      <trkpt lat="43.71789" lon="3.25288">
        <ele>604.59997558594</ele>
        <time>2023-05-27T08:49:19.000Z</time>
      </trkpt>
      <trkpt lat="43.71792" lon="3.25287">
        <ele>604.40002441406</ele>
        <time>2023-05-27T08:49:22.000Z</time>
      </trkpt>
      <trkpt lat="43.71799" lon="3.25286">
        <ele>604</ele>
        <time>2023-05-27T08:49:29.000Z</time>
      </trkpt>
      <trkpt lat="43.71802" lon="3.25286">
        <ele>603.59997558594</ele>
        <time>2023-05-27T08:49:32.000Z</time>
      </trkpt>
      <trkpt lat="43.71808" lon="3.25289">
        <ele>602.79998779297</ele>
        <time>2023-05-27T08:49:38.000Z</time>
      </trkpt>
      <trkpt lat="43.7181" lon="3.25291">
        <ele>602.40002441406</ele>
        <time>2023-05-27T08:49:40.000Z</time>
      </trkpt>
      <trkpt lat="43.71811" lon="3.25293">
        <ele>601.79998779297</ele>
        <time>2023-05-27T08:49:45.000Z</time>
      </trkpt>
      <trkpt lat="43.71812" lon="3.25293">
        <ele>601.59997558594</ele>
        <time>2023-05-27T08:50:00.000Z</time>
      </trkpt>
      <trkpt lat="43.71814" lon="3.25296">
        <ele>601.40002441406</ele>
        <time>2023-05-27T08:50:08.000Z</time>
      </trkpt>
      <trkpt lat="43.71815" lon="3.25297">
        <ele>601.40002441406</ele>
        <time>2023-05-27T08:50:09.000Z</time>
      </trkpt>
      <trkpt lat="43.71819" lon="3.25302">
        <ele>600.79998779297</ele>
        <time>2023-05-27T08:50:15.000Z</time>
      </trkpt>
      <trkpt lat="43.71822" lon="3.25306">
        <ele>600.40002441406</ele>
        <time>2023-05-27T08:50:19.000Z</time>
      </trkpt>
      <trkpt lat="43.71824" lon="3.25309">
        <ele>600</ele>
        <time>2023-05-27T08:50:22.000Z</time>
      </trkpt>
      <trkpt lat="43.71828" lon="3.25313">
        <ele>599.40002441406</ele>
        <time>2023-05-27T08:50:27.000Z</time>
      </trkpt>
      <trkpt lat="43.71831" lon="3.25316">
        <ele>598.79998779297</ele>
        <time>2023-05-27T08:50:31.000Z</time>
      </trkpt>
      <trkpt lat="43.71834" lon="3.25317">
        <ele>598.40002441406</ele>
        <time>2023-05-27T08:50:37.000Z</time>
      </trkpt>
      <trkpt lat="43.71835" lon="3.25317">
        <ele>598.20001220703</ele>
        <time>2023-05-27T08:50:38.000Z</time>
      </trkpt>
      <trkpt lat="43.71843" lon="3.25315">
        <ele>597.59997558594</ele>
        <time>2023-05-27T08:50:46.000Z</time>
      </trkpt>
      <trkpt lat="43.71846" lon="3.25315">
        <ele>597.20001220703</ele>
        <time>2023-05-27T08:50:49.000Z</time>
      </trkpt>
      <trkpt lat="43.71849" lon="3.25315">
        <ele>596.79998779297</ele>
        <time>2023-05-27T08:50:52.000Z</time>
      </trkpt>
      <trkpt lat="43.71854" lon="3.25315">
        <ele>596.20001220703</ele>
        <time>2023-05-27T08:50:57.000Z</time>
      </trkpt>
      <trkpt lat="43.71856" lon="3.25315">
        <ele>595.59997558594</ele>
        <time>2023-05-27T08:51:01.000Z</time>
      </trkpt>
      <trkpt lat="43.71861" lon="3.25319">
        <ele>595</ele>
        <time>2023-05-27T08:51:08.000Z</time>
      </trkpt>
      <trkpt lat="43.71866" lon="3.25322">
        <ele>594.59997558594</ele>
        <time>2023-05-27T08:51:14.000Z</time>
      </trkpt>
      <trkpt lat="43.7187" lon="3.25324">
        <ele>594</ele>
        <time>2023-05-27T08:51:19.000Z</time>
      </trkpt>
      <trkpt lat="43.71873" lon="3.25327">
        <ele>593.40002441406</ele>
        <time>2023-05-27T08:51:23.000Z</time>
      </trkpt>
      <trkpt lat="43.71878" lon="3.25332">
        <ele>593</ele>
        <time>2023-05-27T08:51:29.000Z</time>
      </trkpt>
      <trkpt lat="43.71879" lon="3.25334">
        <ele>593</ele>
        <time>2023-05-27T08:51:30.000Z</time>
      </trkpt>
      <trkpt lat="43.71882" lon="3.25343">
        <ele>592.20001220703</ele>
        <time>2023-05-27T08:51:38.000Z</time>
      </trkpt>
      <trkpt lat="43.71885" lon="3.25347">
        <ele>592</ele>
        <time>2023-05-27T08:51:42.000Z</time>
      </trkpt>
      <trkpt lat="43.71886" lon="3.25348">
        <ele>591.79998779297</ele>
        <time>2023-05-27T08:51:43.000Z</time>
      </trkpt>
      <trkpt lat="43.71888" lon="3.2535">
        <ele>591.59997558594</ele>
        <time>2023-05-27T08:51:46.000Z</time>
      </trkpt>
      <trkpt lat="43.71889" lon="3.25351">
        <ele>591.59997558594</ele>
        <time>2023-05-27T08:51:48.000Z</time>
      </trkpt>
      <trkpt lat="43.71895" lon="3.25358">
        <ele>590.79998779297</ele>
        <time>2023-05-27T08:51:55.000Z</time>
      </trkpt>
      <trkpt lat="43.71896" lon="3.25359">
        <ele>590.59997558594</ele>
        <time>2023-05-27T08:51:57.000Z</time>
      </trkpt>
      <trkpt lat="43.719" lon="3.25367">
        <ele>590</ele>
        <time>2023-05-27T08:52:04.000Z</time>
      </trkpt>
      <trkpt lat="43.71901" lon="3.25372">
        <ele>589.79998779297</ele>
        <time>2023-05-27T08:52:09.000Z</time>
      </trkpt>
      <trkpt lat="43.71903" lon="3.25375">
        <ele>589.59997558594</ele>
        <time>2023-05-27T08:52:12.000Z</time>
      </trkpt>
      <trkpt lat="43.71909" lon="3.25377">
        <ele>589</ele>
        <time>2023-05-27T08:52:20.000Z</time>
      </trkpt>
      <trkpt lat="43.71913" lon="3.25376">
        <ele>588.59997558594</ele>
        <time>2023-05-27T08:52:25.000Z</time>
      </trkpt>
      <trkpt lat="43.71914" lon="3.25375">
        <ele>588.40002441406</ele>
        <time>2023-05-27T08:52:27.000Z</time>
      </trkpt>
      <trkpt lat="43.71914" lon="3.25375">
        <ele>588.20001220703</ele>
        <time>2023-05-27T08:52:28.000Z</time>
      </trkpt>
      <trkpt lat="43.71917" lon="3.25374">
        <ele>587.79998779297</ele>
        <time>2023-05-27T08:52:35.000Z</time>
      </trkpt>
      <trkpt lat="43.71917" lon="3.25374">
        <ele>587.59997558594</ele>
        <time>2023-05-27T08:52:37.000Z</time>
      </trkpt>
      <trkpt lat="43.71917" lon="3.25374">
        <ele>587.20001220703</ele>
        <time>2023-05-27T08:52:44.000Z</time>
      </trkpt>
      <trkpt lat="43.71922" lon="3.25373">
        <ele>587.40002441406</ele>
        <time>2023-05-27T08:52:55.000Z</time>
      </trkpt>
      <trkpt lat="43.7193" lon="3.2537">
        <ele>586.40002441406</ele>
        <time>2023-05-27T08:53:02.000Z</time>
      </trkpt>
      <trkpt lat="43.71932" lon="3.25368">
        <ele>586.20001220703</ele>
        <time>2023-05-27T08:53:05.000Z</time>
      </trkpt>
      <trkpt lat="43.71937" lon="3.25365">
        <ele>585.40002441406</ele>
        <time>2023-05-27T08:53:10.000Z</time>
      </trkpt>
      <trkpt lat="43.71938" lon="3.25364">
        <ele>585.40002441406</ele>
        <time>2023-05-27T08:53:11.000Z</time>
      </trkpt>
      <trkpt lat="43.71939" lon="3.25363">
        <ele>585.20001220703</ele>
        <time>2023-05-27T08:53:12.000Z</time>
      </trkpt>
      <trkpt lat="43.71942" lon="3.25361">
        <ele>584.79998779297</ele>
        <time>2023-05-27T08:53:15.000Z</time>
      </trkpt>
      <trkpt lat="43.71945" lon="3.25358">
        <ele>584.59997558594</ele>
        <time>2023-05-27T08:53:18.000Z</time>
      </trkpt>
      <trkpt lat="43.71947" lon="3.25354">
        <ele>584.20001220703</ele>
        <time>2023-05-27T08:53:21.000Z</time>
      </trkpt>
      <trkpt lat="43.71951" lon="3.25349">
        <ele>583.59997558594</ele>
        <time>2023-05-27T08:53:26.000Z</time>
      </trkpt>
      <trkpt lat="43.71952" lon="3.25347">
        <ele>583.20001220703</ele>
        <time>2023-05-27T08:53:28.000Z</time>
      </trkpt>
      <trkpt lat="43.71953" lon="3.25347">
        <ele>583.20001220703</ele>
        <time>2023-05-27T08:53:29.000Z</time>
      </trkpt>
      <trkpt lat="43.71955" lon="3.25346">
        <ele>583</ele>
        <time>2023-05-27T08:53:32.000Z</time>
      </trkpt>
      <trkpt lat="43.71954" lon="3.25339">
        <ele>583</ele>
        <time>2023-05-27T08:53:37.000Z</time>
      </trkpt>
      <trkpt lat="43.71954" lon="3.25332">
        <ele>582.59997558594</ele>
        <time>2023-05-27T08:53:42.000Z</time>
      </trkpt>
      <trkpt lat="43.71954" lon="3.25327">
        <ele>582.40002441406</ele>
        <time>2023-05-27T08:53:45.000Z</time>
      </trkpt>
      <trkpt lat="43.71954" lon="3.25326">
        <ele>582.40002441406</ele>
        <time>2023-05-27T08:53:46.000Z</time>
      </trkpt>
      <trkpt lat="43.71954" lon="3.25325">
        <ele>582.20001220703</ele>
        <time>2023-05-27T08:53:48.000Z</time>
      </trkpt>
      <trkpt lat="43.71954" lon="3.25324">
        <ele>582</ele>
        <time>2023-05-27T08:53:49.000Z</time>
      </trkpt>
      <trkpt lat="43.71954" lon="3.25322">
        <ele>582</ele>
        <time>2023-05-27T08:53:50.000Z</time>
      </trkpt>
      <trkpt lat="43.71951" lon="3.25313">
        <ele>581.20001220703</ele>
        <time>2023-05-27T08:53:57.000Z</time>
      </trkpt>
      <trkpt lat="43.7195" lon="3.25312">
        <ele>581.20001220703</ele>
        <time>2023-05-27T08:53:58.000Z</time>
      </trkpt>
      <trkpt lat="43.71946" lon="3.25299">
        <ele>580.59997558594</ele>
        <time>2023-05-27T08:54:08.000Z</time>
      </trkpt>
      <trkpt lat="43.71942" lon="3.25292">
        <ele>580.20001220703</ele>
        <time>2023-05-27T08:54:16.000Z</time>
      </trkpt>
      <trkpt lat="43.71942" lon="3.25292">
        <ele>580.20001220703</ele>
        <time>2023-05-27T08:54:17.000Z</time>
      </trkpt>
      <trkpt lat="43.71942" lon="3.25291">
        <ele>580</ele>
        <time>2023-05-27T08:54:22.000Z</time>
      </trkpt>
      <trkpt lat="43.71942" lon="3.2529">
        <ele>580.20001220703</ele>
        <time>2023-05-27T08:54:33.000Z</time>
      </trkpt>
      <trkpt lat="43.71943" lon="3.2529">
        <ele>579.59997558594</ele>
        <time>2023-05-27T08:54:41.000Z</time>
      </trkpt>
      <trkpt lat="43.71943" lon="3.25289">
        <ele>579.59997558594</ele>
        <time>2023-05-27T08:54:55.000Z</time>
      </trkpt>
      <trkpt lat="43.71944" lon="3.25288">
        <ele>580.20001220703</ele>
        <time>2023-05-27T08:55:03.000Z</time>
      </trkpt>
      <trkpt lat="43.71945" lon="3.25288">
        <ele>579.79998779297</ele>
        <time>2023-05-27T08:55:09.000Z</time>
      </trkpt>
      <trkpt lat="43.71945" lon="3.25286">
        <ele>579.59997558594</ele>
        <time>2023-05-27T08:55:18.000Z</time>
      </trkpt>
      <trkpt lat="43.71945" lon="3.25284">
        <ele>579.40002441406</ele>
        <time>2023-05-27T08:55:30.000Z</time>
      </trkpt>
      <trkpt lat="43.71949" lon="3.2528">
        <ele>579</ele>
        <time>2023-05-27T08:55:36.000Z</time>
      </trkpt>
      <trkpt lat="43.7195" lon="3.2528">
        <ele>579</ele>
        <time>2023-05-27T08:55:37.000Z</time>
      </trkpt>
      <trkpt lat="43.71957" lon="3.25279">
        <ele>578</ele>
        <time>2023-05-27T08:55:43.000Z</time>
      </trkpt>
      <trkpt lat="43.71961" lon="3.25279">
        <ele>576.79998779297</ele>
        <time>2023-05-27T08:55:47.000Z</time>
      </trkpt>
      <trkpt lat="43.71963" lon="3.2528">
        <ele>576.40002441406</ele>
        <time>2023-05-27T08:55:49.000Z</time>
      </trkpt>
      <trkpt lat="43.71968" lon="3.2528">
        <ele>575.79998779297</ele>
        <time>2023-05-27T08:55:54.000Z</time>
      </trkpt>
      <trkpt lat="43.71975" lon="3.25279">
        <ele>574.79998779297</ele>
        <time>2023-05-27T08:56:00.000Z</time>
      </trkpt>
      <trkpt lat="43.71976" lon="3.25279">
        <ele>574.59997558594</ele>
        <time>2023-05-27T08:56:01.000Z</time>
      </trkpt>
      <trkpt lat="43.71981" lon="3.25278">
        <ele>573.59997558594</ele>
        <time>2023-05-27T08:56:06.000Z</time>
      </trkpt>
      <trkpt lat="43.71982" lon="3.25277">
        <ele>573.40002441406</ele>
        <time>2023-05-27T08:56:07.000Z</time>
      </trkpt>
      <trkpt lat="43.71985" lon="3.25276">
        <ele>573</ele>
        <time>2023-05-27T08:56:10.000Z</time>
      </trkpt>
      <trkpt lat="43.71988" lon="3.25274">
        <ele>572.59997558594</ele>
        <time>2023-05-27T08:56:13.000Z</time>
      </trkpt>
      <trkpt lat="43.71991" lon="3.25271">
        <ele>571.79998779297</ele>
        <time>2023-05-27T08:56:17.000Z</time>
      </trkpt>
      <trkpt lat="43.71991" lon="3.25271">
        <ele>571.79998779297</ele>
        <time>2023-05-27T08:56:18.000Z</time>
      </trkpt>
      <trkpt lat="43.71993" lon="3.2527">
        <ele>571.40002441406</ele>
        <time>2023-05-27T08:56:20.000Z</time>
      </trkpt>
      <trkpt lat="43.71998" lon="3.25268">
        <ele>570.40002441406</ele>
        <time>2023-05-27T08:56:25.000Z</time>
      </trkpt>
      <trkpt lat="43.71999" lon="3.25267">
        <ele>570.40002441406</ele>
        <time>2023-05-27T08:56:26.000Z</time>
      </trkpt>
      <trkpt lat="43.72" lon="3.25267">
        <ele>570.20001220703</ele>
        <time>2023-05-27T08:56:27.000Z</time>
      </trkpt>
      <trkpt lat="43.72002" lon="3.25266">
        <ele>569.40002441406</ele>
        <time>2023-05-27T08:56:32.000Z</time>
      </trkpt>
      <trkpt lat="43.72001" lon="3.25266">
        <ele>569</ele>
        <time>2023-05-27T08:56:34.000Z</time>
      </trkpt>
      <trkpt lat="43.72002" lon="3.25264">
        <ele>568.59997558594</ele>
        <time>2023-05-27T08:56:45.000Z</time>
      </trkpt>
      <trkpt lat="43.72002" lon="3.25261">
        <ele>569</ele>
        <time>2023-05-27T08:57:01.000Z</time>
      </trkpt>
      <trkpt lat="43.72006" lon="3.25257">
        <ele>568.59997558594</ele>
        <time>2023-05-27T08:57:09.000Z</time>
      </trkpt>
      <trkpt lat="43.72009" lon="3.25254">
        <ele>568.20001220703</ele>
        <time>2023-05-27T08:57:13.000Z</time>
      </trkpt>
      <trkpt lat="43.72011" lon="3.25252">
        <ele>567.79998779297</ele>
        <time>2023-05-27T08:57:15.000Z</time>
      </trkpt>
      <trkpt lat="43.72013" lon="3.25251">
        <ele>567.59997558594</ele>
        <time>2023-05-27T08:57:17.000Z</time>
      </trkpt>
      <trkpt lat="43.72014" lon="3.25251">
        <ele>567.20001220703</ele>
        <time>2023-05-27T08:57:23.000Z</time>
      </trkpt>
      <trkpt lat="43.72014" lon="3.25252">
        <ele>567.20001220703</ele>
        <time>2023-05-27T08:57:24.000Z</time>
      </trkpt>
      <trkpt lat="43.72014" lon="3.25251">
        <ele>567.20001220703</ele>
        <time>2023-05-27T08:57:29.000Z</time>
      </trkpt>
      <trkpt lat="43.72015" lon="3.25251">
        <ele>567.40002441406</ele>
        <time>2023-05-27T08:57:35.000Z</time>
      </trkpt>
      <trkpt lat="43.72018" lon="3.25247">
        <ele>567.40002441406</ele>
        <time>2023-05-27T08:57:41.000Z</time>
      </trkpt>
      <trkpt lat="43.72025" lon="3.2524">
        <ele>566</ele>
        <time>2023-05-27T08:57:49.000Z</time>
      </trkpt>
      <trkpt lat="43.72026" lon="3.2524">
        <ele>566</ele>
        <time>2023-05-27T08:57:50.000Z</time>
      </trkpt>
      <trkpt lat="43.72027" lon="3.2524">
        <ele>565.40002441406</ele>
        <time>2023-05-27T08:57:58.000Z</time>
      </trkpt>
      <trkpt lat="43.72027" lon="3.25239">
        <ele>565.40002441406</ele>
        <time>2023-05-27T08:58:14.000Z</time>
      </trkpt>
      <trkpt lat="43.72027" lon="3.25239">
        <ele>565.40002441406</ele>
        <time>2023-05-27T08:58:27.000Z</time>
      </trkpt>
      <trkpt lat="43.72027" lon="3.25239">
        <ele>565</ele>
        <time>2023-05-27T08:58:32.000Z</time>
      </trkpt>
      <trkpt lat="43.72028" lon="3.25241">
        <ele>565.20001220703</ele>
        <time>2023-05-27T08:58:44.000Z</time>
      </trkpt>
      <trkpt lat="43.72029" lon="3.25242">
        <ele>565.20001220703</ele>
        <time>2023-05-27T08:58:56.000Z</time>
      </trkpt>
      <trkpt lat="43.72029" lon="3.25243">
        <ele>565.20001220703</ele>
        <time>2023-05-27T08:59:07.000Z</time>
      </trkpt>
      <trkpt lat="43.72029" lon="3.25243">
        <ele>565.20001220703</ele>
        <time>2023-05-27T08:59:19.000Z</time>
      </trkpt>
      <trkpt lat="43.72028" lon="3.25238">
        <ele>565.40002441406</ele>
        <time>2023-05-27T08:59:32.000Z</time>
      </trkpt>
      <trkpt lat="43.72032" lon="3.25232">
        <ele>565</ele>
        <time>2023-05-27T08:59:38.000Z</time>
      </trkpt>
      <trkpt lat="43.72041" lon="3.25222">
        <ele>564.40002441406</ele>
        <time>2023-05-27T08:59:49.000Z</time>
      </trkpt>
      <trkpt lat="43.72045" lon="3.25216">
        <ele>564</ele>
        <time>2023-05-27T08:59:55.000Z</time>
      </trkpt>
      <trkpt lat="43.72045" lon="3.25216">
        <ele>563.59997558594</ele>
        <time>2023-05-27T08:59:57.000Z</time>
      </trkpt>
      <trkpt lat="43.72047" lon="3.25213">
        <ele>563.20001220703</ele>
        <time>2023-05-27T09:00:03.000Z</time>
      </trkpt>
      <trkpt lat="43.7205" lon="3.25209">
        <ele>563</ele>
        <time>2023-05-27T09:00:07.000Z</time>
      </trkpt>
      <trkpt lat="43.72052" lon="3.25207">
        <ele>562.79998779297</ele>
        <time>2023-05-27T09:00:10.000Z</time>
      </trkpt>
      <trkpt lat="43.72052" lon="3.25204">
        <ele>562.20001220703</ele>
        <time>2023-05-27T09:00:13.000Z</time>
      </trkpt>
      <trkpt lat="43.72053" lon="3.25203">
        <ele>562</ele>
        <time>2023-05-27T09:00:17.000Z</time>
      </trkpt>
      <trkpt lat="43.72052" lon="3.25203">
        <ele>561.79998779297</ele>
        <time>2023-05-27T09:00:20.000Z</time>
      </trkpt>
      <trkpt lat="43.72052" lon="3.25202">
        <ele>561.40002441406</ele>
        <time>2023-05-27T09:00:28.000Z</time>
      </trkpt>
      <trkpt lat="43.72052" lon="3.25202">
        <ele>561.79998779297</ele>
        <time>2023-05-27T09:00:54.000Z</time>
      </trkpt>
      <trkpt lat="43.72051" lon="3.25201">
        <ele>561.59997558594</ele>
        <time>2023-05-27T09:01:15.000Z</time>
      </trkpt>
      <trkpt lat="43.72051" lon="3.25201">
        <ele>561.79998779297</ele>
        <time>2023-05-27T09:01:27.000Z</time>
      </trkpt>
      <trkpt lat="43.72051" lon="3.25204">
        <ele>561.79998779297</ele>
        <time>2023-05-27T09:01:48.000Z</time>
      </trkpt>
      <trkpt lat="43.72049" lon="3.25212">
        <ele>562</ele>
        <time>2023-05-27T09:01:56.000Z</time>
      </trkpt>
      <trkpt lat="43.72044" lon="3.25218">
        <ele>563</ele>
        <time>2023-05-27T09:02:04.000Z</time>
      </trkpt>
      <trkpt lat="43.72039" lon="3.25226">
        <ele>563.79998779297</ele>
        <time>2023-05-27T09:02:13.000Z</time>
      </trkpt>
      <trkpt lat="43.72037" lon="3.25229">
        <ele>564</ele>
        <time>2023-05-27T09:02:16.000Z</time>
      </trkpt>
      <trkpt lat="43.72033" lon="3.25234">
        <ele>564.20001220703</ele>
        <time>2023-05-27T09:02:22.000Z</time>
      </trkpt>
      <trkpt lat="43.7203" lon="3.25238">
        <ele>565</ele>
        <time>2023-05-27T09:02:29.000Z</time>
      </trkpt>
      <trkpt lat="43.72027" lon="3.25242">
        <ele>565.59997558594</ele>
        <time>2023-05-27T09:02:34.000Z</time>
      </trkpt>
      <trkpt lat="43.72024" lon="3.25246">
        <ele>566</ele>
        <time>2023-05-27T09:02:39.000Z</time>
      </trkpt>
      <trkpt lat="43.72022" lon="3.25248">
        <ele>566.40002441406</ele>
        <time>2023-05-27T09:02:42.000Z</time>
      </trkpt>
      <trkpt lat="43.72019" lon="3.25253">
        <ele>567</ele>
        <time>2023-05-27T09:02:50.000Z</time>
      </trkpt>
      <trkpt lat="43.72019" lon="3.25254">
        <ele>567.20001220703</ele>
        <time>2023-05-27T09:02:52.000Z</time>
      </trkpt>
      <trkpt lat="43.72018" lon="3.25254">
        <ele>568</ele>
        <time>2023-05-27T09:02:57.000Z</time>
      </trkpt>
      <trkpt lat="43.72015" lon="3.25256">
        <ele>567.59997558594</ele>
        <time>2023-05-27T09:03:13.000Z</time>
      </trkpt>
      <trkpt lat="43.72012" lon="3.25255">
        <ele>567.40002441406</ele>
        <time>2023-05-27T09:03:20.000Z</time>
      </trkpt>
      <trkpt lat="43.72007" lon="3.25261">
        <ele>568</ele>
        <time>2023-05-27T09:03:28.000Z</time>
      </trkpt>
      <trkpt lat="43.72006" lon="3.25262">
        <ele>568.40002441406</ele>
        <time>2023-05-27T09:03:30.000Z</time>
      </trkpt>
      <trkpt lat="43.72002" lon="3.25264">
        <ele>569.20001220703</ele>
        <time>2023-05-27T09:03:37.000Z</time>
      </trkpt>
      <trkpt lat="43.72002" lon="3.25265">
        <ele>569.40002441406</ele>
        <time>2023-05-27T09:03:38.000Z</time>
      </trkpt>
      <trkpt lat="43.71997" lon="3.25269">
        <ele>570</ele>
        <time>2023-05-27T09:03:45.000Z</time>
      </trkpt>
      <trkpt lat="43.71994" lon="3.25271">
        <ele>570.59997558594</ele>
        <time>2023-05-27T09:03:49.000Z</time>
      </trkpt>
      <trkpt lat="43.71992" lon="3.25272">
        <ele>571</ele>
        <time>2023-05-27T09:03:52.000Z</time>
      </trkpt>
      <trkpt lat="43.71991" lon="3.25273">
        <ele>571.20001220703</ele>
        <time>2023-05-27T09:03:53.000Z</time>
      </trkpt>
      <trkpt lat="43.71987" lon="3.25275">
        <ele>571.59997558594</ele>
        <time>2023-05-27T09:03:58.000Z</time>
      </trkpt>
      <trkpt lat="43.71984" lon="3.25276">
        <ele>572</ele>
        <time>2023-05-27T09:04:02.000Z</time>
      </trkpt>
      <trkpt lat="43.71982" lon="3.25274">
        <ele>572.59997558594</ele>
        <time>2023-05-27T09:04:07.000Z</time>
      </trkpt>
      <trkpt lat="43.71981" lon="3.25273">
        <ele>572.59997558594</ele>
        <time>2023-05-27T09:04:08.000Z</time>
      </trkpt>
      <trkpt lat="43.71978" lon="3.25267">
        <ele>572.59997558594</ele>
        <time>2023-05-27T09:04:16.000Z</time>
      </trkpt>
      <trkpt lat="43.71977" lon="3.25265">
        <ele>572.79998779297</ele>
        <time>2023-05-27T09:04:22.000Z</time>
      </trkpt>
      <trkpt lat="43.71979" lon="3.2527">
        <ele>572.79998779297</ele>
        <time>2023-05-27T09:04:28.000Z</time>
      </trkpt>
      <trkpt lat="43.71979" lon="3.25277">
        <ele>572.59997558594</ele>
        <time>2023-05-27T09:04:34.000Z</time>
      </trkpt>
      <trkpt lat="43.71978" lon="3.25281">
        <ele>573.20001220703</ele>
        <time>2023-05-27T09:04:40.000Z</time>
      </trkpt>
      <trkpt lat="43.71976" lon="3.2528">
        <ele>573.79998779297</ele>
        <time>2023-05-27T09:04:43.000Z</time>
      </trkpt>
      <trkpt lat="43.71971" lon="3.25281">
        <ele>574.40002441406</ele>
        <time>2023-05-27T09:04:49.000Z</time>
      </trkpt>
      <trkpt lat="43.71968" lon="3.25281">
        <ele>574.79998779297</ele>
        <time>2023-05-27T09:04:53.000Z</time>
      </trkpt>
      <trkpt lat="43.71964" lon="3.25281">
        <ele>575.59997558594</ele>
        <time>2023-05-27T09:04:58.000Z</time>
      </trkpt>
      <trkpt lat="43.71962" lon="3.25281">
        <ele>575.79998779297</ele>
        <time>2023-05-27T09:05:00.000Z</time>
      </trkpt>
      <trkpt lat="43.71959" lon="3.2528">
        <ele>576.40002441406</ele>
        <time>2023-05-27T09:05:05.000Z</time>
      </trkpt>
      <trkpt lat="43.71958" lon="3.2528">
        <ele>576.40002441406</ele>
        <time>2023-05-27T09:05:06.000Z</time>
      </trkpt>
      <trkpt lat="43.71955" lon="3.2528">
        <ele>576.79998779297</ele>
        <time>2023-05-27T09:05:11.000Z</time>
      </trkpt>
      <trkpt lat="43.71953" lon="3.25281">
        <ele>577.20001220703</ele>
        <time>2023-05-27T09:05:13.000Z</time>
      </trkpt>
      <trkpt lat="43.7195" lon="3.25283">
        <ele>578</ele>
        <time>2023-05-27T09:05:19.000Z</time>
      </trkpt>
      <trkpt lat="43.7195" lon="3.25283">
        <ele>578.20001220703</ele>
        <time>2023-05-27T09:05:22.000Z</time>
      </trkpt>
      <trkpt lat="43.71948" lon="3.25285">
        <ele>578.79998779297</ele>
        <time>2023-05-27T09:05:34.000Z</time>
      </trkpt>
      <trkpt lat="43.71949" lon="3.25286">
        <ele>578.79998779297</ele>
        <time>2023-05-27T09:05:44.000Z</time>
      </trkpt>
      <trkpt lat="43.71949" lon="3.25287">
        <ele>578.79998779297</ele>
        <time>2023-05-27T09:05:57.000Z</time>
      </trkpt>
      <trkpt lat="43.7195" lon="3.25288">
        <ele>578.79998779297</ele>
        <time>2023-05-27T09:06:14.000Z</time>
      </trkpt>
      <trkpt lat="43.71951" lon="3.25288">
        <ele>578.79998779297</ele>
        <time>2023-05-27T09:06:35.000Z</time>
      </trkpt>
      <trkpt lat="43.71951" lon="3.25288">
        <ele>578.79998779297</ele>
        <time>2023-05-27T09:06:57.000Z</time>
      </trkpt>
      <trkpt lat="43.71951" lon="3.25288">
        <ele>578.59997558594</ele>
        <time>2023-05-27T09:07:10.000Z</time>
      </trkpt>
      <trkpt lat="43.71951" lon="3.25287">
        <ele>578.59997558594</ele>
        <time>2023-05-27T09:07:26.000Z</time>
      </trkpt>
      <trkpt lat="43.7195" lon="3.25286">
        <ele>579</ele>
        <time>2023-05-27T09:07:35.000Z</time>
      </trkpt>
      <trkpt lat="43.7195" lon="3.25286">
        <ele>579</ele>
        <time>2023-05-27T09:07:39.000Z</time>
      </trkpt>
      <trkpt lat="43.71949" lon="3.25286">
        <ele>579</ele>
        <time>2023-05-27T09:08:00.000Z</time>
      </trkpt>
      <trkpt lat="43.71949" lon="3.25286">
        <ele>579</ele>
        <time>2023-05-27T09:08:13.000Z</time>
      </trkpt>
      <trkpt lat="43.71948" lon="3.25286">
        <ele>578.59997558594</ele>
        <time>2023-05-27T09:08:20.000Z</time>
      </trkpt>
      <trkpt lat="43.71947" lon="3.25285">
        <ele>578.40002441406</ele>
        <time>2023-05-27T09:08:34.000Z</time>
      </trkpt>
      <trkpt lat="43.71946" lon="3.25286">
        <ele>578.40002441406</ele>
        <time>2023-05-27T09:08:47.000Z</time>
      </trkpt>
      <trkpt lat="43.71944" lon="3.25283">
        <ele>578.40002441406</ele>
        <time>2023-05-27T09:08:59.000Z</time>
      </trkpt>
      <trkpt lat="43.71942" lon="3.25282">
        <ele>578.40002441406</ele>
        <time>2023-05-27T09:09:18.000Z</time>
      </trkpt>
      <trkpt lat="43.71941" lon="3.25281">
        <ele>578.59997558594</ele>
        <time>2023-05-27T09:09:36.000Z</time>
      </trkpt>
      <trkpt lat="43.71939" lon="3.25279">
        <ele>578.40002441406</ele>
        <time>2023-05-27T09:09:57.000Z</time>
      </trkpt>
      <trkpt lat="43.71939" lon="3.25279">
        <ele>578.40002441406</ele>
        <time>2023-05-27T09:10:15.000Z</time>
      </trkpt>
      <trkpt lat="43.71939" lon="3.2528">
        <ele>578.40002441406</ele>
        <time>2023-05-27T09:10:31.000Z</time>
      </trkpt>
      <trkpt lat="43.71939" lon="3.25279">
        <ele>578.59997558594</ele>
        <time>2023-05-27T09:10:51.000Z</time>
      </trkpt>
      <trkpt lat="43.71939" lon="3.2528">
        <ele>578.59997558594</ele>
        <time>2023-05-27T09:11:05.000Z</time>
      </trkpt>
      <trkpt lat="43.71939" lon="3.2528">
        <ele>578.59997558594</ele>
        <time>2023-05-27T09:11:23.000Z</time>
      </trkpt>
      <trkpt lat="43.7194" lon="3.2528">
        <ele>578.40002441406</ele>
        <time>2023-05-27T09:11:42.000Z</time>
      </trkpt>
      <trkpt lat="43.71939" lon="3.25279">
        <ele>578.40002441406</ele>
        <time>2023-05-27T09:12:02.000Z</time>
      </trkpt>
      <trkpt lat="43.71939" lon="3.25279">
        <ele>578.59997558594</ele>
        <time>2023-05-27T09:12:08.000Z</time>
      </trkpt>
      <trkpt lat="43.7194" lon="3.25282">
        <ele>578.79998779297</ele>
        <time>2023-05-27T09:12:14.000Z</time>
      </trkpt>
      <trkpt lat="43.71939" lon="3.25283">
        <ele>579.20001220703</ele>
        <time>2023-05-27T09:12:22.000Z</time>
      </trkpt>
      <trkpt lat="43.71939" lon="3.25284">
        <ele>579.79998779297</ele>
        <time>2023-05-27T09:12:29.000Z</time>
      </trkpt>
      <trkpt lat="43.71939" lon="3.25286">
        <ele>579.79998779297</ele>
        <time>2023-05-27T09:12:34.000Z</time>
      </trkpt>
      <trkpt lat="43.71939" lon="3.25286">
        <ele>579.79998779297</ele>
        <time>2023-05-27T09:12:42.000Z</time>
      </trkpt>
      <trkpt lat="43.71939" lon="3.25285">
        <ele>580</ele>
        <time>2023-05-27T09:12:47.000Z</time>
      </trkpt>
      <trkpt lat="43.71939" lon="3.25286">
        <ele>580</ele>
        <time>2023-05-27T09:12:50.000Z</time>
      </trkpt>
      <trkpt lat="43.7194" lon="3.25286">
        <ele>580.20001220703</ele>
        <time>2023-05-27T09:12:59.000Z</time>
      </trkpt>
      <trkpt lat="43.7194" lon="3.25286">
        <ele>580.20001220703</ele>
        <time>2023-05-27T09:13:08.000Z</time>
      </trkpt>
      <trkpt lat="43.71944" lon="3.25282">
        <ele>579.59997558594</ele>
        <time>2023-05-27T09:13:15.000Z</time>
      </trkpt>
      <trkpt lat="43.71944" lon="3.25282">
        <ele>579.20001220703</ele>
        <time>2023-05-27T09:13:23.000Z</time>
      </trkpt>
      <trkpt lat="43.71947" lon="3.25278">
        <ele>579</ele>
        <time>2023-05-27T09:13:29.000Z</time>
      </trkpt>
      <trkpt lat="43.71947" lon="3.25278">
        <ele>578.79998779297</ele>
        <time>2023-05-27T09:13:30.000Z</time>
      </trkpt>
      <trkpt lat="43.71952" lon="3.25278">
        <ele>578</ele>
        <time>2023-05-27T09:13:34.000Z</time>
      </trkpt>
      <trkpt lat="43.71958" lon="3.25278">
        <ele>577</ele>
        <time>2023-05-27T09:13:39.000Z</time>
      </trkpt>
      <trkpt lat="43.71958" lon="3.25279">
        <ele>576.79998779297</ele>
        <time>2023-05-27T09:13:40.000Z</time>
      </trkpt>
      <trkpt lat="43.71963" lon="3.2528">
        <ele>576.20001220703</ele>
        <time>2023-05-27T09:13:44.000Z</time>
      </trkpt>
      <trkpt lat="43.71966" lon="3.2528">
        <ele>575.59997558594</ele>
        <time>2023-05-27T09:13:47.000Z</time>
      </trkpt>
      <trkpt lat="43.71974" lon="3.2528">
        <ele>574.59997558594</ele>
        <time>2023-05-27T09:13:55.000Z</time>
      </trkpt>
      <trkpt lat="43.71975" lon="3.25279">
        <ele>574.40002441406</ele>
        <time>2023-05-27T09:13:56.000Z</time>
      </trkpt>
      <trkpt lat="43.71982" lon="3.25277">
        <ele>573.40002441406</ele>
        <time>2023-05-27T09:14:03.000Z</time>
      </trkpt>
      <trkpt lat="43.71984" lon="3.25276">
        <ele>573.20001220703</ele>
        <time>2023-05-27T09:14:05.000Z</time>
      </trkpt>
      <trkpt lat="43.71989" lon="3.25273">
        <ele>572.20001220703</ele>
        <time>2023-05-27T09:14:10.000Z</time>
      </trkpt>
      <trkpt lat="43.71993" lon="3.2527">
        <ele>571.59997558594</ele>
        <time>2023-05-27T09:14:14.000Z</time>
      </trkpt>
      <trkpt lat="43.71994" lon="3.25268">
        <ele>571.20001220703</ele>
        <time>2023-05-27T09:14:16.000Z</time>
      </trkpt>
      <trkpt lat="43.72" lon="3.25265">
        <ele>570.40002441406</ele>
        <time>2023-05-27T09:14:22.000Z</time>
      </trkpt>
      <trkpt lat="43.72001" lon="3.25264">
        <ele>570.20001220703</ele>
        <time>2023-05-27T09:14:23.000Z</time>
      </trkpt>
      <trkpt lat="43.72002" lon="3.25263">
        <ele>569.40002441406</ele>
        <time>2023-05-27T09:14:28.000Z</time>
      </trkpt>
      <trkpt lat="43.72003" lon="3.25263">
        <ele>569.20001220703</ele>
        <time>2023-05-27T09:14:38.000Z</time>
      </trkpt>
      <trkpt lat="43.72004" lon="3.25262">
        <ele>569.20001220703</ele>
        <time>2023-05-27T09:14:39.000Z</time>
      </trkpt>
      <trkpt lat="43.72012" lon="3.25256">
        <ele>568.40002441406</ele>
        <time>2023-05-27T09:14:48.000Z</time>
      </trkpt>
      <trkpt lat="43.72012" lon="3.25255">
        <ele>568.20001220703</ele>
        <time>2023-05-27T09:14:51.000Z</time>
      </trkpt>
      <trkpt lat="43.72011" lon="3.25256">
        <ele>568</ele>
        <time>2023-05-27T09:14:53.000Z</time>
      </trkpt>
      <trkpt lat="43.72012" lon="3.25254">
        <ele>567.79998779297</ele>
        <time>2023-05-27T09:15:01.000Z</time>
      </trkpt>
      <trkpt lat="43.72013" lon="3.25253">
        <ele>568.20001220703</ele>
        <time>2023-05-27T09:15:07.000Z</time>
      </trkpt>
      <trkpt lat="43.72019" lon="3.25245">
        <ele>567.40002441406</ele>
        <time>2023-05-27T09:15:14.000Z</time>
      </trkpt>
      <trkpt lat="43.72021" lon="3.25242">
        <ele>567</ele>
        <time>2023-05-27T09:15:17.000Z</time>
      </trkpt>
      <trkpt lat="43.72027" lon="3.25233">
        <ele>566</ele>
        <time>2023-05-27T09:15:24.000Z</time>
      </trkpt>
      <trkpt lat="43.72029" lon="3.25231">
        <ele>566</ele>
        <time>2023-05-27T09:15:26.000Z</time>
      </trkpt>
      <trkpt lat="43.72037" lon="3.25222">
        <ele>565</ele>
        <time>2023-05-27T09:15:35.000Z</time>
      </trkpt>
      <trkpt lat="43.72038" lon="3.2522">
        <ele>564.79998779297</ele>
        <time>2023-05-27T09:15:36.000Z</time>
      </trkpt>
      <trkpt lat="43.72045" lon="3.2521">
        <ele>563.79998779297</ele>
        <time>2023-05-27T09:15:45.000Z</time>
      </trkpt>
      <trkpt lat="43.72053" lon="3.25201">
        <ele>562.79998779297</ele>
        <time>2023-05-27T09:15:54.000Z</time>
      </trkpt>
      <trkpt lat="43.72053" lon="3.252">
        <ele>562.59997558594</ele>
        <time>2023-05-27T09:15:55.000Z</time>
      </trkpt>
      <trkpt lat="43.72064" lon="3.25189">
        <ele>561.79998779297</ele>
        <time>2023-05-27T09:16:06.000Z</time>
      </trkpt>
      <trkpt lat="43.72065" lon="3.25188">
        <ele>561.59997558594</ele>
        <time>2023-05-27T09:16:07.000Z</time>
      </trkpt>
      <trkpt lat="43.72073" lon="3.25182">
        <ele>561</ele>
        <time>2023-05-27T09:16:15.000Z</time>
      </trkpt>
      <trkpt lat="43.7208" lon="3.25179">
        <ele>560.59997558594</ele>
        <time>2023-05-27T09:16:21.000Z</time>
      </trkpt>
      <trkpt lat="43.72083" lon="3.25178">
        <ele>560.40002441406</ele>
        <time>2023-05-27T09:16:24.000Z</time>
      </trkpt>
      <trkpt lat="43.72094" lon="3.25176">
        <ele>559.79998779297</ele>
        <time>2023-05-27T09:16:33.000Z</time>
      </trkpt>
      <trkpt lat="43.721" lon="3.25176">
        <ele>559.59997558594</ele>
        <time>2023-05-27T09:16:37.000Z</time>
      </trkpt>
      <trkpt lat="43.72107" lon="3.25178">
        <ele>559.20001220703</ele>
        <time>2023-05-27T09:16:43.000Z</time>
      </trkpt>
      <trkpt lat="43.72116" lon="3.25184">
        <ele>558.79998779297</ele>
        <time>2023-05-27T09:16:50.000Z</time>
      </trkpt>
      <trkpt lat="43.72118" lon="3.25186">
        <ele>558.59997558594</ele>
        <time>2023-05-27T09:16:52.000Z</time>
      </trkpt>
      <trkpt lat="43.72127" lon="3.25195">
        <ele>558.20001220703</ele>
        <time>2023-05-27T09:17:00.000Z</time>
      </trkpt>
      <trkpt lat="43.72136" lon="3.25206">
        <ele>557.79998779297</ele>
        <time>2023-05-27T09:17:09.000Z</time>
      </trkpt>
      <trkpt lat="43.72141" lon="3.25211">
        <ele>557.40002441406</ele>
        <time>2023-05-27T09:17:14.000Z</time>
      </trkpt>
      <trkpt lat="43.72147" lon="3.25218">
        <ele>557.20001220703</ele>
        <time>2023-05-27T09:17:20.000Z</time>
      </trkpt>
      <trkpt lat="43.72157" lon="3.25227">
        <ele>556.40002441406</ele>
        <time>2023-05-27T09:17:30.000Z</time>
      </trkpt>
      <trkpt lat="43.72167" lon="3.25234">
        <ele>556</ele>
        <time>2023-05-27T09:17:39.000Z</time>
      </trkpt>
      <trkpt lat="43.72176" lon="3.25238">
        <ele>555.59997558594</ele>
        <time>2023-05-27T09:17:47.000Z</time>
      </trkpt>
      <trkpt lat="43.72178" lon="3.25239">
        <ele>555.59997558594</ele>
        <time>2023-05-27T09:17:49.000Z</time>
      </trkpt>
      <trkpt lat="43.72179" lon="3.25239">
        <ele>555.40002441406</ele>
        <time>2023-05-27T09:17:50.000Z</time>
      </trkpt>
      <trkpt lat="43.72182" lon="3.25241">
        <ele>555.20001220703</ele>
        <time>2023-05-27T09:17:53.000Z</time>
      </trkpt>
      <trkpt lat="43.72194" lon="3.25243">
        <ele>554.59997558594</ele>
        <time>2023-05-27T09:18:03.000Z</time>
      </trkpt>
      <trkpt lat="43.72198" lon="3.25243">
        <ele>554.40002441406</ele>
        <time>2023-05-27T09:18:07.000Z</time>
      </trkpt>
      <trkpt lat="43.72205" lon="3.25246">
        <ele>554.20001220703</ele>
        <time>2023-05-27T09:18:12.000Z</time>
      </trkpt>
      <trkpt lat="43.72209" lon="3.25247">
        <ele>554</ele>
        <time>2023-05-27T09:18:16.000Z</time>
      </trkpt>
      <trkpt lat="43.72215" lon="3.25248">
        <ele>553.59997558594</ele>
        <time>2023-05-27T09:18:21.000Z</time>
      </trkpt>
      <trkpt lat="43.72219" lon="3.25248">
        <ele>553.40002441406</ele>
        <time>2023-05-27T09:18:25.000Z</time>
      </trkpt>
      <trkpt lat="43.72225" lon="3.25249">
        <ele>553</ele>
        <time>2023-05-27T09:18:30.000Z</time>
      </trkpt>
      <trkpt lat="43.72234" lon="3.25252">
        <ele>552.40002441406</ele>
        <time>2023-05-27T09:18:37.000Z</time>
      </trkpt>
      <trkpt lat="43.72241" lon="3.25258">
        <ele>551.79998779297</ele>
        <time>2023-05-27T09:18:44.000Z</time>
      </trkpt>
      <trkpt lat="43.7225" lon="3.25263">
        <ele>551.20001220703</ele>
        <time>2023-05-27T09:18:51.000Z</time>
      </trkpt>
      <trkpt lat="43.72259" lon="3.2527">
        <ele>550.40002441406</ele>
        <time>2023-05-27T09:19:00.000Z</time>
      </trkpt>
      <trkpt lat="43.72263" lon="3.25272">
        <ele>550.20001220703</ele>
        <time>2023-05-27T09:19:03.000Z</time>
      </trkpt>
      <trkpt lat="43.72268" lon="3.25277">
        <ele>549.79998779297</ele>
        <time>2023-05-27T09:19:08.000Z</time>
      </trkpt>
      <trkpt lat="43.72275" lon="3.25283">
        <ele>549.20001220703</ele>
        <time>2023-05-27T09:19:15.000Z</time>
      </trkpt>
      <trkpt lat="43.72277" lon="3.25283">
        <ele>549.20001220703</ele>
        <time>2023-05-27T09:19:16.000Z</time>
      </trkpt>
      <trkpt lat="43.72286" lon="3.2529">
        <ele>548.20001220703</ele>
        <time>2023-05-27T09:19:25.000Z</time>
      </trkpt>
      <trkpt lat="43.72286" lon="3.25291">
        <ele>548.20001220703</ele>
        <time>2023-05-27T09:19:26.000Z</time>
      </trkpt>
      <trkpt lat="43.72287" lon="3.25292">
        <ele>548.20001220703</ele>
        <time>2023-05-27T09:19:30.000Z</time>
      </trkpt>
      <trkpt lat="43.72287" lon="3.25291">
        <ele>548.20001220703</ele>
        <time>2023-05-27T09:19:37.000Z</time>
      </trkpt>
      <trkpt lat="43.72287" lon="3.25292">
        <ele>548.40002441406</ele>
        <time>2023-05-27T09:19:44.000Z</time>
      </trkpt>
      <trkpt lat="43.72287" lon="3.25292">
        <ele>548.79998779297</ele>
        <time>2023-05-27T09:19:58.000Z</time>
      </trkpt>
      <trkpt lat="43.72287" lon="3.25292">
        <ele>548.20001220703</ele>
        <time>2023-05-27T09:20:07.000Z</time>
      </trkpt>
      <trkpt lat="43.72286" lon="3.25292">
        <ele>548</ele>
        <time>2023-05-27T09:20:14.000Z</time>
      </trkpt>
      <trkpt lat="43.72285" lon="3.25291">
        <ele>548</ele>
        <time>2023-05-27T09:20:18.000Z</time>
      </trkpt>
      <trkpt lat="43.72285" lon="3.2529">
        <ele>548.20001220703</ele>
        <time>2023-05-27T09:20:25.000Z</time>
      </trkpt>
      <trkpt lat="43.72286" lon="3.2529">
        <ele>548.40002441406</ele>
        <time>2023-05-27T09:20:36.000Z</time>
      </trkpt>
      <trkpt lat="43.72285" lon="3.2529">
        <ele>548.40002441406</ele>
        <time>2023-05-27T09:20:46.000Z</time>
      </trkpt>
      <trkpt lat="43.72285" lon="3.2529">
        <ele>548.20001220703</ele>
        <time>2023-05-27T09:20:58.000Z</time>
      </trkpt>
      <trkpt lat="43.72285" lon="3.2529">
        <ele>548.59997558594</ele>
        <time>2023-05-27T09:21:16.000Z</time>
      </trkpt>
      <trkpt lat="43.72283" lon="3.25288">
        <ele>548.59997558594</ele>
        <time>2023-05-27T09:21:31.000Z</time>
      </trkpt>
      <trkpt lat="43.72283" lon="3.25287">
        <ele>548.40002441406</ele>
        <time>2023-05-27T09:21:44.000Z</time>
      </trkpt>
      <trkpt lat="43.72283" lon="3.25286">
        <ele>548.20001220703</ele>
        <time>2023-05-27T09:21:59.000Z</time>
      </trkpt>
      <trkpt lat="43.72282" lon="3.25285">
        <ele>548.40002441406</ele>
        <time>2023-05-27T09:22:14.000Z</time>
      </trkpt>
      <trkpt lat="43.72281" lon="3.25281">
        <ele>548.40002441406</ele>
        <time>2023-05-27T09:22:22.000Z</time>
      </trkpt>
      <trkpt lat="43.72281" lon="3.25282">
        <ele>548.40002441406</ele>
        <time>2023-05-27T09:22:31.000Z</time>
      </trkpt>
      <trkpt lat="43.72279" lon="3.25281">
        <ele>548.20001220703</ele>
        <time>2023-05-27T09:22:42.000Z</time>
      </trkpt>
      <trkpt lat="43.72279" lon="3.25281">
        <ele>548.59997558594</ele>
        <time>2023-05-27T09:22:49.000Z</time>
      </trkpt>
      <trkpt lat="43.72279" lon="3.25281">
        <ele>548.59997558594</ele>
        <time>2023-05-27T09:23:06.000Z</time>
      </trkpt>
      <trkpt lat="43.72281" lon="3.25292">
        <ele>548.59997558594</ele>
        <time>2023-05-27T09:23:23.000Z</time>
      </trkpt>
      <trkpt lat="43.72283" lon="3.25296">
        <ele>548.59997558594</ele>
        <time>2023-05-27T09:23:36.000Z</time>
      </trkpt>
      <trkpt lat="43.72285" lon="3.25299">
        <ele>548.59997558594</ele>
        <time>2023-05-27T09:23:43.000Z</time>
      </trkpt>
      <trkpt lat="43.72285" lon="3.25298">
        <ele>548.79998779297</ele>
        <time>2023-05-27T09:23:51.000Z</time>
      </trkpt>
      <trkpt lat="43.72285" lon="3.25297">
        <ele>549</ele>
        <time>2023-05-27T09:23:58.000Z</time>
      </trkpt>
      <trkpt lat="43.72284" lon="3.25296">
        <ele>548.79998779297</ele>
        <time>2023-05-27T09:24:04.000Z</time>
      </trkpt>
      <trkpt lat="43.72281" lon="3.25287">
        <ele>548.59997558594</ele>
        <time>2023-05-27T09:24:11.000Z</time>
      </trkpt>
      <trkpt lat="43.72278" lon="3.2528">
        <ele>548.20001220703</ele>
        <time>2023-05-27T09:24:18.000Z</time>
      </trkpt>
      <trkpt lat="43.72272" lon="3.25274">
        <ele>547.40002441406</ele>
        <time>2023-05-27T09:24:25.000Z</time>
      </trkpt>
      <trkpt lat="43.7227" lon="3.25272">
        <ele>547.20001220703</ele>
        <time>2023-05-27T09:24:28.000Z</time>
      </trkpt>
      <trkpt lat="43.72265" lon="3.25267">
        <ele>546.59997558594</ele>
        <time>2023-05-27T09:24:34.000Z</time>
      </trkpt>
      <trkpt lat="43.72261" lon="3.25262">
        <ele>546.20001220703</ele>
        <time>2023-05-27T09:24:40.000Z</time>
      </trkpt>
      <trkpt lat="43.72257" lon="3.25257">
        <ele>545.59997558594</ele>
        <time>2023-05-27T09:24:46.000Z</time>
      </trkpt>
      <trkpt lat="43.72256" lon="3.25255">
        <ele>545.40002441406</ele>
        <time>2023-05-27T09:24:47.000Z</time>
      </trkpt>
      <trkpt lat="43.72255" lon="3.25253">
        <ele>545.20001220703</ele>
        <time>2023-05-27T09:24:49.000Z</time>
      </trkpt>
      <trkpt lat="43.72252" lon="3.25251">
        <ele>545</ele>
        <time>2023-05-27T09:24:51.000Z</time>
      </trkpt>
      <trkpt lat="43.72245" lon="3.25244">
        <ele>544.40002441406</ele>
        <time>2023-05-27T09:25:00.000Z</time>
      </trkpt>
      <trkpt lat="43.72245" lon="3.25243">
        <ele>544</ele>
        <time>2023-05-27T09:25:03.000Z</time>
      </trkpt>
      <trkpt lat="43.72243" lon="3.25242">
        <ele>544</ele>
        <time>2023-05-27T09:25:06.000Z</time>
      </trkpt>
      <trkpt lat="43.72233" lon="3.25233">
        <ele>543.20001220703</ele>
        <time>2023-05-27T09:25:15.000Z</time>
      </trkpt>
      <trkpt lat="43.72232" lon="3.25232">
        <ele>543</ele>
        <time>2023-05-27T09:25:16.000Z</time>
      </trkpt>
      <trkpt lat="43.72225" lon="3.25225">
        <ele>542.59997558594</ele>
        <time>2023-05-27T09:25:22.000Z</time>
      </trkpt>
      <trkpt lat="43.7222" lon="3.25222">
        <ele>542</ele>
        <time>2023-05-27T09:25:26.000Z</time>
      </trkpt>
      <trkpt lat="43.72214" lon="3.25216">
        <ele>541.59997558594</ele>
        <time>2023-05-27T09:25:31.000Z</time>
      </trkpt>
      <trkpt lat="43.72213" lon="3.25215">
        <ele>541.59997558594</ele>
        <time>2023-05-27T09:25:32.000Z</time>
      </trkpt>
      <trkpt lat="43.72209" lon="3.25211">
        <ele>541</ele>
        <time>2023-05-27T09:25:36.000Z</time>
      </trkpt>
      <trkpt lat="43.72208" lon="3.2521">
        <ele>541</ele>
        <time>2023-05-27T09:25:37.000Z</time>
      </trkpt>
      <trkpt lat="43.72199" lon="3.252">
        <ele>540.20001220703</ele>
        <time>2023-05-27T09:25:45.000Z</time>
      </trkpt>
      <trkpt lat="43.72195" lon="3.25197">
        <ele>540</ele>
        <time>2023-05-27T09:25:48.000Z</time>
      </trkpt>
      <trkpt lat="43.72192" lon="3.25191">
        <ele>539.79998779297</ele>
        <time>2023-05-27T09:25:52.000Z</time>
      </trkpt>
      <trkpt lat="43.72186" lon="3.25182">
        <ele>539.40002441406</ele>
        <time>2023-05-27T09:25:59.000Z</time>
      </trkpt>
      <trkpt lat="43.72184" lon="3.25177">
        <ele>539</ele>
        <time>2023-05-27T09:26:02.000Z</time>
      </trkpt>
      <trkpt lat="43.72181" lon="3.2517">
        <ele>538.59997558594</ele>
        <time>2023-05-27T09:26:07.000Z</time>
      </trkpt>
      <trkpt lat="43.72176" lon="3.2516">
        <ele>538</ele>
        <time>2023-05-27T09:26:13.000Z</time>
      </trkpt>
      <trkpt lat="43.72172" lon="3.25149">
        <ele>537</ele>
        <time>2023-05-27T09:26:21.000Z</time>
      </trkpt>
      <trkpt lat="43.72166" lon="3.25135">
        <ele>536</ele>
        <time>2023-05-27T09:26:31.000Z</time>
      </trkpt>
      <trkpt lat="43.7216" lon="3.2512">
        <ele>535</ele>
        <time>2023-05-27T09:26:41.000Z</time>
      </trkpt>
      <trkpt lat="43.72158" lon="3.25116">
        <ele>534.59997558594</ele>
        <time>2023-05-27T09:26:44.000Z</time>
      </trkpt>
      <trkpt lat="43.72153" lon="3.25106">
        <ele>533.79998779297</ele>
        <time>2023-05-27T09:26:51.000Z</time>
      </trkpt>
      <trkpt lat="43.72151" lon="3.25102">
        <ele>533.59997558594</ele>
        <time>2023-05-27T09:26:54.000Z</time>
      </trkpt>
      <trkpt lat="43.72145" lon="3.25094">
        <ele>532.79998779297</ele>
        <time>2023-05-27T09:27:00.000Z</time>
      </trkpt>
      <trkpt lat="43.72144" lon="3.25092">
        <ele>532.20001220703</ele>
        <time>2023-05-27T09:27:03.000Z</time>
      </trkpt>
      <trkpt lat="43.72141" lon="3.25089">
        <ele>532.20001220703</ele>
        <time>2023-05-27T09:27:11.000Z</time>
      </trkpt>
      <trkpt lat="43.72138" lon="3.25085">
        <ele>531.59997558594</ele>
        <time>2023-05-27T09:27:15.000Z</time>
      </trkpt>
      <trkpt lat="43.72133" lon="3.2508">
        <ele>531</ele>
        <time>2023-05-27T09:27:20.000Z</time>
      </trkpt>
      <trkpt lat="43.72127" lon="3.25076">
        <ele>530.59997558594</ele>
        <time>2023-05-27T09:27:25.000Z</time>
      </trkpt>
      <trkpt lat="43.72122" lon="3.25074">
        <ele>530.40002441406</ele>
        <time>2023-05-27T09:27:29.000Z</time>
      </trkpt>
      <trkpt lat="43.72114" lon="3.2507">
        <ele>529.59997558594</ele>
        <time>2023-05-27T09:27:36.000Z</time>
      </trkpt>
      <trkpt lat="43.72107" lon="3.25069">
        <ele>529.20001220703</ele>
        <time>2023-05-27T09:27:41.000Z</time>
      </trkpt>
      <trkpt lat="43.72096" lon="3.25068">
        <ele>528.59997558594</ele>
        <time>2023-05-27T09:27:50.000Z</time>
      </trkpt>
      <trkpt lat="43.72095" lon="3.25068">
        <ele>528.59997558594</ele>
        <time>2023-05-27T09:27:51.000Z</time>
      </trkpt>
      <trkpt lat="43.72087" lon="3.25069">
        <ele>527.79998779297</ele>
        <time>2023-05-27T09:28:00.000Z</time>
      </trkpt>
      <trkpt lat="43.7208" lon="3.2507">
        <ele>527.59997558594</ele>
        <time>2023-05-27T09:28:06.000Z</time>
      </trkpt>
      <trkpt lat="43.72076" lon="3.25071">
        <ele>527.40002441406</ele>
        <time>2023-05-27T09:28:10.000Z</time>
      </trkpt>
      <trkpt lat="43.72064" lon="3.25073">
        <ele>527</ele>
        <time>2023-05-27T09:28:19.000Z</time>
      </trkpt>
      <trkpt lat="43.72056" lon="3.25074">
        <ele>527</ele>
        <time>2023-05-27T09:28:26.000Z</time>
      </trkpt>
      <trkpt lat="43.72049" lon="3.25074">
        <ele>526.59997558594</ele>
        <time>2023-05-27T09:28:33.000Z</time>
      </trkpt>
      <trkpt lat="43.72048" lon="3.25074">
        <ele>526.59997558594</ele>
        <time>2023-05-27T09:28:34.000Z</time>
      </trkpt>
      <trkpt lat="43.72041" lon="3.25071">
        <ele>526.40002441406</ele>
        <time>2023-05-27T09:28:40.000Z</time>
      </trkpt>
      <trkpt lat="43.72039" lon="3.2507">
        <ele>526.20001220703</ele>
        <time>2023-05-27T09:28:42.000Z</time>
      </trkpt>
      <trkpt lat="43.72034" lon="3.25066">
        <ele>526</ele>
        <time>2023-05-27T09:28:46.000Z</time>
      </trkpt>
      <trkpt lat="43.72028" lon="3.25061">
        <ele>525.79998779297</ele>
        <time>2023-05-27T09:28:52.000Z</time>
      </trkpt>
      <trkpt lat="43.72021" lon="3.25052">
        <ele>525.59997558594</ele>
        <time>2023-05-27T09:29:00.000Z</time>
      </trkpt>
      <trkpt lat="43.7202" lon="3.25051">
        <ele>525.59997558594</ele>
        <time>2023-05-27T09:29:06.000Z</time>
      </trkpt>
      <trkpt lat="43.72018" lon="3.25041">
        <ele>525.59997558594</ele>
        <time>2023-05-27T09:29:13.000Z</time>
      </trkpt>
      <trkpt lat="43.72018" lon="3.25028">
        <ele>524.59997558594</ele>
        <time>2023-05-27T09:29:21.000Z</time>
      </trkpt>
      <trkpt lat="43.72017" lon="3.25024">
        <ele>524.59997558594</ele>
        <time>2023-05-27T09:29:24.000Z</time>
      </trkpt>
      <trkpt lat="43.72017" lon="3.25011">
        <ele>523.59997558594</ele>
        <time>2023-05-27T09:29:32.000Z</time>
      </trkpt>
      <trkpt lat="43.72017" lon="3.25008">
        <ele>523.40002441406</ele>
        <time>2023-05-27T09:29:34.000Z</time>
      </trkpt>
      <trkpt lat="43.72017" lon="3.24994">
        <ele>522.59997558594</ele>
        <time>2023-05-27T09:29:42.000Z</time>
      </trkpt>
      <trkpt lat="43.72017" lon="3.24989">
        <ele>522.40002441406</ele>
        <time>2023-05-27T09:29:45.000Z</time>
      </trkpt>
      <trkpt lat="43.72016" lon="3.24969">
        <ele>521.40002441406</ele>
        <time>2023-05-27T09:29:56.000Z</time>
      </trkpt>
      <trkpt lat="43.72016" lon="3.24968">
        <ele>521.20001220703</ele>
        <time>2023-05-27T09:29:57.000Z</time>
      </trkpt>
      <trkpt lat="43.72014" lon="3.24952">
        <ele>520.40002441406</ele>
        <time>2023-05-27T09:30:06.000Z</time>
      </trkpt>
      <trkpt lat="43.72014" lon="3.2495">
        <ele>520.40002441406</ele>
        <time>2023-05-27T09:30:07.000Z</time>
      </trkpt>
      <trkpt lat="43.72012" lon="3.24944">
        <ele>520.40002441406</ele>
        <time>2023-05-27T09:30:11.000Z</time>
      </trkpt>
      <trkpt lat="43.72008" lon="3.2493">
        <ele>519.40002441406</ele>
        <time>2023-05-27T09:30:19.000Z</time>
      </trkpt>
      <trkpt lat="43.72008" lon="3.24929">
        <ele>519.20001220703</ele>
        <time>2023-05-27T09:30:20.000Z</time>
      </trkpt>
      <trkpt lat="43.72005" lon="3.24915">
        <ele>518.40002441406</ele>
        <time>2023-05-27T09:30:28.000Z</time>
      </trkpt>
      <trkpt lat="43.72004" lon="3.24911">
        <ele>518.20001220703</ele>
        <time>2023-05-27T09:30:31.000Z</time>
      </trkpt>
      <trkpt lat="43.72003" lon="3.24906">
        <ele>518</ele>
        <time>2023-05-27T09:30:34.000Z</time>
      </trkpt>
      <trkpt lat="43.72003" lon="3.24898">
        <ele>517.40002441406</ele>
        <time>2023-05-27T09:30:39.000Z</time>
      </trkpt>
      <trkpt lat="43.72003" lon="3.24896">
        <ele>517.40002441406</ele>
        <time>2023-05-27T09:30:40.000Z</time>
      </trkpt>
      <trkpt lat="43.72002" lon="3.24887">
        <ele>517.20001220703</ele>
        <time>2023-05-27T09:30:46.000Z</time>
      </trkpt>
      <trkpt lat="43.72003" lon="3.24885">
        <ele>517.20001220703</ele>
        <time>2023-05-27T09:30:48.000Z</time>
      </trkpt>
      <trkpt lat="43.72003" lon="3.24879">
        <ele>516.59997558594</ele>
        <time>2023-05-27T09:30:52.000Z</time>
      </trkpt>
      <trkpt lat="43.72004" lon="3.24874">
        <ele>516.40002441406</ele>
        <time>2023-05-27T09:30:55.000Z</time>
      </trkpt>
      <trkpt lat="43.72005" lon="3.24867">
        <ele>516</ele>
        <time>2023-05-27T09:30:59.000Z</time>
      </trkpt>
      <trkpt lat="43.72005" lon="3.24861">
        <ele>515.59997558594</ele>
        <time>2023-05-27T09:31:03.000Z</time>
      </trkpt>
      <trkpt lat="43.72006" lon="3.24858">
        <ele>515.40002441406</ele>
        <time>2023-05-27T09:31:05.000Z</time>
      </trkpt>
      <trkpt lat="43.72006" lon="3.24852">
        <ele>515</ele>
        <time>2023-05-27T09:31:09.000Z</time>
      </trkpt>
      <trkpt lat="43.72007" lon="3.2485">
        <ele>514.79998779297</ele>
        <time>2023-05-27T09:31:11.000Z</time>
      </trkpt>
      <trkpt lat="43.72007" lon="3.24839">
        <ele>514.20001220703</ele>
        <time>2023-05-27T09:31:18.000Z</time>
      </trkpt>
      <trkpt lat="43.72007" lon="3.24836">
        <ele>514</ele>
        <time>2023-05-27T09:31:20.000Z</time>
      </trkpt>
      <trkpt lat="43.72007" lon="3.24833">
        <ele>513.79998779297</ele>
        <time>2023-05-27T09:31:22.000Z</time>
      </trkpt>
      <trkpt lat="43.72008" lon="3.2483">
        <ele>513.59997558594</ele>
        <time>2023-05-27T09:31:24.000Z</time>
      </trkpt>
      <trkpt lat="43.72007" lon="3.24814">
        <ele>512.79998779297</ele>
        <time>2023-05-27T09:31:32.000Z</time>
      </trkpt>
      <trkpt lat="43.72007" lon="3.24812">
        <ele>512.79998779297</ele>
        <time>2023-05-27T09:31:33.000Z</time>
      </trkpt>
      <trkpt lat="43.72006" lon="3.24796">
        <ele>511.79998779297</ele>
        <time>2023-05-27T09:31:42.000Z</time>
      </trkpt>
      <trkpt lat="43.72006" lon="3.24792">
        <ele>511.60000610352</ele>
        <time>2023-05-27T09:31:44.000Z</time>
      </trkpt>
      <trkpt lat="43.72003" lon="3.24777">
        <ele>510.79998779297</ele>
        <time>2023-05-27T09:31:53.000Z</time>
      </trkpt>
      <trkpt lat="43.72002" lon="3.24775">
        <ele>510.60000610352</ele>
        <time>2023-05-27T09:31:55.000Z</time>
      </trkpt>
      <trkpt lat="43.71998" lon="3.24761">
        <ele>510</ele>
        <time>2023-05-27T09:32:04.000Z</time>
      </trkpt>
      <trkpt lat="43.71997" lon="3.24758">
        <ele>509.79998779297</ele>
        <time>2023-05-27T09:32:06.000Z</time>
      </trkpt>
      <trkpt lat="43.71991" lon="3.24745">
        <ele>509.20001220703</ele>
        <time>2023-05-27T09:32:15.000Z</time>
      </trkpt>
      <trkpt lat="43.71987" lon="3.24738">
        <ele>508.79998779297</ele>
        <time>2023-05-27T09:32:20.000Z</time>
      </trkpt>
      <trkpt lat="43.71984" lon="3.24732">
        <ele>508.39999389648</ele>
        <time>2023-05-27T09:32:24.000Z</time>
      </trkpt>
      <trkpt lat="43.71976" lon="3.24724">
        <ele>507.79998779297</ele>
        <time>2023-05-27T09:32:31.000Z</time>
      </trkpt>
      <trkpt lat="43.71972" lon="3.2472">
        <ele>507.39999389648</ele>
        <time>2023-05-27T09:32:35.000Z</time>
      </trkpt>
      <trkpt lat="43.71962" lon="3.2471">
        <ele>506.60000610352</ele>
        <time>2023-05-27T09:32:45.000Z</time>
      </trkpt>
      <trkpt lat="43.71961" lon="3.24709">
        <ele>506.39999389648</ele>
        <time>2023-05-27T09:32:46.000Z</time>
      </trkpt>
      <trkpt lat="43.71947" lon="3.24698">
        <ele>505.60000610352</ele>
        <time>2023-05-27T09:32:59.000Z</time>
      </trkpt>
      <trkpt lat="43.71945" lon="3.24698">
        <ele>505.39999389648</ele>
        <time>2023-05-27T09:33:00.000Z</time>
      </trkpt>
      <trkpt lat="43.71942" lon="3.24696">
        <ele>505.20001220703</ele>
        <time>2023-05-27T09:33:04.000Z</time>
      </trkpt>
      <trkpt lat="43.7194" lon="3.24695">
        <ele>505</ele>
        <time>2023-05-27T09:33:05.000Z</time>
      </trkpt>
      <trkpt lat="43.71933" lon="3.24689">
        <ele>504.60000610352</ele>
        <time>2023-05-27T09:33:12.000Z</time>
      </trkpt>
      <trkpt lat="43.71931" lon="3.24688">
        <ele>504.39999389648</ele>
        <time>2023-05-27T09:33:13.000Z</time>
      </trkpt>
      <trkpt lat="43.71925" lon="3.24682">
        <ele>504.20001220703</ele>
        <time>2023-05-27T09:33:19.000Z</time>
      </trkpt>
      <trkpt lat="43.71916" lon="3.24676">
        <ele>504</ele>
        <time>2023-05-27T09:33:25.000Z</time>
      </trkpt>
      <trkpt lat="43.71909" lon="3.24667">
        <ele>503.60000610352</ele>
        <time>2023-05-27T09:33:33.000Z</time>
      </trkpt>
      <trkpt lat="43.71909" lon="3.24667">
        <ele>503.39999389648</ele>
        <time>2023-05-27T09:33:34.000Z</time>
      </trkpt>
      <trkpt lat="43.71907" lon="3.24662">
        <ele>503.39999389648</ele>
        <time>2023-05-27T09:33:40.000Z</time>
      </trkpt>
      <trkpt lat="43.71906" lon="3.2466">
        <ele>503.60000610352</ele>
        <time>2023-05-27T09:33:41.000Z</time>
      </trkpt>
      <trkpt lat="43.71903" lon="3.24654">
        <ele>503.39999389648</ele>
        <time>2023-05-27T09:33:48.000Z</time>
      </trkpt>
      <trkpt lat="43.71902" lon="3.24653">
        <ele>503.39999389648</ele>
        <time>2023-05-27T09:33:54.000Z</time>
      </trkpt>
      <trkpt lat="43.71898" lon="3.24649">
        <ele>503.39999389648</ele>
        <time>2023-05-27T09:34:02.000Z</time>
      </trkpt>
      <trkpt lat="43.71897" lon="3.24642">
        <ele>503.39999389648</ele>
        <time>2023-05-27T09:34:09.000Z</time>
      </trkpt>
      <trkpt lat="43.71896" lon="3.24637">
        <ele>503.20001220703</ele>
        <time>2023-05-27T09:34:17.000Z</time>
      </trkpt>
      <trkpt lat="43.71896" lon="3.24635">
        <ele>503.20001220703</ele>
        <time>2023-05-27T09:34:26.000Z</time>
      </trkpt>
      <trkpt lat="43.71897" lon="3.24633">
        <ele>503</ele>
        <time>2023-05-27T09:34:35.000Z</time>
      </trkpt>
      <trkpt lat="43.719" lon="3.24624">
        <ele>502.79998779297</ele>
        <time>2023-05-27T09:34:42.000Z</time>
      </trkpt>
      <trkpt lat="43.71902" lon="3.2462">
        <ele>502.60000610352</ele>
        <time>2023-05-27T09:34:45.000Z</time>
      </trkpt>
      <trkpt lat="43.71903" lon="3.24616">
        <ele>502.60000610352</ele>
        <time>2023-05-27T09:34:48.000Z</time>
      </trkpt>
      <trkpt lat="43.71905" lon="3.24613">
        <ele>502.60000610352</ele>
        <time>2023-05-27T09:34:51.000Z</time>
      </trkpt>
      <trkpt lat="43.71908" lon="3.2461">
        <ele>502.39999389648</ele>
        <time>2023-05-27T09:34:54.000Z</time>
      </trkpt>
      <trkpt lat="43.7191" lon="3.24607">
        <ele>502.20001220703</ele>
        <time>2023-05-27T09:34:56.000Z</time>
      </trkpt>
      <trkpt lat="43.71916" lon="3.246">
        <ele>501.39999389648</ele>
        <time>2023-05-27T09:35:03.000Z</time>
      </trkpt>
      <trkpt lat="43.71917" lon="3.24599">
        <ele>501.39999389648</ele>
        <time>2023-05-27T09:35:04.000Z</time>
      </trkpt>
      <trkpt lat="43.71925" lon="3.24592">
        <ele>500.60000610352</ele>
        <time>2023-05-27T09:35:11.000Z</time>
      </trkpt>
      <trkpt lat="43.71927" lon="3.2459">
        <ele>500.39999389648</ele>
        <time>2023-05-27T09:35:13.000Z</time>
      </trkpt>
      <trkpt lat="43.71929" lon="3.24585">
        <ele>500</ele>
        <time>2023-05-27T09:35:17.000Z</time>
      </trkpt>
      <trkpt lat="43.71933" lon="3.24579">
        <ele>499.39999389648</ele>
        <time>2023-05-27T09:35:22.000Z</time>
      </trkpt>
      <trkpt lat="43.71933" lon="3.24578">
        <ele>499.20001220703</ele>
        <time>2023-05-27T09:35:24.000Z</time>
      </trkpt>
      <trkpt lat="43.71937" lon="3.24573">
        <ele>498.79998779297</ele>
        <time>2023-05-27T09:35:28.000Z</time>
      </trkpt>
      <trkpt lat="43.71939" lon="3.24568">
        <ele>498.39999389648</ele>
        <time>2023-05-27T09:35:32.000Z</time>
      </trkpt>
      <trkpt lat="43.7194" lon="3.24565">
        <ele>498.20001220703</ele>
        <time>2023-05-27T09:35:34.000Z</time>
      </trkpt>
      <trkpt lat="43.71941" lon="3.24564">
        <ele>498.20001220703</ele>
        <time>2023-05-27T09:35:35.000Z</time>
      </trkpt>
      <trkpt lat="43.71945" lon="3.24553">
        <ele>497.60000610352</ele>
        <time>2023-05-27T09:35:42.000Z</time>
      </trkpt>
      <trkpt lat="43.71946" lon="3.2455">
        <ele>497.20001220703</ele>
        <time>2023-05-27T09:35:44.000Z</time>
      </trkpt>
      <trkpt lat="43.71949" lon="3.24535">
        <ele>496.39999389648</ele>
        <time>2023-05-27T09:35:52.000Z</time>
      </trkpt>
      <trkpt lat="43.71949" lon="3.24531">
        <ele>496.20001220703</ele>
        <time>2023-05-27T09:35:54.000Z</time>
      </trkpt>
      <trkpt lat="43.71948" lon="3.24516">
        <ele>495.20001220703</ele>
        <time>2023-05-27T09:36:02.000Z</time>
      </trkpt>
      <trkpt lat="43.71946" lon="3.24512">
        <ele>495</ele>
        <time>2023-05-27T09:36:05.000Z</time>
      </trkpt>
      <trkpt lat="43.71944" lon="3.24505">
        <ele>494.60000610352</ele>
        <time>2023-05-27T09:36:10.000Z</time>
      </trkpt>
      <trkpt lat="43.71942" lon="3.24502">
        <ele>494</ele>
        <time>2023-05-27T09:36:12.000Z</time>
      </trkpt>
      <trkpt lat="43.71939" lon="3.24498">
        <ele>493.20001220703</ele>
        <time>2023-05-27T09:36:15.000Z</time>
      </trkpt>
      <trkpt lat="43.71936" lon="3.24494">
        <ele>493.20001220703</ele>
        <time>2023-05-27T09:36:17.000Z</time>
      </trkpt>
      <trkpt lat="43.71935" lon="3.24492">
        <ele>493.20001220703</ele>
        <time>2023-05-27T09:36:19.000Z</time>
      </trkpt>
      <trkpt lat="43.71933" lon="3.24487">
        <ele>493</ele>
        <time>2023-05-27T09:36:22.000Z</time>
      </trkpt>
      <trkpt lat="43.71929" lon="3.24478">
        <ele>492.20001220703</ele>
        <time>2023-05-27T09:36:28.000Z</time>
      </trkpt>
      <trkpt lat="43.71927" lon="3.24474">
        <ele>492</ele>
        <time>2023-05-27T09:36:31.000Z</time>
      </trkpt>
      <trkpt lat="43.71924" lon="3.24467">
        <ele>491.60000610352</ele>
        <time>2023-05-27T09:36:36.000Z</time>
      </trkpt>
      <trkpt lat="43.71921" lon="3.24455">
        <ele>490.79998779297</ele>
        <time>2023-05-27T09:36:44.000Z</time>
      </trkpt>
      <trkpt lat="43.71921" lon="3.2445">
        <ele>490.79998779297</ele>
        <time>2023-05-27T09:36:47.000Z</time>
      </trkpt>
      <trkpt lat="43.71925" lon="3.24435">
        <ele>490.60000610352</ele>
        <time>2023-05-27T09:36:57.000Z</time>
      </trkpt>
      <trkpt lat="43.71926" lon="3.24434">
        <ele>490.39999389648</ele>
        <time>2023-05-27T09:36:58.000Z</time>
      </trkpt>
      <trkpt lat="43.71928" lon="3.24431">
        <ele>490</ele>
        <time>2023-05-27T09:37:03.000Z</time>
      </trkpt>
      <trkpt lat="43.71928" lon="3.2443">
        <ele>490</ele>
        <time>2023-05-27T09:37:05.000Z</time>
      </trkpt>
      <trkpt lat="43.71929" lon="3.24429">
        <ele>490</ele>
        <time>2023-05-27T09:37:07.000Z</time>
      </trkpt>
      <trkpt lat="43.71931" lon="3.24427">
        <ele>489.79998779297</ele>
        <time>2023-05-27T09:37:09.000Z</time>
      </trkpt>
      <trkpt lat="43.71935" lon="3.24423">
        <ele>489.39999389648</ele>
        <time>2023-05-27T09:37:13.000Z</time>
      </trkpt>
      <trkpt lat="43.71936" lon="3.24422">
        <ele>489.20001220703</ele>
        <time>2023-05-27T09:37:14.000Z</time>
      </trkpt>
      <trkpt lat="43.71938" lon="3.2442">
        <ele>488.79998779297</ele>
        <time>2023-05-27T09:37:16.000Z</time>
      </trkpt>
      <trkpt lat="43.71942" lon="3.24418">
        <ele>488.60000610352</ele>
        <time>2023-05-27T09:37:19.000Z</time>
      </trkpt>
      <trkpt lat="43.7195" lon="3.24412">
        <ele>487.79998779297</ele>
        <time>2023-05-27T09:37:27.000Z</time>
      </trkpt>
      <trkpt lat="43.71958" lon="3.24407">
        <ele>487</ele>
        <time>2023-05-27T09:37:34.000Z</time>
      </trkpt>
      <trkpt lat="43.71963" lon="3.24404">
        <ele>486.79998779297</ele>
        <time>2023-05-27T09:37:38.000Z</time>
      </trkpt>
      <trkpt lat="43.71969" lon="3.244">
        <ele>486.20001220703</ele>
        <time>2023-05-27T09:37:43.000Z</time>
      </trkpt>
      <trkpt lat="43.71976" lon="3.24394">
        <ele>485.60000610352</ele>
        <time>2023-05-27T09:37:50.000Z</time>
      </trkpt>
      <trkpt lat="43.71981" lon="3.2439">
        <ele>485.20001220703</ele>
        <time>2023-05-27T09:37:54.000Z</time>
      </trkpt>
      <trkpt lat="43.71985" lon="3.24384">
        <ele>484.60000610352</ele>
        <time>2023-05-27T09:37:59.000Z</time>
      </trkpt>
      <trkpt lat="43.71989" lon="3.24379">
        <ele>484</ele>
        <time>2023-05-27T09:38:04.000Z</time>
      </trkpt>
      <trkpt lat="43.71991" lon="3.24372">
        <ele>483.60000610352</ele>
        <time>2023-05-27T09:38:08.000Z</time>
      </trkpt>
      <trkpt lat="43.71992" lon="3.24364">
        <ele>483</ele>
        <time>2023-05-27T09:38:13.000Z</time>
      </trkpt>
      <trkpt lat="43.71993" lon="3.24358">
        <ele>485</ele>
        <time>2023-05-27T09:38:16.000Z</time>
      </trkpt>
      <trkpt lat="43.71994" lon="3.24351">
        <ele>483.60000610352</ele>
        <time>2023-05-27T09:38:20.000Z</time>
      </trkpt>
      <trkpt lat="43.71994" lon="3.24349">
        <ele>482.20001220703</ele>
        <time>2023-05-27T09:38:21.000Z</time>
      </trkpt>
      <trkpt lat="43.71993" lon="3.24331">
        <ele>481.20001220703</ele>
        <time>2023-05-27T09:38:31.000Z</time>
      </trkpt>
      <trkpt lat="43.71992" lon="3.24328">
        <ele>481</ele>
        <time>2023-05-27T09:38:33.000Z</time>
      </trkpt>
      <trkpt lat="43.7199" lon="3.24312">
        <ele>480.20001220703</ele>
        <time>2023-05-27T09:38:42.000Z</time>
      </trkpt>
      <trkpt lat="43.7199" lon="3.2431">
        <ele>480</ele>
        <time>2023-05-27T09:38:43.000Z</time>
      </trkpt>
      <trkpt lat="43.71988" lon="3.24295">
        <ele>479.39999389648</ele>
        <time>2023-05-27T09:38:52.000Z</time>
      </trkpt>
      <trkpt lat="43.71986" lon="3.24288">
        <ele>479</ele>
        <time>2023-05-27T09:38:56.000Z</time>
      </trkpt>
      <trkpt lat="43.71985" lon="3.24278">
        <ele>478.39999389648</ele>
        <time>2023-05-27T09:39:02.000Z</time>
      </trkpt>
      <trkpt lat="43.71983" lon="3.24271">
        <ele>478</ele>
        <time>2023-05-27T09:39:06.000Z</time>
      </trkpt>
      <trkpt lat="43.71981" lon="3.24257">
        <ele>477.39999389648</ele>
        <time>2023-05-27T09:39:14.000Z</time>
      </trkpt>
      <trkpt lat="43.71979" lon="3.2425">
        <ele>477</ele>
        <time>2023-05-27T09:39:18.000Z</time>
      </trkpt>
      <trkpt lat="43.71977" lon="3.2424">
        <ele>476.39999389648</ele>
        <time>2023-05-27T09:39:24.000Z</time>
      </trkpt>
      <trkpt lat="43.71974" lon="3.2423">
        <ele>475.79998779297</ele>
        <time>2023-05-27T09:39:30.000Z</time>
      </trkpt>
      <trkpt lat="43.71973" lon="3.24224">
        <ele>475.39999389648</ele>
        <time>2023-05-27T09:39:34.000Z</time>
      </trkpt>
      <trkpt lat="43.71969" lon="3.24212">
        <ele>474.79998779297</ele>
        <time>2023-05-27T09:39:41.000Z</time>
      </trkpt>
      <trkpt lat="43.71968" lon="3.24207">
        <ele>474.60000610352</ele>
        <time>2023-05-27T09:39:44.000Z</time>
      </trkpt>
      <trkpt lat="43.71961" lon="3.24193">
        <ele>473.79998779297</ele>
        <time>2023-05-27T09:39:53.000Z</time>
      </trkpt>
      <trkpt lat="43.71961" lon="3.24192">
        <ele>473.60000610352</ele>
        <time>2023-05-27T09:39:54.000Z</time>
      </trkpt>
      <trkpt lat="43.71955" lon="3.24177">
        <ele>472.60000610352</ele>
        <time>2023-05-27T09:40:04.000Z</time>
      </trkpt>
      <trkpt lat="43.71954" lon="3.24176">
        <ele>472.39999389648</ele>
        <time>2023-05-27T09:40:05.000Z</time>
      </trkpt>
      <trkpt lat="43.71947" lon="3.24162">
        <ele>471.60000610352</ele>
        <time>2023-05-27T09:40:15.000Z</time>
      </trkpt>
      <trkpt lat="43.71947" lon="3.2416">
        <ele>471.39999389648</ele>
        <time>2023-05-27T09:40:16.000Z</time>
      </trkpt>
      <trkpt lat="43.7194" lon="3.24143">
        <ele>470.60000610352</ele>
        <time>2023-05-27T09:40:28.000Z</time>
      </trkpt>
      <trkpt lat="43.71939" lon="3.24141">
        <ele>470.39999389648</ele>
        <time>2023-05-27T09:40:29.000Z</time>
      </trkpt>
      <trkpt lat="43.71931" lon="3.24127">
        <ele>469.39999389648</ele>
        <time>2023-05-27T09:40:40.000Z</time>
      </trkpt>
      <trkpt lat="43.71923" lon="3.24112">
        <ele>468.39999389648</ele>
        <time>2023-05-27T09:40:51.000Z</time>
      </trkpt>
      <trkpt lat="43.71922" lon="3.24108">
        <ele>468.20001220703</ele>
        <time>2023-05-27T09:40:53.000Z</time>
      </trkpt>
      <trkpt lat="43.71912" lon="3.24087">
        <ele>467.20001220703</ele>
        <time>2023-05-27T09:41:07.000Z</time>
      </trkpt>
      <trkpt lat="43.71911" lon="3.24086">
        <ele>467.20001220703</ele>
        <time>2023-05-27T09:41:08.000Z</time>
      </trkpt>
      <trkpt lat="43.71905" lon="3.24073">
        <ele>466.20001220703</ele>
        <time>2023-05-27T09:41:17.000Z</time>
      </trkpt>
      <trkpt lat="43.71903" lon="3.24069">
        <ele>465.79998779297</ele>
        <time>2023-05-27T09:41:20.000Z</time>
      </trkpt>
      <trkpt lat="43.71898" lon="3.2406">
        <ele>465</ele>
        <time>2023-05-27T09:41:26.000Z</time>
      </trkpt>
      <trkpt lat="43.71896" lon="3.24056">
        <ele>464.60000610352</ele>
        <time>2023-05-27T09:41:29.000Z</time>
      </trkpt>
      <trkpt lat="43.71894" lon="3.24052">
        <ele>464</ele>
        <time>2023-05-27T09:41:32.000Z</time>
      </trkpt>
      <trkpt lat="43.7189" lon="3.24046">
        <ele>463.39999389648</ele>
        <time>2023-05-27T09:41:38.000Z</time>
      </trkpt>
      <trkpt lat="43.71889" lon="3.24045">
        <ele>463.39999389648</ele>
        <time>2023-05-27T09:41:39.000Z</time>
      </trkpt>
      <trkpt lat="43.71887" lon="3.24043">
        <ele>463</ele>
        <time>2023-05-27T09:41:43.000Z</time>
      </trkpt>
      <trkpt lat="43.71887" lon="3.24043">
        <ele>463</ele>
        <time>2023-05-27T09:41:44.000Z</time>
      </trkpt>
      <trkpt lat="43.71886" lon="3.24042">
        <ele>462.79998779297</ele>
        <time>2023-05-27T09:41:49.000Z</time>
      </trkpt>
      <trkpt lat="43.71886" lon="3.24042">
        <ele>462.79998779297</ele>
        <time>2023-05-27T09:41:56.000Z</time>
      </trkpt>
      <trkpt lat="43.71887" lon="3.24041">
        <ele>462.60000610352</ele>
        <time>2023-05-27T09:42:08.000Z</time>
      </trkpt>
      <trkpt lat="43.71887" lon="3.24041">
        <ele>462.79998779297</ele>
        <time>2023-05-27T09:42:16.000Z</time>
      </trkpt>
      <trkpt lat="43.71887" lon="3.24042">
        <ele>462.60000610352</ele>
        <time>2023-05-27T09:42:24.000Z</time>
      </trkpt>
      <trkpt lat="43.71887" lon="3.24042">
        <ele>462.20001220703</ele>
        <time>2023-05-27T09:42:32.000Z</time>
      </trkpt>
      <trkpt lat="43.71887" lon="3.24042">
        <ele>462.20001220703</ele>
        <time>2023-05-27T09:42:43.000Z</time>
      </trkpt>
      <trkpt lat="43.71887" lon="3.24042">
        <ele>461.79998779297</ele>
        <time>2023-05-27T09:42:49.000Z</time>
      </trkpt>
      <trkpt lat="43.71888" lon="3.24042">
        <ele>462</ele>
        <time>2023-05-27T09:42:50.000Z</time>
      </trkpt>
      <trkpt lat="43.71888" lon="3.24041">
        <ele>462.20001220703</ele>
        <time>2023-05-27T09:43:08.000Z</time>
      </trkpt>
      <trkpt lat="43.71888" lon="3.24041">
        <ele>462.20001220703</ele>
        <time>2023-05-27T09:43:24.000Z</time>
      </trkpt>
      <trkpt lat="43.71888" lon="3.2404">
        <ele>462.39999389648</ele>
        <time>2023-05-27T09:43:32.000Z</time>
      </trkpt>
      <trkpt lat="43.7189" lon="3.24039">
        <ele>462.60000610352</ele>
        <time>2023-05-27T09:43:42.000Z</time>
      </trkpt>
      <trkpt lat="43.71892" lon="3.2404">
        <ele>462.60000610352</ele>
        <time>2023-05-27T09:43:53.000Z</time>
      </trkpt>
      <trkpt lat="43.71891" lon="3.24042">
        <ele>462</ele>
        <time>2023-05-27T09:44:05.000Z</time>
      </trkpt>
      <trkpt lat="43.71891" lon="3.24042">
        <ele>462</ele>
        <time>2023-05-27T09:44:13.000Z</time>
      </trkpt>
      <trkpt lat="43.71891" lon="3.24042">
        <ele>462.39999389648</ele>
        <time>2023-05-27T09:44:24.000Z</time>
      </trkpt>
      <trkpt lat="43.71891" lon="3.2404">
        <ele>462.60000610352</ele>
        <time>2023-05-27T09:44:29.000Z</time>
      </trkpt>
      <trkpt lat="43.71891" lon="3.24039">
        <ele>462.79998779297</ele>
        <time>2023-05-27T09:44:37.000Z</time>
      </trkpt>
      <trkpt lat="43.71891" lon="3.24039">
        <ele>463</ele>
        <time>2023-05-27T09:44:42.000Z</time>
      </trkpt>
      <trkpt lat="43.7189" lon="3.24039">
        <ele>463</ele>
        <time>2023-05-27T09:44:45.000Z</time>
      </trkpt>
      <trkpt lat="43.7189" lon="3.24039">
        <ele>462.79998779297</ele>
        <time>2023-05-27T09:44:52.000Z</time>
      </trkpt>
      <trkpt lat="43.7189" lon="3.24039">
        <ele>463</ele>
        <time>2023-05-27T09:45:03.000Z</time>
      </trkpt>
      <trkpt lat="43.7189" lon="3.24037">
        <ele>462.79998779297</ele>
        <time>2023-05-27T09:45:11.000Z</time>
      </trkpt>
      <trkpt lat="43.7189" lon="3.24037">
        <ele>463</ele>
        <time>2023-05-27T09:45:18.000Z</time>
      </trkpt>
      <trkpt lat="43.71889" lon="3.24038">
        <ele>463.20001220703</ele>
        <time>2023-05-27T09:45:31.000Z</time>
      </trkpt>
      <trkpt lat="43.71889" lon="3.24037">
        <ele>468.60000610352</ele>
        <time>2023-05-27T09:45:34.000Z</time>
      </trkpt>
      <trkpt lat="43.71889" lon="3.24037">
        <ele>463</ele>
        <time>2023-05-27T09:45:39.000Z</time>
      </trkpt>
      <trkpt lat="43.71888" lon="3.24036">
        <ele>462.39999389648</ele>
        <time>2023-05-27T09:45:47.000Z</time>
      </trkpt>
      <trkpt lat="43.71889" lon="3.24036">
        <ele>463</ele>
        <time>2023-05-27T09:45:53.000Z</time>
      </trkpt>
      <trkpt lat="43.71888" lon="3.24037">
        <ele>462.60000610352</ele>
        <time>2023-05-27T09:46:01.000Z</time>
      </trkpt>
      <trkpt lat="43.71888" lon="3.24037">
        <ele>462.60000610352</ele>
        <time>2023-05-27T09:46:09.000Z</time>
      </trkpt>
      <trkpt lat="43.71889" lon="3.24038">
        <ele>462.39999389648</ele>
        <time>2023-05-27T09:46:17.000Z</time>
      </trkpt>
      <trkpt lat="43.71888" lon="3.24038">
        <ele>463</ele>
        <time>2023-05-27T09:46:24.000Z</time>
      </trkpt>
      <trkpt lat="43.71887" lon="3.24037">
        <ele>463</ele>
        <time>2023-05-27T09:46:31.000Z</time>
      </trkpt>
      <trkpt lat="43.71885" lon="3.24035">
        <ele>462.79998779297</ele>
        <time>2023-05-27T09:46:39.000Z</time>
      </trkpt>
      <trkpt lat="43.71885" lon="3.24036">
        <ele>462.60000610352</ele>
        <time>2023-05-27T09:46:45.000Z</time>
      </trkpt>
      <trkpt lat="43.71885" lon="3.24037">
        <ele>462.79998779297</ele>
        <time>2023-05-27T09:46:54.000Z</time>
      </trkpt>
      <trkpt lat="43.71884" lon="3.24036">
        <ele>463</ele>
        <time>2023-05-27T09:47:06.000Z</time>
      </trkpt>
      <trkpt lat="43.71882" lon="3.24031">
        <ele>462.79998779297</ele>
        <time>2023-05-27T09:47:15.000Z</time>
      </trkpt>
      <trkpt lat="43.71879" lon="3.24028">
        <ele>462.60000610352</ele>
        <time>2023-05-27T09:47:20.000Z</time>
      </trkpt>
      <trkpt lat="43.71876" lon="3.24023">
        <ele>462</ele>
        <time>2023-05-27T09:47:26.000Z</time>
      </trkpt>
      <trkpt lat="43.71875" lon="3.24022">
        <ele>461.79998779297</ele>
        <time>2023-05-27T09:47:27.000Z</time>
      </trkpt>
      <trkpt lat="43.71872" lon="3.24015">
        <ele>461.79998779297</ele>
        <time>2023-05-27T09:47:33.000Z</time>
      </trkpt>
      <trkpt lat="43.71868" lon="3.24005">
        <ele>461.20001220703</ele>
        <time>2023-05-27T09:47:42.000Z</time>
      </trkpt>
      <trkpt lat="43.71866" lon="3.23996">
        <ele>460.79998779297</ele>
        <time>2023-05-27T09:47:48.000Z</time>
      </trkpt>
      <trkpt lat="43.71864" lon="3.2399">
        <ele>460.60000610352</ele>
        <time>2023-05-27T09:47:52.000Z</time>
      </trkpt>
      <trkpt lat="43.71859" lon="3.23978">
        <ele>460</ele>
        <time>2023-05-27T09:48:01.000Z</time>
      </trkpt>
      <trkpt lat="43.71859" lon="3.23977">
        <ele>459.79998779297</ele>
        <time>2023-05-27T09:48:02.000Z</time>
      </trkpt>
      <trkpt lat="43.71854" lon="3.23966">
        <ele>458.79998779297</ele>
        <time>2023-05-27T09:48:10.000Z</time>
      </trkpt>
      <trkpt lat="43.71846" lon="3.2395">
        <ele>457.79998779297</ele>
        <time>2023-05-27T09:48:22.000Z</time>
      </trkpt>
      <trkpt lat="43.71846" lon="3.23949">
        <ele>457.79998779297</ele>
        <time>2023-05-27T09:48:23.000Z</time>
      </trkpt>
      <trkpt lat="43.71839" lon="3.23935">
        <ele>457</ele>
        <time>2023-05-27T09:48:32.000Z</time>
      </trkpt>
      <trkpt lat="43.71836" lon="3.23929">
        <ele>456.60000610352</ele>
        <time>2023-05-27T09:48:36.000Z</time>
      </trkpt>
      <trkpt lat="43.71834" lon="3.23924">
        <ele>456.39999389648</ele>
        <time>2023-05-27T09:48:39.000Z</time>
      </trkpt>
      <trkpt lat="43.71828" lon="3.23913">
        <ele>455.60000610352</ele>
        <time>2023-05-27T09:48:46.000Z</time>
      </trkpt>
      <trkpt lat="43.71828" lon="3.23911">
        <ele>455.60000610352</ele>
        <time>2023-05-27T09:48:47.000Z</time>
      </trkpt>
      <trkpt lat="43.7182" lon="3.23896">
        <ele>454.79998779297</ele>
        <time>2023-05-27T09:48:57.000Z</time>
      </trkpt>
      <trkpt lat="43.71817" lon="3.2389">
        <ele>454.39999389648</ele>
        <time>2023-05-27T09:49:01.000Z</time>
      </trkpt>
      <trkpt lat="43.71812" lon="3.23878">
        <ele>453.79998779297</ele>
        <time>2023-05-27T09:49:09.000Z</time>
      </trkpt>
      <trkpt lat="43.71809" lon="3.23871">
        <ele>453.39999389648</ele>
        <time>2023-05-27T09:49:13.000Z</time>
      </trkpt>
      <trkpt lat="43.71804" lon="3.23861">
        <ele>453</ele>
        <time>2023-05-27T09:49:20.000Z</time>
      </trkpt>
      <trkpt lat="43.71799" lon="3.2385">
        <ele>452.39999389648</ele>
        <time>2023-05-27T09:49:27.000Z</time>
      </trkpt>
      <trkpt lat="43.71797" lon="3.23846">
        <ele>452.20001220703</ele>
        <time>2023-05-27T09:49:30.000Z</time>
      </trkpt>
      <trkpt lat="43.71789" lon="3.23831">
        <ele>451.39999389648</ele>
        <time>2023-05-27T09:49:40.000Z</time>
      </trkpt>
      <trkpt lat="43.71789" lon="3.23829">
        <ele>451.39999389648</ele>
        <time>2023-05-27T09:49:41.000Z</time>
      </trkpt>
      <trkpt lat="43.71782" lon="3.23815">
        <ele>450.60000610352</ele>
        <time>2023-05-27T09:49:50.000Z</time>
      </trkpt>
      <trkpt lat="43.7178" lon="3.23812">
        <ele>450.39999389648</ele>
        <time>2023-05-27T09:49:52.000Z</time>
      </trkpt>
      <trkpt lat="43.71773" lon="3.23798">
        <ele>449.60000610352</ele>
        <time>2023-05-27T09:50:01.000Z</time>
      </trkpt>
      <trkpt lat="43.71772" lon="3.23794">
        <ele>449.39999389648</ele>
        <time>2023-05-27T09:50:03.000Z</time>
      </trkpt>
      <trkpt lat="43.71767" lon="3.23782">
        <ele>448.39999389648</ele>
        <time>2023-05-27T09:50:11.000Z</time>
      </trkpt>
      <trkpt lat="43.71765" lon="3.23779">
        <ele>448.39999389648</ele>
        <time>2023-05-27T09:50:13.000Z</time>
      </trkpt>
      <trkpt lat="43.71761" lon="3.23771">
        <ele>447.79998779297</ele>
        <time>2023-05-27T09:50:19.000Z</time>
      </trkpt>
      <trkpt lat="43.71756" lon="3.2376">
        <ele>447.20001220703</ele>
        <time>2023-05-27T09:50:27.000Z</time>
      </trkpt>
      <trkpt lat="43.71754" lon="3.23756">
        <ele>446.79998779297</ele>
        <time>2023-05-27T09:50:33.000Z</time>
      </trkpt>
      <trkpt lat="43.71751" lon="3.2375">
        <ele>446.60000610352</ele>
        <time>2023-05-27T09:50:41.000Z</time>
      </trkpt>
      <trkpt lat="43.71744" lon="3.23738">
        <ele>446.20001220703</ele>
        <time>2023-05-27T09:50:50.000Z</time>
      </trkpt>
      <trkpt lat="43.71743" lon="3.23737">
        <ele>446.20001220703</ele>
        <time>2023-05-27T09:50:51.000Z</time>
      </trkpt>
      <trkpt lat="43.7174" lon="3.23729">
        <ele>445.79998779297</ele>
        <time>2023-05-27T09:50:56.000Z</time>
      </trkpt>
      <trkpt lat="43.71734" lon="3.23718">
        <ele>445.20001220703</ele>
        <time>2023-05-27T09:51:04.000Z</time>
      </trkpt>
      <trkpt lat="43.71728" lon="3.23704">
        <ele>444.39999389648</ele>
        <time>2023-05-27T09:51:13.000Z</time>
      </trkpt>
      <trkpt lat="43.71727" lon="3.23701">
        <ele>444.20001220703</ele>
        <time>2023-05-27T09:51:15.000Z</time>
      </trkpt>
      <trkpt lat="43.71721" lon="3.23689">
        <ele>443.39999389648</ele>
        <time>2023-05-27T09:51:23.000Z</time>
      </trkpt>
      <trkpt lat="43.71714" lon="3.23676">
        <ele>443.20001220703</ele>
        <time>2023-05-27T09:51:32.000Z</time>
      </trkpt>
      <trkpt lat="43.71713" lon="3.23674">
        <ele>443</ele>
        <time>2023-05-27T09:51:33.000Z</time>
      </trkpt>
      <trkpt lat="43.71708" lon="3.23662">
        <ele>442.60000610352</ele>
        <time>2023-05-27T09:51:41.000Z</time>
      </trkpt>
      <trkpt lat="43.71706" lon="3.23654">
        <ele>442</ele>
        <time>2023-05-27T09:51:46.000Z</time>
      </trkpt>
      <trkpt lat="43.71704" lon="3.23652">
        <ele>442</ele>
        <time>2023-05-27T09:51:48.000Z</time>
      </trkpt>
      <trkpt lat="43.71699" lon="3.2364">
        <ele>441</ele>
        <time>2023-05-27T09:51:56.000Z</time>
      </trkpt>
      <trkpt lat="43.71699" lon="3.23638">
        <ele>440.79998779297</ele>
        <time>2023-05-27T09:51:57.000Z</time>
      </trkpt>
      <trkpt lat="43.71697" lon="3.23633">
        <ele>440.60000610352</ele>
        <time>2023-05-27T09:52:00.000Z</time>
      </trkpt>
      <trkpt lat="43.71695" lon="3.23629">
        <ele>440.39999389648</ele>
        <time>2023-05-27T09:52:03.000Z</time>
      </trkpt>
      <trkpt lat="43.71693" lon="3.23625">
        <ele>440.39999389648</ele>
        <time>2023-05-27T09:52:06.000Z</time>
      </trkpt>
      <trkpt lat="43.71691" lon="3.23619">
        <ele>440</ele>
        <time>2023-05-27T09:52:10.000Z</time>
      </trkpt>
      <trkpt lat="43.71691" lon="3.23618">
        <ele>440</ele>
        <time>2023-05-27T09:52:11.000Z</time>
      </trkpt>
      <trkpt lat="43.7169" lon="3.23614">
        <ele>439.60000610352</ele>
        <time>2023-05-27T09:52:15.000Z</time>
      </trkpt>
      <trkpt lat="43.71685" lon="3.23599">
        <ele>439</ele>
        <time>2023-05-27T09:52:25.000Z</time>
      </trkpt>
      <trkpt lat="43.71683" lon="3.23596">
        <ele>439</ele>
        <time>2023-05-27T09:52:27.000Z</time>
      </trkpt>
      <trkpt lat="43.71678" lon="3.23578">
        <ele>438.20001220703</ele>
        <time>2023-05-27T09:52:38.000Z</time>
      </trkpt>
      <trkpt lat="43.71675" lon="3.2357">
        <ele>437.79998779297</ele>
        <time>2023-05-27T09:52:43.000Z</time>
      </trkpt>
      <trkpt lat="43.71672" lon="3.23562">
        <ele>437.39999389648</ele>
        <time>2023-05-27T09:52:48.000Z</time>
      </trkpt>
      <trkpt lat="43.71667" lon="3.23548">
        <ele>436.79998779297</ele>
        <time>2023-05-27T09:52:57.000Z</time>
      </trkpt>
      <trkpt lat="43.71666" lon="3.23545">
        <ele>436.79998779297</ele>
        <time>2023-05-27T09:52:59.000Z</time>
      </trkpt>
      <trkpt lat="43.71661" lon="3.23535">
        <ele>436.20001220703</ele>
        <time>2023-05-27T09:53:07.000Z</time>
      </trkpt>
      <trkpt lat="43.71661" lon="3.23534">
        <ele>436.20001220703</ele>
        <time>2023-05-27T09:53:08.000Z</time>
      </trkpt>
      <trkpt lat="43.7166" lon="3.23533">
        <ele>435.79998779297</ele>
        <time>2023-05-27T09:53:13.000Z</time>
      </trkpt>
      <trkpt lat="43.71659" lon="3.23529">
        <ele>435.79998779297</ele>
        <time>2023-05-27T09:53:23.000Z</time>
      </trkpt>
      <trkpt lat="43.71653" lon="3.23514">
        <ele>435</ele>
        <time>2023-05-27T09:53:34.000Z</time>
      </trkpt>
      <trkpt lat="43.71651" lon="3.23509">
        <ele>434.79998779297</ele>
        <time>2023-05-27T09:53:38.000Z</time>
      </trkpt>
      <trkpt lat="43.71646" lon="3.23499">
        <ele>434.20001220703</ele>
        <time>2023-05-27T09:53:46.000Z</time>
      </trkpt>
      <trkpt lat="43.71642" lon="3.23487">
        <ele>433.79998779297</ele>
        <time>2023-05-27T09:53:54.000Z</time>
      </trkpt>
      <trkpt lat="43.71641" lon="3.23486">
        <ele>433.79998779297</ele>
        <time>2023-05-27T09:53:55.000Z</time>
      </trkpt>
      <trkpt lat="43.71636" lon="3.23473">
        <ele>433.20001220703</ele>
        <time>2023-05-27T09:54:04.000Z</time>
      </trkpt>
      <trkpt lat="43.71632" lon="3.23459">
        <ele>432.79998779297</ele>
        <time>2023-05-27T09:54:14.000Z</time>
      </trkpt>
      <trkpt lat="43.71628" lon="3.23447">
        <ele>432.20001220703</ele>
        <time>2023-05-27T09:54:23.000Z</time>
      </trkpt>
      <trkpt lat="43.71625" lon="3.23438">
        <ele>431.60000610352</ele>
        <time>2023-05-27T09:54:29.000Z</time>
      </trkpt>
      <trkpt lat="43.71622" lon="3.2343">
        <ele>431.20001220703</ele>
        <time>2023-05-27T09:54:35.000Z</time>
      </trkpt>
      <trkpt lat="43.7162" lon="3.23421">
        <ele>430.60000610352</ele>
        <time>2023-05-27T09:54:42.000Z</time>
      </trkpt>
      <trkpt lat="43.71618" lon="3.23417">
        <ele>430.39999389648</ele>
        <time>2023-05-27T09:54:48.000Z</time>
      </trkpt>
      <trkpt lat="43.71613" lon="3.23402">
        <ele>430</ele>
        <time>2023-05-27T09:54:58.000Z</time>
      </trkpt>
      <trkpt lat="43.7161" lon="3.23395">
        <ele>429.60000610352</ele>
        <time>2023-05-27T09:55:03.000Z</time>
      </trkpt>
      <trkpt lat="43.71607" lon="3.23388">
        <ele>429.20001220703</ele>
        <time>2023-05-27T09:55:08.000Z</time>
      </trkpt>
      <trkpt lat="43.71602" lon="3.23377">
        <ele>428.60000610352</ele>
        <time>2023-05-27T09:55:18.000Z</time>
      </trkpt>
      <trkpt lat="43.71602" lon="3.23376">
        <ele>428.60000610352</ele>
        <time>2023-05-27T09:55:21.000Z</time>
      </trkpt>
      <trkpt lat="43.716" lon="3.23372">
        <ele>428.39999389648</ele>
        <time>2023-05-27T09:55:24.000Z</time>
      </trkpt>
      <trkpt lat="43.71594" lon="3.23358">
        <ele>427.79998779297</ele>
        <time>2023-05-27T09:55:34.000Z</time>
      </trkpt>
      <trkpt lat="43.71591" lon="3.23353">
        <ele>427.39999389648</ele>
        <time>2023-05-27T09:55:38.000Z</time>
      </trkpt>
      <trkpt lat="43.71588" lon="3.23346">
        <ele>427.20001220703</ele>
        <time>2023-05-27T09:55:44.000Z</time>
      </trkpt>
      <trkpt lat="43.71583" lon="3.23335">
        <ele>426.60000610352</ele>
        <time>2023-05-27T09:55:53.000Z</time>
      </trkpt>
      <trkpt lat="43.71579" lon="3.23326">
        <ele>426.39999389648</ele>
        <time>2023-05-27T09:55:59.000Z</time>
      </trkpt>
      <trkpt lat="43.71575" lon="3.23316">
        <ele>426</ele>
        <time>2023-05-27T09:56:05.000Z</time>
      </trkpt>
      <trkpt lat="43.7157" lon="3.23301">
        <ele>425.79998779297</ele>
        <time>2023-05-27T09:56:15.000Z</time>
      </trkpt>
      <trkpt lat="43.71567" lon="3.23291">
        <ele>425.39999389648</ele>
        <time>2023-05-27T09:56:21.000Z</time>
      </trkpt>
      <trkpt lat="43.71566" lon="3.23283">
        <ele>425</ele>
        <time>2023-05-27T09:56:26.000Z</time>
      </trkpt>
      <trkpt lat="43.71565" lon="3.23268">
        <ele>424.79998779297</ele>
        <time>2023-05-27T09:56:35.000Z</time>
      </trkpt>
      <trkpt lat="43.71565" lon="3.2326">
        <ele>424.39999389648</ele>
        <time>2023-05-27T09:56:40.000Z</time>
      </trkpt>
      <trkpt lat="43.71565" lon="3.2325">
        <ele>424</ele>
        <time>2023-05-27T09:56:46.000Z</time>
      </trkpt>
      <trkpt lat="43.71567" lon="3.23234">
        <ele>423.39999389648</ele>
        <time>2023-05-27T09:56:56.000Z</time>
      </trkpt>
      <trkpt lat="43.71568" lon="3.23232">
        <ele>423.20001220703</ele>
        <time>2023-05-27T09:56:57.000Z</time>
      </trkpt>
      <trkpt lat="43.71569" lon="3.23221">
        <ele>422.79998779297</ele>
        <time>2023-05-27T09:57:04.000Z</time>
      </trkpt>
      <trkpt lat="43.71569" lon="3.23211">
        <ele>422.20001220703</ele>
        <time>2023-05-27T09:57:10.000Z</time>
      </trkpt>
      <trkpt lat="43.71569" lon="3.23207">
        <ele>422</ele>
        <time>2023-05-27T09:57:12.000Z</time>
      </trkpt>
      <trkpt lat="43.71567" lon="3.23195">
        <ele>421.39999389648</ele>
        <time>2023-05-27T09:57:19.000Z</time>
      </trkpt>
      <trkpt lat="43.71567" lon="3.23193">
        <ele>421.20001220703</ele>
        <time>2023-05-27T09:57:20.000Z</time>
      </trkpt>
      <trkpt lat="43.71564" lon="3.23185">
        <ele>420</ele>
        <time>2023-05-27T09:57:25.000Z</time>
      </trkpt>
      <trkpt lat="43.71564" lon="3.23183">
        <ele>419.79998779297</ele>
        <time>2023-05-27T09:57:26.000Z</time>
      </trkpt>
      <trkpt lat="43.7156" lon="3.23171">
        <ele>419.60000610352</ele>
        <time>2023-05-27T09:57:34.000Z</time>
      </trkpt>
      <trkpt lat="43.71554" lon="3.23157">
        <ele>419</ele>
        <time>2023-05-27T09:57:43.000Z</time>
      </trkpt>
      <trkpt lat="43.71554" lon="3.23155">
        <ele>419</ele>
        <time>2023-05-27T09:57:44.000Z</time>
      </trkpt>
      <trkpt lat="43.71548" lon="3.23142">
        <ele>418.20001220703</ele>
        <time>2023-05-27T09:57:53.000Z</time>
      </trkpt>
      <trkpt lat="43.71545" lon="3.23135">
        <ele>418</ele>
        <time>2023-05-27T09:57:58.000Z</time>
      </trkpt>
      <trkpt lat="43.71544" lon="3.23133">
        <ele>418</ele>
        <time>2023-05-27T09:57:59.000Z</time>
      </trkpt>
      <trkpt lat="43.71543" lon="3.23129">
        <ele>417.79998779297</ele>
        <time>2023-05-27T09:58:01.000Z</time>
      </trkpt>
      <trkpt lat="43.71538" lon="3.2312">
        <ele>417.79998779297</ele>
        <time>2023-05-27T09:58:08.000Z</time>
      </trkpt>
      <trkpt lat="43.71534" lon="3.23108">
        <ele>417.20001220703</ele>
        <time>2023-05-27T09:58:16.000Z</time>
      </trkpt>
      <trkpt lat="43.71534" lon="3.23105">
        <ele>416.79998779297</ele>
        <time>2023-05-27T09:58:18.000Z</time>
      </trkpt>
      <trkpt lat="43.71534" lon="3.23104">
        <ele>416.60000610352</ele>
        <time>2023-05-27T09:58:19.000Z</time>
      </trkpt>
      <trkpt lat="43.71532" lon="3.23098">
        <ele>416.39999389648</ele>
        <time>2023-05-27T09:58:23.000Z</time>
      </trkpt>
      <trkpt lat="43.7153" lon="3.23088">
        <ele>416</ele>
        <time>2023-05-27T09:58:29.000Z</time>
      </trkpt>
      <trkpt lat="43.71529" lon="3.23084">
        <ele>415.79998779297</ele>
        <time>2023-05-27T09:58:32.000Z</time>
      </trkpt>
      <trkpt lat="43.71529" lon="3.23081">
        <ele>415.60000610352</ele>
        <time>2023-05-27T09:58:35.000Z</time>
      </trkpt>
      <trkpt lat="43.71528" lon="3.23073">
        <ele>415.20001220703</ele>
        <time>2023-05-27T09:58:40.000Z</time>
      </trkpt>
      <trkpt lat="43.71528" lon="3.23071">
        <ele>415</ele>
        <time>2023-05-27T09:58:41.000Z</time>
      </trkpt>
      <trkpt lat="43.71527" lon="3.23065">
        <ele>414.60000610352</ele>
        <time>2023-05-27T09:58:45.000Z</time>
      </trkpt>
      <trkpt lat="43.71527" lon="3.23061">
        <ele>414.60000610352</ele>
        <time>2023-05-27T09:58:48.000Z</time>
      </trkpt>
      <trkpt lat="43.71527" lon="3.23058">
        <ele>414.39999389648</ele>
        <time>2023-05-27T09:58:50.000Z</time>
      </trkpt>
      <trkpt lat="43.71526" lon="3.23051">
        <ele>414</ele>
        <time>2023-05-27T09:58:54.000Z</time>
      </trkpt>
      <trkpt lat="43.71525" lon="3.23047">
        <ele>413.79998779297</ele>
        <time>2023-05-27T09:58:57.000Z</time>
      </trkpt>
      <trkpt lat="43.71524" lon="3.23046">
        <ele>413.60000610352</ele>
        <time>2023-05-27T09:58:58.000Z</time>
      </trkpt>
      <trkpt lat="43.71523" lon="3.23041">
        <ele>413.39999389648</ele>
        <time>2023-05-27T09:59:02.000Z</time>
      </trkpt>
      <trkpt lat="43.71519" lon="3.23031">
        <ele>412.79998779297</ele>
        <time>2023-05-27T09:59:09.000Z</time>
      </trkpt>
      <trkpt lat="43.71518" lon="3.23026">
        <ele>412.60000610352</ele>
        <time>2023-05-27T09:59:12.000Z</time>
      </trkpt>
      <trkpt lat="43.71516" lon="3.23021">
        <ele>412.60000610352</ele>
        <time>2023-05-27T09:59:15.000Z</time>
      </trkpt>
      <trkpt lat="43.71516" lon="3.23018">
        <ele>412.39999389648</ele>
        <time>2023-05-27T09:59:17.000Z</time>
      </trkpt>
      <trkpt lat="43.71513" lon="3.23008">
        <ele>412.20001220703</ele>
        <time>2023-05-27T09:59:23.000Z</time>
      </trkpt>
      <trkpt lat="43.7151" lon="3.23">
        <ele>411.60000610352</ele>
        <time>2023-05-27T09:59:29.000Z</time>
      </trkpt>
      <trkpt lat="43.7151" lon="3.22998">
        <ele>411.39999389648</ele>
        <time>2023-05-27T09:59:30.000Z</time>
      </trkpt>
      <trkpt lat="43.71508" lon="3.22992">
        <ele>411.20001220703</ele>
        <time>2023-05-27T09:59:34.000Z</time>
      </trkpt>
      <trkpt lat="43.71507" lon="3.22988">
        <ele>411</ele>
        <time>2023-05-27T09:59:37.000Z</time>
      </trkpt>
      <trkpt lat="43.71505" lon="3.2298">
        <ele>410.39999389648</ele>
        <time>2023-05-27T09:59:42.000Z</time>
      </trkpt>
      <trkpt lat="43.71504" lon="3.22975">
        <ele>410.20001220703</ele>
        <time>2023-05-27T09:59:45.000Z</time>
      </trkpt>
      <trkpt lat="43.71502" lon="3.22968">
        <ele>410</ele>
        <time>2023-05-27T09:59:51.000Z</time>
      </trkpt>
      <trkpt lat="43.71501" lon="3.22965">
        <ele>409.79998779297</ele>
        <time>2023-05-27T09:59:53.000Z</time>
      </trkpt>
      <trkpt lat="43.71499" lon="3.22956">
        <ele>409.39999389648</ele>
        <time>2023-05-27T10:00:00.000Z</time>
      </trkpt>
      <trkpt lat="43.71498" lon="3.22954">
        <ele>409.39999389648</ele>
        <time>2023-05-27T10:00:01.000Z</time>
      </trkpt>
      <trkpt lat="43.71493" lon="3.22941">
        <ele>408.79998779297</ele>
        <time>2023-05-27T10:00:09.000Z</time>
      </trkpt>
      <trkpt lat="43.7149" lon="3.22932">
        <ele>408.39999389648</ele>
        <time>2023-05-27T10:00:14.000Z</time>
      </trkpt>
      <trkpt lat="43.71489" lon="3.22925">
        <ele>408.20001220703</ele>
        <time>2023-05-27T10:00:18.000Z</time>
      </trkpt>
      <trkpt lat="43.71484" lon="3.22912">
        <ele>407.60000610352</ele>
        <time>2023-05-27T10:00:26.000Z</time>
      </trkpt>
      <trkpt lat="43.71483" lon="3.22906">
        <ele>407.39999389648</ele>
        <time>2023-05-27T10:00:30.000Z</time>
      </trkpt>
      <trkpt lat="43.71481" lon="3.229">
        <ele>407.20001220703</ele>
        <time>2023-05-27T10:00:34.000Z</time>
      </trkpt>
      <trkpt lat="43.71477" lon="3.22885">
        <ele>406.39999389648</ele>
        <time>2023-05-27T10:00:43.000Z</time>
      </trkpt>
      <trkpt lat="43.71476" lon="3.22884">
        <ele>406.39999389648</ele>
        <time>2023-05-27T10:00:44.000Z</time>
      </trkpt>
      <trkpt lat="43.71473" lon="3.22872">
        <ele>405.79998779297</ele>
        <time>2023-05-27T10:00:52.000Z</time>
      </trkpt>
      <trkpt lat="43.71471" lon="3.22862">
        <ele>405.60000610352</ele>
        <time>2023-05-27T10:00:58.000Z</time>
      </trkpt>
      <trkpt lat="43.71471" lon="3.22859">
        <ele>405.39999389648</ele>
        <time>2023-05-27T10:01:00.000Z</time>
      </trkpt>
      <trkpt lat="43.7147" lon="3.22854">
        <ele>405.39999389648</ele>
        <time>2023-05-27T10:01:03.000Z</time>
      </trkpt>
      <trkpt lat="43.71468" lon="3.22846">
        <ele>405</ele>
        <time>2023-05-27T10:01:09.000Z</time>
      </trkpt>
      <trkpt lat="43.71467" lon="3.22842">
        <ele>404.79998779297</ele>
        <time>2023-05-27T10:01:13.000Z</time>
      </trkpt>
      <trkpt lat="43.71467" lon="3.2284">
        <ele>404.79998779297</ele>
        <time>2023-05-27T10:01:14.000Z</time>
      </trkpt>
      <trkpt lat="43.71466" lon="3.22832">
        <ele>404.39999389648</ele>
        <time>2023-05-27T10:01:20.000Z</time>
      </trkpt>
      <trkpt lat="43.71465" lon="3.22829">
        <ele>404.20001220703</ele>
        <time>2023-05-27T10:01:22.000Z</time>
      </trkpt>
      <trkpt lat="43.71461" lon="3.22819">
        <ele>403.79998779297</ele>
        <time>2023-05-27T10:01:29.000Z</time>
      </trkpt>
      <trkpt lat="43.71461" lon="3.22815">
        <ele>403.60000610352</ele>
        <time>2023-05-27T10:01:32.000Z</time>
      </trkpt>
      <trkpt lat="43.7146" lon="3.22811">
        <ele>403.39999389648</ele>
        <time>2023-05-27T10:01:35.000Z</time>
      </trkpt>
      <trkpt lat="43.7146" lon="3.22809">
        <ele>403.20001220703</ele>
        <time>2023-05-27T10:01:36.000Z</time>
      </trkpt>
      <trkpt lat="43.71459" lon="3.22807">
        <ele>403.20001220703</ele>
        <time>2023-05-27T10:01:38.000Z</time>
      </trkpt>
      <trkpt lat="43.71457" lon="3.228">
        <ele>402.79998779297</ele>
        <time>2023-05-27T10:01:43.000Z</time>
      </trkpt>
      <trkpt lat="43.71456" lon="3.22797">
        <ele>402.60000610352</ele>
        <time>2023-05-27T10:01:45.000Z</time>
      </trkpt>
      <trkpt lat="43.71453" lon="3.22789">
        <ele>402.20001220703</ele>
        <time>2023-05-27T10:01:51.000Z</time>
      </trkpt>
      <trkpt lat="43.71451" lon="3.22783">
        <ele>402.20001220703</ele>
        <time>2023-05-27T10:01:55.000Z</time>
      </trkpt>
      <trkpt lat="43.7145" lon="3.2278">
        <ele>402</ele>
        <time>2023-05-27T10:01:57.000Z</time>
      </trkpt>
      <trkpt lat="43.71447" lon="3.22773">
        <ele>401.60000610352</ele>
        <time>2023-05-27T10:02:02.000Z</time>
      </trkpt>
      <trkpt lat="43.71445" lon="3.22769">
        <ele>401.60000610352</ele>
        <time>2023-05-27T10:02:05.000Z</time>
      </trkpt>
      <trkpt lat="43.71439" lon="3.22756">
        <ele>401.20001220703</ele>
        <time>2023-05-27T10:02:13.000Z</time>
      </trkpt>
      <trkpt lat="43.71439" lon="3.22755">
        <ele>401.20001220703</ele>
        <time>2023-05-27T10:02:14.000Z</time>
      </trkpt>
      <trkpt lat="43.71435" lon="3.22745">
        <ele>400.60000610352</ele>
        <time>2023-05-27T10:02:20.000Z</time>
      </trkpt>
      <trkpt lat="43.71429" lon="3.22732">
        <ele>400</ele>
        <time>2023-05-27T10:02:29.000Z</time>
      </trkpt>
      <trkpt lat="43.71424" lon="3.22718">
        <ele>399.60000610352</ele>
        <time>2023-05-27T10:02:38.000Z</time>
      </trkpt>
      <trkpt lat="43.71419" lon="3.22707">
        <ele>399</ele>
        <time>2023-05-27T10:02:46.000Z</time>
      </trkpt>
      <trkpt lat="43.71419" lon="3.22706">
        <ele>399</ele>
        <time>2023-05-27T10:02:47.000Z</time>
      </trkpt>
      <trkpt lat="43.71416" lon="3.22698">
        <ele>398.60000610352</ele>
        <time>2023-05-27T10:02:55.000Z</time>
      </trkpt>
      <trkpt lat="43.71416" lon="3.22696">
        <ele>398.39999389648</ele>
        <time>2023-05-27T10:03:02.000Z</time>
      </trkpt>
      <trkpt lat="43.71413" lon="3.22687">
        <ele>398.39999389648</ele>
        <time>2023-05-27T10:03:09.000Z</time>
      </trkpt>
      <trkpt lat="43.71411" lon="3.22682">
        <ele>398</ele>
        <time>2023-05-27T10:03:12.000Z</time>
      </trkpt>
      <trkpt lat="43.71408" lon="3.22673">
        <ele>397.60000610352</ele>
        <time>2023-05-27T10:03:18.000Z</time>
      </trkpt>
      <trkpt lat="43.71407" lon="3.22671">
        <ele>397.60000610352</ele>
        <time>2023-05-27T10:03:19.000Z</time>
      </trkpt>
      <trkpt lat="43.71406" lon="3.22668">
        <ele>397.39999389648</ele>
        <time>2023-05-27T10:03:21.000Z</time>
      </trkpt>
      <trkpt lat="43.71405" lon="3.22665">
        <ele>397.39999389648</ele>
        <time>2023-05-27T10:03:23.000Z</time>
      </trkpt>
      <trkpt lat="43.71402" lon="3.22655">
        <ele>397</ele>
        <time>2023-05-27T10:03:29.000Z</time>
      </trkpt>
      <trkpt lat="43.714" lon="3.22652">
        <ele>397</ele>
        <time>2023-05-27T10:03:31.000Z</time>
      </trkpt>
      <trkpt lat="43.71396" lon="3.22639">
        <ele>396.39999389648</ele>
        <time>2023-05-27T10:03:39.000Z</time>
      </trkpt>
      <trkpt lat="43.71392" lon="3.2263">
        <ele>396</ele>
        <time>2023-05-27T10:03:46.000Z</time>
      </trkpt>
      <trkpt lat="43.71392" lon="3.22628">
        <ele>396</ele>
        <time>2023-05-27T10:03:47.000Z</time>
      </trkpt>
      <trkpt lat="43.71387" lon="3.22616">
        <ele>395.39999389648</ele>
        <time>2023-05-27T10:03:55.000Z</time>
      </trkpt>
      <trkpt lat="43.71387" lon="3.22613">
        <ele>395.39999389648</ele>
        <time>2023-05-27T10:03:57.000Z</time>
      </trkpt>
      <trkpt lat="43.71385" lon="3.22607">
        <ele>395</ele>
        <time>2023-05-27T10:04:01.000Z</time>
      </trkpt>
      <trkpt lat="43.71382" lon="3.22602">
        <ele>395</ele>
        <time>2023-05-27T10:04:05.000Z</time>
      </trkpt>
      <trkpt lat="43.71379" lon="3.22594">
        <ele>394.60000610352</ele>
        <time>2023-05-27T10:04:10.000Z</time>
      </trkpt>
      <trkpt lat="43.71379" lon="3.22591">
        <ele>394.60000610352</ele>
        <time>2023-05-27T10:04:12.000Z</time>
      </trkpt>
      <trkpt lat="43.71377" lon="3.22584">
        <ele>394.20001220703</ele>
        <time>2023-05-27T10:04:17.000Z</time>
      </trkpt>
      <trkpt lat="43.71376" lon="3.22577">
        <ele>393.79998779297</ele>
        <time>2023-05-27T10:04:21.000Z</time>
      </trkpt>
      <trkpt lat="43.71375" lon="3.22569">
        <ele>393.60000610352</ele>
        <time>2023-05-27T10:04:26.000Z</time>
      </trkpt>
      <trkpt lat="43.71372" lon="3.22559">
        <ele>393.20001220703</ele>
        <time>2023-05-27T10:04:33.000Z</time>
      </trkpt>
      <trkpt lat="43.71371" lon="3.22551">
        <ele>393</ele>
        <time>2023-05-27T10:04:38.000Z</time>
      </trkpt>
      <trkpt lat="43.71371" lon="3.22548">
        <ele>392.79998779297</ele>
        <time>2023-05-27T10:04:40.000Z</time>
      </trkpt>
      <trkpt lat="43.71368" lon="3.22539">
        <ele>392.60000610352</ele>
        <time>2023-05-27T10:04:47.000Z</time>
      </trkpt>
      <trkpt lat="43.71366" lon="3.2253">
        <ele>392</ele>
        <time>2023-05-27T10:04:53.000Z</time>
      </trkpt>
      <trkpt lat="43.71364" lon="3.22524">
        <ele>391.79998779297</ele>
        <time>2023-05-27T10:04:57.000Z</time>
      </trkpt>
      <trkpt lat="43.71364" lon="3.22523">
        <ele>391.79998779297</ele>
        <time>2023-05-27T10:04:58.000Z</time>
      </trkpt>
      <trkpt lat="43.71364" lon="3.22519">
        <ele>391.79998779297</ele>
        <time>2023-05-27T10:05:00.000Z</time>
      </trkpt>
      <trkpt lat="43.7136" lon="3.22507">
        <ele>391.20001220703</ele>
        <time>2023-05-27T10:05:08.000Z</time>
      </trkpt>
      <trkpt lat="43.71358" lon="3.22497">
        <ele>390.79998779297</ele>
        <time>2023-05-27T10:05:14.000Z</time>
      </trkpt>
      <trkpt lat="43.71358" lon="3.22496">
        <ele>390.79998779297</ele>
        <time>2023-05-27T10:05:15.000Z</time>
      </trkpt>
      <trkpt lat="43.71358" lon="3.22488">
        <ele>390.60000610352</ele>
        <time>2023-05-27T10:05:20.000Z</time>
      </trkpt>
      <trkpt lat="43.71357" lon="3.22485">
        <ele>390.39999389648</ele>
        <time>2023-05-27T10:05:22.000Z</time>
      </trkpt>
      <trkpt lat="43.71357" lon="3.22479">
        <ele>389.79998779297</ele>
        <time>2023-05-27T10:05:26.000Z</time>
      </trkpt>
      <trkpt lat="43.71357" lon="3.22478">
        <ele>389.79998779297</ele>
        <time>2023-05-27T10:05:27.000Z</time>
      </trkpt>
      <trkpt lat="43.71356" lon="3.22477">
        <ele>389.79998779297</ele>
        <time>2023-05-27T10:05:28.000Z</time>
      </trkpt>
      <trkpt lat="43.71355" lon="3.22468">
        <ele>389.79998779297</ele>
        <time>2023-05-27T10:05:34.000Z</time>
      </trkpt>
      <trkpt lat="43.71355" lon="3.22459">
        <ele>389.60000610352</ele>
        <time>2023-05-27T10:05:40.000Z</time>
      </trkpt>
      <trkpt lat="43.71355" lon="3.22451">
        <ele>389.20001220703</ele>
        <time>2023-05-27T10:05:45.000Z</time>
      </trkpt>
      <trkpt lat="43.71355" lon="3.2245">
        <ele>389.20001220703</ele>
        <time>2023-05-27T10:05:46.000Z</time>
      </trkpt>
      <trkpt lat="43.71357" lon="3.22442">
        <ele>388.79998779297</ele>
        <time>2023-05-27T10:05:51.000Z</time>
      </trkpt>
      <trkpt lat="43.71357" lon="3.22433">
        <ele>388.20001220703</ele>
        <time>2023-05-27T10:05:57.000Z</time>
      </trkpt>
      <trkpt lat="43.71358" lon="3.22421">
        <ele>387.79998779297</ele>
        <time>2023-05-27T10:06:05.000Z</time>
      </trkpt>
      <trkpt lat="43.71358" lon="3.22419">
        <ele>387.60000610352</ele>
        <time>2023-05-27T10:06:06.000Z</time>
      </trkpt>
      <trkpt lat="43.71359" lon="3.22408">
        <ele>387</ele>
        <time>2023-05-27T10:06:13.000Z</time>
      </trkpt>
      <trkpt lat="43.7136" lon="3.22399">
        <ele>386.60000610352</ele>
        <time>2023-05-27T10:06:19.000Z</time>
      </trkpt>
      <trkpt lat="43.7136" lon="3.22398">
        <ele>386.39999389648</ele>
        <time>2023-05-27T10:06:22.000Z</time>
      </trkpt>
      <trkpt lat="43.71361" lon="3.22393">
        <ele>386.20001220703</ele>
        <time>2023-05-27T10:06:27.000Z</time>
      </trkpt>
      <trkpt lat="43.7136" lon="3.22385">
        <ele>386.20001220703</ele>
        <time>2023-05-27T10:06:32.000Z</time>
      </trkpt>
      <trkpt lat="43.71361" lon="3.22377">
        <ele>385.60000610352</ele>
        <time>2023-05-27T10:06:37.000Z</time>
      </trkpt>
      <trkpt lat="43.71362" lon="3.22371">
        <ele>385.39999389648</ele>
        <time>2023-05-27T10:06:41.000Z</time>
      </trkpt>
      <trkpt lat="43.71363" lon="3.22361">
        <ele>385</ele>
        <time>2023-05-27T10:06:47.000Z</time>
      </trkpt>
      <trkpt lat="43.71363" lon="3.2236">
        <ele>385</ele>
        <time>2023-05-27T10:06:48.000Z</time>
      </trkpt>
      <trkpt lat="43.71364" lon="3.22354">
        <ele>384.60000610352</ele>
        <time>2023-05-27T10:06:52.000Z</time>
      </trkpt>
      <trkpt lat="43.71364" lon="3.22352">
        <ele>384.60000610352</ele>
        <time>2023-05-27T10:06:53.000Z</time>
      </trkpt>
      <trkpt lat="43.71365" lon="3.22347">
        <ele>384.39999389648</ele>
        <time>2023-05-27T10:06:56.000Z</time>
      </trkpt>
      <trkpt lat="43.71365" lon="3.22335">
        <ele>383.60000610352</ele>
        <time>2023-05-27T10:07:04.000Z</time>
      </trkpt>
      <trkpt lat="43.71365" lon="3.22333">
        <ele>383.60000610352</ele>
        <time>2023-05-27T10:07:05.000Z</time>
      </trkpt>
      <trkpt lat="43.71367" lon="3.22324">
        <ele>383.20001220703</ele>
        <time>2023-05-27T10:07:11.000Z</time>
      </trkpt>
      <trkpt lat="43.71368" lon="3.22315">
        <ele>382.60000610352</ele>
        <time>2023-05-27T10:07:17.000Z</time>
      </trkpt>
      <trkpt lat="43.71369" lon="3.2231">
        <ele>382.20001220703</ele>
        <time>2023-05-27T10:07:20.000Z</time>
      </trkpt>
      <trkpt lat="43.7137" lon="3.22301">
        <ele>381.60000610352</ele>
        <time>2023-05-27T10:07:27.000Z</time>
      </trkpt>
      <trkpt lat="43.71371" lon="3.22291">
        <ele>381.20001220703</ele>
        <time>2023-05-27T10:07:33.000Z</time>
      </trkpt>
      <trkpt lat="43.71372" lon="3.22288">
        <ele>381.39999389648</ele>
        <time>2023-05-27T10:07:35.000Z</time>
      </trkpt>
      <trkpt lat="43.71372" lon="3.22281">
        <ele>381.39999389648</ele>
        <time>2023-05-27T10:07:39.000Z</time>
      </trkpt>
      <trkpt lat="43.71373" lon="3.22273">
        <ele>381</ele>
        <time>2023-05-27T10:07:44.000Z</time>
      </trkpt>
      <trkpt lat="43.71374" lon="3.22267">
        <ele>380.60000610352</ele>
        <time>2023-05-27T10:07:48.000Z</time>
      </trkpt>
      <trkpt lat="43.71374" lon="3.22264">
        <ele>380.39999389648</ele>
        <time>2023-05-27T10:07:50.000Z</time>
      </trkpt>
      <trkpt lat="43.71376" lon="3.22249">
        <ele>380</ele>
        <time>2023-05-27T10:07:58.000Z</time>
      </trkpt>
      <trkpt lat="43.71377" lon="3.22244">
        <ele>379.60000610352</ele>
        <time>2023-05-27T10:08:01.000Z</time>
      </trkpt>
      <trkpt lat="43.71377" lon="3.22236">
        <ele>379</ele>
        <time>2023-05-27T10:08:06.000Z</time>
      </trkpt>
      <trkpt lat="43.71377" lon="3.22232">
        <ele>378.79998779297</ele>
        <time>2023-05-27T10:08:08.000Z</time>
      </trkpt>
      <trkpt lat="43.71377" lon="3.22227">
        <ele>378.79998779297</ele>
        <time>2023-05-27T10:08:11.000Z</time>
      </trkpt>
      <trkpt lat="43.71379" lon="3.22224">
        <ele>378.60000610352</ele>
        <time>2023-05-27T10:08:14.000Z</time>
      </trkpt>
      <trkpt lat="43.71381" lon="3.22218">
        <ele>378.39999389648</ele>
        <time>2023-05-27T10:08:17.000Z</time>
      </trkpt>
      <trkpt lat="43.71382" lon="3.22217">
        <ele>378.39999389648</ele>
        <time>2023-05-27T10:08:18.000Z</time>
      </trkpt>
      <trkpt lat="43.71382" lon="3.22216">
        <ele>378.39999389648</ele>
        <time>2023-05-27T10:08:19.000Z</time>
      </trkpt>
      <trkpt lat="43.71383" lon="3.22209">
        <ele>377.79998779297</ele>
        <time>2023-05-27T10:08:24.000Z</time>
      </trkpt>
      <trkpt lat="43.71386" lon="3.22201">
        <ele>377.39999389648</ele>
        <time>2023-05-27T10:08:29.000Z</time>
      </trkpt>
      <trkpt lat="43.71388" lon="3.22198">
        <ele>377.20001220703</ele>
        <time>2023-05-27T10:08:31.000Z</time>
      </trkpt>
      <trkpt lat="43.71391" lon="3.22188">
        <ele>376.79998779297</ele>
        <time>2023-05-27T10:08:38.000Z</time>
      </trkpt>
      <trkpt lat="43.71391" lon="3.22185">
        <ele>376.60000610352</ele>
        <time>2023-05-27T10:08:40.000Z</time>
      </trkpt>
      <trkpt lat="43.71392" lon="3.2218">
        <ele>376.39999389648</ele>
        <time>2023-05-27T10:08:43.000Z</time>
      </trkpt>
      <trkpt lat="43.71393" lon="3.22178">
        <ele>376.20001220703</ele>
        <time>2023-05-27T10:08:45.000Z</time>
      </trkpt>
      <trkpt lat="43.71395" lon="3.22169">
        <ele>375.79998779297</ele>
        <time>2023-05-27T10:08:51.000Z</time>
      </trkpt>
      <trkpt lat="43.71396" lon="3.22168">
        <ele>375.79998779297</ele>
        <time>2023-05-27T10:08:52.000Z</time>
      </trkpt>
      <trkpt lat="43.71396" lon="3.22161">
        <ele>375.60000610352</ele>
        <time>2023-05-27T10:08:56.000Z</time>
      </trkpt>
      <trkpt lat="43.71396" lon="3.2216">
        <ele>375.60000610352</ele>
        <time>2023-05-27T10:08:57.000Z</time>
      </trkpt>
      <trkpt lat="43.71397" lon="3.22156">
        <ele>375.39999389648</ele>
        <time>2023-05-27T10:09:00.000Z</time>
      </trkpt>
      <trkpt lat="43.71397" lon="3.22154">
        <ele>375.39999389648</ele>
        <time>2023-05-27T10:09:01.000Z</time>
      </trkpt>
      <trkpt lat="43.71397" lon="3.22152">
        <ele>375.39999389648</ele>
        <time>2023-05-27T10:09:02.000Z</time>
      </trkpt>
      <trkpt lat="43.71398" lon="3.22141">
        <ele>374.79998779297</ele>
        <time>2023-05-27T10:09:09.000Z</time>
      </trkpt>
      <trkpt lat="43.71398" lon="3.22137">
        <ele>374.60000610352</ele>
        <time>2023-05-27T10:09:12.000Z</time>
      </trkpt>
      <trkpt lat="43.71398" lon="3.2213">
        <ele>374.39999389648</ele>
        <time>2023-05-27T10:09:16.000Z</time>
      </trkpt>
      <trkpt lat="43.71399" lon="3.22128">
        <ele>374.20001220703</ele>
        <time>2023-05-27T10:09:17.000Z</time>
      </trkpt>
      <trkpt lat="43.71401" lon="3.22119">
        <ele>373.79998779297</ele>
        <time>2023-05-27T10:09:23.000Z</time>
      </trkpt>
      <trkpt lat="43.71402" lon="3.22117">
        <ele>373.79998779297</ele>
        <time>2023-05-27T10:09:25.000Z</time>
      </trkpt>
      <trkpt lat="43.71402" lon="3.22114">
        <ele>373.60000610352</ele>
        <time>2023-05-27T10:09:27.000Z</time>
      </trkpt>
      <trkpt lat="43.71402" lon="3.22107">
        <ele>373.20001220703</ele>
        <time>2023-05-27T10:09:31.000Z</time>
      </trkpt>
      <trkpt lat="43.71403" lon="3.22102">
        <ele>373</ele>
        <time>2023-05-27T10:09:34.000Z</time>
      </trkpt>
      <trkpt lat="43.71404" lon="3.22095">
        <ele>372.79998779297</ele>
        <time>2023-05-27T10:09:39.000Z</time>
      </trkpt>
      <trkpt lat="43.71404" lon="3.22087">
        <ele>372.39999389648</ele>
        <time>2023-05-27T10:09:44.000Z</time>
      </trkpt>
      <trkpt lat="43.71404" lon="3.22086">
        <ele>372.20001220703</ele>
        <time>2023-05-27T10:09:45.000Z</time>
      </trkpt>
      <trkpt lat="43.71404" lon="3.22084">
        <ele>372.20001220703</ele>
        <time>2023-05-27T10:09:46.000Z</time>
      </trkpt>
      <trkpt lat="43.71404" lon="3.22071">
        <ele>371.39999389648</ele>
        <time>2023-05-27T10:09:54.000Z</time>
      </trkpt>
      <trkpt lat="43.71404" lon="3.22069">
        <ele>371.20001220703</ele>
        <time>2023-05-27T10:09:55.000Z</time>
      </trkpt>
      <trkpt lat="43.71404" lon="3.22069">
        <ele>370.79998779297</ele>
        <time>2023-05-27T10:10:00.000Z</time>
      </trkpt>
      <trkpt lat="43.71403" lon="3.2206">
        <ele>370.60000610352</ele>
        <time>2023-05-27T10:10:06.000Z</time>
      </trkpt>
      <trkpt lat="43.71403" lon="3.22049">
        <ele>370.20001220703</ele>
        <time>2023-05-27T10:10:13.000Z</time>
      </trkpt>
      <trkpt lat="43.71403" lon="3.22048">
        <ele>370</ele>
        <time>2023-05-27T10:10:14.000Z</time>
      </trkpt>
      <trkpt lat="43.71403" lon="3.22036">
        <ele>369.39999389648</ele>
        <time>2023-05-27T10:10:22.000Z</time>
      </trkpt>
      <trkpt lat="43.71404" lon="3.22033">
        <ele>369.39999389648</ele>
        <time>2023-05-27T10:10:24.000Z</time>
      </trkpt>
      <trkpt lat="43.71403" lon="3.22027">
        <ele>369.39999389648</ele>
        <time>2023-05-27T10:10:28.000Z</time>
      </trkpt>
      <trkpt lat="43.71403" lon="3.22026">
        <ele>369.20001220703</ele>
        <time>2023-05-27T10:10:29.000Z</time>
      </trkpt>
      <trkpt lat="43.71403" lon="3.22023">
        <ele>369</ele>
        <time>2023-05-27T10:10:31.000Z</time>
      </trkpt>
      <trkpt lat="43.71403" lon="3.22021">
        <ele>369</ele>
        <time>2023-05-27T10:10:32.000Z</time>
      </trkpt>
      <trkpt lat="43.71404" lon="3.22015">
        <ele>368.79998779297</ele>
        <time>2023-05-27T10:10:36.000Z</time>
      </trkpt>
      <trkpt lat="43.71403" lon="3.22013">
        <ele>368.60000610352</ele>
        <time>2023-05-27T10:10:37.000Z</time>
      </trkpt>
      <trkpt lat="43.71402" lon="3.22003">
        <ele>368.20001220703</ele>
        <time>2023-05-27T10:10:43.000Z</time>
      </trkpt>
      <trkpt lat="43.71402" lon="3.22001">
        <ele>368</ele>
        <time>2023-05-27T10:10:45.000Z</time>
      </trkpt>
      <trkpt lat="43.71401" lon="3.21996">
        <ele>367.79998779297</ele>
        <time>2023-05-27T10:10:49.000Z</time>
      </trkpt>
      <trkpt lat="43.71401" lon="3.21991">
        <ele>367.39999389648</ele>
        <time>2023-05-27T10:10:54.000Z</time>
      </trkpt>
      <trkpt lat="43.71401" lon="3.21986">
        <ele>367.39999389648</ele>
        <time>2023-05-27T10:10:57.000Z</time>
      </trkpt>
      <trkpt lat="43.71401" lon="3.21983">
        <ele>367.39999389648</ele>
        <time>2023-05-27T10:10:59.000Z</time>
      </trkpt>
      <trkpt lat="43.71401" lon="3.21982">
        <ele>367.20001220703</ele>
        <time>2023-05-27T10:11:00.000Z</time>
      </trkpt>
      <trkpt lat="43.714" lon="3.21977">
        <ele>367</ele>
        <time>2023-05-27T10:11:03.000Z</time>
      </trkpt>
      <trkpt lat="43.714" lon="3.21976">
        <ele>367</ele>
        <time>2023-05-27T10:11:04.000Z</time>
      </trkpt>
      <trkpt lat="43.714" lon="3.21973">
        <ele>366.79998779297</ele>
        <time>2023-05-27T10:11:06.000Z</time>
      </trkpt>
      <trkpt lat="43.71399" lon="3.21966">
        <ele>366.39999389648</ele>
        <time>2023-05-27T10:11:11.000Z</time>
      </trkpt>
      <trkpt lat="43.71399" lon="3.21962">
        <ele>366.39999389648</ele>
        <time>2023-05-27T10:11:13.000Z</time>
      </trkpt>
      <trkpt lat="43.71398" lon="3.21959">
        <ele>366.20001220703</ele>
        <time>2023-05-27T10:11:15.000Z</time>
      </trkpt>
      <trkpt lat="43.71399" lon="3.21953">
        <ele>366</ele>
        <time>2023-05-27T10:11:19.000Z</time>
      </trkpt>
      <trkpt lat="43.71399" lon="3.21952">
        <ele>366</ele>
        <time>2023-05-27T10:11:20.000Z</time>
      </trkpt>
      <trkpt lat="43.71399" lon="3.21946">
        <ele>365.60000610352</ele>
        <time>2023-05-27T10:11:25.000Z</time>
      </trkpt>
      <trkpt lat="43.71397" lon="3.21934">
        <ele>365.20001220703</ele>
        <time>2023-05-27T10:11:32.000Z</time>
      </trkpt>
      <trkpt lat="43.71397" lon="3.21933">
        <ele>365</ele>
        <time>2023-05-27T10:11:33.000Z</time>
      </trkpt>
      <trkpt lat="43.71397" lon="3.21929">
        <ele>365</ele>
        <time>2023-05-27T10:11:35.000Z</time>
      </trkpt>
      <trkpt lat="43.71397" lon="3.21923">
        <ele>364.60000610352</ele>
        <time>2023-05-27T10:11:39.000Z</time>
      </trkpt>
      <trkpt lat="43.71397" lon="3.2191">
        <ele>364</ele>
        <time>2023-05-27T10:11:47.000Z</time>
      </trkpt>
      <trkpt lat="43.71397" lon="3.21909">
        <ele>363.79998779297</ele>
        <time>2023-05-27T10:11:48.000Z</time>
      </trkpt>
      <trkpt lat="43.71397" lon="3.21904">
        <ele>363.79998779297</ele>
        <time>2023-05-27T10:11:51.000Z</time>
      </trkpt>
      <trkpt lat="43.71398" lon="3.219">
        <ele>363.60000610352</ele>
        <time>2023-05-27T10:11:54.000Z</time>
      </trkpt>
      <trkpt lat="43.71397" lon="3.21894">
        <ele>363.39999389648</ele>
        <time>2023-05-27T10:11:58.000Z</time>
      </trkpt>
      <trkpt lat="43.71396" lon="3.21889">
        <ele>363</ele>
        <time>2023-05-27T10:12:01.000Z</time>
      </trkpt>
      <trkpt lat="43.71395" lon="3.21886">
        <ele>363</ele>
        <time>2023-05-27T10:12:03.000Z</time>
      </trkpt>
      <trkpt lat="43.71394" lon="3.21881">
        <ele>362.79998779297</ele>
        <time>2023-05-27T10:12:07.000Z</time>
      </trkpt>
      <trkpt lat="43.71394" lon="3.21879">
        <ele>362.60000610352</ele>
        <time>2023-05-27T10:12:08.000Z</time>
      </trkpt>
      <trkpt lat="43.71394" lon="3.21871">
        <ele>362.39999389648</ele>
        <time>2023-05-27T10:12:14.000Z</time>
      </trkpt>
      <trkpt lat="43.71393" lon="3.21869">
        <ele>362.39999389648</ele>
        <time>2023-05-27T10:12:15.000Z</time>
      </trkpt>
      <trkpt lat="43.71393" lon="3.21868">
        <ele>362.20001220703</ele>
        <time>2023-05-27T10:12:16.000Z</time>
      </trkpt>
      <trkpt lat="43.71394" lon="3.21862">
        <ele>362</ele>
        <time>2023-05-27T10:12:20.000Z</time>
      </trkpt>
      <trkpt lat="43.71394" lon="3.2186">
        <ele>362</ele>
        <time>2023-05-27T10:12:21.000Z</time>
      </trkpt>
      <trkpt lat="43.71393" lon="3.21859">
        <ele>362</ele>
        <time>2023-05-27T10:12:22.000Z</time>
      </trkpt>
      <trkpt lat="43.71393" lon="3.2185">
        <ele>361.60000610352</ele>
        <time>2023-05-27T10:12:28.000Z</time>
      </trkpt>
      <trkpt lat="43.71393" lon="3.21849">
        <ele>361.39999389648</ele>
        <time>2023-05-27T10:12:29.000Z</time>
      </trkpt>
      <trkpt lat="43.71393" lon="3.21847">
        <ele>361.39999389648</ele>
        <time>2023-05-27T10:12:30.000Z</time>
      </trkpt>
      <trkpt lat="43.71395" lon="3.21842">
        <ele>361</ele>
        <time>2023-05-27T10:12:34.000Z</time>
      </trkpt>
      <trkpt lat="43.71395" lon="3.2184">
        <ele>361</ele>
        <time>2023-05-27T10:12:35.000Z</time>
      </trkpt>
      <trkpt lat="43.71395" lon="3.21838">
        <ele>361</ele>
        <time>2023-05-27T10:12:36.000Z</time>
      </trkpt>
      <trkpt lat="43.71396" lon="3.21829">
        <ele>360.60000610352</ele>
        <time>2023-05-27T10:12:42.000Z</time>
      </trkpt>
      <trkpt lat="43.71396" lon="3.2182">
        <ele>360.20001220703</ele>
        <time>2023-05-27T10:12:48.000Z</time>
      </trkpt>
      <trkpt lat="43.71396" lon="3.21814">
        <ele>360</ele>
        <time>2023-05-27T10:12:52.000Z</time>
      </trkpt>
      <trkpt lat="43.71396" lon="3.21811">
        <ele>359.79998779297</ele>
        <time>2023-05-27T10:12:54.000Z</time>
      </trkpt>
      <trkpt lat="43.71395" lon="3.21807">
        <ele>359.79998779297</ele>
        <time>2023-05-27T10:12:56.000Z</time>
      </trkpt>
      <trkpt lat="43.71396" lon="3.21801">
        <ele>359.39999389648</ele>
        <time>2023-05-27T10:13:00.000Z</time>
      </trkpt>
      <trkpt lat="43.71396" lon="3.21799">
        <ele>359.39999389648</ele>
        <time>2023-05-27T10:13:01.000Z</time>
      </trkpt>
      <trkpt lat="43.71396" lon="3.21785">
        <ele>358.79998779297</ele>
        <time>2023-05-27T10:13:09.000Z</time>
      </trkpt>
      <trkpt lat="43.71398" lon="3.21772">
        <ele>358</ele>
        <time>2023-05-27T10:13:17.000Z</time>
      </trkpt>
      <trkpt lat="43.71399" lon="3.21763">
        <ele>357.79998779297</ele>
        <time>2023-05-27T10:13:22.000Z</time>
      </trkpt>
      <trkpt lat="43.71399" lon="3.21761">
        <ele>357.60000610352</ele>
        <time>2023-05-27T10:13:23.000Z</time>
      </trkpt>
      <trkpt lat="43.71399" lon="3.21747">
        <ele>357.20001220703</ele>
        <time>2023-05-27T10:13:31.000Z</time>
      </trkpt>
      <trkpt lat="43.71399" lon="3.21741">
        <ele>357.20001220703</ele>
        <time>2023-05-27T10:13:34.000Z</time>
      </trkpt>
      <trkpt lat="43.71398" lon="3.21734">
        <ele>356.79998779297</ele>
        <time>2023-05-27T10:13:38.000Z</time>
      </trkpt>
      <trkpt lat="43.71398" lon="3.21732">
        <ele>356.79998779297</ele>
        <time>2023-05-27T10:13:39.000Z</time>
      </trkpt>
      <trkpt lat="43.71399" lon="3.21727">
        <ele>356.60000610352</ele>
        <time>2023-05-27T10:13:42.000Z</time>
      </trkpt>
      <trkpt lat="43.71399" lon="3.21722">
        <ele>356.20001220703</ele>
        <time>2023-05-27T10:13:45.000Z</time>
      </trkpt>
      <trkpt lat="43.714" lon="3.21719">
        <ele>356.20001220703</ele>
        <time>2023-05-27T10:13:47.000Z</time>
      </trkpt>
      <trkpt lat="43.714" lon="3.2171">
        <ele>356</ele>
        <time>2023-05-27T10:13:52.000Z</time>
      </trkpt>
      <trkpt lat="43.71399" lon="3.21707">
        <ele>355.79998779297</ele>
        <time>2023-05-27T10:13:54.000Z</time>
      </trkpt>
      <trkpt lat="43.71399" lon="3.21705">
        <ele>355.79998779297</ele>
        <time>2023-05-27T10:13:55.000Z</time>
      </trkpt>
      <trkpt lat="43.71398" lon="3.21698">
        <ele>355.39999389648</ele>
        <time>2023-05-27T10:13:59.000Z</time>
      </trkpt>
      <trkpt lat="43.71397" lon="3.21686">
        <ele>354.79998779297</ele>
        <time>2023-05-27T10:14:07.000Z</time>
      </trkpt>
      <trkpt lat="43.71397" lon="3.21685">
        <ele>354.60000610352</ele>
        <time>2023-05-27T10:14:08.000Z</time>
      </trkpt>
      <trkpt lat="43.71397" lon="3.21676">
        <ele>354.20001220703</ele>
        <time>2023-05-27T10:14:14.000Z</time>
      </trkpt>
      <trkpt lat="43.71396" lon="3.21669">
        <ele>353.79998779297</ele>
        <time>2023-05-27T10:14:18.000Z</time>
      </trkpt>
      <trkpt lat="43.71396" lon="3.21668">
        <ele>353.79998779297</ele>
        <time>2023-05-27T10:14:19.000Z</time>
      </trkpt>
      <trkpt lat="43.71396" lon="3.21667">
        <ele>353.79998779297</ele>
        <time>2023-05-27T10:14:20.000Z</time>
      </trkpt>
      <trkpt lat="43.71396" lon="3.21662">
        <ele>353.60000610352</ele>
        <time>2023-05-27T10:14:23.000Z</time>
      </trkpt>
      <trkpt lat="43.71396" lon="3.21653">
        <ele>353.20001220703</ele>
        <time>2023-05-27T10:14:29.000Z</time>
      </trkpt>
      <trkpt lat="43.71396" lon="3.21645">
        <ele>353</ele>
        <time>2023-05-27T10:14:34.000Z</time>
      </trkpt>
      <trkpt lat="43.71396" lon="3.21644">
        <ele>352.79998779297</ele>
        <time>2023-05-27T10:14:35.000Z</time>
      </trkpt>
      <trkpt lat="43.71396" lon="3.21643">
        <ele>352.60000610352</ele>
        <time>2023-05-27T10:14:36.000Z</time>
      </trkpt>
      <trkpt lat="43.71396" lon="3.2164">
        <ele>352.39999389648</ele>
        <time>2023-05-27T10:14:38.000Z</time>
      </trkpt>
      <trkpt lat="43.71396" lon="3.21636">
        <ele>352.39999389648</ele>
        <time>2023-05-27T10:14:40.000Z</time>
      </trkpt>
      <trkpt lat="43.71396" lon="3.21633">
        <ele>352.39999389648</ele>
        <time>2023-05-27T10:14:42.000Z</time>
      </trkpt>
      <trkpt lat="43.71395" lon="3.21622">
        <ele>352</ele>
        <time>2023-05-27T10:14:50.000Z</time>
      </trkpt>
      <trkpt lat="43.71394" lon="3.21614">
        <ele>351.79998779297</ele>
        <time>2023-05-27T10:14:55.000Z</time>
      </trkpt>
      <trkpt lat="43.71394" lon="3.21613">
        <ele>351.60000610352</ele>
        <time>2023-05-27T10:14:56.000Z</time>
      </trkpt>
      <trkpt lat="43.71392" lon="3.21605">
        <ele>351.39999389648</ele>
        <time>2023-05-27T10:15:01.000Z</time>
      </trkpt>
      <trkpt lat="43.71392" lon="3.21604">
        <ele>351.39999389648</ele>
        <time>2023-05-27T10:15:02.000Z</time>
      </trkpt>
      <trkpt lat="43.71392" lon="3.21603">
        <ele>351.39999389648</ele>
        <time>2023-05-27T10:15:04.000Z</time>
      </trkpt>
      <trkpt lat="43.71392" lon="3.21601">
        <ele>351.20001220703</ele>
        <time>2023-05-27T10:15:05.000Z</time>
      </trkpt>
      <trkpt lat="43.71391" lon="3.21594">
        <ele>351</ele>
        <time>2023-05-27T10:15:10.000Z</time>
      </trkpt>
      <trkpt lat="43.71391" lon="3.21591">
        <ele>350.79998779297</ele>
        <time>2023-05-27T10:15:12.000Z</time>
      </trkpt>
      <trkpt lat="43.71389" lon="3.21585">
        <ele>350.60000610352</ele>
        <time>2023-05-27T10:15:16.000Z</time>
      </trkpt>
      <trkpt lat="43.71389" lon="3.21582">
        <ele>350.39999389648</ele>
        <time>2023-05-27T10:15:18.000Z</time>
      </trkpt>
      <trkpt lat="43.71388" lon="3.2158">
        <ele>350.39999389648</ele>
        <time>2023-05-27T10:15:19.000Z</time>
      </trkpt>
      <trkpt lat="43.71388" lon="3.21577">
        <ele>350.39999389648</ele>
        <time>2023-05-27T10:15:21.000Z</time>
      </trkpt>
      <trkpt lat="43.71388" lon="3.21573">
        <ele>350.20001220703</ele>
        <time>2023-05-27T10:15:24.000Z</time>
      </trkpt>
      <trkpt lat="43.71387" lon="3.2157">
        <ele>350</ele>
        <time>2023-05-27T10:15:26.000Z</time>
      </trkpt>
      <trkpt lat="43.71387" lon="3.21562">
        <ele>349.60000610352</ele>
        <time>2023-05-27T10:15:32.000Z</time>
      </trkpt>
      <trkpt lat="43.71386" lon="3.21559">
        <ele>349.60000610352</ele>
        <time>2023-05-27T10:15:34.000Z</time>
      </trkpt>
      <trkpt lat="43.71387" lon="3.21558">
        <ele>349.60000610352</ele>
        <time>2023-05-27T10:15:35.000Z</time>
      </trkpt>
      <trkpt lat="43.71386" lon="3.21554">
        <ele>349.39999389648</ele>
        <time>2023-05-27T10:15:37.000Z</time>
      </trkpt>
      <trkpt lat="43.71386" lon="3.21551">
        <ele>349.20001220703</ele>
        <time>2023-05-27T10:15:39.000Z</time>
      </trkpt>
      <trkpt lat="43.71386" lon="3.21546">
        <ele>348.79998779297</ele>
        <time>2023-05-27T10:15:45.000Z</time>
      </trkpt>
      <trkpt lat="43.71386" lon="3.21541">
        <ele>348.60000610352</ele>
        <time>2023-05-27T10:15:49.000Z</time>
      </trkpt>
      <trkpt lat="43.71386" lon="3.21538">
        <ele>348.39999389648</ele>
        <time>2023-05-27T10:15:52.000Z</time>
      </trkpt>
      <trkpt lat="43.71386" lon="3.21538">
        <ele>348.39999389648</ele>
        <time>2023-05-27T10:15:54.000Z</time>
      </trkpt>
      <trkpt lat="43.71386" lon="3.21535">
        <ele>348.20001220703</ele>
        <time>2023-05-27T10:16:00.000Z</time>
      </trkpt>
      <trkpt lat="43.71387" lon="3.21535">
        <ele>347.20001220703</ele>
        <time>2023-05-27T10:16:08.000Z</time>
      </trkpt>
      <trkpt lat="43.71386" lon="3.21535">
        <ele>347.20001220703</ele>
        <time>2023-05-27T10:16:10.000Z</time>
      </trkpt>
      <trkpt lat="43.71392" lon="3.21531">
        <ele>348</ele>
        <time>2023-05-27T10:16:18.000Z</time>
      </trkpt>
      <trkpt lat="43.71392" lon="3.21529">
        <ele>348</ele>
        <time>2023-05-27T10:16:27.000Z</time>
      </trkpt>
      <trkpt lat="43.7139" lon="3.21529">
        <ele>348</ele>
        <time>2023-05-27T10:16:34.000Z</time>
      </trkpt>
      <trkpt lat="43.7139" lon="3.21529">
        <ele>347.39999389648</ele>
        <time>2023-05-27T10:16:43.000Z</time>
      </trkpt>
      <trkpt lat="43.71397" lon="3.21527">
        <ele>348</ele>
        <time>2023-05-27T10:16:52.000Z</time>
      </trkpt>
      <trkpt lat="43.71398" lon="3.21528">
        <ele>348.20001220703</ele>
        <time>2023-05-27T10:17:01.000Z</time>
      </trkpt>
      <trkpt lat="43.71399" lon="3.21527">
        <ele>347.60000610352</ele>
        <time>2023-05-27T10:17:08.000Z</time>
      </trkpt>
      <trkpt lat="43.71402" lon="3.21527">
        <ele>347.20001220703</ele>
        <time>2023-05-27T10:17:16.000Z</time>
      </trkpt>
      <trkpt lat="43.71409" lon="3.21526">
        <ele>347.79998779297</ele>
        <time>2023-05-27T10:17:22.000Z</time>
      </trkpt>
      <trkpt lat="43.71406" lon="3.21519">
        <ele>347.79998779297</ele>
        <time>2023-05-27T10:17:27.000Z</time>
      </trkpt>
      <trkpt lat="43.71404" lon="3.21512">
        <ele>347.39999389648</ele>
        <time>2023-05-27T10:17:32.000Z</time>
      </trkpt>
      <trkpt lat="43.71403" lon="3.2151">
        <ele>347.39999389648</ele>
        <time>2023-05-27T10:17:33.000Z</time>
      </trkpt>
      <trkpt lat="43.71397" lon="3.21496">
        <ele>346.60000610352</ele>
        <time>2023-05-27T10:17:42.000Z</time>
      </trkpt>
      <trkpt lat="43.71395" lon="3.21488">
        <ele>346.60000610352</ele>
        <time>2023-05-27T10:17:47.000Z</time>
      </trkpt>
      <trkpt lat="43.71395" lon="3.21487">
        <ele>346.60000610352</ele>
        <time>2023-05-27T10:17:48.000Z</time>
      </trkpt>
      <trkpt lat="43.71394" lon="3.21482">
        <ele>346.20001220703</ele>
        <time>2023-05-27T10:17:51.000Z</time>
      </trkpt>
      <trkpt lat="43.71394" lon="3.2148">
        <ele>346.20001220703</ele>
        <time>2023-05-27T10:17:52.000Z</time>
      </trkpt>
      <trkpt lat="43.71394" lon="3.21477">
        <ele>345.79998779297</ele>
        <time>2023-05-27T10:17:54.000Z</time>
      </trkpt>
      <trkpt lat="43.71393" lon="3.21474">
        <ele>345.60000610352</ele>
        <time>2023-05-27T10:17:56.000Z</time>
      </trkpt>
      <trkpt lat="43.7139" lon="3.21465">
        <ele>345.20001220703</ele>
        <time>2023-05-27T10:18:01.000Z</time>
      </trkpt>
      <trkpt lat="43.71389" lon="3.21461">
        <ele>345.20001220703</ele>
        <time>2023-05-27T10:18:04.000Z</time>
      </trkpt>
      <trkpt lat="43.71387" lon="3.21454">
        <ele>344.60000610352</ele>
        <time>2023-05-27T10:18:08.000Z</time>
      </trkpt>
      <trkpt lat="43.71387" lon="3.21453">
        <ele>344.60000610352</ele>
        <time>2023-05-27T10:18:09.000Z</time>
      </trkpt>
      <trkpt lat="43.71386" lon="3.21447">
        <ele>344.20001220703</ele>
        <time>2023-05-27T10:18:13.000Z</time>
      </trkpt>
      <trkpt lat="43.71385" lon="3.21445">
        <ele>344.20001220703</ele>
        <time>2023-05-27T10:18:14.000Z</time>
      </trkpt>
      <trkpt lat="43.71385" lon="3.21441">
        <ele>344</ele>
        <time>2023-05-27T10:18:17.000Z</time>
      </trkpt>
      <trkpt lat="43.71383" lon="3.21433">
        <ele>343.39999389648</ele>
        <time>2023-05-27T10:18:23.000Z</time>
      </trkpt>
      <trkpt lat="43.71382" lon="3.21428">
        <ele>343.20001220703</ele>
        <time>2023-05-27T10:18:26.000Z</time>
      </trkpt>
      <trkpt lat="43.71382" lon="3.21423">
        <ele>342.79998779297</ele>
        <time>2023-05-27T10:18:30.000Z</time>
      </trkpt>
      <trkpt lat="43.71381" lon="3.21416">
        <ele>342.60000610352</ele>
        <time>2023-05-27T10:18:35.000Z</time>
      </trkpt>
      <trkpt lat="43.71381" lon="3.21413">
        <ele>342.39999389648</ele>
        <time>2023-05-27T10:18:37.000Z</time>
      </trkpt>
      <trkpt lat="43.71381" lon="3.21412">
        <ele>342.39999389648</ele>
        <time>2023-05-27T10:18:38.000Z</time>
      </trkpt>
      <trkpt lat="43.71381" lon="3.21408">
        <ele>342.20001220703</ele>
        <time>2023-05-27T10:18:41.000Z</time>
      </trkpt>
      <trkpt lat="43.7138" lon="3.21402">
        <ele>342</ele>
        <time>2023-05-27T10:18:45.000Z</time>
      </trkpt>
      <trkpt lat="43.71378" lon="3.21393">
        <ele>341.60000610352</ele>
        <time>2023-05-27T10:18:52.000Z</time>
      </trkpt>
      <trkpt lat="43.71378" lon="3.21391">
        <ele>341.39999389648</ele>
        <time>2023-05-27T10:18:54.000Z</time>
      </trkpt>
      <trkpt lat="43.71377" lon="3.21388">
        <ele>341.20001220703</ele>
        <time>2023-05-27T10:18:56.000Z</time>
      </trkpt>
      <trkpt lat="43.71376" lon="3.21387">
        <ele>341.20001220703</ele>
        <time>2023-05-27T10:18:57.000Z</time>
      </trkpt>
      <trkpt lat="43.71376" lon="3.21385">
        <ele>341</ele>
        <time>2023-05-27T10:18:58.000Z</time>
      </trkpt>
      <trkpt lat="43.71375" lon="3.21377">
        <ele>340.60000610352</ele>
        <time>2023-05-27T10:19:04.000Z</time>
      </trkpt>
      <trkpt lat="43.71372" lon="3.21369">
        <ele>340.20001220703</ele>
        <time>2023-05-27T10:19:10.000Z</time>
      </trkpt>
      <trkpt lat="43.71372" lon="3.21367">
        <ele>340.20001220703</ele>
        <time>2023-05-27T10:19:11.000Z</time>
      </trkpt>
      <trkpt lat="43.71368" lon="3.21359">
        <ele>340.20001220703</ele>
        <time>2023-05-27T10:19:17.000Z</time>
      </trkpt>
      <trkpt lat="43.71366" lon="3.21355">
        <ele>339.79998779297</ele>
        <time>2023-05-27T10:19:20.000Z</time>
      </trkpt>
      <trkpt lat="43.71365" lon="3.21348">
        <ele>339.39999389648</ele>
        <time>2023-05-27T10:19:25.000Z</time>
      </trkpt>
      <trkpt lat="43.71365" lon="3.21347">
        <ele>339.20001220703</ele>
        <time>2023-05-27T10:19:26.000Z</time>
      </trkpt>
      <trkpt lat="43.71363" lon="3.21343">
        <ele>339</ele>
        <time>2023-05-27T10:19:29.000Z</time>
      </trkpt>
      <trkpt lat="43.71361" lon="3.21337">
        <ele>338.79998779297</ele>
        <time>2023-05-27T10:19:33.000Z</time>
      </trkpt>
      <trkpt lat="43.7136" lon="3.21333">
        <ele>338.60000610352</ele>
        <time>2023-05-27T10:19:36.000Z</time>
      </trkpt>
      <trkpt lat="43.71359" lon="3.21328">
        <ele>338.39999389648</ele>
        <time>2023-05-27T10:19:40.000Z</time>
      </trkpt>
      <trkpt lat="43.71358" lon="3.21325">
        <ele>338.20001220703</ele>
        <time>2023-05-27T10:19:42.000Z</time>
      </trkpt>
      <trkpt lat="43.71358" lon="3.21322">
        <ele>338</ele>
        <time>2023-05-27T10:19:44.000Z</time>
      </trkpt>
      <trkpt lat="43.71358" lon="3.21319">
        <ele>338</ele>
        <time>2023-05-27T10:19:46.000Z</time>
      </trkpt>
      <trkpt lat="43.71358" lon="3.21316">
        <ele>337.79998779297</ele>
        <time>2023-05-27T10:19:48.000Z</time>
      </trkpt>
      <trkpt lat="43.71357" lon="3.21313">
        <ele>337.79998779297</ele>
        <time>2023-05-27T10:19:50.000Z</time>
      </trkpt>
      <trkpt lat="43.71356" lon="3.21307">
        <ele>337.39999389648</ele>
        <time>2023-05-27T10:19:54.000Z</time>
      </trkpt>
      <trkpt lat="43.71356" lon="3.21305">
        <ele>337.39999389648</ele>
        <time>2023-05-27T10:19:56.000Z</time>
      </trkpt>
      <trkpt lat="43.71356" lon="3.213">
        <ele>337.20001220703</ele>
        <time>2023-05-27T10:19:59.000Z</time>
      </trkpt>
      <trkpt lat="43.71356" lon="3.21299">
        <ele>337</ele>
        <time>2023-05-27T10:20:00.000Z</time>
      </trkpt>
      <trkpt lat="43.71355" lon="3.21297">
        <ele>337</ele>
        <time>2023-05-27T10:20:01.000Z</time>
      </trkpt>
      <trkpt lat="43.71352" lon="3.21286">
        <ele>336.39999389648</ele>
        <time>2023-05-27T10:20:09.000Z</time>
      </trkpt>
      <trkpt lat="43.71349" lon="3.21278">
        <ele>336</ele>
        <time>2023-05-27T10:20:15.000Z</time>
      </trkpt>
      <trkpt lat="43.71346" lon="3.21269">
        <ele>335.60000610352</ele>
        <time>2023-05-27T10:20:22.000Z</time>
      </trkpt>
      <trkpt lat="43.71343" lon="3.21262">
        <ele>335.20001220703</ele>
        <time>2023-05-27T10:20:28.000Z</time>
      </trkpt>
      <trkpt lat="43.7134" lon="3.21258">
        <ele>335</ele>
        <time>2023-05-27T10:20:31.000Z</time>
      </trkpt>
      <trkpt lat="43.71337" lon="3.21248">
        <ele>334.39999389648</ele>
        <time>2023-05-27T10:20:38.000Z</time>
      </trkpt>
      <trkpt lat="43.71333" lon="3.21238">
        <ele>334.20001220703</ele>
        <time>2023-05-27T10:20:45.000Z</time>
      </trkpt>
      <trkpt lat="43.71332" lon="3.21233">
        <ele>334</ele>
        <time>2023-05-27T10:20:48.000Z</time>
      </trkpt>
      <trkpt lat="43.71328" lon="3.21224">
        <ele>333.60000610352</ele>
        <time>2023-05-27T10:20:54.000Z</time>
      </trkpt>
      <trkpt lat="43.71324" lon="3.21214">
        <ele>333.20001220703</ele>
        <time>2023-05-27T10:21:01.000Z</time>
      </trkpt>
      <trkpt lat="43.71323" lon="3.21213">
        <ele>333.20001220703</ele>
        <time>2023-05-27T10:21:02.000Z</time>
      </trkpt>
      <trkpt lat="43.71322" lon="3.21208">
        <ele>333</ele>
        <time>2023-05-27T10:21:05.000Z</time>
      </trkpt>
      <trkpt lat="43.7132" lon="3.21206">
        <ele>332.79998779297</ele>
        <time>2023-05-27T10:21:07.000Z</time>
      </trkpt>
      <trkpt lat="43.71319" lon="3.21203">
        <ele>332.60000610352</ele>
        <time>2023-05-27T10:21:09.000Z</time>
      </trkpt>
      <trkpt lat="43.71314" lon="3.21188">
        <ele>332</ele>
        <time>2023-05-27T10:21:19.000Z</time>
      </trkpt>
      <trkpt lat="43.71312" lon="3.21183">
        <ele>331.79998779297</ele>
        <time>2023-05-27T10:21:22.000Z</time>
      </trkpt>
      <trkpt lat="43.71311" lon="3.21179">
        <ele>331.60000610352</ele>
        <time>2023-05-27T10:21:25.000Z</time>
      </trkpt>
      <trkpt lat="43.71306" lon="3.21166">
        <ele>331.20001220703</ele>
        <time>2023-05-27T10:21:34.000Z</time>
      </trkpt>
      <trkpt lat="43.71302" lon="3.21155">
        <ele>331</ele>
        <time>2023-05-27T10:21:42.000Z</time>
      </trkpt>
      <trkpt lat="43.71302" lon="3.21154">
        <ele>330.79998779297</ele>
        <time>2023-05-27T10:21:43.000Z</time>
      </trkpt>
      <trkpt lat="43.71299" lon="3.21145">
        <ele>330.20001220703</ele>
        <time>2023-05-27T10:21:49.000Z</time>
      </trkpt>
      <trkpt lat="43.71294" lon="3.21137">
        <ele>329.79998779297</ele>
        <time>2023-05-27T10:21:55.000Z</time>
      </trkpt>
      <trkpt lat="43.71293" lon="3.21135">
        <ele>329.60000610352</ele>
        <time>2023-05-27T10:21:56.000Z</time>
      </trkpt>
      <trkpt lat="43.71289" lon="3.21123">
        <ele>329.39999389648</ele>
        <time>2023-05-27T10:22:04.000Z</time>
      </trkpt>
      <trkpt lat="43.71286" lon="3.21113">
        <ele>329</ele>
        <time>2023-05-27T10:22:11.000Z</time>
      </trkpt>
      <trkpt lat="43.71282" lon="3.21098">
        <ele>329</ele>
        <time>2023-05-27T10:22:21.000Z</time>
      </trkpt>
      <trkpt lat="43.71282" lon="3.21094">
        <ele>328.60000610352</ele>
        <time>2023-05-27T10:22:23.000Z</time>
      </trkpt>
      <trkpt lat="43.7128" lon="3.21085">
        <ele>328.20001220703</ele>
        <time>2023-05-27T10:22:29.000Z</time>
      </trkpt>
      <trkpt lat="43.7128" lon="3.21082">
        <ele>328</ele>
        <time>2023-05-27T10:22:31.000Z</time>
      </trkpt>
      <trkpt lat="43.71279" lon="3.21078">
        <ele>327.60000610352</ele>
        <time>2023-05-27T10:22:34.000Z</time>
      </trkpt>
      <trkpt lat="43.71279" lon="3.21076">
        <ele>327.60000610352</ele>
        <time>2023-05-27T10:22:35.000Z</time>
      </trkpt>
      <trkpt lat="43.71276" lon="3.21065">
        <ele>327</ele>
        <time>2023-05-27T10:22:44.000Z</time>
      </trkpt>
      <trkpt lat="43.71272" lon="3.21052">
        <ele>326.79998779297</ele>
        <time>2023-05-27T10:22:52.000Z</time>
      </trkpt>
      <trkpt lat="43.71271" lon="3.21051">
        <ele>326.60000610352</ele>
        <time>2023-05-27T10:22:53.000Z</time>
      </trkpt>
      <trkpt lat="43.71271" lon="3.21049">
        <ele>326.60000610352</ele>
        <time>2023-05-27T10:22:54.000Z</time>
      </trkpt>
      <trkpt lat="43.71271" lon="3.21045">
        <ele>326.39999389648</ele>
        <time>2023-05-27T10:22:57.000Z</time>
      </trkpt>
      <trkpt lat="43.71271" lon="3.21044">
        <ele>326.39999389648</ele>
        <time>2023-05-27T10:22:58.000Z</time>
      </trkpt>
      <trkpt lat="43.7127" lon="3.21038">
        <ele>326.20001220703</ele>
        <time>2023-05-27T10:23:02.000Z</time>
      </trkpt>
      <trkpt lat="43.7127" lon="3.21036">
        <ele>326.20001220703</ele>
        <time>2023-05-27T10:23:03.000Z</time>
      </trkpt>
      <trkpt lat="43.71268" lon="3.21029">
        <ele>325.79998779297</ele>
        <time>2023-05-27T10:23:08.000Z</time>
      </trkpt>
      <trkpt lat="43.71267" lon="3.21024">
        <ele>325.60000610352</ele>
        <time>2023-05-27T10:23:11.000Z</time>
      </trkpt>
      <trkpt lat="43.71266" lon="3.21019">
        <ele>325.20001220703</ele>
        <time>2023-05-27T10:23:15.000Z</time>
      </trkpt>
      <trkpt lat="43.71263" lon="3.21009">
        <ele>324.79998779297</ele>
        <time>2023-05-27T10:23:22.000Z</time>
      </trkpt>
      <trkpt lat="43.71261" lon="3.21001">
        <ele>324.39999389648</ele>
        <time>2023-05-27T10:23:28.000Z</time>
      </trkpt>
      <trkpt lat="43.7126" lon="3.20998">
        <ele>324.39999389648</ele>
        <time>2023-05-27T10:23:30.000Z</time>
      </trkpt>
      <trkpt lat="43.71255" lon="3.20986">
        <ele>323.60000610352</ele>
        <time>2023-05-27T10:23:39.000Z</time>
      </trkpt>
      <trkpt lat="43.71254" lon="3.20985">
        <ele>323.60000610352</ele>
        <time>2023-05-27T10:23:40.000Z</time>
      </trkpt>
      <trkpt lat="43.71253" lon="3.20983">
        <ele>323.39999389648</ele>
        <time>2023-05-27T10:23:42.000Z</time>
      </trkpt>
      <trkpt lat="43.71253" lon="3.20982">
        <ele>323.20001220703</ele>
        <time>2023-05-27T10:23:45.000Z</time>
      </trkpt>
      <trkpt lat="43.7125" lon="3.20975">
        <ele>323</ele>
        <time>2023-05-27T10:23:50.000Z</time>
      </trkpt>
      <trkpt lat="43.71246" lon="3.20966">
        <ele>322.60000610352</ele>
        <time>2023-05-27T10:23:57.000Z</time>
      </trkpt>
      <trkpt lat="43.71244" lon="3.20962">
        <ele>322.39999389648</ele>
        <time>2023-05-27T10:24:00.000Z</time>
      </trkpt>
      <trkpt lat="43.71242" lon="3.20955">
        <ele>322</ele>
        <time>2023-05-27T10:24:05.000Z</time>
      </trkpt>
      <trkpt lat="43.71239" lon="3.20946">
        <ele>321.39999389648</ele>
        <time>2023-05-27T10:24:12.000Z</time>
      </trkpt>
      <trkpt lat="43.71236" lon="3.20936">
        <ele>320.79998779297</ele>
        <time>2023-05-27T10:24:19.000Z</time>
      </trkpt>
      <trkpt lat="43.71232" lon="3.20926">
        <ele>320.60000610352</ele>
        <time>2023-05-27T10:24:26.000Z</time>
      </trkpt>
      <trkpt lat="43.71231" lon="3.20925">
        <ele>320.39999389648</ele>
        <time>2023-05-27T10:24:27.000Z</time>
      </trkpt>
      <trkpt lat="43.71229" lon="3.2092">
        <ele>319.79998779297</ele>
        <time>2023-05-27T10:24:33.000Z</time>
      </trkpt>
      <trkpt lat="43.71226" lon="3.20913">
        <ele>319.79998779297</ele>
        <time>2023-05-27T10:24:41.000Z</time>
      </trkpt>
      <trkpt lat="43.71222" lon="3.20904">
        <ele>319.39999389648</ele>
        <time>2023-05-27T10:24:47.000Z</time>
      </trkpt>
      <trkpt lat="43.71219" lon="3.209">
        <ele>319.20001220703</ele>
        <time>2023-05-27T10:24:50.000Z</time>
      </trkpt>
      <trkpt lat="43.71219" lon="3.20898">
        <ele>318.79998779297</ele>
        <time>2023-05-27T10:24:55.000Z</time>
      </trkpt>
      <trkpt lat="43.71215" lon="3.20892">
        <ele>318.79998779297</ele>
        <time>2023-05-27T10:25:01.000Z</time>
      </trkpt>
      <trkpt lat="43.7121" lon="3.20884">
        <ele>318.39999389648</ele>
        <time>2023-05-27T10:25:07.000Z</time>
      </trkpt>
      <trkpt lat="43.71206" lon="3.20874">
        <ele>317.79998779297</ele>
        <time>2023-05-27T10:25:14.000Z</time>
      </trkpt>
      <trkpt lat="43.712" lon="3.20863">
        <ele>317.20001220703</ele>
        <time>2023-05-27T10:25:22.000Z</time>
      </trkpt>
      <trkpt lat="43.71199" lon="3.20861">
        <ele>317.20001220703</ele>
        <time>2023-05-27T10:25:24.000Z</time>
      </trkpt>
      <trkpt lat="43.71195" lon="3.20851">
        <ele>317</ele>
        <time>2023-05-27T10:25:31.000Z</time>
      </trkpt>
      <trkpt lat="43.71191" lon="3.20842">
        <ele>316.39999389648</ele>
        <time>2023-05-27T10:25:38.000Z</time>
      </trkpt>
      <trkpt lat="43.71187" lon="3.20836">
        <ele>316</ele>
        <time>2023-05-27T10:25:43.000Z</time>
      </trkpt>
      <trkpt lat="43.71186" lon="3.20833">
        <ele>315.79998779297</ele>
        <time>2023-05-27T10:25:45.000Z</time>
      </trkpt>
      <trkpt lat="43.71182" lon="3.20823">
        <ele>315.20001220703</ele>
        <time>2023-05-27T10:25:53.000Z</time>
      </trkpt>
      <trkpt lat="43.71181" lon="3.20822">
        <ele>315</ele>
        <time>2023-05-27T10:25:54.000Z</time>
      </trkpt>
      <trkpt lat="43.71178" lon="3.20814">
        <ele>314.60000610352</ele>
        <time>2023-05-27T10:26:00.000Z</time>
      </trkpt>
      <trkpt lat="43.71175" lon="3.20808">
        <ele>314.39999389648</ele>
        <time>2023-05-27T10:26:05.000Z</time>
      </trkpt>
      <trkpt lat="43.71175" lon="3.20806">
        <ele>314.39999389648</ele>
        <time>2023-05-27T10:26:07.000Z</time>
      </trkpt>
      <trkpt lat="43.71173" lon="3.20798">
        <ele>314</ele>
        <time>2023-05-27T10:26:13.000Z</time>
      </trkpt>
      <trkpt lat="43.71172" lon="3.20794">
        <ele>313.79998779297</ele>
        <time>2023-05-27T10:26:16.000Z</time>
      </trkpt>
      <trkpt lat="43.71169" lon="3.20784">
        <ele>313.20001220703</ele>
        <time>2023-05-27T10:26:23.000Z</time>
      </trkpt>
      <trkpt lat="43.71168" lon="3.2078">
        <ele>313</ele>
        <time>2023-05-27T10:26:26.000Z</time>
      </trkpt>
      <trkpt lat="43.71166" lon="3.20774">
        <ele>312.79998779297</ele>
        <time>2023-05-27T10:26:30.000Z</time>
      </trkpt>
      <trkpt lat="43.71163" lon="3.20765">
        <ele>312.20001220703</ele>
        <time>2023-05-27T10:26:37.000Z</time>
      </trkpt>
      <trkpt lat="43.71162" lon="3.20759">
        <ele>312</ele>
        <time>2023-05-27T10:26:43.000Z</time>
      </trkpt>
      <trkpt lat="43.71162" lon="3.20759">
        <ele>311.79998779297</ele>
        <time>2023-05-27T10:26:44.000Z</time>
      </trkpt>
      <trkpt lat="43.71162" lon="3.2076">
        <ele>312</ele>
        <time>2023-05-27T10:26:54.000Z</time>
      </trkpt>
      <trkpt lat="43.71159" lon="3.20754">
        <ele>311.60000610352</ele>
        <time>2023-05-27T10:27:01.000Z</time>
      </trkpt>
      <trkpt lat="43.71157" lon="3.20746">
        <ele>311.20001220703</ele>
        <time>2023-05-27T10:27:08.000Z</time>
      </trkpt>
      <trkpt lat="43.71154" lon="3.20737">
        <ele>310.79998779297</ele>
        <time>2023-05-27T10:27:15.000Z</time>
      </trkpt>
      <trkpt lat="43.71154" lon="3.20736">
        <ele>310.60000610352</ele>
        <time>2023-05-27T10:27:16.000Z</time>
      </trkpt>
      <trkpt lat="43.71152" lon="3.2073">
        <ele>310.39999389648</ele>
        <time>2023-05-27T10:27:20.000Z</time>
      </trkpt>
      <trkpt lat="43.71151" lon="3.20727">
        <ele>310.20001220703</ele>
        <time>2023-05-27T10:27:22.000Z</time>
      </trkpt>
      <trkpt lat="43.71149" lon="3.20717">
        <ele>309.79998779297</ele>
        <time>2023-05-27T10:27:28.000Z</time>
      </trkpt>
      <trkpt lat="43.71148" lon="3.20716">
        <ele>309.79998779297</ele>
        <time>2023-05-27T10:27:29.000Z</time>
      </trkpt>
      <trkpt lat="43.71145" lon="3.20707">
        <ele>309.39999389648</ele>
        <time>2023-05-27T10:27:34.000Z</time>
      </trkpt>
      <trkpt lat="43.71143" lon="3.20698">
        <ele>308.79998779297</ele>
        <time>2023-05-27T10:27:40.000Z</time>
      </trkpt>
      <trkpt lat="43.71142" lon="3.20696">
        <ele>308.79998779297</ele>
        <time>2023-05-27T10:27:41.000Z</time>
      </trkpt>
      <trkpt lat="43.71142" lon="3.20694">
        <ele>308.79998779297</ele>
        <time>2023-05-27T10:27:42.000Z</time>
      </trkpt>
      <trkpt lat="43.71141" lon="3.20689">
        <ele>308.39999389648</ele>
        <time>2023-05-27T10:27:46.000Z</time>
      </trkpt>
      <trkpt lat="43.71141" lon="3.2068">
        <ele>308</ele>
        <time>2023-05-27T10:27:52.000Z</time>
      </trkpt>
      <trkpt lat="43.7114" lon="3.20673">
        <ele>307.79998779297</ele>
        <time>2023-05-27T10:27:56.000Z</time>
      </trkpt>
      <trkpt lat="43.7114" lon="3.2067">
        <ele>308</ele>
        <time>2023-05-27T10:27:58.000Z</time>
      </trkpt>
      <trkpt lat="43.71139" lon="3.20663">
        <ele>307.60000610352</ele>
        <time>2023-05-27T10:28:03.000Z</time>
      </trkpt>
      <trkpt lat="43.7114" lon="3.20662">
        <ele>307.39999389648</ele>
        <time>2023-05-27T10:28:04.000Z</time>
      </trkpt>
      <trkpt lat="43.71138" lon="3.20654">
        <ele>307</ele>
        <time>2023-05-27T10:28:09.000Z</time>
      </trkpt>
      <trkpt lat="43.71136" lon="3.20647">
        <ele>306.79998779297</ele>
        <time>2023-05-27T10:28:13.000Z</time>
      </trkpt>
      <trkpt lat="43.71136" lon="3.20644">
        <ele>306.79998779297</ele>
        <time>2023-05-27T10:28:15.000Z</time>
      </trkpt>
      <trkpt lat="43.71136" lon="3.20643">
        <ele>306.79998779297</ele>
        <time>2023-05-27T10:28:16.000Z</time>
      </trkpt>
      <trkpt lat="43.71136" lon="3.20637">
        <ele>306.60000610352</ele>
        <time>2023-05-27T10:28:19.000Z</time>
      </trkpt>
      <trkpt lat="43.71135" lon="3.20633">
        <ele>306.39999389648</ele>
        <time>2023-05-27T10:28:21.000Z</time>
      </trkpt>
      <trkpt lat="43.71134" lon="3.20625">
        <ele>306.20001220703</ele>
        <time>2023-05-27T10:28:26.000Z</time>
      </trkpt>
      <trkpt lat="43.71134" lon="3.20622">
        <ele>306</ele>
        <time>2023-05-27T10:28:28.000Z</time>
      </trkpt>
      <trkpt lat="43.71134" lon="3.20609">
        <ele>305.79998779297</ele>
        <time>2023-05-27T10:28:36.000Z</time>
      </trkpt>
      <trkpt lat="43.71133" lon="3.20597">
        <ele>305.60000610352</ele>
        <time>2023-05-27T10:28:43.000Z</time>
      </trkpt>
      <trkpt lat="43.71132" lon="3.20595">
        <ele>305.39999389648</ele>
        <time>2023-05-27T10:28:44.000Z</time>
      </trkpt>
      <trkpt lat="43.71134" lon="3.20584">
        <ele>305</ele>
        <time>2023-05-27T10:28:52.000Z</time>
      </trkpt>
      <trkpt lat="43.71134" lon="3.20578">
        <ele>305</ele>
        <time>2023-05-27T10:28:56.000Z</time>
      </trkpt>
      <trkpt lat="43.71134" lon="3.20575">
        <ele>304.79998779297</ele>
        <time>2023-05-27T10:28:58.000Z</time>
      </trkpt>
      <trkpt lat="43.71134" lon="3.20571">
        <ele>304.79998779297</ele>
        <time>2023-05-27T10:29:01.000Z</time>
      </trkpt>
      <trkpt lat="43.71135" lon="3.20565">
        <ele>304.39999389648</ele>
        <time>2023-05-27T10:29:05.000Z</time>
      </trkpt>
      <trkpt lat="43.71135" lon="3.20564">
        <ele>304.39999389648</ele>
        <time>2023-05-27T10:29:06.000Z</time>
      </trkpt>
      <trkpt lat="43.71136" lon="3.20561">
        <ele>304.39999389648</ele>
        <time>2023-05-27T10:29:08.000Z</time>
      </trkpt>
      <trkpt lat="43.71136" lon="3.20555">
        <ele>304.20001220703</ele>
        <time>2023-05-27T10:29:12.000Z</time>
      </trkpt>
      <trkpt lat="43.71136" lon="3.20543">
        <ele>304</ele>
        <time>2023-05-27T10:29:20.000Z</time>
      </trkpt>
      <trkpt lat="43.71136" lon="3.20542">
        <ele>304</ele>
        <time>2023-05-27T10:29:21.000Z</time>
      </trkpt>
      <trkpt lat="43.71136" lon="3.20535">
        <ele>303.79998779297</ele>
        <time>2023-05-27T10:29:26.000Z</time>
      </trkpt>
      <trkpt lat="43.71136" lon="3.20531">
        <ele>303.79998779297</ele>
        <time>2023-05-27T10:29:28.000Z</time>
      </trkpt>
      <trkpt lat="43.71136" lon="3.20525">
        <ele>303.60000610352</ele>
        <time>2023-05-27T10:29:32.000Z</time>
      </trkpt>
      <trkpt lat="43.71136" lon="3.20523">
        <ele>303.60000610352</ele>
        <time>2023-05-27T10:29:33.000Z</time>
      </trkpt>
      <trkpt lat="43.71136" lon="3.2052">
        <ele>303.39999389648</ele>
        <time>2023-05-27T10:29:35.000Z</time>
      </trkpt>
      <trkpt lat="43.71136" lon="3.20513">
        <ele>303.39999389648</ele>
        <time>2023-05-27T10:29:39.000Z</time>
      </trkpt>
      <trkpt lat="43.71136" lon="3.2051">
        <ele>303.20001220703</ele>
        <time>2023-05-27T10:29:41.000Z</time>
      </trkpt>
      <trkpt lat="43.71135" lon="3.20499">
        <ele>303.20001220703</ele>
        <time>2023-05-27T10:29:48.000Z</time>
      </trkpt>
      <trkpt lat="43.71135" lon="3.20487">
        <ele>302.60000610352</ele>
        <time>2023-05-27T10:29:56.000Z</time>
      </trkpt>
      <trkpt lat="43.71135" lon="3.20477">
        <ele>302.39999389648</ele>
        <time>2023-05-27T10:30:02.000Z</time>
      </trkpt>
      <trkpt lat="43.71135" lon="3.20475">
        <ele>302.39999389648</ele>
        <time>2023-05-27T10:30:03.000Z</time>
      </trkpt>
      <trkpt lat="43.71134" lon="3.20459">
        <ele>302.20001220703</ele>
        <time>2023-05-27T10:30:12.000Z</time>
      </trkpt>
      <trkpt lat="43.71135" lon="3.20454">
        <ele>302</ele>
        <time>2023-05-27T10:30:16.000Z</time>
      </trkpt>
      <trkpt lat="43.71135" lon="3.20449">
        <ele>301.79998779297</ele>
        <time>2023-05-27T10:30:20.000Z</time>
      </trkpt>
      <trkpt lat="43.71136" lon="3.20443">
        <ele>301.79998779297</ele>
        <time>2023-05-27T10:30:24.000Z</time>
      </trkpt>
      <trkpt lat="43.71136" lon="3.20442">
        <ele>301.79998779297</ele>
        <time>2023-05-27T10:30:25.000Z</time>
      </trkpt>
      <trkpt lat="43.71136" lon="3.2044">
        <ele>301.79998779297</ele>
        <time>2023-05-27T10:30:26.000Z</time>
      </trkpt>
      <trkpt lat="43.71135" lon="3.20429">
        <ele>301.39999389648</ele>
        <time>2023-05-27T10:30:34.000Z</time>
      </trkpt>
      <trkpt lat="43.71136" lon="3.20426">
        <ele>301.39999389648</ele>
        <time>2023-05-27T10:30:36.000Z</time>
      </trkpt>
      <trkpt lat="43.71135" lon="3.20422">
        <ele>301.39999389648</ele>
        <time>2023-05-27T10:30:39.000Z</time>
      </trkpt>
      <trkpt lat="43.71136" lon="3.20415">
        <ele>301.20001220703</ele>
        <time>2023-05-27T10:30:44.000Z</time>
      </trkpt>
      <trkpt lat="43.71137" lon="3.20403">
        <ele>301</ele>
        <time>2023-05-27T10:30:53.000Z</time>
      </trkpt>
      <trkpt lat="43.71137" lon="3.20392">
        <ele>300.60000610352</ele>
        <time>2023-05-27T10:31:01.000Z</time>
      </trkpt>
      <trkpt lat="43.71137" lon="3.20386">
        <ele>300.79998779297</ele>
        <time>2023-05-27T10:31:07.000Z</time>
      </trkpt>
      <trkpt lat="43.71137" lon="3.20384">
        <ele>300.60000610352</ele>
        <time>2023-05-27T10:31:09.000Z</time>
      </trkpt>
      <trkpt lat="43.71138" lon="3.20377">
        <ele>300.39999389648</ele>
        <time>2023-05-27T10:31:14.000Z</time>
      </trkpt>
      <trkpt lat="43.71137" lon="3.20371">
        <ele>300.20001220703</ele>
        <time>2023-05-27T10:31:18.000Z</time>
      </trkpt>
      <trkpt lat="43.71137" lon="3.20362">
        <ele>300</ele>
        <time>2023-05-27T10:31:24.000Z</time>
      </trkpt>
      <trkpt lat="43.71137" lon="3.20359">
        <ele>300</ele>
        <time>2023-05-27T10:31:26.000Z</time>
      </trkpt>
      <trkpt lat="43.71137" lon="3.20351">
        <ele>300</ele>
        <time>2023-05-27T10:31:32.000Z</time>
      </trkpt>
      <trkpt lat="43.71137" lon="3.20348">
        <ele>300</ele>
        <time>2023-05-27T10:31:34.000Z</time>
      </trkpt>
      <trkpt lat="43.71137" lon="3.20336">
        <ele>299.60000610352</ele>
        <time>2023-05-27T10:31:42.000Z</time>
      </trkpt>
      <trkpt lat="43.71136" lon="3.20331">
        <ele>299.60000610352</ele>
        <time>2023-05-27T10:31:47.000Z</time>
      </trkpt>
      <trkpt lat="43.71136" lon="3.20328">
        <ele>299.60000610352</ele>
        <time>2023-05-27T10:31:50.000Z</time>
      </trkpt>
      <trkpt lat="43.71135" lon="3.20323">
        <ele>299.60000610352</ele>
        <time>2023-05-27T10:31:55.000Z</time>
      </trkpt>
      <trkpt lat="43.71134" lon="3.20309">
        <ele>299.60000610352</ele>
        <time>2023-05-27T10:32:04.000Z</time>
      </trkpt>
      <trkpt lat="43.71134" lon="3.20307">
        <ele>299.39999389648</ele>
        <time>2023-05-27T10:32:05.000Z</time>
      </trkpt>
      <trkpt lat="43.71134" lon="3.203">
        <ele>299.39999389648</ele>
        <time>2023-05-27T10:32:10.000Z</time>
      </trkpt>
      <trkpt lat="43.71135" lon="3.20289">
        <ele>299.39999389648</ele>
        <time>2023-05-27T10:32:16.000Z</time>
      </trkpt>
      <trkpt lat="43.71135" lon="3.20287">
        <ele>299.39999389648</ele>
        <time>2023-05-27T10:32:17.000Z</time>
      </trkpt>
      <trkpt lat="43.71135" lon="3.20286">
        <ele>299.39999389648</ele>
        <time>2023-05-27T10:32:18.000Z</time>
      </trkpt>
      <trkpt lat="43.71136" lon="3.20277">
        <ele>299</ele>
        <time>2023-05-27T10:32:24.000Z</time>
      </trkpt>
      <trkpt lat="43.71137" lon="3.20264">
        <ele>298.39999389648</ele>
        <time>2023-05-27T10:32:32.000Z</time>
      </trkpt>
      <trkpt lat="43.71137" lon="3.20263">
        <ele>298.39999389648</ele>
        <time>2023-05-27T10:32:33.000Z</time>
      </trkpt>
      <trkpt lat="43.71138" lon="3.20259">
        <ele>298.39999389648</ele>
        <time>2023-05-27T10:32:35.000Z</time>
      </trkpt>
      <trkpt lat="43.71139" lon="3.20255">
        <ele>298.39999389648</ele>
        <time>2023-05-27T10:32:38.000Z</time>
      </trkpt>
      <trkpt lat="43.71139" lon="3.20252">
        <ele>298.39999389648</ele>
        <time>2023-05-27T10:32:40.000Z</time>
      </trkpt>
      <trkpt lat="43.7114" lon="3.20241">
        <ele>298.60000610352</ele>
        <time>2023-05-27T10:32:46.000Z</time>
      </trkpt>
      <trkpt lat="43.71141" lon="3.20239">
        <ele>298.60000610352</ele>
        <time>2023-05-27T10:32:48.000Z</time>
      </trkpt>
      <trkpt lat="43.71142" lon="3.20237">
        <ele>298.39999389648</ele>
        <time>2023-05-27T10:32:49.000Z</time>
      </trkpt>
      <trkpt lat="43.71142" lon="3.20232">
        <ele>298.20001220703</ele>
        <time>2023-05-27T10:32:52.000Z</time>
      </trkpt>
      <trkpt lat="43.71143" lon="3.20229">
        <ele>298.20001220703</ele>
        <time>2023-05-27T10:32:54.000Z</time>
      </trkpt>
      <trkpt lat="43.71145" lon="3.20221">
        <ele>298</ele>
        <time>2023-05-27T10:33:00.000Z</time>
      </trkpt>
      <trkpt lat="43.71145" lon="3.20217">
        <ele>298</ele>
        <time>2023-05-27T10:33:05.000Z</time>
      </trkpt>
      <trkpt lat="43.71149" lon="3.20204">
        <ele>297.79998779297</ele>
        <time>2023-05-27T10:33:15.000Z</time>
      </trkpt>
      <trkpt lat="43.71153" lon="3.20193">
        <ele>297.60000610352</ele>
        <time>2023-05-27T10:33:23.000Z</time>
      </trkpt>
      <trkpt lat="43.71154" lon="3.20189">
        <ele>297.39999389648</ele>
        <time>2023-05-27T10:33:26.000Z</time>
      </trkpt>
      <trkpt lat="43.71155" lon="3.20186">
        <ele>297.20001220703</ele>
        <time>2023-05-27T10:33:29.000Z</time>
      </trkpt>
      <trkpt lat="43.71156" lon="3.20182">
        <ele>297</ele>
        <time>2023-05-27T10:33:32.000Z</time>
      </trkpt>
      <trkpt lat="43.71157" lon="3.2018">
        <ele>297</ele>
        <time>2023-05-27T10:33:34.000Z</time>
      </trkpt>
      <trkpt lat="43.71158" lon="3.20179">
        <ele>296.79998779297</ele>
        <time>2023-05-27T10:33:35.000Z</time>
      </trkpt>
      <trkpt lat="43.7116" lon="3.20172">
        <ele>297</ele>
        <time>2023-05-27T10:33:40.000Z</time>
      </trkpt>
      <trkpt lat="43.71162" lon="3.20166">
        <ele>296.79998779297</ele>
        <time>2023-05-27T10:33:44.000Z</time>
      </trkpt>
      <trkpt lat="43.71164" lon="3.20153">
        <ele>296.60000610352</ele>
        <time>2023-05-27T10:33:52.000Z</time>
      </trkpt>
      <trkpt lat="43.71167" lon="3.2014">
        <ele>296.60000610352</ele>
        <time>2023-05-27T10:34:01.000Z</time>
      </trkpt>
      <trkpt lat="43.71168" lon="3.20132">
        <ele>296.39999389648</ele>
        <time>2023-05-27T10:34:07.000Z</time>
      </trkpt>
      <trkpt lat="43.71168" lon="3.20131">
        <ele>296.39999389648</ele>
        <time>2023-05-27T10:34:08.000Z</time>
      </trkpt>
      <trkpt lat="43.71169" lon="3.20129">
        <ele>296.20001220703</ele>
        <time>2023-05-27T10:34:09.000Z</time>
      </trkpt>
      <trkpt lat="43.71172" lon="3.20116">
        <ele>296.20001220703</ele>
        <time>2023-05-27T10:34:18.000Z</time>
      </trkpt>
      <trkpt lat="43.71171" lon="3.20107">
        <ele>296.20001220703</ele>
        <time>2023-05-27T10:34:24.000Z</time>
      </trkpt>
      <trkpt lat="43.71174" lon="3.20099">
        <ele>295.79998779297</ele>
        <time>2023-05-27T10:34:29.000Z</time>
      </trkpt>
      <trkpt lat="43.71175" lon="3.20096">
        <ele>295.79998779297</ele>
        <time>2023-05-27T10:34:31.000Z</time>
      </trkpt>
      <trkpt lat="43.71179" lon="3.20078">
        <ele>295.79998779297</ele>
        <time>2023-05-27T10:34:42.000Z</time>
      </trkpt>
      <trkpt lat="43.71181" lon="3.20074">
        <ele>295.60000610352</ele>
        <time>2023-05-27T10:34:45.000Z</time>
      </trkpt>
      <trkpt lat="43.71182" lon="3.20068">
        <ele>295.60000610352</ele>
        <time>2023-05-27T10:34:49.000Z</time>
      </trkpt>
      <trkpt lat="43.71184" lon="3.20061">
        <ele>295.20001220703</ele>
        <time>2023-05-27T10:34:54.000Z</time>
      </trkpt>
      <trkpt lat="43.71185" lon="3.20059">
        <ele>295.20001220703</ele>
        <time>2023-05-27T10:34:55.000Z</time>
      </trkpt>
      <trkpt lat="43.71186" lon="3.20055">
        <ele>295.20001220703</ele>
        <time>2023-05-27T10:34:58.000Z</time>
      </trkpt>
      <trkpt lat="43.71189" lon="3.2004">
        <ele>294.79998779297</ele>
        <time>2023-05-27T10:35:08.000Z</time>
      </trkpt>
      <trkpt lat="43.71189" lon="3.20026">
        <ele>294.60000610352</ele>
        <time>2023-05-27T10:35:15.000Z</time>
      </trkpt>
      <trkpt lat="43.7119" lon="3.20014">
        <ele>294.39999389648</ele>
        <time>2023-05-27T10:35:22.000Z</time>
      </trkpt>
      <trkpt lat="43.7119" lon="3.20009">
        <ele>294.20001220703</ele>
        <time>2023-05-27T10:35:25.000Z</time>
      </trkpt>
      <trkpt lat="43.7119" lon="3.20004">
        <ele>294.20001220703</ele>
        <time>2023-05-27T10:35:28.000Z</time>
      </trkpt>
      <trkpt lat="43.71191" lon="3.19998">
        <ele>294</ele>
        <time>2023-05-27T10:35:32.000Z</time>
      </trkpt>
      <trkpt lat="43.71192" lon="3.19989">
        <ele>293.79998779297</ele>
        <time>2023-05-27T10:35:37.000Z</time>
      </trkpt>
      <trkpt lat="43.71193" lon="3.19975">
        <ele>293.20001220703</ele>
        <time>2023-05-27T10:35:45.000Z</time>
      </trkpt>
      <trkpt lat="43.71194" lon="3.19972">
        <ele>293.20001220703</ele>
        <time>2023-05-27T10:35:47.000Z</time>
      </trkpt>
      <trkpt lat="43.71197" lon="3.1995">
        <ele>292.60000610352</ele>
        <time>2023-05-27T10:36:00.000Z</time>
      </trkpt>
      <trkpt lat="43.71199" lon="3.19938">
        <ele>292.39999389648</ele>
        <time>2023-05-27T10:36:08.000Z</time>
      </trkpt>
      <trkpt lat="43.712" lon="3.19932">
        <ele>292.20001220703</ele>
        <time>2023-05-27T10:36:12.000Z</time>
      </trkpt>
      <trkpt lat="43.71201" lon="3.19924">
        <ele>291.79998779297</ele>
        <time>2023-05-27T10:36:17.000Z</time>
      </trkpt>
      <trkpt lat="43.71201" lon="3.19921">
        <ele>291.60000610352</ele>
        <time>2023-05-27T10:36:19.000Z</time>
      </trkpt>
      <trkpt lat="43.71202" lon="3.19916">
        <ele>291.39999389648</ele>
        <time>2023-05-27T10:36:23.000Z</time>
      </trkpt>
      <trkpt lat="43.71203" lon="3.19911">
        <ele>291.20001220703</ele>
        <time>2023-05-27T10:36:26.000Z</time>
      </trkpt>
      <trkpt lat="43.71204" lon="3.199">
        <ele>290.79998779297</ele>
        <time>2023-05-27T10:36:33.000Z</time>
      </trkpt>
      <trkpt lat="43.71205" lon="3.19886">
        <ele>290.39999389648</ele>
        <time>2023-05-27T10:36:42.000Z</time>
      </trkpt>
      <trkpt lat="43.71204" lon="3.19883">
        <ele>290.39999389648</ele>
        <time>2023-05-27T10:36:44.000Z</time>
      </trkpt>
      <trkpt lat="43.71205" lon="3.19883">
        <ele>290.20001220703</ele>
        <time>2023-05-27T10:36:47.000Z</time>
      </trkpt>
      <trkpt lat="43.71204" lon="3.19881">
        <ele>290.20001220703</ele>
        <time>2023-05-27T10:36:50.000Z</time>
      </trkpt>
      <trkpt lat="43.71205" lon="3.1988">
        <ele>289.20001220703</ele>
        <time>2023-05-27T10:36:56.000Z</time>
      </trkpt>
      <trkpt lat="43.71205" lon="3.1988">
        <ele>289</ele>
        <time>2023-05-27T10:36:58.000Z</time>
      </trkpt>
      <trkpt lat="43.71204" lon="3.19879">
        <ele>289.39999389648</ele>
        <time>2023-05-27T10:37:04.000Z</time>
      </trkpt>
      <trkpt lat="43.71203" lon="3.19876">
        <ele>289.79998779297</ele>
        <time>2023-05-27T10:37:13.000Z</time>
      </trkpt>
      <trkpt lat="43.71202" lon="3.19875">
        <ele>289.79998779297</ele>
        <time>2023-05-27T10:37:26.000Z</time>
      </trkpt>
      <trkpt lat="43.71202" lon="3.19875">
        <ele>290</ele>
        <time>2023-05-27T10:37:34.000Z</time>
      </trkpt>
      <trkpt lat="43.71201" lon="3.19872">
        <ele>290.20001220703</ele>
        <time>2023-05-27T10:37:47.000Z</time>
      </trkpt>
      <trkpt lat="43.712" lon="3.19862">
        <ele>289.79998779297</ele>
        <time>2023-05-27T10:37:54.000Z</time>
      </trkpt>
      <trkpt lat="43.712" lon="3.19853">
        <ele>289.60000610352</ele>
        <time>2023-05-27T10:38:00.000Z</time>
      </trkpt>
      <trkpt lat="43.712" lon="3.19851">
        <ele>289.60000610352</ele>
        <time>2023-05-27T10:38:01.000Z</time>
      </trkpt>
      <trkpt lat="43.71201" lon="3.19847">
        <ele>289.39999389648</ele>
        <time>2023-05-27T10:38:04.000Z</time>
      </trkpt>
      <trkpt lat="43.71199" lon="3.19838">
        <ele>288.60000610352</ele>
        <time>2023-05-27T10:38:09.000Z</time>
      </trkpt>
      <trkpt lat="43.71199" lon="3.19824">
        <ele>288.20001220703</ele>
        <time>2023-05-27T10:38:17.000Z</time>
      </trkpt>
      <trkpt lat="43.71198" lon="3.19817">
        <ele>287.79998779297</ele>
        <time>2023-05-27T10:38:21.000Z</time>
      </trkpt>
      <trkpt lat="43.71196" lon="3.19799">
        <ele>287.20001220703</ele>
        <time>2023-05-27T10:38:32.000Z</time>
      </trkpt>
      <trkpt lat="43.71196" lon="3.19797">
        <ele>287.20001220703</ele>
        <time>2023-05-27T10:38:33.000Z</time>
      </trkpt>
      <trkpt lat="43.71196" lon="3.19786">
        <ele>286.60000610352</ele>
        <time>2023-05-27T10:38:40.000Z</time>
      </trkpt>
      <trkpt lat="43.71195" lon="3.19774">
        <ele>286.20001220703</ele>
        <time>2023-05-27T10:38:48.000Z</time>
      </trkpt>
      <trkpt lat="43.71195" lon="3.19771">
        <ele>286</ele>
        <time>2023-05-27T10:38:50.000Z</time>
      </trkpt>
      <trkpt lat="43.71195" lon="3.19769">
        <ele>285.79998779297</ele>
        <time>2023-05-27T10:38:55.000Z</time>
      </trkpt>
      <trkpt lat="43.71194" lon="3.19764">
        <ele>285.79998779297</ele>
        <time>2023-05-27T10:39:01.000Z</time>
      </trkpt>
      <trkpt lat="43.71194" lon="3.19749">
        <ele>285.20001220703</ele>
        <time>2023-05-27T10:39:11.000Z</time>
      </trkpt>
      <trkpt lat="43.71193" lon="3.19746">
        <ele>285</ele>
        <time>2023-05-27T10:39:13.000Z</time>
      </trkpt>
      <trkpt lat="43.71191" lon="3.19733">
        <ele>284.60000610352</ele>
        <time>2023-05-27T10:39:21.000Z</time>
      </trkpt>
      <trkpt lat="43.71189" lon="3.1972">
        <ele>284</ele>
        <time>2023-05-27T10:39:29.000Z</time>
      </trkpt>
      <trkpt lat="43.71189" lon="3.19715">
        <ele>283.79998779297</ele>
        <time>2023-05-27T10:39:32.000Z</time>
      </trkpt>
      <trkpt lat="43.71189" lon="3.19714">
        <ele>283.79998779297</ele>
        <time>2023-05-27T10:39:33.000Z</time>
      </trkpt>
      <trkpt lat="43.71185" lon="3.197">
        <ele>283</ele>
        <time>2023-05-27T10:39:42.000Z</time>
      </trkpt>
      <trkpt lat="43.71179" lon="3.19687">
        <ele>282.39999389648</ele>
        <time>2023-05-27T10:39:51.000Z</time>
      </trkpt>
      <trkpt lat="43.71174" lon="3.19677">
        <ele>282</ele>
        <time>2023-05-27T10:39:59.000Z</time>
      </trkpt>
      <trkpt lat="43.71173" lon="3.19676">
        <ele>281.79998779297</ele>
        <time>2023-05-27T10:40:00.000Z</time>
      </trkpt>
      <trkpt lat="43.71168" lon="3.19667">
        <ele>281.60000610352</ele>
        <time>2023-05-27T10:40:07.000Z</time>
      </trkpt>
      <trkpt lat="43.71167" lon="3.19666">
        <ele>281.60000610352</ele>
        <time>2023-05-27T10:40:08.000Z</time>
      </trkpt>
      <trkpt lat="43.71162" lon="3.19659">
        <ele>281.60000610352</ele>
        <time>2023-05-27T10:40:15.000Z</time>
      </trkpt>
      <trkpt lat="43.71152" lon="3.19645">
        <ele>281</ele>
        <time>2023-05-27T10:40:26.000Z</time>
      </trkpt>
      <trkpt lat="43.71151" lon="3.19644">
        <ele>280.79998779297</ele>
        <time>2023-05-27T10:40:27.000Z</time>
      </trkpt>
      <trkpt lat="43.71141" lon="3.19633">
        <ele>279.79998779297</ele>
        <time>2023-05-27T10:40:37.000Z</time>
      </trkpt>
      <trkpt lat="43.71133" lon="3.19627">
        <ele>279.79998779297</ele>
        <time>2023-05-27T10:40:44.000Z</time>
      </trkpt>
      <trkpt lat="43.71127" lon="3.19625">
        <ele>279.60000610352</ele>
        <time>2023-05-27T10:40:50.000Z</time>
      </trkpt>
      <trkpt lat="43.71119" lon="3.1962">
        <ele>279.39999389648</ele>
        <time>2023-05-27T10:40:57.000Z</time>
      </trkpt>
      <trkpt lat="43.7111" lon="3.19614">
        <ele>279</ele>
        <time>2023-05-27T10:41:05.000Z</time>
      </trkpt>
      <trkpt lat="43.71108" lon="3.19613">
        <ele>278.79998779297</ele>
        <time>2023-05-27T10:41:07.000Z</time>
      </trkpt>
      <trkpt lat="43.71102" lon="3.1961">
        <ele>278.39999389648</ele>
        <time>2023-05-27T10:41:12.000Z</time>
      </trkpt>
      <trkpt lat="43.71093" lon="3.19606">
        <ele>278</ele>
        <time>2023-05-27T10:41:19.000Z</time>
      </trkpt>
      <trkpt lat="43.71088" lon="3.19604">
        <ele>277.79998779297</ele>
        <time>2023-05-27T10:41:23.000Z</time>
      </trkpt>
      <trkpt lat="43.71082" lon="3.19601">
        <ele>277.39999389648</ele>
        <time>2023-05-27T10:41:28.000Z</time>
      </trkpt>
      <trkpt lat="43.71072" lon="3.19597">
        <ele>277</ele>
        <time>2023-05-27T10:41:36.000Z</time>
      </trkpt>
      <trkpt lat="43.71065" lon="3.19595">
        <ele>276.79998779297</ele>
        <time>2023-05-27T10:41:42.000Z</time>
      </trkpt>
      <trkpt lat="43.71061" lon="3.19595">
        <ele>276.60000610352</ele>
        <time>2023-05-27T10:41:45.000Z</time>
      </trkpt>
      <trkpt lat="43.71052" lon="3.19596">
        <ele>275.79998779297</ele>
        <time>2023-05-27T10:41:53.000Z</time>
      </trkpt>
      <trkpt lat="43.7105" lon="3.19597">
        <ele>275.60000610352</ele>
        <time>2023-05-27T10:41:55.000Z</time>
      </trkpt>
      <trkpt lat="43.71043" lon="3.19596">
        <ele>275.20001220703</ele>
        <time>2023-05-27T10:42:02.000Z</time>
      </trkpt>
      <trkpt lat="43.71031" lon="3.19594">
        <ele>275</ele>
        <time>2023-05-27T10:42:13.000Z</time>
      </trkpt>
      <trkpt lat="43.71028" lon="3.19594">
        <ele>274.60000610352</ele>
        <time>2023-05-27T10:42:16.000Z</time>
      </trkpt>
      <trkpt lat="43.71026" lon="3.19594">
        <ele>274.39999389648</ele>
        <time>2023-05-27T10:42:18.000Z</time>
      </trkpt>
      <trkpt lat="43.71025" lon="3.19594">
        <ele>274.39999389648</ele>
        <time>2023-05-27T10:42:19.000Z</time>
      </trkpt>
      <trkpt lat="43.71017" lon="3.19593">
        <ele>274</ele>
        <time>2023-05-27T10:42:26.000Z</time>
      </trkpt>
      <trkpt lat="43.7101" lon="3.19593">
        <ele>273.60000610352</ele>
        <time>2023-05-27T10:42:32.000Z</time>
      </trkpt>
      <trkpt lat="43.70996" lon="3.19594">
        <ele>273</ele>
        <time>2023-05-27T10:42:43.000Z</time>
      </trkpt>
      <trkpt lat="43.70987" lon="3.19595">
        <ele>272.60000610352</ele>
        <time>2023-05-27T10:42:51.000Z</time>
      </trkpt>
      <trkpt lat="43.70984" lon="3.19595">
        <ele>272.39999389648</ele>
        <time>2023-05-27T10:42:54.000Z</time>
      </trkpt>
      <trkpt lat="43.70982" lon="3.19595">
        <ele>272.20001220703</ele>
        <time>2023-05-27T10:42:57.000Z</time>
      </trkpt>
      <trkpt lat="43.70977" lon="3.19596">
        <ele>271.79998779297</ele>
        <time>2023-05-27T10:43:03.000Z</time>
      </trkpt>
      <trkpt lat="43.70976" lon="3.19598">
        <ele>271.60000610352</ele>
        <time>2023-05-27T10:43:08.000Z</time>
      </trkpt>
      <trkpt lat="43.70976" lon="3.19597">
        <ele>271.39999389648</ele>
        <time>2023-05-27T10:43:09.000Z</time>
      </trkpt>
      <trkpt lat="43.70971" lon="3.19596">
        <ele>271.39999389648</ele>
        <time>2023-05-27T10:43:15.000Z</time>
      </trkpt>
      <trkpt lat="43.7097" lon="3.19595">
        <ele>270.79998779297</ele>
        <time>2023-05-27T10:43:22.000Z</time>
      </trkpt>
      <trkpt lat="43.7097" lon="3.19596">
        <ele>270.60000610352</ele>
        <time>2023-05-27T10:43:24.000Z</time>
      </trkpt>
      <trkpt lat="43.70969" lon="3.19596">
        <ele>271</ele>
        <time>2023-05-27T10:43:31.000Z</time>
      </trkpt>
      <trkpt lat="43.70966" lon="3.19592">
        <ele>271</ele>
        <time>2023-05-27T10:43:41.000Z</time>
      </trkpt>
      <trkpt lat="43.70969" lon="3.19594">
        <ele>270.39999389648</ele>
        <time>2023-05-27T10:43:53.000Z</time>
      </trkpt>
      <trkpt lat="43.70961" lon="3.19588">
        <ele>271.60000610352</ele>
        <time>2023-05-27T10:44:00.000Z</time>
      </trkpt>
      <trkpt lat="43.70961" lon="3.19588">
        <ele>271.39999389648</ele>
        <time>2023-05-27T10:44:03.000Z</time>
      </trkpt>
      <trkpt lat="43.70961" lon="3.19588">
        <ele>271.39999389648</ele>
        <time>2023-05-27T10:44:11.000Z</time>
      </trkpt>
      <trkpt lat="43.7096" lon="3.19586">
        <ele>271.39999389648</ele>
        <time>2023-05-27T10:44:22.000Z</time>
      </trkpt>
      <trkpt lat="43.70959" lon="3.19585">
        <ele>271.39999389648</ele>
        <time>2023-05-27T10:44:32.000Z</time>
      </trkpt>
      <trkpt lat="43.70957" lon="3.19584">
        <ele>271.20001220703</ele>
        <time>2023-05-27T10:44:40.000Z</time>
      </trkpt>
      <trkpt lat="43.70955" lon="3.19581">
        <ele>271</ele>
        <time>2023-05-27T10:44:50.000Z</time>
      </trkpt>
      <trkpt lat="43.70955" lon="3.19581">
        <ele>271</ele>
        <time>2023-05-27T10:45:04.000Z</time>
      </trkpt>
      <trkpt lat="43.70952" lon="3.19581">
        <ele>270.79998779297</ele>
        <time>2023-05-27T10:45:12.000Z</time>
      </trkpt>
      <trkpt lat="43.70943" lon="3.19583">
        <ele>270.39999389648</ele>
        <time>2023-05-27T10:45:21.000Z</time>
      </trkpt>
      <trkpt lat="43.70937" lon="3.19586">
        <ele>270</ele>
        <time>2023-05-27T10:45:27.000Z</time>
      </trkpt>
      <trkpt lat="43.70938" lon="3.19586">
        <ele>269.79998779297</ele>
        <time>2023-05-27T10:45:29.000Z</time>
      </trkpt>
      <trkpt lat="43.70934" lon="3.19587">
        <ele>269.60000610352</ele>
        <time>2023-05-27T10:45:34.000Z</time>
      </trkpt>
      <trkpt lat="43.70927" lon="3.19589">
        <ele>269.39999389648</ele>
        <time>2023-05-27T10:45:40.000Z</time>
      </trkpt>
      <trkpt lat="43.70924" lon="3.1959">
        <ele>269.20001220703</ele>
        <time>2023-05-27T10:45:43.000Z</time>
      </trkpt>
      <trkpt lat="43.70917" lon="3.19599">
        <ele>268.60000610352</ele>
        <time>2023-05-27T10:45:51.000Z</time>
      </trkpt>
      <trkpt lat="43.70914" lon="3.19602">
        <ele>268.39999389648</ele>
        <time>2023-05-27T10:45:54.000Z</time>
      </trkpt>
      <trkpt lat="43.70908" lon="3.19605">
        <ele>268</ele>
        <time>2023-05-27T10:46:00.000Z</time>
      </trkpt>
      <trkpt lat="43.709" lon="3.19605">
        <ele>267.39999389648</ele>
        <time>2023-05-27T10:46:07.000Z</time>
      </trkpt>
      <trkpt lat="43.70891" lon="3.19604">
        <ele>267</ele>
        <time>2023-05-27T10:46:15.000Z</time>
      </trkpt>
      <trkpt lat="43.70886" lon="3.19603">
        <ele>266.79998779297</ele>
        <time>2023-05-27T10:46:20.000Z</time>
      </trkpt>
      <trkpt lat="43.70885" lon="3.19603">
        <ele>266.60000610352</ele>
        <time>2023-05-27T10:46:23.000Z</time>
      </trkpt>
      <trkpt lat="43.70884" lon="3.19595">
        <ele>266.60000610352</ele>
        <time>2023-05-27T10:46:31.000Z</time>
      </trkpt>
      <trkpt lat="43.70881" lon="3.19582">
        <ele>266.39999389648</ele>
        <time>2023-05-27T10:46:39.000Z</time>
      </trkpt>
      <trkpt lat="43.70879" lon="3.19568">
        <ele>266.39999389648</ele>
        <time>2023-05-27T10:46:48.000Z</time>
      </trkpt>
      <trkpt lat="43.70879" lon="3.19566">
        <ele>266.39999389648</ele>
        <time>2023-05-27T10:46:51.000Z</time>
      </trkpt>
      <trkpt lat="43.70879" lon="3.19564">
        <ele>266.39999389648</ele>
        <time>2023-05-27T10:46:53.000Z</time>
      </trkpt>
      <trkpt lat="43.70879" lon="3.19563">
        <ele>266.39999389648</ele>
        <time>2023-05-27T10:46:54.000Z</time>
      </trkpt>
      <trkpt lat="43.70878" lon="3.1956">
        <ele>266.39999389648</ele>
        <time>2023-05-27T10:46:57.000Z</time>
      </trkpt>
      <trkpt lat="43.70878" lon="3.19559">
        <ele>266.60000610352</ele>
        <time>2023-05-27T10:47:00.000Z</time>
      </trkpt>
      <trkpt lat="43.70879" lon="3.19554">
        <ele>266.60000610352</ele>
        <time>2023-05-27T10:47:08.000Z</time>
      </trkpt>
      <trkpt lat="43.70883" lon="3.19555">
        <ele>266.39999389648</ele>
        <time>2023-05-27T10:47:14.000Z</time>
      </trkpt>
      <trkpt lat="43.70882" lon="3.19553">
        <ele>266.39999389648</ele>
        <time>2023-05-27T10:47:21.000Z</time>
      </trkpt>
      <trkpt lat="43.7088" lon="3.19541">
        <ele>266.39999389648</ele>
        <time>2023-05-27T10:47:29.000Z</time>
      </trkpt>
      <trkpt lat="43.70879" lon="3.1952">
        <ele>266.20001220703</ele>
        <time>2023-05-27T10:47:41.000Z</time>
      </trkpt>
      <trkpt lat="43.70877" lon="3.19506">
        <ele>265.60000610352</ele>
        <time>2023-05-27T10:47:50.000Z</time>
      </trkpt>
      <trkpt lat="43.70875" lon="3.19498">
        <ele>265.60000610352</ele>
        <time>2023-05-27T10:47:55.000Z</time>
      </trkpt>
      <trkpt lat="43.70876" lon="3.19496">
        <ele>265.60000610352</ele>
        <time>2023-05-27T10:47:57.000Z</time>
      </trkpt>
      <trkpt lat="43.70877" lon="3.19495">
        <ele>265.60000610352</ele>
        <time>2023-05-27T10:47:59.000Z</time>
      </trkpt>
      <trkpt lat="43.70877" lon="3.19493">
        <ele>265.39999389648</ele>
        <time>2023-05-27T10:48:00.000Z</time>
      </trkpt>
      <trkpt lat="43.70877" lon="3.19492">
        <ele>265.39999389648</ele>
        <time>2023-05-27T10:48:02.000Z</time>
      </trkpt>
      <trkpt lat="43.70879" lon="3.19491">
        <ele>265.39999389648</ele>
        <time>2023-05-27T10:48:04.000Z</time>
      </trkpt>
      <trkpt lat="43.70879" lon="3.19491">
        <ele>265.60000610352</ele>
        <time>2023-05-27T10:48:05.000Z</time>
      </trkpt>
      <trkpt lat="43.7088" lon="3.19491">
        <ele>265.60000610352</ele>
        <time>2023-05-27T10:48:08.000Z</time>
      </trkpt>
      <trkpt lat="43.70881" lon="3.19489">
        <ele>265.79998779297</ele>
        <time>2023-05-27T10:48:15.000Z</time>
      </trkpt>
      <trkpt lat="43.70881" lon="3.19491">
        <ele>265.79998779297</ele>
        <time>2023-05-27T10:48:20.000Z</time>
      </trkpt>
      <trkpt lat="43.7088" lon="3.19496">
        <ele>265.60000610352</ele>
        <time>2023-05-27T10:48:26.000Z</time>
      </trkpt>
      <trkpt lat="43.70874" lon="3.19495">
        <ele>265.60000610352</ele>
        <time>2023-05-27T10:48:32.000Z</time>
      </trkpt>
      <trkpt lat="43.70871" lon="3.19494">
        <ele>265.60000610352</ele>
        <time>2023-05-27T10:48:35.000Z</time>
      </trkpt>
      <trkpt lat="43.70868" lon="3.1949">
        <ele>265.39999389648</ele>
        <time>2023-05-27T10:48:38.000Z</time>
      </trkpt>
      <trkpt lat="43.70869" lon="3.1949">
        <ele>265.39999389648</ele>
        <time>2023-05-27T10:48:42.000Z</time>
      </trkpt>
      <trkpt lat="43.70871" lon="3.1949">
        <ele>265.60000610352</ele>
        <time>2023-05-27T10:48:49.000Z</time>
      </trkpt>
      <trkpt lat="43.70874" lon="3.19493">
        <ele>265.39999389648</ele>
        <time>2023-05-27T10:48:55.000Z</time>
      </trkpt>
      <trkpt lat="43.70874" lon="3.19494">
        <ele>265.60000610352</ele>
        <time>2023-05-27T10:49:00.000Z</time>
      </trkpt>
      <trkpt lat="43.70875" lon="3.19495">
        <ele>265.39999389648</ele>
        <time>2023-05-27T10:49:06.000Z</time>
      </trkpt>
      <trkpt lat="43.70875" lon="3.19495">
        <ele>265.20001220703</ele>
        <time>2023-05-27T10:49:11.000Z</time>
      </trkpt>
      <trkpt lat="43.70876" lon="3.19494">
        <ele>265.60000610352</ele>
        <time>2023-05-27T10:49:18.000Z</time>
      </trkpt>
      <trkpt lat="43.70877" lon="3.19494">
        <ele>265.60000610352</ele>
        <time>2023-05-27T10:49:25.000Z</time>
      </trkpt>
      <trkpt lat="43.70878" lon="3.19494">
        <ele>265.79998779297</ele>
        <time>2023-05-27T10:49:31.000Z</time>
      </trkpt>
      <trkpt lat="43.70877" lon="3.19492">
        <ele>265.39999389648</ele>
        <time>2023-05-27T10:49:36.000Z</time>
      </trkpt>
      <trkpt lat="43.70877" lon="3.1949">
        <ele>265.39999389648</ele>
        <time>2023-05-27T10:49:43.000Z</time>
      </trkpt>
      <trkpt lat="43.70879" lon="3.19491">
        <ele>265.39999389648</ele>
        <time>2023-05-27T10:49:50.000Z</time>
      </trkpt>
      <trkpt lat="43.70878" lon="3.19493">
        <ele>265.39999389648</ele>
        <time>2023-05-27T10:49:55.000Z</time>
      </trkpt>
      <trkpt lat="43.70875" lon="3.19494">
        <ele>267</ele>
        <time>2023-05-27T11:19:01.000Z</time>
      </trkpt>
      <trkpt lat="43.70876" lon="3.19493">
        <ele>267.20001220703</ele>
        <time>2023-05-27T11:19:09.000Z</time>
      </trkpt>
      <trkpt lat="43.70875" lon="3.19493">
        <ele>267.20001220703</ele>
        <time>2023-05-27T11:19:16.000Z</time>
      </trkpt>
      <trkpt lat="43.70874" lon="3.19493">
        <ele>267.39999389648</ele>
        <time>2023-05-27T11:19:22.000Z</time>
      </trkpt>
      <trkpt lat="43.70874" lon="3.19495">
        <ele>267.20001220703</ele>
        <time>2023-05-27T11:19:29.000Z</time>
      </trkpt>
      <trkpt lat="43.70873" lon="3.19494">
        <ele>267.60000610352</ele>
        <time>2023-05-27T11:19:35.000Z</time>
      </trkpt>
      <trkpt lat="43.70872" lon="3.19496">
        <ele>267.39999389648</ele>
        <time>2023-05-27T11:19:41.000Z</time>
      </trkpt>
      <trkpt lat="43.7087" lon="3.19498">
        <ele>267.39999389648</ele>
        <time>2023-05-27T11:19:49.000Z</time>
      </trkpt>
      <trkpt lat="43.70869" lon="3.19494">
        <ele>267.39999389648</ele>
        <time>2023-05-27T11:19:55.000Z</time>
      </trkpt>
      <trkpt lat="43.7087" lon="3.19489">
        <ele>267.39999389648</ele>
        <time>2023-05-27T11:20:04.000Z</time>
      </trkpt>
      <trkpt lat="43.7087" lon="3.19488">
        <ele>267.60000610352</ele>
        <time>2023-05-27T11:20:14.000Z</time>
      </trkpt>
      <trkpt lat="43.7087" lon="3.19489">
        <ele>267.20001220703</ele>
        <time>2023-05-27T11:20:25.000Z</time>
      </trkpt>
      <trkpt lat="43.7087" lon="3.19491">
        <ele>267.39999389648</ele>
        <time>2023-05-27T11:20:32.000Z</time>
      </trkpt>
      <trkpt lat="43.70871" lon="3.19492">
        <ele>267.39999389648</ele>
        <time>2023-05-27T11:20:44.000Z</time>
      </trkpt>
      <trkpt lat="43.7087" lon="3.19491">
        <ele>267.39999389648</ele>
        <time>2023-05-27T11:20:51.000Z</time>
      </trkpt>
      <trkpt lat="43.70864" lon="3.19493">
        <ele>267.20001220703</ele>
        <time>2023-05-27T11:20:58.000Z</time>
      </trkpt>
      <trkpt lat="43.70859" lon="3.19491">
        <ele>267.39999389648</ele>
        <time>2023-05-27T11:21:05.000Z</time>
      </trkpt>
      <trkpt lat="43.70853" lon="3.19485">
        <ele>267</ele>
        <time>2023-05-27T11:21:12.000Z</time>
      </trkpt>
      <trkpt lat="43.70843" lon="3.19476">
        <ele>266.79998779297</ele>
        <time>2023-05-27T11:21:21.000Z</time>
      </trkpt>
      <trkpt lat="43.7084" lon="3.19473">
        <ele>266.60000610352</ele>
        <time>2023-05-27T11:21:25.000Z</time>
      </trkpt>
      <trkpt lat="43.70836" lon="3.19472">
        <ele>266.79998779297</ele>
        <time>2023-05-27T11:21:28.000Z</time>
      </trkpt>
      <trkpt lat="43.70832" lon="3.19469">
        <ele>266.60000610352</ele>
        <time>2023-05-27T11:21:32.000Z</time>
      </trkpt>
      <trkpt lat="43.7083" lon="3.19467">
        <ele>266.60000610352</ele>
        <time>2023-05-27T11:21:34.000Z</time>
      </trkpt>
      <trkpt lat="43.70826" lon="3.19464">
        <ele>266.60000610352</ele>
        <time>2023-05-27T11:21:38.000Z</time>
      </trkpt>
      <trkpt lat="43.70824" lon="3.19461">
        <ele>266.60000610352</ele>
        <time>2023-05-27T11:21:40.000Z</time>
      </trkpt>
      <trkpt lat="43.70823" lon="3.1946">
        <ele>266.60000610352</ele>
        <time>2023-05-27T11:21:41.000Z</time>
      </trkpt>
      <trkpt lat="43.70819" lon="3.1946">
        <ele>266.60000610352</ele>
        <time>2023-05-27T11:21:45.000Z</time>
      </trkpt>
      <trkpt lat="43.70815" lon="3.19469">
        <ele>266.60000610352</ele>
        <time>2023-05-27T11:21:54.000Z</time>
      </trkpt>
      <trkpt lat="43.70811" lon="3.19474">
        <ele>266.60000610352</ele>
        <time>2023-05-27T11:21:59.000Z</time>
      </trkpt>
      <trkpt lat="43.70811" lon="3.19474">
        <ele>266.60000610352</ele>
        <time>2023-05-27T11:22:02.000Z</time>
      </trkpt>
      <trkpt lat="43.70809" lon="3.19479">
        <ele>266.39999389648</ele>
        <time>2023-05-27T11:22:11.000Z</time>
      </trkpt>
      <trkpt lat="43.70809" lon="3.1948">
        <ele>266.60000610352</ele>
        <time>2023-05-27T11:22:19.000Z</time>
      </trkpt>
      <trkpt lat="43.7081" lon="3.19482">
        <ele>266.60000610352</ele>
        <time>2023-05-27T11:22:27.000Z</time>
      </trkpt>
      <trkpt lat="43.70808" lon="3.19488">
        <ele>266.20001220703</ele>
        <time>2023-05-27T11:22:35.000Z</time>
      </trkpt>
      <trkpt lat="43.70808" lon="3.19489">
        <ele>265.60000610352</ele>
        <time>2023-05-27T11:22:37.000Z</time>
      </trkpt>
      <trkpt lat="43.70806" lon="3.19495">
        <ele>264.60000610352</ele>
        <time>2023-05-27T11:22:42.000Z</time>
      </trkpt>
      <trkpt lat="43.70805" lon="3.19497">
        <ele>264.60000610352</ele>
        <time>2023-05-27T11:22:43.000Z</time>
      </trkpt>
      <trkpt lat="43.708" lon="3.19512">
        <ele>264</ele>
        <time>2023-05-27T11:22:54.000Z</time>
      </trkpt>
      <trkpt lat="43.70796" lon="3.19526">
        <ele>263.79998779297</ele>
        <time>2023-05-27T11:23:04.000Z</time>
      </trkpt>
      <trkpt lat="43.70795" lon="3.1953">
        <ele>263.60000610352</ele>
        <time>2023-05-27T11:23:08.000Z</time>
      </trkpt>
      <trkpt lat="43.70794" lon="3.1953">
        <ele>263.60000610352</ele>
        <time>2023-05-27T11:23:09.000Z</time>
      </trkpt>
      <trkpt lat="43.70792" lon="3.19531">
        <ele>263.20001220703</ele>
        <time>2023-05-27T11:23:12.000Z</time>
      </trkpt>
      <trkpt lat="43.70792" lon="3.19533">
        <ele>263.20001220703</ele>
        <time>2023-05-27T11:23:19.000Z</time>
      </trkpt>
      <trkpt lat="43.70792" lon="3.19533">
        <ele>263.20001220703</ele>
        <time>2023-05-27T11:23:31.000Z</time>
      </trkpt>
      <trkpt lat="43.70793" lon="3.19532">
        <ele>263</ele>
        <time>2023-05-27T11:23:42.000Z</time>
      </trkpt>
      <trkpt lat="43.70791" lon="3.19532">
        <ele>263.20001220703</ele>
        <time>2023-05-27T11:23:49.000Z</time>
      </trkpt>
      <trkpt lat="43.70791" lon="3.1953">
        <ele>263.20001220703</ele>
        <time>2023-05-27T11:23:56.000Z</time>
      </trkpt>
      <trkpt lat="43.70791" lon="3.1953">
        <ele>263</ele>
        <time>2023-05-27T11:24:05.000Z</time>
      </trkpt>
      <trkpt lat="43.70793" lon="3.1953">
        <ele>263</ele>
        <time>2023-05-27T11:24:14.000Z</time>
      </trkpt>
      <trkpt lat="43.70793" lon="3.19531">
        <ele>262.60000610352</ele>
        <time>2023-05-27T11:24:19.000Z</time>
      </trkpt>
      <trkpt lat="43.70793" lon="3.19531">
        <ele>262.60000610352</ele>
        <time>2023-05-27T11:24:20.000Z</time>
      </trkpt>
      <trkpt lat="43.70792" lon="3.19529">
        <ele>267.39999389648</ele>
        <time>2023-05-27T12:12:54.000Z</time>
      </trkpt>
      <trkpt lat="43.7079" lon="3.19526">
        <ele>267.20001220703</ele>
        <time>2023-05-27T12:12:58.000Z</time>
      </trkpt>
      <trkpt lat="43.70786" lon="3.19519">
        <ele>267</ele>
        <time>2023-05-27T12:13:06.000Z</time>
      </trkpt>
      <trkpt lat="43.70785" lon="3.19516">
        <ele>266.79998779297</ele>
        <time>2023-05-27T12:13:09.000Z</time>
      </trkpt>
      <trkpt lat="43.70782" lon="3.19512">
        <ele>266.79998779297</ele>
        <time>2023-05-27T12:13:13.000Z</time>
      </trkpt>
      <trkpt lat="43.70781" lon="3.19511">
        <ele>266.79998779297</ele>
        <time>2023-05-27T12:13:15.000Z</time>
      </trkpt>
      <trkpt lat="43.7078" lon="3.19511">
        <ele>266.79998779297</ele>
        <time>2023-05-27T12:13:16.000Z</time>
      </trkpt>
      <trkpt lat="43.70778" lon="3.19509">
        <ele>266.60000610352</ele>
        <time>2023-05-27T12:13:20.000Z</time>
      </trkpt>
      <trkpt lat="43.70773" lon="3.19508">
        <ele>266.60000610352</ele>
        <time>2023-05-27T12:13:27.000Z</time>
      </trkpt>
      <trkpt lat="43.70766" lon="3.19514">
        <ele>267</ele>
        <time>2023-05-27T12:13:35.000Z</time>
      </trkpt>
      <trkpt lat="43.7076" lon="3.1952">
        <ele>267.20001220703</ele>
        <time>2023-05-27T12:13:43.000Z</time>
      </trkpt>
      <trkpt lat="43.70754" lon="3.19526">
        <ele>267.39999389648</ele>
        <time>2023-05-27T12:13:50.000Z</time>
      </trkpt>
      <trkpt lat="43.70754" lon="3.19526">
        <ele>267.20001220703</ele>
        <time>2023-05-27T12:13:57.000Z</time>
      </trkpt>
      <trkpt lat="43.7075" lon="3.19521">
        <ele>266.60000610352</ele>
        <time>2023-05-27T12:14:03.000Z</time>
      </trkpt>
      <trkpt lat="43.70747" lon="3.19515">
        <ele>266.60000610352</ele>
        <time>2023-05-27T12:14:09.000Z</time>
      </trkpt>
      <trkpt lat="43.70747" lon="3.19513">
        <ele>266.39999389648</ele>
        <time>2023-05-27T12:14:16.000Z</time>
      </trkpt>
      <trkpt lat="43.70748" lon="3.19513">
        <ele>266.20001220703</ele>
        <time>2023-05-27T12:14:18.000Z</time>
      </trkpt>
      <trkpt lat="43.7075" lon="3.19511">
        <ele>265.79998779297</ele>
        <time>2023-05-27T12:14:20.000Z</time>
      </trkpt>
      <trkpt lat="43.70752" lon="3.19509">
        <ele>265.79998779297</ele>
        <time>2023-05-27T12:14:30.000Z</time>
      </trkpt>
      <trkpt lat="43.70754" lon="3.19508">
        <ele>265.79998779297</ele>
        <time>2023-05-27T12:14:43.000Z</time>
      </trkpt>
      <trkpt lat="43.70752" lon="3.19504">
        <ele>265.79998779297</ele>
        <time>2023-05-27T12:14:53.000Z</time>
      </trkpt>
      <trkpt lat="43.70752" lon="3.19499">
        <ele>266.39999389648</ele>
        <time>2023-05-27T12:14:58.000Z</time>
      </trkpt>
      <trkpt lat="43.70748" lon="3.19494">
        <ele>266.39999389648</ele>
        <time>2023-05-27T12:15:03.000Z</time>
      </trkpt>
      <trkpt lat="43.70745" lon="3.19492">
        <ele>266.60000610352</ele>
        <time>2023-05-27T12:15:08.000Z</time>
      </trkpt>
      <trkpt lat="43.70744" lon="3.19494">
        <ele>266.79998779297</ele>
        <time>2023-05-27T12:15:09.000Z</time>
      </trkpt>
      <trkpt lat="43.70745" lon="3.19495">
        <ele>266.79998779297</ele>
        <time>2023-05-27T12:15:11.000Z</time>
      </trkpt>
      <trkpt lat="43.70742" lon="3.19495">
        <ele>267.20001220703</ele>
        <time>2023-05-27T12:15:15.000Z</time>
      </trkpt>
      <trkpt lat="43.70737" lon="3.19494">
        <ele>267.39999389648</ele>
        <time>2023-05-27T12:15:17.000Z</time>
      </trkpt>
      <trkpt lat="43.70735" lon="3.19495">
        <ele>267.60000610352</ele>
        <time>2023-05-27T12:15:19.000Z</time>
      </trkpt>
      <trkpt lat="43.70732" lon="3.19495">
        <ele>267.79998779297</ele>
        <time>2023-05-27T12:15:21.000Z</time>
      </trkpt>
      <trkpt lat="43.7073" lon="3.19498">
        <ele>268</ele>
        <time>2023-05-27T12:15:23.000Z</time>
      </trkpt>
      <trkpt lat="43.70727" lon="3.195">
        <ele>268.20001220703</ele>
        <time>2023-05-27T12:15:25.000Z</time>
      </trkpt>
      <trkpt lat="43.70725" lon="3.19498">
        <ele>268.39999389648</ele>
        <time>2023-05-27T12:15:27.000Z</time>
      </trkpt>
      <trkpt lat="43.70723" lon="3.19493">
        <ele>269</ele>
        <time>2023-05-27T12:15:32.000Z</time>
      </trkpt>
      <trkpt lat="43.70723" lon="3.19491">
        <ele>269</ele>
        <time>2023-05-27T12:15:34.000Z</time>
      </trkpt>
      <trkpt lat="43.70722" lon="3.19488">
        <ele>269</ele>
        <time>2023-05-27T12:15:35.000Z</time>
      </trkpt>
      <trkpt lat="43.7072" lon="3.19485">
        <ele>269</ele>
        <time>2023-05-27T12:15:37.000Z</time>
      </trkpt>
      <trkpt lat="43.70717" lon="3.19481">
        <ele>268.79998779297</ele>
        <time>2023-05-27T12:15:39.000Z</time>
      </trkpt>
      <trkpt lat="43.70715" lon="3.19478">
        <ele>268.79998779297</ele>
        <time>2023-05-27T12:15:41.000Z</time>
      </trkpt>
      <trkpt lat="43.70712" lon="3.19474">
        <ele>268.60000610352</ele>
        <time>2023-05-27T12:15:44.000Z</time>
      </trkpt>
      <trkpt lat="43.70706" lon="3.1947">
        <ele>268.20001220703</ele>
        <time>2023-05-27T12:15:49.000Z</time>
      </trkpt>
      <trkpt lat="43.70706" lon="3.19471">
        <ele>268</ele>
        <time>2023-05-27T12:15:50.000Z</time>
      </trkpt>
      <trkpt lat="43.70706" lon="3.19465">
        <ele>268</ele>
        <time>2023-05-27T12:15:57.000Z</time>
      </trkpt>
      <trkpt lat="43.70702" lon="3.1946">
        <ele>267.79998779297</ele>
        <time>2023-05-27T12:16:02.000Z</time>
      </trkpt>
      <trkpt lat="43.70699" lon="3.19459">
        <ele>267.79998779297</ele>
        <time>2023-05-27T12:16:05.000Z</time>
      </trkpt>
      <trkpt lat="43.70698" lon="3.19458">
        <ele>267.79998779297</ele>
        <time>2023-05-27T12:16:06.000Z</time>
      </trkpt>
      <trkpt lat="43.70696" lon="3.19449">
        <ele>267.60000610352</ele>
        <time>2023-05-27T12:16:11.000Z</time>
      </trkpt>
      <trkpt lat="43.707" lon="3.19446">
        <ele>267.39999389648</ele>
        <time>2023-05-27T12:16:16.000Z</time>
      </trkpt>
      <trkpt lat="43.707" lon="3.19446">
        <ele>267.20001220703</ele>
        <time>2023-05-27T12:16:18.000Z</time>
      </trkpt>
      <trkpt lat="43.707" lon="3.19446">
        <ele>267.20001220703</ele>
        <time>2023-05-27T12:16:20.000Z</time>
      </trkpt>
      <trkpt lat="43.707" lon="3.19449">
        <ele>267</ele>
        <time>2023-05-27T12:16:22.000Z</time>
      </trkpt>
      <trkpt lat="43.70699" lon="3.19452">
        <ele>267.20001220703</ele>
        <time>2023-05-27T12:16:27.000Z</time>
      </trkpt>
      <trkpt lat="43.70698" lon="3.19456">
        <ele>267.60000610352</ele>
        <time>2023-05-27T12:16:32.000Z</time>
      </trkpt>
      <trkpt lat="43.70695" lon="3.19451">
        <ele>267.60000610352</ele>
        <time>2023-05-27T12:16:39.000Z</time>
      </trkpt>
      <trkpt lat="43.707" lon="3.19446">
        <ele>267</ele>
        <time>2023-05-27T12:16:44.000Z</time>
      </trkpt>
      <trkpt lat="43.70709" lon="3.19439">
        <ele>266.39999389648</ele>
        <time>2023-05-27T12:16:51.000Z</time>
      </trkpt>
      <trkpt lat="43.70711" lon="3.19436">
        <ele>266.20001220703</ele>
        <time>2023-05-27T12:16:54.000Z</time>
      </trkpt>
      <trkpt lat="43.70712" lon="3.19434">
        <ele>266</ele>
        <time>2023-05-27T12:16:56.000Z</time>
      </trkpt>
      <trkpt lat="43.70712" lon="3.19432">
        <ele>266</ele>
        <time>2023-05-27T12:16:57.000Z</time>
      </trkpt>
      <trkpt lat="43.70713" lon="3.1943">
        <ele>265.79998779297</ele>
        <time>2023-05-27T12:16:59.000Z</time>
      </trkpt>
      <trkpt lat="43.70714" lon="3.19428">
        <ele>265.79998779297</ele>
        <time>2023-05-27T12:17:01.000Z</time>
      </trkpt>
      <trkpt lat="43.70715" lon="3.19425">
        <ele>265.79998779297</ele>
        <time>2023-05-27T12:17:03.000Z</time>
      </trkpt>
      <trkpt lat="43.70715" lon="3.19422">
        <ele>265.60000610352</ele>
        <time>2023-05-27T12:17:05.000Z</time>
      </trkpt>
      <trkpt lat="43.70714" lon="3.1942">
        <ele>265.60000610352</ele>
        <time>2023-05-27T12:17:07.000Z</time>
      </trkpt>
      <trkpt lat="43.70714" lon="3.19416">
        <ele>265.60000610352</ele>
        <time>2023-05-27T12:17:09.000Z</time>
      </trkpt>
      <trkpt lat="43.70714" lon="3.19414">
        <ele>265.60000610352</ele>
        <time>2023-05-27T12:17:14.000Z</time>
      </trkpt>
      <trkpt lat="43.70711" lon="3.19406">
        <ele>265.39999389648</ele>
        <time>2023-05-27T12:17:21.000Z</time>
      </trkpt>
      <trkpt lat="43.7071" lon="3.19403">
        <ele>265.39999389648</ele>
        <time>2023-05-27T12:17:22.000Z</time>
      </trkpt>
      <trkpt lat="43.70711" lon="3.19396">
        <ele>265.60000610352</ele>
        <time>2023-05-27T12:17:26.000Z</time>
      </trkpt>
      <trkpt lat="43.70706" lon="3.19386">
        <ele>265.39999389648</ele>
        <time>2023-05-27T12:17:33.000Z</time>
      </trkpt>
      <trkpt lat="43.70703" lon="3.19378">
        <ele>265.39999389648</ele>
        <time>2023-05-27T12:17:38.000Z</time>
      </trkpt>
      <trkpt lat="43.70702" lon="3.19374">
        <ele>265.39999389648</ele>
        <time>2023-05-27T12:17:41.000Z</time>
      </trkpt>
      <trkpt lat="43.70699" lon="3.19364">
        <ele>265.39999389648</ele>
        <time>2023-05-27T12:17:48.000Z</time>
      </trkpt>
      <trkpt lat="43.70698" lon="3.19363">
        <ele>265.39999389648</ele>
        <time>2023-05-27T12:17:49.000Z</time>
      </trkpt>
      <trkpt lat="43.70699" lon="3.19357">
        <ele>265.39999389648</ele>
        <time>2023-05-27T12:17:53.000Z</time>
      </trkpt>
      <trkpt lat="43.70698" lon="3.19353">
        <ele>265.39999389648</ele>
        <time>2023-05-27T12:17:56.000Z</time>
      </trkpt>
      <trkpt lat="43.70698" lon="3.19351">
        <ele>265.39999389648</ele>
        <time>2023-05-27T12:17:58.000Z</time>
      </trkpt>
      <trkpt lat="43.70698" lon="3.1935">
        <ele>265.39999389648</ele>
        <time>2023-05-27T12:17:59.000Z</time>
      </trkpt>
      <trkpt lat="43.70697" lon="3.19345">
        <ele>265.79998779297</ele>
        <time>2023-05-27T12:18:07.000Z</time>
      </trkpt>
      <trkpt lat="43.70694" lon="3.1934">
        <ele>265.79998779297</ele>
        <time>2023-05-27T12:18:15.000Z</time>
      </trkpt>
      <trkpt lat="43.70694" lon="3.19341">
        <ele>265.60000610352</ele>
        <time>2023-05-27T12:18:23.000Z</time>
      </trkpt>
      <trkpt lat="43.70693" lon="3.19333">
        <ele>265.60000610352</ele>
        <time>2023-05-27T12:18:31.000Z</time>
      </trkpt>
      <trkpt lat="43.70689" lon="3.19324">
        <ele>265.60000610352</ele>
        <time>2023-05-27T12:18:38.000Z</time>
      </trkpt>
      <trkpt lat="43.70688" lon="3.19322">
        <ele>265.60000610352</ele>
        <time>2023-05-27T12:18:40.000Z</time>
      </trkpt>
      <trkpt lat="43.70686" lon="3.19316">
        <ele>265.39999389648</ele>
        <time>2023-05-27T12:18:45.000Z</time>
      </trkpt>
      <trkpt lat="43.70685" lon="3.19313">
        <ele>265.39999389648</ele>
        <time>2023-05-27T12:18:47.000Z</time>
      </trkpt>
      <trkpt lat="43.70683" lon="3.19307">
        <ele>265.39999389648</ele>
        <time>2023-05-27T12:18:52.000Z</time>
      </trkpt>
      <trkpt lat="43.7068" lon="3.19301">
        <ele>265.39999389648</ele>
        <time>2023-05-27T12:18:56.000Z</time>
      </trkpt>
      <trkpt lat="43.70678" lon="3.19293">
        <ele>265.20001220703</ele>
        <time>2023-05-27T12:19:02.000Z</time>
      </trkpt>
      <trkpt lat="43.70678" lon="3.19291">
        <ele>265.20001220703</ele>
        <time>2023-05-27T12:19:03.000Z</time>
      </trkpt>
      <trkpt lat="43.70676" lon="3.19285">
        <ele>265.20001220703</ele>
        <time>2023-05-27T12:19:07.000Z</time>
      </trkpt>
      <trkpt lat="43.70675" lon="3.19283">
        <ele>265.39999389648</ele>
        <time>2023-05-27T12:19:09.000Z</time>
      </trkpt>
      <trkpt lat="43.70673" lon="3.19281">
        <ele>265.39999389648</ele>
        <time>2023-05-27T12:19:11.000Z</time>
      </trkpt>
      <trkpt lat="43.70673" lon="3.19279">
        <ele>265.39999389648</ele>
        <time>2023-05-27T12:19:12.000Z</time>
      </trkpt>
      <trkpt lat="43.70672" lon="3.19275">
        <ele>265.39999389648</ele>
        <time>2023-05-27T12:19:15.000Z</time>
      </trkpt>
      <trkpt lat="43.70668" lon="3.19265">
        <ele>265.39999389648</ele>
        <time>2023-05-27T12:19:22.000Z</time>
      </trkpt>
      <trkpt lat="43.70663" lon="3.19249">
        <ele>265</ele>
        <time>2023-05-27T12:19:33.000Z</time>
      </trkpt>
      <trkpt lat="43.70658" lon="3.19235">
        <ele>265</ele>
        <time>2023-05-27T12:19:42.000Z</time>
      </trkpt>
      <trkpt lat="43.70653" lon="3.19221">
        <ele>264.79998779297</ele>
        <time>2023-05-27T12:19:52.000Z</time>
      </trkpt>
      <trkpt lat="43.70649" lon="3.1921">
        <ele>264.79998779297</ele>
        <time>2023-05-27T12:19:59.000Z</time>
      </trkpt>
      <trkpt lat="43.70644" lon="3.19198">
        <ele>264.79998779297</ele>
        <time>2023-05-27T12:20:07.000Z</time>
      </trkpt>
      <trkpt lat="43.70639" lon="3.19185">
        <ele>265</ele>
        <time>2023-05-27T12:20:16.000Z</time>
      </trkpt>
      <trkpt lat="43.70634" lon="3.19175">
        <ele>264.79998779297</ele>
        <time>2023-05-27T12:20:24.000Z</time>
      </trkpt>
      <trkpt lat="43.70628" lon="3.19162">
        <ele>264.60000610352</ele>
        <time>2023-05-27T12:20:34.000Z</time>
      </trkpt>
      <trkpt lat="43.70621" lon="3.19151">
        <ele>264.60000610352</ele>
        <time>2023-05-27T12:20:43.000Z</time>
      </trkpt>
      <trkpt lat="43.70613" lon="3.19139">
        <ele>264.39999389648</ele>
        <time>2023-05-27T12:20:52.000Z</time>
      </trkpt>
      <trkpt lat="43.70607" lon="3.19128">
        <ele>264.20001220703</ele>
        <time>2023-05-27T12:21:00.000Z</time>
      </trkpt>
      <trkpt lat="43.70606" lon="3.19127">
        <ele>264.20001220703</ele>
        <time>2023-05-27T12:21:01.000Z</time>
      </trkpt>
      <trkpt lat="43.70599" lon="3.19113">
        <ele>264</ele>
        <time>2023-05-27T12:21:11.000Z</time>
      </trkpt>
      <trkpt lat="43.70592" lon="3.19098">
        <ele>263.79998779297</ele>
        <time>2023-05-27T12:21:22.000Z</time>
      </trkpt>
      <trkpt lat="43.70586" lon="3.19085">
        <ele>263.20001220703</ele>
        <time>2023-05-27T12:21:32.000Z</time>
      </trkpt>
      <trkpt lat="43.70582" lon="3.19074">
        <ele>263.60000610352</ele>
        <time>2023-05-27T12:21:40.000Z</time>
      </trkpt>
      <trkpt lat="43.70578" lon="3.19064">
        <ele>263.60000610352</ele>
        <time>2023-05-27T12:21:49.000Z</time>
      </trkpt>
      <trkpt lat="43.70572" lon="3.19052">
        <ele>263.39999389648</ele>
        <time>2023-05-27T12:21:59.000Z</time>
      </trkpt>
      <trkpt lat="43.70568" lon="3.19042">
        <ele>263.39999389648</ele>
        <time>2023-05-27T12:22:07.000Z</time>
      </trkpt>
      <trkpt lat="43.70564" lon="3.19033">
        <ele>263.20001220703</ele>
        <time>2023-05-27T12:22:15.000Z</time>
      </trkpt>
      <trkpt lat="43.70561" lon="3.19029">
        <ele>263.20001220703</ele>
        <time>2023-05-27T12:22:21.000Z</time>
      </trkpt>
      <trkpt lat="43.70559" lon="3.19023">
        <ele>263.20001220703</ele>
        <time>2023-05-27T12:22:28.000Z</time>
      </trkpt>
      <trkpt lat="43.70556" lon="3.19016">
        <ele>263.20001220703</ele>
        <time>2023-05-27T12:22:34.000Z</time>
      </trkpt>
      <trkpt lat="43.70553" lon="3.19008">
        <ele>263.20001220703</ele>
        <time>2023-05-27T12:22:41.000Z</time>
      </trkpt>
      <trkpt lat="43.70549" lon="3.19002">
        <ele>262.79998779297</ele>
        <time>2023-05-27T12:22:47.000Z</time>
      </trkpt>
      <trkpt lat="43.70549" lon="3.19001">
        <ele>262.79998779297</ele>
        <time>2023-05-27T12:22:48.000Z</time>
      </trkpt>
      <trkpt lat="43.70548" lon="3.18998">
        <ele>262.79998779297</ele>
        <time>2023-05-27T12:22:51.000Z</time>
      </trkpt>
      <trkpt lat="43.70546" lon="3.18994">
        <ele>262.60000610352</ele>
        <time>2023-05-27T12:22:54.000Z</time>
      </trkpt>
      <trkpt lat="43.70541" lon="3.18986">
        <ele>262.39999389648</ele>
        <time>2023-05-27T12:22:59.000Z</time>
      </trkpt>
      <trkpt lat="43.70531" lon="3.18972">
        <ele>262.60000610352</ele>
        <time>2023-05-27T12:23:09.000Z</time>
      </trkpt>
      <trkpt lat="43.70522" lon="3.18959">
        <ele>263.20001220703</ele>
        <time>2023-05-27T12:23:19.000Z</time>
      </trkpt>
      <trkpt lat="43.70514" lon="3.18947">
        <ele>263.20001220703</ele>
        <time>2023-05-27T12:23:28.000Z</time>
      </trkpt>
      <trkpt lat="43.70505" lon="3.18936">
        <ele>263</ele>
        <time>2023-05-27T12:23:38.000Z</time>
      </trkpt>
      <trkpt lat="43.70497" lon="3.18925">
        <ele>263</ele>
        <time>2023-05-27T12:23:47.000Z</time>
      </trkpt>
      <trkpt lat="43.7049" lon="3.18914">
        <ele>263</ele>
        <time>2023-05-27T12:23:56.000Z</time>
      </trkpt>
      <trkpt lat="43.7049" lon="3.18907">
        <ele>263</ele>
        <time>2023-05-27T12:24:02.000Z</time>
      </trkpt>
      <trkpt lat="43.70491" lon="3.18906">
        <ele>263</ele>
        <time>2023-05-27T12:24:03.000Z</time>
      </trkpt>
      <trkpt lat="43.70489" lon="3.18901">
        <ele>263</ele>
        <time>2023-05-27T12:24:08.000Z</time>
      </trkpt>
      <trkpt lat="43.70487" lon="3.18897">
        <ele>262.79998779297</ele>
        <time>2023-05-27T12:24:11.000Z</time>
      </trkpt>
      <trkpt lat="43.70485" lon="3.18895">
        <ele>262.79998779297</ele>
        <time>2023-05-27T12:24:14.000Z</time>
      </trkpt>
      <trkpt lat="43.70484" lon="3.18893">
        <ele>262.79998779297</ele>
        <time>2023-05-27T12:24:16.000Z</time>
      </trkpt>
      <trkpt lat="43.70483" lon="3.18893">
        <ele>262.79998779297</ele>
        <time>2023-05-27T12:24:23.000Z</time>
      </trkpt>
      <trkpt lat="43.70479" lon="3.18889">
        <ele>262.79998779297</ele>
        <time>2023-05-27T12:24:29.000Z</time>
      </trkpt>
      <trkpt lat="43.70474" lon="3.18879">
        <ele>262.60000610352</ele>
        <time>2023-05-27T12:24:38.000Z</time>
      </trkpt>
      <trkpt lat="43.70473" lon="3.18876">
        <ele>262.60000610352</ele>
        <time>2023-05-27T12:24:41.000Z</time>
      </trkpt>
      <trkpt lat="43.7047" lon="3.18872">
        <ele>262.39999389648</ele>
        <time>2023-05-27T12:24:45.000Z</time>
      </trkpt>
      <trkpt lat="43.70469" lon="3.1887">
        <ele>262.39999389648</ele>
        <time>2023-05-27T12:24:47.000Z</time>
      </trkpt>
      <trkpt lat="43.70467" lon="3.18865">
        <ele>262.60000610352</ele>
        <time>2023-05-27T12:24:51.000Z</time>
      </trkpt>
      <trkpt lat="43.70464" lon="3.18856">
        <ele>262.60000610352</ele>
        <time>2023-05-27T12:24:59.000Z</time>
      </trkpt>
      <trkpt lat="43.70461" lon="3.18846">
        <ele>262.60000610352</ele>
        <time>2023-05-27T12:25:06.000Z</time>
      </trkpt>
      <trkpt lat="43.70458" lon="3.18834">
        <ele>262.79998779297</ele>
        <time>2023-05-27T12:25:15.000Z</time>
      </trkpt>
      <trkpt lat="43.70458" lon="3.18832">
        <ele>262.79998779297</ele>
        <time>2023-05-27T12:25:17.000Z</time>
      </trkpt>
      <trkpt lat="43.70457" lon="3.18827">
        <ele>262.79998779297</ele>
        <time>2023-05-27T12:25:22.000Z</time>
      </trkpt>
      <trkpt lat="43.70455" lon="3.18821">
        <ele>262.60000610352</ele>
        <time>2023-05-27T12:25:28.000Z</time>
      </trkpt>
      <trkpt lat="43.70453" lon="3.18815">
        <ele>262.60000610352</ele>
        <time>2023-05-27T12:25:34.000Z</time>
      </trkpt>
      <trkpt lat="43.70451" lon="3.18804">
        <ele>262.60000610352</ele>
        <time>2023-05-27T12:25:43.000Z</time>
      </trkpt>
      <trkpt lat="43.70449" lon="3.18792">
        <ele>262.79998779297</ele>
        <time>2023-05-27T12:25:52.000Z</time>
      </trkpt>
      <trkpt lat="43.70449" lon="3.18786">
        <ele>262.79998779297</ele>
        <time>2023-05-27T12:25:57.000Z</time>
      </trkpt>
      <trkpt lat="43.70449" lon="3.18783">
        <ele>262.79998779297</ele>
        <time>2023-05-27T12:25:59.000Z</time>
      </trkpt>
      <trkpt lat="43.70447" lon="3.1877">
        <ele>262.79998779297</ele>
        <time>2023-05-27T12:26:07.000Z</time>
      </trkpt>
      <trkpt lat="43.70447" lon="3.18756">
        <ele>262.60000610352</ele>
        <time>2023-05-27T12:26:16.000Z</time>
      </trkpt>
      <trkpt lat="43.70447" lon="3.18742">
        <ele>262.60000610352</ele>
        <time>2023-05-27T12:26:24.000Z</time>
      </trkpt>
      <trkpt lat="43.70446" lon="3.18724">
        <ele>262.60000610352</ele>
        <time>2023-05-27T12:26:34.000Z</time>
      </trkpt>
      <trkpt lat="43.70445" lon="3.1871">
        <ele>262.39999389648</ele>
        <time>2023-05-27T12:26:42.000Z</time>
      </trkpt>
      <trkpt lat="43.70445" lon="3.18694">
        <ele>262.20001220703</ele>
        <time>2023-05-27T12:26:52.000Z</time>
      </trkpt>
      <trkpt lat="43.70446" lon="3.18693">
        <ele>262.39999389648</ele>
        <time>2023-05-27T12:26:54.000Z</time>
      </trkpt>
      <trkpt lat="43.70446" lon="3.18693">
        <ele>262.39999389648</ele>
        <time>2023-05-27T12:26:58.000Z</time>
      </trkpt>
      <trkpt lat="43.70443" lon="3.18688">
        <ele>262.60000610352</ele>
        <time>2023-05-27T12:27:04.000Z</time>
      </trkpt>
      <trkpt lat="43.70438" lon="3.18676">
        <ele>262.39999389648</ele>
        <time>2023-05-27T12:27:14.000Z</time>
      </trkpt>
      <trkpt lat="43.70437" lon="3.18672">
        <ele>262.39999389648</ele>
        <time>2023-05-27T12:27:17.000Z</time>
      </trkpt>
      <trkpt lat="43.70436" lon="3.18668">
        <ele>262.39999389648</ele>
        <time>2023-05-27T12:27:21.000Z</time>
      </trkpt>
      <trkpt lat="43.70432" lon="3.18662">
        <ele>262.20001220703</ele>
        <time>2023-05-27T12:27:28.000Z</time>
      </trkpt>
      <trkpt lat="43.70431" lon="3.18661">
        <ele>262.20001220703</ele>
        <time>2023-05-27T12:27:29.000Z</time>
      </trkpt>
      <trkpt lat="43.7043" lon="3.18657">
        <ele>262.20001220703</ele>
        <time>2023-05-27T12:27:34.000Z</time>
      </trkpt>
      <trkpt lat="43.70425" lon="3.18653">
        <ele>262.20001220703</ele>
        <time>2023-05-27T12:27:40.000Z</time>
      </trkpt>
      <trkpt lat="43.70422" lon="3.18649">
        <ele>262.20001220703</ele>
        <time>2023-05-27T12:27:44.000Z</time>
      </trkpt>
      <trkpt lat="43.70419" lon="3.18643">
        <ele>262.20001220703</ele>
        <time>2023-05-27T12:27:48.000Z</time>
      </trkpt>
      <trkpt lat="43.70415" lon="3.18636">
        <ele>262.20001220703</ele>
        <time>2023-05-27T12:27:54.000Z</time>
      </trkpt>
      <trkpt lat="43.70413" lon="3.18634">
        <ele>262.20001220703</ele>
        <time>2023-05-27T12:27:56.000Z</time>
      </trkpt>
      <trkpt lat="43.70408" lon="3.18626">
        <ele>262</ele>
        <time>2023-05-27T12:28:04.000Z</time>
      </trkpt>
      <trkpt lat="43.70408" lon="3.18624">
        <ele>262</ele>
        <time>2023-05-27T12:28:06.000Z</time>
      </trkpt>
      <trkpt lat="43.70407" lon="3.18619">
        <ele>262</ele>
        <time>2023-05-27T12:28:10.000Z</time>
      </trkpt>
      <trkpt lat="43.70406" lon="3.18618">
        <ele>262</ele>
        <time>2023-05-27T12:28:11.000Z</time>
      </trkpt>
      <trkpt lat="43.70402" lon="3.18615">
        <ele>262</ele>
        <time>2023-05-27T12:28:15.000Z</time>
      </trkpt>
      <trkpt lat="43.70401" lon="3.18613">
        <ele>262</ele>
        <time>2023-05-27T12:28:17.000Z</time>
      </trkpt>
      <trkpt lat="43.704" lon="3.18611">
        <ele>262.20001220703</ele>
        <time>2023-05-27T12:28:25.000Z</time>
      </trkpt>
      <trkpt lat="43.70399" lon="3.18606">
        <ele>261.79998779297</ele>
        <time>2023-05-27T12:28:43.000Z</time>
      </trkpt>
      <trkpt lat="43.70395" lon="3.18607">
        <ele>261.60000610352</ele>
        <time>2023-05-27T12:28:49.000Z</time>
      </trkpt>
      <trkpt lat="43.70391" lon="3.18597">
        <ele>261.79998779297</ele>
        <time>2023-05-27T12:28:56.000Z</time>
      </trkpt>
      <trkpt lat="43.70384" lon="3.18587">
        <ele>261.79998779297</ele>
        <time>2023-05-27T12:29:04.000Z</time>
      </trkpt>
      <trkpt lat="43.7038" lon="3.18577">
        <ele>262</ele>
        <time>2023-05-27T12:29:12.000Z</time>
      </trkpt>
      <trkpt lat="43.70378" lon="3.18564">
        <ele>261.79998779297</ele>
        <time>2023-05-27T12:29:20.000Z</time>
      </trkpt>
      <trkpt lat="43.70376" lon="3.1855">
        <ele>261.60000610352</ele>
        <time>2023-05-27T12:29:29.000Z</time>
      </trkpt>
      <trkpt lat="43.70374" lon="3.18533">
        <ele>261.60000610352</ele>
        <time>2023-05-27T12:29:40.000Z</time>
      </trkpt>
      <trkpt lat="43.70371" lon="3.18517">
        <ele>261.79998779297</ele>
        <time>2023-05-27T12:29:50.000Z</time>
      </trkpt>
      <trkpt lat="43.70369" lon="3.18501">
        <ele>261.60000610352</ele>
        <time>2023-05-27T12:30:00.000Z</time>
      </trkpt>
      <trkpt lat="43.70368" lon="3.18494">
        <ele>261</ele>
        <time>2023-05-27T12:30:04.000Z</time>
      </trkpt>
      <trkpt lat="43.70366" lon="3.18485">
        <ele>261</ele>
        <time>2023-05-27T12:30:10.000Z</time>
      </trkpt>
      <trkpt lat="43.70364" lon="3.18472">
        <ele>261.39999389648</ele>
        <time>2023-05-27T12:30:18.000Z</time>
      </trkpt>
      <trkpt lat="43.70362" lon="3.18459">
        <ele>261.39999389648</ele>
        <time>2023-05-27T12:30:27.000Z</time>
      </trkpt>
      <trkpt lat="43.70359" lon="3.18442">
        <ele>261.39999389648</ele>
        <time>2023-05-27T12:30:39.000Z</time>
      </trkpt>
      <trkpt lat="43.70356" lon="3.18427">
        <ele>261.20001220703</ele>
        <time>2023-05-27T12:30:49.000Z</time>
      </trkpt>
      <trkpt lat="43.70352" lon="3.18412">
        <ele>261.79998779297</ele>
        <time>2023-05-27T12:30:59.000Z</time>
      </trkpt>
      <trkpt lat="43.70348" lon="3.184">
        <ele>262</ele>
        <time>2023-05-27T12:31:08.000Z</time>
      </trkpt>
      <trkpt lat="43.70346" lon="3.18395">
        <ele>262</ele>
        <time>2023-05-27T12:31:12.000Z</time>
      </trkpt>
      <trkpt lat="43.70343" lon="3.18388">
        <ele>262.20001220703</ele>
        <time>2023-05-27T12:31:17.000Z</time>
      </trkpt>
      <trkpt lat="43.70338" lon="3.18376">
        <ele>262.20001220703</ele>
        <time>2023-05-27T12:31:26.000Z</time>
      </trkpt>
      <trkpt lat="43.70333" lon="3.18364">
        <ele>262.39999389648</ele>
        <time>2023-05-27T12:31:35.000Z</time>
      </trkpt>
      <trkpt lat="43.70327" lon="3.18352">
        <ele>262.60000610352</ele>
        <time>2023-05-27T12:31:44.000Z</time>
      </trkpt>
      <trkpt lat="43.7032" lon="3.18338">
        <ele>262.20001220703</ele>
        <time>2023-05-27T12:31:55.000Z</time>
      </trkpt>
      <trkpt lat="43.70314" lon="3.18325">
        <ele>262.60000610352</ele>
        <time>2023-05-27T12:32:05.000Z</time>
      </trkpt>
      <trkpt lat="43.70309" lon="3.18315">
        <ele>262.20001220703</ele>
        <time>2023-05-27T12:32:13.000Z</time>
      </trkpt>
      <trkpt lat="43.70302" lon="3.183">
        <ele>262.20001220703</ele>
        <time>2023-05-27T12:32:24.000Z</time>
      </trkpt>
      <trkpt lat="43.70297" lon="3.18288">
        <ele>262</ele>
        <time>2023-05-27T12:32:33.000Z</time>
      </trkpt>
      <trkpt lat="43.7029" lon="3.18274">
        <ele>262.20001220703</ele>
        <time>2023-05-27T12:32:45.000Z</time>
      </trkpt>
      <trkpt lat="43.70285" lon="3.18261">
        <ele>262.20001220703</ele>
        <time>2023-05-27T12:32:55.000Z</time>
      </trkpt>
      <trkpt lat="43.70279" lon="3.18247">
        <ele>262</ele>
        <time>2023-05-27T12:33:05.000Z</time>
      </trkpt>
      <trkpt lat="43.70276" lon="3.18237">
        <ele>262</ele>
        <time>2023-05-27T12:33:13.000Z</time>
      </trkpt>
      <trkpt lat="43.70272" lon="3.18225">
        <ele>262.20001220703</ele>
        <time>2023-05-27T12:33:22.000Z</time>
      </trkpt>
      <trkpt lat="43.70269" lon="3.18211">
        <ele>262</ele>
        <time>2023-05-27T12:33:32.000Z</time>
      </trkpt>
      <trkpt lat="43.70268" lon="3.18207">
        <ele>262</ele>
        <time>2023-05-27T12:33:39.000Z</time>
      </trkpt>
      <trkpt lat="43.70267" lon="3.18204">
        <ele>261.79998779297</ele>
        <time>2023-05-27T12:33:53.000Z</time>
      </trkpt>
      <trkpt lat="43.70266" lon="3.18194">
        <ele>261.79998779297</ele>
        <time>2023-05-27T12:34:02.000Z</time>
      </trkpt>
      <trkpt lat="43.70265" lon="3.18184">
        <ele>261.60000610352</ele>
        <time>2023-05-27T12:34:09.000Z</time>
      </trkpt>
      <trkpt lat="43.70264" lon="3.18169">
        <ele>261.60000610352</ele>
        <time>2023-05-27T12:34:19.000Z</time>
      </trkpt>
      <trkpt lat="43.70263" lon="3.18157">
        <ele>261.60000610352</ele>
        <time>2023-05-27T12:34:27.000Z</time>
      </trkpt>
      <trkpt lat="43.70261" lon="3.18145">
        <ele>261.39999389648</ele>
        <time>2023-05-27T12:34:35.000Z</time>
      </trkpt>
      <trkpt lat="43.70259" lon="3.18134">
        <ele>261.39999389648</ele>
        <time>2023-05-27T12:34:43.000Z</time>
      </trkpt>
      <trkpt lat="43.70258" lon="3.18128">
        <ele>261.39999389648</ele>
        <time>2023-05-27T12:34:47.000Z</time>
      </trkpt>
      <trkpt lat="43.70257" lon="3.18124">
        <ele>261.39999389648</ele>
        <time>2023-05-27T12:34:50.000Z</time>
      </trkpt>
      <trkpt lat="43.70256" lon="3.18115">
        <ele>261.39999389648</ele>
        <time>2023-05-27T12:34:57.000Z</time>
      </trkpt>
      <trkpt lat="43.70256" lon="3.18105">
        <ele>261.20001220703</ele>
        <time>2023-05-27T12:35:04.000Z</time>
      </trkpt>
      <trkpt lat="43.70255" lon="3.18099">
        <ele>261</ele>
        <time>2023-05-27T12:35:08.000Z</time>
      </trkpt>
      <trkpt lat="43.70255" lon="3.18095">
        <ele>260.79998779297</ele>
        <time>2023-05-27T12:35:11.000Z</time>
      </trkpt>
      <trkpt lat="43.70254" lon="3.18081">
        <ele>260.79998779297</ele>
        <time>2023-05-27T12:35:19.000Z</time>
      </trkpt>
      <trkpt lat="43.70253" lon="3.18066">
        <ele>261.20001220703</ele>
        <time>2023-05-27T12:35:28.000Z</time>
      </trkpt>
      <trkpt lat="43.70254" lon="3.18051">
        <ele>261</ele>
        <time>2023-05-27T12:35:37.000Z</time>
      </trkpt>
      <trkpt lat="43.70253" lon="3.18036">
        <ele>261</ele>
        <time>2023-05-27T12:35:46.000Z</time>
      </trkpt>
      <trkpt lat="43.70252" lon="3.1803">
        <ele>261.20001220703</ele>
        <time>2023-05-27T12:35:50.000Z</time>
      </trkpt>
      <trkpt lat="43.70251" lon="3.18023">
        <ele>261.20001220703</ele>
        <time>2023-05-27T12:35:54.000Z</time>
      </trkpt>
      <trkpt lat="43.70251" lon="3.18022">
        <ele>261.20001220703</ele>
        <time>2023-05-27T12:35:55.000Z</time>
      </trkpt>
      <trkpt lat="43.70249" lon="3.18009">
        <ele>260.79998779297</ele>
        <time>2023-05-27T12:36:03.000Z</time>
      </trkpt>
      <trkpt lat="43.70247" lon="3.17998">
        <ele>261</ele>
        <time>2023-05-27T12:36:10.000Z</time>
      </trkpt>
      <trkpt lat="43.70244" lon="3.17984">
        <ele>261</ele>
        <time>2023-05-27T12:36:19.000Z</time>
      </trkpt>
      <trkpt lat="43.7024" lon="3.17973">
        <ele>261.20001220703</ele>
        <time>2023-05-27T12:36:27.000Z</time>
      </trkpt>
      <trkpt lat="43.70234" lon="3.17961">
        <ele>261.20001220703</ele>
        <time>2023-05-27T12:36:36.000Z</time>
      </trkpt>
      <trkpt lat="43.70229" lon="3.17953">
        <ele>261.20001220703</ele>
        <time>2023-05-27T12:36:43.000Z</time>
      </trkpt>
      <trkpt lat="43.70221" lon="3.17941">
        <ele>261.20001220703</ele>
        <time>2023-05-27T12:36:53.000Z</time>
      </trkpt>
      <trkpt lat="43.7022" lon="3.17939">
        <ele>261.20001220703</ele>
        <time>2023-05-27T12:36:55.000Z</time>
      </trkpt>
      <trkpt lat="43.70216" lon="3.17936">
        <ele>261.20001220703</ele>
        <time>2023-05-27T12:36:58.000Z</time>
      </trkpt>
      <trkpt lat="43.70216" lon="3.17935">
        <ele>261.20001220703</ele>
        <time>2023-05-27T12:36:59.000Z</time>
      </trkpt>
      <trkpt lat="43.70206" lon="3.17925">
        <ele>260.79998779297</ele>
        <time>2023-05-27T12:37:09.000Z</time>
      </trkpt>
      <trkpt lat="43.70198" lon="3.17916">
        <ele>261</ele>
        <time>2023-05-27T12:37:18.000Z</time>
      </trkpt>
      <trkpt lat="43.70192" lon="3.1791">
        <ele>261</ele>
        <time>2023-05-27T12:37:24.000Z</time>
      </trkpt>
      <trkpt lat="43.70183" lon="3.17903">
        <ele>260.79998779297</ele>
        <time>2023-05-27T12:37:34.000Z</time>
      </trkpt>
      <trkpt lat="43.70174" lon="3.17896">
        <ele>260.79998779297</ele>
        <time>2023-05-27T12:37:43.000Z</time>
      </trkpt>
      <trkpt lat="43.70168" lon="3.17891">
        <ele>260.79998779297</ele>
        <time>2023-05-27T12:37:50.000Z</time>
      </trkpt>
      <trkpt lat="43.70159" lon="3.17884">
        <ele>260.20001220703</ele>
        <time>2023-05-27T12:38:00.000Z</time>
      </trkpt>
      <trkpt lat="43.70148" lon="3.17878">
        <ele>260</ele>
        <time>2023-05-27T12:38:10.000Z</time>
      </trkpt>
      <trkpt lat="43.70137" lon="3.17873">
        <ele>260.39999389648</ele>
        <time>2023-05-27T12:38:20.000Z</time>
      </trkpt>
      <trkpt lat="43.70127" lon="3.17871">
        <ele>260.20001220703</ele>
        <time>2023-05-27T12:38:29.000Z</time>
      </trkpt>
      <trkpt lat="43.70113" lon="3.17866">
        <ele>260.20001220703</ele>
        <time>2023-05-27T12:38:41.000Z</time>
      </trkpt>
      <trkpt lat="43.70105" lon="3.17864">
        <ele>260.20001220703</ele>
        <time>2023-05-27T12:38:49.000Z</time>
      </trkpt>
      <trkpt lat="43.70098" lon="3.17859">
        <ele>260.20001220703</ele>
        <time>2023-05-27T12:38:56.000Z</time>
      </trkpt>
      <trkpt lat="43.70089" lon="3.17851">
        <ele>260.20001220703</ele>
        <time>2023-05-27T12:39:06.000Z</time>
      </trkpt>
      <trkpt lat="43.7008" lon="3.17842">
        <ele>260.39999389648</ele>
        <time>2023-05-27T12:39:16.000Z</time>
      </trkpt>
      <trkpt lat="43.70075" lon="3.17835">
        <ele>260.20001220703</ele>
        <time>2023-05-27T12:39:23.000Z</time>
      </trkpt>
      <trkpt lat="43.70073" lon="3.17832">
        <ele>260.20001220703</ele>
        <time>2023-05-27T12:39:29.000Z</time>
      </trkpt>
      <trkpt lat="43.70068" lon="3.17824">
        <ele>260.20001220703</ele>
        <time>2023-05-27T12:39:37.000Z</time>
      </trkpt>
      <trkpt lat="43.70063" lon="3.17815">
        <ele>260</ele>
        <time>2023-05-27T12:39:45.000Z</time>
      </trkpt>
      <trkpt lat="43.70061" lon="3.1781">
        <ele>259.79998779297</ele>
        <time>2023-05-27T12:39:53.000Z</time>
      </trkpt>
      <trkpt lat="43.7006" lon="3.17804">
        <ele>259.60000610352</ele>
        <time>2023-05-27T12:40:02.000Z</time>
      </trkpt>
      <trkpt lat="43.70055" lon="3.17793">
        <ele>259.39999389648</ele>
        <time>2023-05-27T12:40:10.000Z</time>
      </trkpt>
      <trkpt lat="43.70052" lon="3.17783">
        <ele>259</ele>
        <time>2023-05-27T12:40:17.000Z</time>
      </trkpt>
      <trkpt lat="43.70049" lon="3.17776">
        <ele>259</ele>
        <time>2023-05-27T12:40:22.000Z</time>
      </trkpt>
      <trkpt lat="43.70046" lon="3.1777">
        <ele>258.79998779297</ele>
        <time>2023-05-27T12:40:26.000Z</time>
      </trkpt>
      <trkpt lat="43.7004" lon="3.17758">
        <ele>258.39999389648</ele>
        <time>2023-05-27T12:40:35.000Z</time>
      </trkpt>
      <trkpt lat="43.70036" lon="3.1775">
        <ele>258</ele>
        <time>2023-05-27T12:40:41.000Z</time>
      </trkpt>
      <trkpt lat="43.70034" lon="3.17747">
        <ele>257.79998779297</ele>
        <time>2023-05-27T12:40:43.000Z</time>
      </trkpt>
      <trkpt lat="43.70025" lon="3.17736">
        <ele>257.39999389648</ele>
        <time>2023-05-27T12:40:53.000Z</time>
      </trkpt>
      <trkpt lat="43.70017" lon="3.17726">
        <ele>257.20001220703</ele>
        <time>2023-05-27T12:41:02.000Z</time>
      </trkpt>
      <trkpt lat="43.70008" lon="3.17717">
        <ele>257.20001220703</ele>
        <time>2023-05-27T12:41:11.000Z</time>
      </trkpt>
      <trkpt lat="43.70007" lon="3.17714">
        <ele>257.20001220703</ele>
        <time>2023-05-27T12:41:13.000Z</time>
      </trkpt>
      <trkpt lat="43.70003" lon="3.17709">
        <ele>257</ele>
        <time>2023-05-27T12:41:18.000Z</time>
      </trkpt>
      <trkpt lat="43.69996" lon="3.17701">
        <ele>257</ele>
        <time>2023-05-27T12:41:26.000Z</time>
      </trkpt>
      <trkpt lat="43.69995" lon="3.177">
        <ele>257</ele>
        <time>2023-05-27T12:41:27.000Z</time>
      </trkpt>
      <trkpt lat="43.69986" lon="3.1769">
        <ele>256.79998779297</ele>
        <time>2023-05-27T12:41:36.000Z</time>
      </trkpt>
      <trkpt lat="43.69977" lon="3.17679">
        <ele>256.39999389648</ele>
        <time>2023-05-27T12:41:46.000Z</time>
      </trkpt>
      <trkpt lat="43.69968" lon="3.17668">
        <ele>256.20001220703</ele>
        <time>2023-05-27T12:41:56.000Z</time>
      </trkpt>
      <trkpt lat="43.6996" lon="3.17659">
        <ele>256</ele>
        <time>2023-05-27T12:42:05.000Z</time>
      </trkpt>
      <trkpt lat="43.69958" lon="3.17657">
        <ele>256</ele>
        <time>2023-05-27T12:42:07.000Z</time>
      </trkpt>
      <trkpt lat="43.69951" lon="3.17649">
        <ele>255.80000305176</ele>
        <time>2023-05-27T12:42:14.000Z</time>
      </trkpt>
      <trkpt lat="43.69939" lon="3.17636">
        <ele>255.39999389648</ele>
        <time>2023-05-27T12:42:26.000Z</time>
      </trkpt>
      <trkpt lat="43.69933" lon="3.17629">
        <ele>255</ele>
        <time>2023-05-27T12:42:32.000Z</time>
      </trkpt>
      <trkpt lat="43.69931" lon="3.17627">
        <ele>255</ele>
        <time>2023-05-27T12:42:34.000Z</time>
      </trkpt>
      <trkpt lat="43.69924" lon="3.17619">
        <ele>254.80000305176</ele>
        <time>2023-05-27T12:42:42.000Z</time>
      </trkpt>
      <trkpt lat="43.69913" lon="3.17608">
        <ele>254.39999389648</ele>
        <time>2023-05-27T12:42:52.000Z</time>
      </trkpt>
      <trkpt lat="43.69907" lon="3.17599">
        <ele>254.39999389648</ele>
        <time>2023-05-27T12:43:00.000Z</time>
      </trkpt>
      <trkpt lat="43.69897" lon="3.17588">
        <ele>254.39999389648</ele>
        <time>2023-05-27T12:43:10.000Z</time>
      </trkpt>
      <trkpt lat="43.69888" lon="3.17576">
        <ele>254.19999694824</ele>
        <time>2023-05-27T12:43:20.000Z</time>
      </trkpt>
      <trkpt lat="43.69883" lon="3.17568">
        <ele>254.39999389648</ele>
        <time>2023-05-27T12:43:27.000Z</time>
      </trkpt>
      <trkpt lat="43.69875" lon="3.17556">
        <ele>254.19999694824</ele>
        <time>2023-05-27T12:43:36.000Z</time>
      </trkpt>
      <trkpt lat="43.6987" lon="3.17547">
        <ele>254.39999389648</ele>
        <time>2023-05-27T12:43:44.000Z</time>
      </trkpt>
      <trkpt lat="43.69863" lon="3.17536">
        <ele>254.39999389648</ele>
        <time>2023-05-27T12:43:53.000Z</time>
      </trkpt>
      <trkpt lat="43.69857" lon="3.17527">
        <ele>254.39999389648</ele>
        <time>2023-05-27T12:44:01.000Z</time>
      </trkpt>
      <trkpt lat="43.69852" lon="3.17517">
        <ele>254.39999389648</ele>
        <time>2023-05-27T12:44:09.000Z</time>
      </trkpt>
      <trkpt lat="43.69845" lon="3.17507">
        <ele>254.60000610352</ele>
        <time>2023-05-27T12:44:18.000Z</time>
      </trkpt>
      <trkpt lat="43.69838" lon="3.17496">
        <ele>254.80000305176</ele>
        <time>2023-05-27T12:44:27.000Z</time>
      </trkpt>
      <trkpt lat="43.69834" lon="3.17489">
        <ele>254.80000305176</ele>
        <time>2023-05-27T12:44:33.000Z</time>
      </trkpt>
      <trkpt lat="43.69826" lon="3.17475">
        <ele>255.19999694824</ele>
        <time>2023-05-27T12:44:44.000Z</time>
      </trkpt>
      <trkpt lat="43.69817" lon="3.17461">
        <ele>255.39999389648</ele>
        <time>2023-05-27T12:44:55.000Z</time>
      </trkpt>
      <trkpt lat="43.69812" lon="3.17451">
        <ele>255.60000610352</ele>
        <time>2023-05-27T12:45:03.000Z</time>
      </trkpt>
      <trkpt lat="43.69806" lon="3.1744">
        <ele>255.60000610352</ele>
        <time>2023-05-27T12:45:12.000Z</time>
      </trkpt>
      <trkpt lat="43.69802" lon="3.1743">
        <ele>255.80000305176</ele>
        <time>2023-05-27T12:45:20.000Z</time>
      </trkpt>
      <trkpt lat="43.698" lon="3.17423">
        <ele>256</ele>
        <time>2023-05-27T12:45:25.000Z</time>
      </trkpt>
      <trkpt lat="43.698" lon="3.17422">
        <ele>256</ele>
        <time>2023-05-27T12:45:26.000Z</time>
      </trkpt>
      <trkpt lat="43.698" lon="3.17421">
        <ele>256</ele>
        <time>2023-05-27T12:45:27.000Z</time>
      </trkpt>
      <trkpt lat="43.69799" lon="3.17418">
        <ele>256</ele>
        <time>2023-05-27T12:45:29.000Z</time>
      </trkpt>
      <trkpt lat="43.69798" lon="3.17416">
        <ele>256</ele>
        <time>2023-05-27T12:45:31.000Z</time>
      </trkpt>
      <trkpt lat="43.69797" lon="3.17414">
        <ele>256</ele>
        <time>2023-05-27T12:45:32.000Z</time>
      </trkpt>
      <trkpt lat="43.69796" lon="3.17412">
        <ele>256.20001220703</ele>
        <time>2023-05-27T12:45:34.000Z</time>
      </trkpt>
      <trkpt lat="43.69795" lon="3.17407">
        <ele>256.20001220703</ele>
        <time>2023-05-27T12:45:38.000Z</time>
      </trkpt>
      <trkpt lat="43.69794" lon="3.17406">
        <ele>256.20001220703</ele>
        <time>2023-05-27T12:45:39.000Z</time>
      </trkpt>
      <trkpt lat="43.69793" lon="3.17403">
        <ele>256.20001220703</ele>
        <time>2023-05-27T12:45:41.000Z</time>
      </trkpt>
      <trkpt lat="43.69792" lon="3.174">
        <ele>256.20001220703</ele>
        <time>2023-05-27T12:45:44.000Z</time>
      </trkpt>
      <trkpt lat="43.6979" lon="3.17397">
        <ele>256.39999389648</ele>
        <time>2023-05-27T12:45:47.000Z</time>
      </trkpt>
      <trkpt lat="43.6979" lon="3.17395">
        <ele>256.39999389648</ele>
        <time>2023-05-27T12:45:48.000Z</time>
      </trkpt>
      <trkpt lat="43.69788" lon="3.1739">
        <ele>256.39999389648</ele>
        <time>2023-05-27T12:45:52.000Z</time>
      </trkpt>
      <trkpt lat="43.69788" lon="3.17389">
        <ele>256.39999389648</ele>
        <time>2023-05-27T12:45:53.000Z</time>
      </trkpt>
      <trkpt lat="43.69786" lon="3.17382">
        <ele>256.20001220703</ele>
        <time>2023-05-27T12:45:58.000Z</time>
      </trkpt>
      <trkpt lat="43.69785" lon="3.1738">
        <ele>256</ele>
        <time>2023-05-27T12:46:00.000Z</time>
      </trkpt>
      <trkpt lat="43.69783" lon="3.17374">
        <ele>255.80000305176</ele>
        <time>2023-05-27T12:46:05.000Z</time>
      </trkpt>
      <trkpt lat="43.69782" lon="3.17372">
        <ele>255.80000305176</ele>
        <time>2023-05-27T12:46:07.000Z</time>
      </trkpt>
      <trkpt lat="43.69777" lon="3.17362">
        <ele>255.19999694824</ele>
        <time>2023-05-27T12:46:16.000Z</time>
      </trkpt>
      <trkpt lat="43.69771" lon="3.1735">
        <ele>255</ele>
        <time>2023-05-27T12:46:24.000Z</time>
      </trkpt>
      <trkpt lat="43.69771" lon="3.17348">
        <ele>255</ele>
        <time>2023-05-27T12:46:25.000Z</time>
      </trkpt>
      <trkpt lat="43.69764" lon="3.17335">
        <ele>254.60000610352</ele>
        <time>2023-05-27T12:46:33.000Z</time>
      </trkpt>
      <trkpt lat="43.69755" lon="3.17321">
        <ele>254.19999694824</ele>
        <time>2023-05-27T12:46:43.000Z</time>
      </trkpt>
      <trkpt lat="43.69748" lon="3.1731">
        <ele>254.19999694824</ele>
        <time>2023-05-27T12:46:52.000Z</time>
      </trkpt>
      <trkpt lat="43.69743" lon="3.173">
        <ele>254</ele>
        <time>2023-05-27T12:47:00.000Z</time>
      </trkpt>
      <trkpt lat="43.69741" lon="3.17299">
        <ele>254</ele>
        <time>2023-05-27T12:47:01.000Z</time>
      </trkpt>
      <trkpt lat="43.69738" lon="3.17295">
        <ele>254.19999694824</ele>
        <time>2023-05-27T12:47:05.000Z</time>
      </trkpt>
      <trkpt lat="43.69735" lon="3.1729">
        <ele>254</ele>
        <time>2023-05-27T12:47:09.000Z</time>
      </trkpt>
      <trkpt lat="43.69733" lon="3.17288">
        <ele>254</ele>
        <time>2023-05-27T12:47:11.000Z</time>
      </trkpt>
      <trkpt lat="43.69726" lon="3.1728">
        <ele>254</ele>
        <time>2023-05-27T12:47:19.000Z</time>
      </trkpt>
      <trkpt lat="43.69715" lon="3.17268">
        <ele>253.80000305176</ele>
        <time>2023-05-27T12:47:31.000Z</time>
      </trkpt>
      <trkpt lat="43.69704" lon="3.17259">
        <ele>253.39999389648</ele>
        <time>2023-05-27T12:47:42.000Z</time>
      </trkpt>
      <trkpt lat="43.69694" lon="3.17252">
        <ele>253.19999694824</ele>
        <time>2023-05-27T12:47:52.000Z</time>
      </trkpt>
      <trkpt lat="43.69691" lon="3.1725">
        <ele>252.80000305176</ele>
        <time>2023-05-27T12:47:55.000Z</time>
      </trkpt>
      <trkpt lat="43.69685" lon="3.17246">
        <ele>252.80000305176</ele>
        <time>2023-05-27T12:48:01.000Z</time>
      </trkpt>
      <trkpt lat="43.69676" lon="3.17242">
        <ele>252.39999389648</ele>
        <time>2023-05-27T12:48:10.000Z</time>
      </trkpt>
      <trkpt lat="43.69671" lon="3.1724">
        <ele>252.19999694824</ele>
        <time>2023-05-27T12:48:19.000Z</time>
      </trkpt>
      <trkpt lat="43.69668" lon="3.17239">
        <ele>251.80000305176</ele>
        <time>2023-05-27T12:48:23.000Z</time>
      </trkpt>
      <trkpt lat="43.69664" lon="3.17238">
        <ele>252</ele>
        <time>2023-05-27T12:48:26.000Z</time>
      </trkpt>
      <trkpt lat="43.69653" lon="3.17233">
        <ele>251.60000610352</ele>
        <time>2023-05-27T12:48:36.000Z</time>
      </trkpt>
      <trkpt lat="43.69641" lon="3.17229">
        <ele>251.19999694824</ele>
        <time>2023-05-27T12:48:46.000Z</time>
      </trkpt>
      <trkpt lat="43.69636" lon="3.17227">
        <ele>250.80000305176</ele>
        <time>2023-05-27T12:48:51.000Z</time>
      </trkpt>
      <trkpt lat="43.69629" lon="3.17225">
        <ele>250.39999389648</ele>
        <time>2023-05-27T12:48:57.000Z</time>
      </trkpt>
      <trkpt lat="43.69619" lon="3.17222">
        <ele>249.80000305176</ele>
        <time>2023-05-27T12:49:06.000Z</time>
      </trkpt>
      <trkpt lat="43.69617" lon="3.17221">
        <ele>249.80000305176</ele>
        <time>2023-05-27T12:49:08.000Z</time>
      </trkpt>
      <trkpt lat="43.6961" lon="3.17219">
        <ele>249.60000610352</ele>
        <time>2023-05-27T12:49:15.000Z</time>
      </trkpt>
      <trkpt lat="43.69598" lon="3.17215">
        <ele>249.19999694824</ele>
        <time>2023-05-27T12:49:26.000Z</time>
      </trkpt>
      <trkpt lat="43.69587" lon="3.17211">
        <ele>249</ele>
        <time>2023-05-27T12:49:36.000Z</time>
      </trkpt>
      <trkpt lat="43.69573" lon="3.17205">
        <ele>248.80000305176</ele>
        <time>2023-05-27T12:49:48.000Z</time>
      </trkpt>
      <trkpt lat="43.69572" lon="3.17204">
        <ele>248.80000305176</ele>
        <time>2023-05-27T12:49:49.000Z</time>
      </trkpt>
      <trkpt lat="43.69564" lon="3.17198">
        <ele>248.80000305176</ele>
        <time>2023-05-27T12:49:58.000Z</time>
      </trkpt>
      <trkpt lat="43.69554" lon="3.17193">
        <ele>248.60000610352</ele>
        <time>2023-05-27T12:50:08.000Z</time>
      </trkpt>
      <trkpt lat="43.69546" lon="3.17188">
        <ele>247.80000305176</ele>
        <time>2023-05-27T12:50:17.000Z</time>
      </trkpt>
      <trkpt lat="43.69542" lon="3.17182">
        <ele>247.80000305176</ele>
        <time>2023-05-27T12:50:22.000Z</time>
      </trkpt>
      <trkpt lat="43.69543" lon="3.17178">
        <ele>247.60000610352</ele>
        <time>2023-05-27T12:50:25.000Z</time>
      </trkpt>
      <trkpt lat="43.69547" lon="3.17169">
        <ele>247</ele>
        <time>2023-05-27T12:50:32.000Z</time>
      </trkpt>
      <trkpt lat="43.69555" lon="3.17164">
        <ele>246.80000305176</ele>
        <time>2023-05-27T12:50:41.000Z</time>
      </trkpt>
      <trkpt lat="43.69564" lon="3.17158">
        <ele>247</ele>
        <time>2023-05-27T12:50:50.000Z</time>
      </trkpt>
      <trkpt lat="43.69566" lon="3.17157">
        <ele>246.80000305176</ele>
        <time>2023-05-27T12:50:54.000Z</time>
      </trkpt>
      <trkpt lat="43.69568" lon="3.17156">
        <ele>246.80000305176</ele>
        <time>2023-05-27T12:50:56.000Z</time>
      </trkpt>
      <trkpt lat="43.69576" lon="3.17151">
        <ele>246.80000305176</ele>
        <time>2023-05-27T12:51:03.000Z</time>
      </trkpt>
      <trkpt lat="43.69576" lon="3.1715">
        <ele>246.80000305176</ele>
        <time>2023-05-27T12:51:04.000Z</time>
      </trkpt>
      <trkpt lat="43.69587" lon="3.17143">
        <ele>246.60000610352</ele>
        <time>2023-05-27T12:51:13.000Z</time>
      </trkpt>
      <trkpt lat="43.69598" lon="3.17136">
        <ele>246.19999694824</ele>
        <time>2023-05-27T12:51:25.000Z</time>
      </trkpt>
      <trkpt lat="43.69606" lon="3.17132">
        <ele>246.19999694824</ele>
        <time>2023-05-27T12:51:34.000Z</time>
      </trkpt>
      <trkpt lat="43.69608" lon="3.1713">
        <ele>246.19999694824</ele>
        <time>2023-05-27T12:51:38.000Z</time>
      </trkpt>
      <trkpt lat="43.69608" lon="3.17131">
        <ele>246.19999694824</ele>
        <time>2023-05-27T12:51:41.000Z</time>
      </trkpt>
      <trkpt lat="43.69608" lon="3.17132">
        <ele>246</ele>
        <time>2023-05-27T12:51:49.000Z</time>
      </trkpt>
      <trkpt lat="43.69608" lon="3.17133">
        <ele>246</ele>
        <time>2023-05-27T12:51:55.000Z</time>
      </trkpt>
      <trkpt lat="43.69608" lon="3.17135">
        <ele>246.19999694824</ele>
        <time>2023-05-27T12:52:03.000Z</time>
      </trkpt>
      <trkpt lat="43.69607" lon="3.17137">
        <ele>246</ele>
        <time>2023-05-27T12:52:13.000Z</time>
      </trkpt>
      <trkpt lat="43.69607" lon="3.17138">
        <ele>245.80000305176</ele>
        <time>2023-05-27T12:52:18.000Z</time>
      </trkpt>
      <trkpt lat="43.69607" lon="3.17139">
        <ele>245.60000610352</ele>
        <time>2023-05-27T12:52:19.000Z</time>
      </trkpt>
      <trkpt lat="43.69607" lon="3.17138">
        <ele>246</ele>
        <time>2023-05-27T12:52:24.000Z</time>
      </trkpt>
      <trkpt lat="43.69606" lon="3.17139">
        <ele>246.39999389648</ele>
        <time>2023-05-27T12:52:35.000Z</time>
      </trkpt>
      <trkpt lat="43.69606" lon="3.17138">
        <ele>246.80000305176</ele>
        <time>2023-05-27T12:52:40.000Z</time>
      </trkpt>
      <trkpt lat="43.69607" lon="3.17139">
        <ele>246.19999694824</ele>
        <time>2023-05-27T12:52:45.000Z</time>
      </trkpt>
      <trkpt lat="43.69607" lon="3.1714">
        <ele>245.19999694824</ele>
        <time>2023-05-27T12:52:56.000Z</time>
      </trkpt>
      <trkpt lat="43.69608" lon="3.1714">
        <ele>242.19999694824</ele>
        <time>2023-05-27T12:52:57.000Z</time>
      </trkpt>
      <trkpt lat="43.69609" lon="3.17138">
        <ele>239.80000305176</ele>
        <time>2023-05-27T12:53:00.000Z</time>
      </trkpt>
      <trkpt lat="43.69609" lon="3.17138">
        <ele>241.39999389648</ele>
        <time>2023-05-27T12:53:01.000Z</time>
      </trkpt>
      <trkpt lat="43.69611" lon="3.17138">
        <ele>238</ele>
        <time>2023-05-27T12:53:04.000Z</time>
      </trkpt>
      <trkpt lat="43.69611" lon="3.17137">
        <ele>237.19999694824</ele>
        <time>2023-05-27T12:53:06.000Z</time>
      </trkpt>
      <trkpt lat="43.69611" lon="3.17137">
        <ele>235.80000305176</ele>
        <time>2023-05-27T12:53:07.000Z</time>
      </trkpt>
      <trkpt lat="43.69611" lon="3.17138">
        <ele>232.60000610352</ele>
        <time>2023-05-27T12:53:09.000Z</time>
      </trkpt>
      <trkpt lat="43.69613" lon="3.17137">
        <ele>231.39999389648</ele>
        <time>2023-05-27T12:53:10.000Z</time>
      </trkpt>
      <trkpt lat="43.69613" lon="3.17137">
        <ele>229.80000305176</ele>
        <time>2023-05-27T12:53:11.000Z</time>
      </trkpt>
      <trkpt lat="43.69613" lon="3.17137">
        <ele>228.80000305176</ele>
        <time>2023-05-27T12:53:12.000Z</time>
      </trkpt>
      <trkpt lat="43.69613" lon="3.17136">
        <ele>230.80000305176</ele>
        <time>2023-05-27T12:53:13.000Z</time>
      </trkpt>
      <trkpt lat="43.69613" lon="3.17136">
        <ele>230.39999389648</ele>
        <time>2023-05-27T12:53:14.000Z</time>
      </trkpt>
      <trkpt lat="43.69614" lon="3.17135">
        <ele>233.39999389648</ele>
        <time>2023-05-27T12:53:15.000Z</time>
      </trkpt>
      <trkpt lat="43.69613" lon="3.17135">
        <ele>236.60000610352</ele>
        <time>2023-05-27T12:53:16.000Z</time>
      </trkpt>
      <trkpt lat="43.69614" lon="3.17135">
        <ele>242.19999694824</ele>
        <time>2023-05-27T12:53:17.000Z</time>
      </trkpt>
      <trkpt lat="43.69614" lon="3.17136">
        <ele>243.60000610352</ele>
        <time>2023-05-27T12:53:18.000Z</time>
      </trkpt>
      <trkpt lat="43.69614" lon="3.17136">
        <ele>247.80000305176</ele>
        <time>2023-05-27T12:53:19.000Z</time>
      </trkpt>
      <trkpt lat="43.69614" lon="3.17136">
        <ele>250.60000610352</ele>
        <time>2023-05-27T12:53:20.000Z</time>
      </trkpt>
      <trkpt lat="43.69614" lon="3.17136">
        <ele>250.39999389648</ele>
        <time>2023-05-27T12:53:22.000Z</time>
      </trkpt>
      <trkpt lat="43.69614" lon="3.17137">
        <ele>251.60000610352</ele>
        <time>2023-05-27T12:53:26.000Z</time>
      </trkpt>
      <trkpt lat="43.69614" lon="3.17137">
        <ele>249.80000305176</ele>
        <time>2023-05-27T12:53:28.000Z</time>
      </trkpt>
      <trkpt lat="43.69613" lon="3.17139">
        <ele>249.39999389648</ele>
        <time>2023-05-27T12:53:29.000Z</time>
      </trkpt>
      <trkpt lat="43.69612" lon="3.17139">
        <ele>247.80000305176</ele>
        <time>2023-05-27T12:53:30.000Z</time>
      </trkpt>
      <trkpt lat="43.69612" lon="3.17139">
        <ele>245.39999389648</ele>
        <time>2023-05-27T12:53:31.000Z</time>
      </trkpt>
      <trkpt lat="43.69614" lon="3.17138">
        <ele>245.80000305176</ele>
        <time>2023-05-27T12:53:36.000Z</time>
      </trkpt>
      <trkpt lat="43.69614" lon="3.17135">
        <ele>241.19999694824</ele>
        <time>2023-05-27T12:53:40.000Z</time>
      </trkpt>
      <trkpt lat="43.69613" lon="3.17135">
        <ele>237.60000610352</ele>
        <time>2023-05-27T12:53:41.000Z</time>
      </trkpt>
      <trkpt lat="43.69611" lon="3.17136">
        <ele>238</ele>
        <time>2023-05-27T12:53:43.000Z</time>
      </trkpt>
      <trkpt lat="43.69609" lon="3.17137">
        <ele>238.60000610352</ele>
        <time>2023-05-27T12:53:45.000Z</time>
      </trkpt>
      <trkpt lat="43.69609" lon="3.17136">
        <ele>242.60000610352</ele>
        <time>2023-05-27T12:53:46.000Z</time>
      </trkpt>
      <trkpt lat="43.69609" lon="3.17137">
        <ele>247.39999389648</ele>
        <time>2023-05-27T12:53:47.000Z</time>
      </trkpt>
      <trkpt lat="43.6961" lon="3.17136">
        <ele>246.39999389648</ele>
        <time>2023-05-27T12:53:48.000Z</time>
      </trkpt>
      <trkpt lat="43.69609" lon="3.17137">
        <ele>246.39999389648</ele>
        <time>2023-05-27T12:53:49.000Z</time>
      </trkpt>
      <trkpt lat="43.6961" lon="3.17137">
        <ele>244.60000610352</ele>
        <time>2023-05-27T12:53:52.000Z</time>
      </trkpt>
      <trkpt lat="43.6961" lon="3.17137">
        <ele>245.19999694824</ele>
        <time>2023-05-27T12:53:57.000Z</time>
      </trkpt>
      <trkpt lat="43.6961" lon="3.17137">
        <ele>245.80000305176</ele>
        <time>2023-05-27T12:53:59.000Z</time>
      </trkpt>
      <trkpt lat="43.6961" lon="3.17138">
        <ele>245.39999389648</ele>
        <time>2023-05-27T12:54:06.000Z</time>
      </trkpt>
      <trkpt lat="43.6961" lon="3.17138">
        <ele>245.60000610352</ele>
        <time>2023-05-27T12:54:12.000Z</time>
      </trkpt>
      <trkpt lat="43.69605" lon="3.17143">
        <ele>245.60000610352</ele>
        <time>2023-05-27T12:54:17.000Z</time>
      </trkpt>
      <trkpt lat="43.69601" lon="3.17147">
        <ele>245.60000610352</ele>
        <time>2023-05-27T12:54:25.000Z</time>
      </trkpt>
      <trkpt lat="43.69601" lon="3.17148">
        <ele>245.60000610352</ele>
        <time>2023-05-27T12:54:26.000Z</time>
      </trkpt>
      <trkpt lat="43.69601" lon="3.17147">
        <ele>246</ele>
        <time>2023-05-27T12:54:30.000Z</time>
      </trkpt>
      <trkpt lat="43.69602" lon="3.17149">
        <ele>245.80000305176</ele>
        <time>2023-05-27T12:54:37.000Z</time>
      </trkpt>
      <trkpt lat="43.69601" lon="3.17146">
        <ele>246.19999694824</ele>
        <time>2023-05-27T12:54:45.000Z</time>
      </trkpt>
      <trkpt lat="43.69601" lon="3.17145">
        <ele>246.19999694824</ele>
        <time>2023-05-27T12:55:02.000Z</time>
      </trkpt>
      <trkpt lat="43.69601" lon="3.17145">
        <ele>246.39999389648</ele>
        <time>2023-05-27T12:55:14.000Z</time>
      </trkpt>
      <trkpt lat="43.696" lon="3.17143">
        <ele>246.19999694824</ele>
        <time>2023-05-27T12:55:22.000Z</time>
      </trkpt>
      <trkpt lat="43.696" lon="3.17142">
        <ele>246.19999694824</ele>
        <time>2023-05-27T12:55:29.000Z</time>
      </trkpt>
      <trkpt lat="43.69599" lon="3.17141">
        <ele>246.39999389648</ele>
        <time>2023-05-27T12:55:40.000Z</time>
      </trkpt>
      <trkpt lat="43.69599" lon="3.17135">
        <ele>246.19999694824</ele>
        <time>2023-05-27T12:55:45.000Z</time>
      </trkpt>
      <trkpt lat="43.69599" lon="3.17135">
        <ele>246.19999694824</ele>
        <time>2023-05-27T12:55:50.000Z</time>
      </trkpt>
      <trkpt lat="43.69604" lon="3.1713">
        <ele>246.19999694824</ele>
        <time>2023-05-27T12:55:56.000Z</time>
      </trkpt>
      <trkpt lat="43.69607" lon="3.17128">
        <ele>246</ele>
        <time>2023-05-27T12:56:04.000Z</time>
      </trkpt>
      <trkpt lat="43.69607" lon="3.17132">
        <ele>246.19999694824</ele>
        <time>2023-05-27T12:56:09.000Z</time>
      </trkpt>
      <trkpt lat="43.69607" lon="3.17133">
        <ele>246.39999389648</ele>
        <time>2023-05-27T12:56:17.000Z</time>
      </trkpt>
      <trkpt lat="43.69607" lon="3.17134">
        <ele>246</ele>
        <time>2023-05-27T12:56:25.000Z</time>
      </trkpt>
      <trkpt lat="43.69609" lon="3.17133">
        <ele>245.80000305176</ele>
        <time>2023-05-27T12:56:33.000Z</time>
      </trkpt>
      <trkpt lat="43.69608" lon="3.17137">
        <ele>246</ele>
        <time>2023-05-27T12:56:38.000Z</time>
      </trkpt>
      <trkpt lat="43.69607" lon="3.17138">
        <ele>245.80000305176</ele>
        <time>2023-05-27T12:56:44.000Z</time>
      </trkpt>
      <trkpt lat="43.69606" lon="3.17139">
        <ele>246.39999389648</ele>
        <time>2023-05-27T12:56:49.000Z</time>
      </trkpt>
      <trkpt lat="43.69607" lon="3.17138">
        <ele>245.60000610352</ele>
        <time>2023-05-27T12:56:55.000Z</time>
      </trkpt>
      <trkpt lat="43.69607" lon="3.17138">
        <ele>246</ele>
        <time>2023-05-27T12:57:02.000Z</time>
      </trkpt>
      <trkpt lat="43.69609" lon="3.17138">
        <ele>246</ele>
        <time>2023-05-27T12:57:08.000Z</time>
      </trkpt>
      <trkpt lat="43.69608" lon="3.17138">
        <ele>246.19999694824</ele>
        <time>2023-05-27T12:57:15.000Z</time>
      </trkpt>
      <trkpt lat="43.69607" lon="3.1714">
        <ele>246.39999389648</ele>
        <time>2023-05-27T12:57:23.000Z</time>
      </trkpt>
      <trkpt lat="43.69608" lon="3.1714">
        <ele>245.80000305176</ele>
        <time>2023-05-27T12:57:32.000Z</time>
      </trkpt>
      <trkpt lat="43.69608" lon="3.17139">
        <ele>246</ele>
        <time>2023-05-27T12:57:40.000Z</time>
      </trkpt>
      <trkpt lat="43.69612" lon="3.17133">
        <ele>245.80000305176</ele>
        <time>2023-05-27T12:57:45.000Z</time>
      </trkpt>
      <trkpt lat="43.6962" lon="3.17124">
        <ele>246</ele>
        <time>2023-05-27T12:57:54.000Z</time>
      </trkpt>
      <trkpt lat="43.69628" lon="3.17116">
        <ele>246.60000610352</ele>
        <time>2023-05-27T12:58:03.000Z</time>
      </trkpt>
      <trkpt lat="43.69636" lon="3.17111">
        <ele>246.19999694824</ele>
        <time>2023-05-27T12:58:11.000Z</time>
      </trkpt>
      <trkpt lat="43.69641" lon="3.17107">
        <ele>246</ele>
        <time>2023-05-27T12:58:18.000Z</time>
      </trkpt>
      <trkpt lat="43.69649" lon="3.17101">
        <ele>246.19999694824</ele>
        <time>2023-05-27T12:58:29.000Z</time>
      </trkpt>
      <trkpt lat="43.69657" lon="3.17096">
        <ele>246.19999694824</ele>
        <time>2023-05-27T12:58:38.000Z</time>
      </trkpt>
      <trkpt lat="43.6966" lon="3.17096">
        <ele>246.19999694824</ele>
        <time>2023-05-27T12:58:42.000Z</time>
      </trkpt>
      <trkpt lat="43.69663" lon="3.17094">
        <ele>246.19999694824</ele>
        <time>2023-05-27T12:58:47.000Z</time>
      </trkpt>
      <trkpt lat="43.69665" lon="3.1709">
        <ele>246.19999694824</ele>
        <time>2023-05-27T12:58:55.000Z</time>
      </trkpt>
      <trkpt lat="43.69669" lon="3.1709">
        <ele>246.19999694824</ele>
        <time>2023-05-27T12:59:02.000Z</time>
      </trkpt>
      <trkpt lat="43.69676" lon="3.17084">
        <ele>246</ele>
        <time>2023-05-27T12:59:10.000Z</time>
      </trkpt>
      <trkpt lat="43.6968" lon="3.17082">
        <ele>246</ele>
        <time>2023-05-27T12:59:14.000Z</time>
      </trkpt>
      <trkpt lat="43.69684" lon="3.17079">
        <ele>246.19999694824</ele>
        <time>2023-05-27T12:59:18.000Z</time>
      </trkpt>
      <trkpt lat="43.69689" lon="3.17076">
        <ele>246.19999694824</ele>
        <time>2023-05-27T12:59:24.000Z</time>
      </trkpt>
      <trkpt lat="43.69691" lon="3.17075">
        <ele>246.19999694824</ele>
        <time>2023-05-27T12:59:26.000Z</time>
      </trkpt>
      <trkpt lat="43.69693" lon="3.17073">
        <ele>246.19999694824</ele>
        <time>2023-05-27T12:59:29.000Z</time>
      </trkpt>
      <trkpt lat="43.69698" lon="3.17071">
        <ele>246.19999694824</ele>
        <time>2023-05-27T12:59:34.000Z</time>
      </trkpt>
      <trkpt lat="43.697" lon="3.17069">
        <ele>246.19999694824</ele>
        <time>2023-05-27T12:59:41.000Z</time>
      </trkpt>
      <trkpt lat="43.69707" lon="3.17066">
        <ele>246.19999694824</ele>
        <time>2023-05-27T12:59:46.000Z</time>
      </trkpt>
      <trkpt lat="43.69713" lon="3.17064">
        <ele>246.19999694824</ele>
        <time>2023-05-27T12:59:51.000Z</time>
      </trkpt>
      <trkpt lat="43.69717" lon="3.17058">
        <ele>246.19999694824</ele>
        <time>2023-05-27T12:59:55.000Z</time>
      </trkpt>
      <trkpt lat="43.69718" lon="3.17058">
        <ele>246.39999389648</ele>
        <time>2023-05-27T12:59:56.000Z</time>
      </trkpt>
      <trkpt lat="43.69726" lon="3.1705">
        <ele>246.60000610352</ele>
        <time>2023-05-27T13:00:04.000Z</time>
      </trkpt>
      <trkpt lat="43.69734" lon="3.17045">
        <ele>246.80000305176</ele>
        <time>2023-05-27T13:00:14.000Z</time>
      </trkpt>
      <trkpt lat="43.69742" lon="3.1704">
        <ele>246.80000305176</ele>
        <time>2023-05-27T13:00:22.000Z</time>
      </trkpt>
      <trkpt lat="43.69752" lon="3.17035">
        <ele>246.80000305176</ele>
        <time>2023-05-27T13:00:32.000Z</time>
      </trkpt>
      <trkpt lat="43.69761" lon="3.1703">
        <ele>247</ele>
        <time>2023-05-27T13:00:41.000Z</time>
      </trkpt>
      <trkpt lat="43.6977" lon="3.17025">
        <ele>247</ele>
        <time>2023-05-27T13:00:51.000Z</time>
      </trkpt>
      <trkpt lat="43.69776" lon="3.17022">
        <ele>247.19999694824</ele>
        <time>2023-05-27T13:00:57.000Z</time>
      </trkpt>
      <trkpt lat="43.69783" lon="3.17017">
        <ele>247.19999694824</ele>
        <time>2023-05-27T13:01:04.000Z</time>
      </trkpt>
      <trkpt lat="43.69787" lon="3.17014">
        <ele>247.60000610352</ele>
        <time>2023-05-27T13:01:11.000Z</time>
      </trkpt>
      <trkpt lat="43.69789" lon="3.17013">
        <ele>247.60000610352</ele>
        <time>2023-05-27T13:01:17.000Z</time>
      </trkpt>
      <trkpt lat="43.69796" lon="3.17007">
        <ele>247.19999694824</ele>
        <time>2023-05-27T13:01:25.000Z</time>
      </trkpt>
      <trkpt lat="43.69804" lon="3.17001">
        <ele>247.39999389648</ele>
        <time>2023-05-27T13:01:33.000Z</time>
      </trkpt>
      <trkpt lat="43.69808" lon="3.16996">
        <ele>247.19999694824</ele>
        <time>2023-05-27T13:01:40.000Z</time>
      </trkpt>
      <trkpt lat="43.69812" lon="3.16994">
        <ele>247.39999389648</ele>
        <time>2023-05-27T13:01:45.000Z</time>
      </trkpt>
      <trkpt lat="43.69812" lon="3.16993">
        <ele>247.19999694824</ele>
        <time>2023-05-27T13:01:46.000Z</time>
      </trkpt>
      <trkpt lat="43.69821" lon="3.16986">
        <ele>247.39999389648</ele>
        <time>2023-05-27T13:01:56.000Z</time>
      </trkpt>
      <trkpt lat="43.69827" lon="3.16981">
        <ele>247.39999389648</ele>
        <time>2023-05-27T13:02:02.000Z</time>
      </trkpt>
      <trkpt lat="43.69833" lon="3.16977">
        <ele>247.39999389648</ele>
        <time>2023-05-27T13:02:09.000Z</time>
      </trkpt>
      <trkpt lat="43.69841" lon="3.16971">
        <ele>247.60000610352</ele>
        <time>2023-05-27T13:02:18.000Z</time>
      </trkpt>
      <trkpt lat="43.6985" lon="3.16967">
        <ele>248</ele>
        <time>2023-05-27T13:02:27.000Z</time>
      </trkpt>
      <trkpt lat="43.69858" lon="3.16964">
        <ele>248.39999389648</ele>
        <time>2023-05-27T13:02:36.000Z</time>
      </trkpt>
      <trkpt lat="43.69863" lon="3.16962">
        <ele>248.60000610352</ele>
        <time>2023-05-27T13:02:42.000Z</time>
      </trkpt>
      <trkpt lat="43.69873" lon="3.16958">
        <ele>248.60000610352</ele>
        <time>2023-05-27T13:02:51.000Z</time>
      </trkpt>
      <trkpt lat="43.69885" lon="3.16953">
        <ele>248.80000305176</ele>
        <time>2023-05-27T13:03:01.000Z</time>
      </trkpt>
      <trkpt lat="43.69895" lon="3.16951">
        <ele>248.39999389648</ele>
        <time>2023-05-27T13:03:10.000Z</time>
      </trkpt>
      <trkpt lat="43.69905" lon="3.16949">
        <ele>248.39999389648</ele>
        <time>2023-05-27T13:03:19.000Z</time>
      </trkpt>
      <trkpt lat="43.69918" lon="3.16953">
        <ele>248.39999389648</ele>
        <time>2023-05-27T13:03:31.000Z</time>
      </trkpt>
      <trkpt lat="43.69927" lon="3.16955">
        <ele>248.39999389648</ele>
        <time>2023-05-27T13:03:39.000Z</time>
      </trkpt>
      <trkpt lat="43.69937" lon="3.16959">
        <ele>248.39999389648</ele>
        <time>2023-05-27T13:03:49.000Z</time>
      </trkpt>
      <trkpt lat="43.69945" lon="3.16961">
        <ele>248.19999694824</ele>
        <time>2023-05-27T13:03:57.000Z</time>
      </trkpt>
      <trkpt lat="43.69953" lon="3.16963">
        <ele>248.19999694824</ele>
        <time>2023-05-27T13:04:05.000Z</time>
      </trkpt>
      <trkpt lat="43.69959" lon="3.16964">
        <ele>248.60000610352</ele>
        <time>2023-05-27T13:04:13.000Z</time>
      </trkpt>
      <trkpt lat="43.69961" lon="3.16964">
        <ele>248.60000610352</ele>
        <time>2023-05-27T13:04:20.000Z</time>
      </trkpt>
      <trkpt lat="43.69965" lon="3.16957">
        <ele>248.80000305176</ele>
        <time>2023-05-27T13:04:27.000Z</time>
      </trkpt>
      <trkpt lat="43.69966" lon="3.16953">
        <ele>249</ele>
        <time>2023-05-27T13:04:33.000Z</time>
      </trkpt>
      <trkpt lat="43.69967" lon="3.16952">
        <ele>249</ele>
        <time>2023-05-27T13:04:34.000Z</time>
      </trkpt>
      <trkpt lat="43.69969" lon="3.16944">
        <ele>249</ele>
        <time>2023-05-27T13:04:40.000Z</time>
      </trkpt>
      <trkpt lat="43.6997" lon="3.16931">
        <ele>249.39999389648</ele>
        <time>2023-05-27T13:04:48.000Z</time>
      </trkpt>
      <trkpt lat="43.69971" lon="3.16926">
        <ele>249</ele>
        <time>2023-05-27T13:04:51.000Z</time>
      </trkpt>
      <trkpt lat="43.69972" lon="3.16921">
        <ele>249</ele>
        <time>2023-05-27T13:04:54.000Z</time>
      </trkpt>
      <trkpt lat="43.69973" lon="3.16915">
        <ele>249.19999694824</ele>
        <time>2023-05-27T13:04:58.000Z</time>
      </trkpt>
      <trkpt lat="43.69973" lon="3.16912">
        <ele>249.39999389648</ele>
        <time>2023-05-27T13:05:00.000Z</time>
      </trkpt>
      <trkpt lat="43.69975" lon="3.16903">
        <ele>249.19999694824</ele>
        <time>2023-05-27T13:05:08.000Z</time>
      </trkpt>
      <trkpt lat="43.69976" lon="3.16891">
        <ele>250</ele>
        <time>2023-05-27T13:05:17.000Z</time>
      </trkpt>
      <trkpt lat="43.69977" lon="3.16882">
        <ele>250</ele>
        <time>2023-05-27T13:05:24.000Z</time>
      </trkpt>
      <trkpt lat="43.69977" lon="3.16873">
        <ele>250.39999389648</ele>
        <time>2023-05-27T13:05:30.000Z</time>
      </trkpt>
      <trkpt lat="43.69977" lon="3.16864">
        <ele>250.60000610352</ele>
        <time>2023-05-27T13:05:39.000Z</time>
      </trkpt>
      <trkpt lat="43.69977" lon="3.16858">
        <ele>251</ele>
        <time>2023-05-27T13:05:49.000Z</time>
      </trkpt>
      <trkpt lat="43.69975" lon="3.1686">
        <ele>251.19999694824</ele>
        <time>2023-05-27T13:05:51.000Z</time>
      </trkpt>
      <trkpt lat="43.69976" lon="3.16847">
        <ele>251</ele>
        <time>2023-05-27T13:05:59.000Z</time>
      </trkpt>
      <trkpt lat="43.69976" lon="3.16842">
        <ele>251.19999694824</ele>
        <time>2023-05-27T13:06:06.000Z</time>
      </trkpt>
      <trkpt lat="43.69977" lon="3.1683">
        <ele>250.80000305176</ele>
        <time>2023-05-27T13:06:14.000Z</time>
      </trkpt>
      <trkpt lat="43.69977" lon="3.16827">
        <ele>251.19999694824</ele>
        <time>2023-05-27T13:06:19.000Z</time>
      </trkpt>
      <trkpt lat="43.69978" lon="3.16816">
        <ele>250.60000610352</ele>
        <time>2023-05-27T13:06:26.000Z</time>
      </trkpt>
      <trkpt lat="43.69978" lon="3.16803">
        <ele>250.60000610352</ele>
        <time>2023-05-27T13:06:35.000Z</time>
      </trkpt>
      <trkpt lat="43.69978" lon="3.16796">
        <ele>250.60000610352</ele>
        <time>2023-05-27T13:06:39.000Z</time>
      </trkpt>
      <trkpt lat="43.69979" lon="3.1679">
        <ele>250.19999694824</ele>
        <time>2023-05-27T13:06:43.000Z</time>
      </trkpt>
      <trkpt lat="43.69979" lon="3.16788">
        <ele>250</ele>
        <time>2023-05-27T13:06:44.000Z</time>
      </trkpt>
      <trkpt lat="43.69981" lon="3.16776">
        <ele>250</ele>
        <time>2023-05-27T13:06:52.000Z</time>
      </trkpt>
      <trkpt lat="43.69981" lon="3.16766">
        <ele>250.60000610352</ele>
        <time>2023-05-27T13:06:58.000Z</time>
      </trkpt>
      <trkpt lat="43.69982" lon="3.16751">
        <ele>250.80000305176</ele>
        <time>2023-05-27T13:07:07.000Z</time>
      </trkpt>
      <trkpt lat="43.69983" lon="3.16743">
        <ele>251</ele>
        <time>2023-05-27T13:07:13.000Z</time>
      </trkpt>
      <trkpt lat="43.69984" lon="3.16739">
        <ele>250.80000305176</ele>
        <time>2023-05-27T13:07:16.000Z</time>
      </trkpt>
      <trkpt lat="43.69984" lon="3.16738">
        <ele>250.80000305176</ele>
        <time>2023-05-27T13:07:17.000Z</time>
      </trkpt>
      <trkpt lat="43.69986" lon="3.16727">
        <ele>251</ele>
        <time>2023-05-27T13:07:26.000Z</time>
      </trkpt>
      <trkpt lat="43.69985" lon="3.16726">
        <ele>251</ele>
        <time>2023-05-27T13:07:27.000Z</time>
      </trkpt>
      <trkpt lat="43.69987" lon="3.16717">
        <ele>251.39999389648</ele>
        <time>2023-05-27T13:07:34.000Z</time>
      </trkpt>
      <trkpt lat="43.69987" lon="3.16715">
        <ele>251.19999694824</ele>
        <time>2023-05-27T13:07:35.000Z</time>
      </trkpt>
      <trkpt lat="43.69989" lon="3.16706">
        <ele>251.19999694824</ele>
        <time>2023-05-27T13:07:41.000Z</time>
      </trkpt>
      <trkpt lat="43.69989" lon="3.16696">
        <ele>251</ele>
        <time>2023-05-27T13:07:48.000Z</time>
      </trkpt>
      <trkpt lat="43.69989" lon="3.16695">
        <ele>251</ele>
        <time>2023-05-27T13:07:49.000Z</time>
      </trkpt>
      <trkpt lat="43.69987" lon="3.16687">
        <ele>251</ele>
        <time>2023-05-27T13:07:55.000Z</time>
      </trkpt>
      <trkpt lat="43.69987" lon="3.16686">
        <ele>251</ele>
        <time>2023-05-27T13:07:56.000Z</time>
      </trkpt>
      <trkpt lat="43.69985" lon="3.16676">
        <ele>251.19999694824</ele>
        <time>2023-05-27T13:08:02.000Z</time>
      </trkpt>
      <trkpt lat="43.69984" lon="3.16674">
        <ele>251.19999694824</ele>
        <time>2023-05-27T13:08:03.000Z</time>
      </trkpt>
      <trkpt lat="43.69984" lon="3.16668">
        <ele>251.39999389648</ele>
        <time>2023-05-27T13:08:07.000Z</time>
      </trkpt>
      <trkpt lat="43.69982" lon="3.16659">
        <ele>251.19999694824</ele>
        <time>2023-05-27T13:08:13.000Z</time>
      </trkpt>
      <trkpt lat="43.69982" lon="3.16656">
        <ele>251.39999389648</ele>
        <time>2023-05-27T13:08:15.000Z</time>
      </trkpt>
      <trkpt lat="43.69984" lon="3.16653">
        <ele>251.39999389648</ele>
        <time>2023-05-27T13:08:19.000Z</time>
      </trkpt>
      <trkpt lat="43.69985" lon="3.16651">
        <ele>251.39999389648</ele>
        <time>2023-05-27T13:08:21.000Z</time>
      </trkpt>
      <trkpt lat="43.69986" lon="3.16652">
        <ele>251.39999389648</ele>
        <time>2023-05-27T13:08:24.000Z</time>
      </trkpt>
      <trkpt lat="43.69989" lon="3.16651">
        <ele>251.80000305176</ele>
        <time>2023-05-27T13:08:29.000Z</time>
      </trkpt>
      <trkpt lat="43.6999" lon="3.16648">
        <ele>252</ele>
        <time>2023-05-27T13:08:32.000Z</time>
      </trkpt>
      <trkpt lat="43.69992" lon="3.16642">
        <ele>252.39999389648</ele>
        <time>2023-05-27T13:08:37.000Z</time>
      </trkpt>
      <trkpt lat="43.69992" lon="3.16636">
        <ele>252.60000610352</ele>
        <time>2023-05-27T13:08:41.000Z</time>
      </trkpt>
      <trkpt lat="43.69992" lon="3.16634">
        <ele>252.80000305176</ele>
        <time>2023-05-27T13:08:43.000Z</time>
      </trkpt>
      <trkpt lat="43.69992" lon="3.16632">
        <ele>252.80000305176</ele>
        <time>2023-05-27T13:08:44.000Z</time>
      </trkpt>
      <trkpt lat="43.69993" lon="3.16624">
        <ele>253</ele>
        <time>2023-05-27T13:08:51.000Z</time>
      </trkpt>
      <trkpt lat="43.69993" lon="3.16623">
        <ele>253.19999694824</ele>
        <time>2023-05-27T13:08:52.000Z</time>
      </trkpt>
      <trkpt lat="43.69994" lon="3.16622">
        <ele>253.19999694824</ele>
        <time>2023-05-27T13:08:53.000Z</time>
      </trkpt>
      <trkpt lat="43.69995" lon="3.16615">
        <ele>253.39999389648</ele>
        <time>2023-05-27T13:09:00.000Z</time>
      </trkpt>
      <trkpt lat="43.69995" lon="3.16612">
        <ele>253.60000610352</ele>
        <time>2023-05-27T13:09:02.000Z</time>
      </trkpt>
      <trkpt lat="43.69995" lon="3.16608">
        <ele>253.80000305176</ele>
        <time>2023-05-27T13:09:06.000Z</time>
      </trkpt>
      <trkpt lat="43.69996" lon="3.16603">
        <ele>254.19999694824</ele>
        <time>2023-05-27T13:09:12.000Z</time>
      </trkpt>
      <trkpt lat="43.69996" lon="3.16601">
        <ele>254.39999389648</ele>
        <time>2023-05-27T13:09:14.000Z</time>
      </trkpt>
      <trkpt lat="43.69994" lon="3.16589">
        <ele>254.39999389648</ele>
        <time>2023-05-27T13:09:25.000Z</time>
      </trkpt>
      <trkpt lat="43.69994" lon="3.16583">
        <ele>255.19999694824</ele>
        <time>2023-05-27T13:09:31.000Z</time>
      </trkpt>
      <trkpt lat="43.69994" lon="3.16578">
        <ele>255.60000610352</ele>
        <time>2023-05-27T13:09:35.000Z</time>
      </trkpt>
      <trkpt lat="43.69994" lon="3.16566">
        <ele>256</ele>
        <time>2023-05-27T13:09:44.000Z</time>
      </trkpt>
      <trkpt lat="43.69995" lon="3.16562">
        <ele>256.20001220703</ele>
        <time>2023-05-27T13:09:47.000Z</time>
      </trkpt>
      <trkpt lat="43.69995" lon="3.16561">
        <ele>256.20001220703</ele>
        <time>2023-05-27T13:09:48.000Z</time>
      </trkpt>
      <trkpt lat="43.69996" lon="3.16558">
        <ele>256.39999389648</ele>
        <time>2023-05-27T13:09:51.000Z</time>
      </trkpt>
      <trkpt lat="43.69996" lon="3.16557">
        <ele>256.39999389648</ele>
        <time>2023-05-27T13:09:52.000Z</time>
      </trkpt>
      <trkpt lat="43.69997" lon="3.1655">
        <ele>256.79998779297</ele>
        <time>2023-05-27T13:09:59.000Z</time>
      </trkpt>
      <trkpt lat="43.69997" lon="3.16544">
        <ele>257.20001220703</ele>
        <time>2023-05-27T13:10:04.000Z</time>
      </trkpt>
      <trkpt lat="43.69998" lon="3.1654">
        <ele>257.39999389648</ele>
        <time>2023-05-27T13:10:07.000Z</time>
      </trkpt>
      <trkpt lat="43.7" lon="3.16532">
        <ele>257.79998779297</ele>
        <time>2023-05-27T13:10:15.000Z</time>
      </trkpt>
      <trkpt lat="43.70001" lon="3.1653">
        <ele>257.79998779297</ele>
        <time>2023-05-27T13:10:16.000Z</time>
      </trkpt>
      <trkpt lat="43.70003" lon="3.16526">
        <ele>258</ele>
        <time>2023-05-27T13:10:21.000Z</time>
      </trkpt>
      <trkpt lat="43.70004" lon="3.16522">
        <ele>258.20001220703</ele>
        <time>2023-05-27T13:10:25.000Z</time>
      </trkpt>
      <trkpt lat="43.70004" lon="3.16522">
        <ele>258.20001220703</ele>
        <time>2023-05-27T13:10:26.000Z</time>
      </trkpt>
      <trkpt lat="43.70004" lon="3.16521">
        <ele>258.39999389648</ele>
        <time>2023-05-27T13:10:27.000Z</time>
      </trkpt>
      <trkpt lat="43.70007" lon="3.16512">
        <ele>259</ele>
        <time>2023-05-27T13:10:35.000Z</time>
      </trkpt>
      <trkpt lat="43.70009" lon="3.16505">
        <ele>259.39999389648</ele>
        <time>2023-05-27T13:10:43.000Z</time>
      </trkpt>
      <trkpt lat="43.70012" lon="3.165">
        <ele>259.60000610352</ele>
        <time>2023-05-27T13:10:48.000Z</time>
      </trkpt>
      <trkpt lat="43.70013" lon="3.16496">
        <ele>260.20001220703</ele>
        <time>2023-05-27T13:10:55.000Z</time>
      </trkpt>
      <trkpt lat="43.70015" lon="3.1649">
        <ele>260.39999389648</ele>
        <time>2023-05-27T13:11:01.000Z</time>
      </trkpt>
      <trkpt lat="43.70018" lon="3.16483">
        <ele>261</ele>
        <time>2023-05-27T13:11:08.000Z</time>
      </trkpt>
      <trkpt lat="43.70022" lon="3.16476">
        <ele>261.39999389648</ele>
        <time>2023-05-27T13:11:16.000Z</time>
      </trkpt>
      <trkpt lat="43.70022" lon="3.16474">
        <ele>261.60000610352</ele>
        <time>2023-05-27T13:11:18.000Z</time>
      </trkpt>
      <trkpt lat="43.70023" lon="3.1647">
        <ele>261.79998779297</ele>
        <time>2023-05-27T13:11:22.000Z</time>
      </trkpt>
      <trkpt lat="43.70026" lon="3.16462">
        <ele>262.39999389648</ele>
        <time>2023-05-27T13:11:30.000Z</time>
      </trkpt>
      <trkpt lat="43.70028" lon="3.16453">
        <ele>262.79998779297</ele>
        <time>2023-05-27T13:11:38.000Z</time>
      </trkpt>
      <trkpt lat="43.70032" lon="3.16444">
        <ele>263.39999389648</ele>
        <time>2023-05-27T13:11:47.000Z</time>
      </trkpt>
      <trkpt lat="43.70032" lon="3.16443">
        <ele>263.39999389648</ele>
        <time>2023-05-27T13:11:48.000Z</time>
      </trkpt>
      <trkpt lat="43.70036" lon="3.16433">
        <ele>264.20001220703</ele>
        <time>2023-05-27T13:11:58.000Z</time>
      </trkpt>
      <trkpt lat="43.70037" lon="3.16425">
        <ele>264.39999389648</ele>
        <time>2023-05-27T13:12:05.000Z</time>
      </trkpt>
      <trkpt lat="43.70037" lon="3.16424">
        <ele>264.39999389648</ele>
        <time>2023-05-27T13:12:06.000Z</time>
      </trkpt>
      <trkpt lat="43.70037" lon="3.16423">
        <ele>264.60000610352</ele>
        <time>2023-05-27T13:12:07.000Z</time>
      </trkpt>
      <trkpt lat="43.70036" lon="3.16422">
        <ele>264.60000610352</ele>
        <time>2023-05-27T13:12:08.000Z</time>
      </trkpt>
      <trkpt lat="43.70035" lon="3.16416">
        <ele>265</ele>
        <time>2023-05-27T13:12:14.000Z</time>
      </trkpt>
      <trkpt lat="43.70033" lon="3.16412">
        <ele>265.39999389648</ele>
        <time>2023-05-27T13:12:18.000Z</time>
      </trkpt>
      <trkpt lat="43.70031" lon="3.16408">
        <ele>266</ele>
        <time>2023-05-27T13:12:23.000Z</time>
      </trkpt>
      <trkpt lat="43.70027" lon="3.16402">
        <ele>266.60000610352</ele>
        <time>2023-05-27T13:12:31.000Z</time>
      </trkpt>
      <trkpt lat="43.70025" lon="3.164">
        <ele>266.79998779297</ele>
        <time>2023-05-27T13:12:34.000Z</time>
      </trkpt>
      <trkpt lat="43.70025" lon="3.16399">
        <ele>267.39999389648</ele>
        <time>2023-05-27T13:12:41.000Z</time>
      </trkpt>
      <trkpt lat="43.70023" lon="3.16397">
        <ele>267.60000610352</ele>
        <time>2023-05-27T13:12:48.000Z</time>
      </trkpt>
      <trkpt lat="43.70022" lon="3.16396">
        <ele>267.39999389648</ele>
        <time>2023-05-27T13:12:53.000Z</time>
      </trkpt>
      <trkpt lat="43.70021" lon="3.16392">
        <ele>267.60000610352</ele>
        <time>2023-05-27T13:13:03.000Z</time>
      </trkpt>
      <trkpt lat="43.7002" lon="3.1639">
        <ele>268.20001220703</ele>
        <time>2023-05-27T13:13:12.000Z</time>
      </trkpt>
      <trkpt lat="43.70017" lon="3.16389">
        <ele>267.79998779297</ele>
        <time>2023-05-27T13:13:21.000Z</time>
      </trkpt>
      <trkpt lat="43.70012" lon="3.16387">
        <ele>268.60000610352</ele>
        <time>2023-05-27T13:13:31.000Z</time>
      </trkpt>
      <trkpt lat="43.70008" lon="3.16386">
        <ele>269.60000610352</ele>
        <time>2023-05-27T13:13:38.000Z</time>
      </trkpt>
      <trkpt lat="43.70006" lon="3.16387">
        <ele>270</ele>
        <time>2023-05-27T13:13:41.000Z</time>
      </trkpt>
      <trkpt lat="43.70003" lon="3.16385">
        <ele>270.79998779297</ele>
        <time>2023-05-27T13:13:46.000Z</time>
      </trkpt>
      <trkpt lat="43.7" lon="3.16384">
        <ele>271.39999389648</ele>
        <time>2023-05-27T13:13:50.000Z</time>
      </trkpt>
      <trkpt lat="43.69998" lon="3.16383">
        <ele>271.79998779297</ele>
        <time>2023-05-27T13:13:54.000Z</time>
      </trkpt>
      <trkpt lat="43.69997" lon="3.16382">
        <ele>272.39999389648</ele>
        <time>2023-05-27T13:13:59.000Z</time>
      </trkpt>
      <trkpt lat="43.69997" lon="3.16381">
        <ele>272.60000610352</ele>
        <time>2023-05-27T13:14:06.000Z</time>
      </trkpt>
      <trkpt lat="43.69997" lon="3.16382">
        <ele>272.20001220703</ele>
        <time>2023-05-27T13:14:15.000Z</time>
      </trkpt>
      <trkpt lat="43.69997" lon="3.16382">
        <ele>272.39999389648</ele>
        <time>2023-05-27T13:14:30.000Z</time>
      </trkpt>
      <trkpt lat="43.69996" lon="3.16384">
        <ele>272.39999389648</ele>
        <time>2023-05-27T13:14:48.000Z</time>
      </trkpt>
      <trkpt lat="43.69996" lon="3.16384">
        <ele>272.39999389648</ele>
        <time>2023-05-27T13:14:59.000Z</time>
      </trkpt>
      <trkpt lat="43.69994" lon="3.16383">
        <ele>272.60000610352</ele>
        <time>2023-05-27T13:15:13.000Z</time>
      </trkpt>
      <trkpt lat="43.69992" lon="3.16383">
        <ele>272.79998779297</ele>
        <time>2023-05-27T13:15:17.000Z</time>
      </trkpt>
      <trkpt lat="43.69989" lon="3.16381">
        <ele>273.39999389648</ele>
        <time>2023-05-27T13:15:24.000Z</time>
      </trkpt>
      <trkpt lat="43.69987" lon="3.1638">
        <ele>273.79998779297</ele>
        <time>2023-05-27T13:15:27.000Z</time>
      </trkpt>
      <trkpt lat="43.69984" lon="3.16379">
        <ele>274.79998779297</ele>
        <time>2023-05-27T13:15:33.000Z</time>
      </trkpt>
      <trkpt lat="43.69984" lon="3.16379">
        <ele>275</ele>
        <time>2023-05-27T13:15:34.000Z</time>
      </trkpt>
      <trkpt lat="43.69979" lon="3.16377">
        <ele>275.79998779297</ele>
        <time>2023-05-27T13:15:43.000Z</time>
      </trkpt>
      <trkpt lat="43.69979" lon="3.16377">
        <ele>276</ele>
        <time>2023-05-27T13:15:44.000Z</time>
      </trkpt>
      <trkpt lat="43.69977" lon="3.16374">
        <ele>277</ele>
        <time>2023-05-27T13:15:51.000Z</time>
      </trkpt>
      <trkpt lat="43.69975" lon="3.16373">
        <ele>279.79998779297</ele>
        <time>2023-05-27T13:15:55.000Z</time>
      </trkpt>
      <trkpt lat="43.69974" lon="3.16373">
        <ele>281.79998779297</ele>
        <time>2023-05-27T13:15:56.000Z</time>
      </trkpt>
      <trkpt lat="43.69975" lon="3.16373">
        <ele>283</ele>
        <time>2023-05-27T13:15:57.000Z</time>
      </trkpt>
      <trkpt lat="43.69974" lon="3.16373">
        <ele>284.20001220703</ele>
        <time>2023-05-27T13:15:58.000Z</time>
      </trkpt>
      <trkpt lat="43.69973" lon="3.16373">
        <ele>281.60000610352</ele>
        <time>2023-05-27T13:16:00.000Z</time>
      </trkpt>
      <trkpt lat="43.69973" lon="3.16372">
        <ele>280.39999389648</ele>
        <time>2023-05-27T13:16:01.000Z</time>
      </trkpt>
      <trkpt lat="43.69973" lon="3.16371">
        <ele>278.79998779297</ele>
        <time>2023-05-27T13:16:02.000Z</time>
      </trkpt>
      <trkpt lat="43.69973" lon="3.16372">
        <ele>278.60000610352</ele>
        <time>2023-05-27T13:16:07.000Z</time>
      </trkpt>
      <trkpt lat="43.69973" lon="3.16372">
        <ele>279</ele>
        <time>2023-05-27T13:16:14.000Z</time>
      </trkpt>
      <trkpt lat="43.69972" lon="3.16372">
        <ele>279</ele>
        <time>2023-05-27T13:16:24.000Z</time>
      </trkpt>
      <trkpt lat="43.69973" lon="3.16373">
        <ele>278.20001220703</ele>
        <time>2023-05-27T13:16:31.000Z</time>
      </trkpt>
      <trkpt lat="43.69971" lon="3.16374">
        <ele>278.39999389648</ele>
        <time>2023-05-27T13:16:42.000Z</time>
      </trkpt>
      <trkpt lat="43.69968" lon="3.16367">
        <ele>279.39999389648</ele>
        <time>2023-05-27T13:16:50.000Z</time>
      </trkpt>
      <trkpt lat="43.69967" lon="3.16367">
        <ele>280</ele>
        <time>2023-05-27T13:16:54.000Z</time>
      </trkpt>
      <trkpt lat="43.69964" lon="3.16365">
        <ele>280.39999389648</ele>
        <time>2023-05-27T13:16:57.000Z</time>
      </trkpt>
      <trkpt lat="43.69962" lon="3.16363">
        <ele>281</ele>
        <time>2023-05-27T13:17:03.000Z</time>
      </trkpt>
      <trkpt lat="43.69961" lon="3.16363">
        <ele>281</ele>
        <time>2023-05-27T13:17:04.000Z</time>
      </trkpt>
      <trkpt lat="43.69958" lon="3.1636">
        <ele>281.60000610352</ele>
        <time>2023-05-27T13:17:11.000Z</time>
      </trkpt>
      <trkpt lat="43.69956" lon="3.16358">
        <ele>282.20001220703</ele>
        <time>2023-05-27T13:17:16.000Z</time>
      </trkpt>
      <trkpt lat="43.69955" lon="3.16358">
        <ele>282.39999389648</ele>
        <time>2023-05-27T13:17:18.000Z</time>
      </trkpt>
      <trkpt lat="43.69954" lon="3.16356">
        <ele>283</ele>
        <time>2023-05-27T13:17:24.000Z</time>
      </trkpt>
      <trkpt lat="43.69954" lon="3.16356">
        <ele>283.20001220703</ele>
        <time>2023-05-27T13:17:25.000Z</time>
      </trkpt>
      <trkpt lat="43.69948" lon="3.16353">
        <ele>284</ele>
        <time>2023-05-27T13:17:32.000Z</time>
      </trkpt>
      <trkpt lat="43.69947" lon="3.16353">
        <ele>284.39999389648</ele>
        <time>2023-05-27T13:17:34.000Z</time>
      </trkpt>
      <trkpt lat="43.69941" lon="3.16352">
        <ele>285</ele>
        <time>2023-05-27T13:17:41.000Z</time>
      </trkpt>
      <trkpt lat="43.69939" lon="3.16352">
        <ele>285.20001220703</ele>
        <time>2023-05-27T13:17:44.000Z</time>
      </trkpt>
      <trkpt lat="43.69937" lon="3.16353">
        <ele>285.39999389648</ele>
        <time>2023-05-27T13:17:46.000Z</time>
      </trkpt>
      <trkpt lat="43.69935" lon="3.16353">
        <ele>285.39999389648</ele>
        <time>2023-05-27T13:17:48.000Z</time>
      </trkpt>
      <trkpt lat="43.6993" lon="3.16354">
        <ele>285.60000610352</ele>
        <time>2023-05-27T13:17:54.000Z</time>
      </trkpt>
      <trkpt lat="43.69923" lon="3.16351">
        <ele>285.79998779297</ele>
        <time>2023-05-27T13:18:01.000Z</time>
      </trkpt>
      <trkpt lat="43.69922" lon="3.1635">
        <ele>286</ele>
        <time>2023-05-27T13:18:02.000Z</time>
      </trkpt>
      <trkpt lat="43.69917" lon="3.1635">
        <ele>286.39999389648</ele>
        <time>2023-05-27T13:18:07.000Z</time>
      </trkpt>
      <trkpt lat="43.69916" lon="3.1635">
        <ele>286.39999389648</ele>
        <time>2023-05-27T13:18:08.000Z</time>
      </trkpt>
      <trkpt lat="43.6991" lon="3.16349">
        <ele>286.60000610352</ele>
        <time>2023-05-27T13:18:15.000Z</time>
      </trkpt>
      <trkpt lat="43.69909" lon="3.1635">
        <ele>286.79998779297</ele>
        <time>2023-05-27T13:18:17.000Z</time>
      </trkpt>
      <trkpt lat="43.69906" lon="3.16348">
        <ele>286.79998779297</ele>
        <time>2023-05-27T13:18:20.000Z</time>
      </trkpt>
      <trkpt lat="43.69899" lon="3.16347">
        <ele>287</ele>
        <time>2023-05-27T13:18:26.000Z</time>
      </trkpt>
      <trkpt lat="43.69899" lon="3.16347">
        <ele>287</ele>
        <time>2023-05-27T13:18:27.000Z</time>
      </trkpt>
      <trkpt lat="43.69897" lon="3.16346">
        <ele>287</ele>
        <time>2023-05-27T13:18:31.000Z</time>
      </trkpt>
      <trkpt lat="43.69892" lon="3.16344">
        <ele>286.79998779297</ele>
        <time>2023-05-27T13:18:36.000Z</time>
      </trkpt>
      <trkpt lat="43.6989" lon="3.1634">
        <ele>286.60000610352</ele>
        <time>2023-05-27T13:18:38.000Z</time>
      </trkpt>
      <trkpt lat="43.69889" lon="3.16335">
        <ele>286.39999389648</ele>
        <time>2023-05-27T13:18:42.000Z</time>
      </trkpt>
      <trkpt lat="43.6989" lon="3.16333">
        <ele>286.20001220703</ele>
        <time>2023-05-27T13:18:48.000Z</time>
      </trkpt>
      <trkpt lat="43.69887" lon="3.1633">
        <ele>286.20001220703</ele>
        <time>2023-05-27T13:18:50.000Z</time>
      </trkpt>
      <trkpt lat="43.69887" lon="3.16329">
        <ele>286.20001220703</ele>
        <time>2023-05-27T13:18:54.000Z</time>
      </trkpt>
      <trkpt lat="43.69885" lon="3.16327">
        <ele>286.39999389648</ele>
        <time>2023-05-27T13:18:59.000Z</time>
      </trkpt>
      <trkpt lat="43.69885" lon="3.16326">
        <ele>286.39999389648</ele>
        <time>2023-05-27T13:19:08.000Z</time>
      </trkpt>
      <trkpt lat="43.69888" lon="3.16325">
        <ele>286.39999389648</ele>
        <time>2023-05-27T13:19:16.000Z</time>
      </trkpt>
      <trkpt lat="43.69888" lon="3.16325">
        <ele>286.39999389648</ele>
        <time>2023-05-27T13:19:21.000Z</time>
      </trkpt>
      <trkpt lat="43.69887" lon="3.16325">
        <ele>286.39999389648</ele>
        <time>2023-05-27T13:19:29.000Z</time>
      </trkpt>
      <trkpt lat="43.69886" lon="3.16325">
        <ele>286.20001220703</ele>
        <time>2023-05-27T13:19:37.000Z</time>
      </trkpt>
      <trkpt lat="43.69886" lon="3.16325">
        <ele>286.20001220703</ele>
        <time>2023-05-27T13:19:43.000Z</time>
      </trkpt>
      <trkpt lat="43.69887" lon="3.16324">
        <ele>286.20001220703</ele>
        <time>2023-05-27T13:19:53.000Z</time>
      </trkpt>
      <trkpt lat="43.69887" lon="3.16324">
        <ele>286.39999389648</ele>
        <time>2023-05-27T13:20:00.000Z</time>
      </trkpt>
      <trkpt lat="43.69888" lon="3.16323">
        <ele>286.39999389648</ele>
        <time>2023-05-27T13:20:09.000Z</time>
      </trkpt>
      <trkpt lat="43.69887" lon="3.16324">
        <ele>286.39999389648</ele>
        <time>2023-05-27T13:20:16.000Z</time>
      </trkpt>
      <trkpt lat="43.69887" lon="3.16323">
        <ele>286.20001220703</ele>
        <time>2023-05-27T13:20:24.000Z</time>
      </trkpt>
      <trkpt lat="43.69888" lon="3.16319">
        <ele>286.20001220703</ele>
        <time>2023-05-27T13:20:29.000Z</time>
      </trkpt>
      <trkpt lat="43.69883" lon="3.16314">
        <ele>286.20001220703</ele>
        <time>2023-05-27T13:20:34.000Z</time>
      </trkpt>
      <trkpt lat="43.69883" lon="3.16313">
        <ele>286.20001220703</ele>
        <time>2023-05-27T13:20:35.000Z</time>
      </trkpt>
      <trkpt lat="43.69883" lon="3.16308">
        <ele>286.20001220703</ele>
        <time>2023-05-27T13:20:39.000Z</time>
      </trkpt>
      <trkpt lat="43.69882" lon="3.16303">
        <ele>286.39999389648</ele>
        <time>2023-05-27T13:20:42.000Z</time>
      </trkpt>
      <trkpt lat="43.6988" lon="3.163">
        <ele>286.60000610352</ele>
        <time>2023-05-27T13:20:45.000Z</time>
      </trkpt>
      <trkpt lat="43.6988" lon="3.16299">
        <ele>286.60000610352</ele>
        <time>2023-05-27T13:20:46.000Z</time>
      </trkpt>
      <trkpt lat="43.69879" lon="3.16296">
        <ele>286.60000610352</ele>
        <time>2023-05-27T13:20:48.000Z</time>
      </trkpt>
      <trkpt lat="43.69878" lon="3.16291">
        <ele>286.39999389648</ele>
        <time>2023-05-27T13:20:52.000Z</time>
      </trkpt>
      <trkpt lat="43.6988" lon="3.16286">
        <ele>286.39999389648</ele>
        <time>2023-05-27T13:20:57.000Z</time>
      </trkpt>
      <trkpt lat="43.6988" lon="3.16283">
        <ele>286.79998779297</ele>
        <time>2023-05-27T13:21:00.000Z</time>
      </trkpt>
      <trkpt lat="43.69881" lon="3.16279">
        <ele>286.79998779297</ele>
        <time>2023-05-27T13:21:03.000Z</time>
      </trkpt>
      <trkpt lat="43.69883" lon="3.16274">
        <ele>286.79998779297</ele>
        <time>2023-05-27T13:21:07.000Z</time>
      </trkpt>
      <trkpt lat="43.69884" lon="3.16271">
        <ele>286.79998779297</ele>
        <time>2023-05-27T13:21:09.000Z</time>
      </trkpt>
      <trkpt lat="43.69886" lon="3.16263">
        <ele>287.20001220703</ele>
        <time>2023-05-27T13:21:16.000Z</time>
      </trkpt>
      <trkpt lat="43.69886" lon="3.16262">
        <ele>287.20001220703</ele>
        <time>2023-05-27T13:21:17.000Z</time>
      </trkpt>
      <trkpt lat="43.6989" lon="3.16256">
        <ele>287.20001220703</ele>
        <time>2023-05-27T13:21:23.000Z</time>
      </trkpt>
      <trkpt lat="43.6989" lon="3.16255">
        <ele>287.20001220703</ele>
        <time>2023-05-27T13:21:24.000Z</time>
      </trkpt>
      <trkpt lat="43.69894" lon="3.16246">
        <ele>287.20001220703</ele>
        <time>2023-05-27T13:21:31.000Z</time>
      </trkpt>
      <trkpt lat="43.69894" lon="3.16242">
        <ele>287.39999389648</ele>
        <time>2023-05-27T13:21:34.000Z</time>
      </trkpt>
      <trkpt lat="43.69895" lon="3.16239">
        <ele>287.39999389648</ele>
        <time>2023-05-27T13:21:37.000Z</time>
      </trkpt>
      <trkpt lat="43.69895" lon="3.16238">
        <ele>287.39999389648</ele>
        <time>2023-05-27T13:21:38.000Z</time>
      </trkpt>
      <trkpt lat="43.69898" lon="3.16233">
        <ele>287.20001220703</ele>
        <time>2023-05-27T13:21:43.000Z</time>
      </trkpt>
      <trkpt lat="43.69899" lon="3.16232">
        <ele>287.20001220703</ele>
        <time>2023-05-27T13:21:44.000Z</time>
      </trkpt>
      <trkpt lat="43.69902" lon="3.16229">
        <ele>287.20001220703</ele>
        <time>2023-05-27T13:21:48.000Z</time>
      </trkpt>
      <trkpt lat="43.69903" lon="3.16227">
        <ele>287.20001220703</ele>
        <time>2023-05-27T13:21:50.000Z</time>
      </trkpt>
      <trkpt lat="43.69904" lon="3.16223">
        <ele>287.39999389648</ele>
        <time>2023-05-27T13:21:53.000Z</time>
      </trkpt>
      <trkpt lat="43.69907" lon="3.16218">
        <ele>287.79998779297</ele>
        <time>2023-05-27T13:21:58.000Z</time>
      </trkpt>
      <trkpt lat="43.69911" lon="3.16214">
        <ele>287.79998779297</ele>
        <time>2023-05-27T13:22:03.000Z</time>
      </trkpt>
      <trkpt lat="43.69912" lon="3.16212">
        <ele>287.79998779297</ele>
        <time>2023-05-27T13:22:05.000Z</time>
      </trkpt>
      <trkpt lat="43.69914" lon="3.16209">
        <ele>288</ele>
        <time>2023-05-27T13:22:09.000Z</time>
      </trkpt>
      <trkpt lat="43.69916" lon="3.16208">
        <ele>288</ele>
        <time>2023-05-27T13:22:11.000Z</time>
      </trkpt>
      <trkpt lat="43.69919" lon="3.16203">
        <ele>287.79998779297</ele>
        <time>2023-05-27T13:22:16.000Z</time>
      </trkpt>
      <trkpt lat="43.69921" lon="3.16199">
        <ele>288</ele>
        <time>2023-05-27T13:22:21.000Z</time>
      </trkpt>
      <trkpt lat="43.69922" lon="3.16198">
        <ele>288</ele>
        <time>2023-05-27T13:22:22.000Z</time>
      </trkpt>
      <trkpt lat="43.69922" lon="3.16197">
        <ele>288</ele>
        <time>2023-05-27T13:22:25.000Z</time>
      </trkpt>
      <trkpt lat="43.69926" lon="3.16191">
        <ele>288</ele>
        <time>2023-05-27T13:22:31.000Z</time>
      </trkpt>
      <trkpt lat="43.69929" lon="3.16187">
        <ele>288</ele>
        <time>2023-05-27T13:22:36.000Z</time>
      </trkpt>
      <trkpt lat="43.69934" lon="3.16181">
        <ele>288</ele>
        <time>2023-05-27T13:22:43.000Z</time>
      </trkpt>
      <trkpt lat="43.69935" lon="3.1618">
        <ele>288</ele>
        <time>2023-05-27T13:22:44.000Z</time>
      </trkpt>
      <trkpt lat="43.69935" lon="3.16178">
        <ele>287.79998779297</ele>
        <time>2023-05-27T13:22:49.000Z</time>
      </trkpt>
      <trkpt lat="43.69942" lon="3.16173">
        <ele>287.79998779297</ele>
        <time>2023-05-27T13:22:55.000Z</time>
      </trkpt>
      <trkpt lat="43.69948" lon="3.1617">
        <ele>287.60000610352</ele>
        <time>2023-05-27T13:23:02.000Z</time>
      </trkpt>
      <trkpt lat="43.69949" lon="3.1617">
        <ele>287.60000610352</ele>
        <time>2023-05-27T13:23:04.000Z</time>
      </trkpt>
      <trkpt lat="43.69955" lon="3.1617">
        <ele>287.60000610352</ele>
        <time>2023-05-27T13:23:09.000Z</time>
      </trkpt>
      <trkpt lat="43.69957" lon="3.1617">
        <ele>287.39999389648</ele>
        <time>2023-05-27T13:23:12.000Z</time>
      </trkpt>
      <trkpt lat="43.69963" lon="3.16168">
        <ele>287.20001220703</ele>
        <time>2023-05-27T13:23:17.000Z</time>
      </trkpt>
      <trkpt lat="43.69965" lon="3.16166">
        <ele>287</ele>
        <time>2023-05-27T13:23:20.000Z</time>
      </trkpt>
      <trkpt lat="43.69966" lon="3.16163">
        <ele>287</ele>
        <time>2023-05-27T13:23:24.000Z</time>
      </trkpt>
      <trkpt lat="43.69968" lon="3.16161">
        <ele>287.39999389648</ele>
        <time>2023-05-27T13:23:32.000Z</time>
      </trkpt>
      <trkpt lat="43.69968" lon="3.16161">
        <ele>287.20001220703</ele>
        <time>2023-05-27T13:23:43.000Z</time>
      </trkpt>
      <trkpt lat="43.69972" lon="3.16155">
        <ele>287.20001220703</ele>
        <time>2023-05-27T13:23:50.000Z</time>
      </trkpt>
      <trkpt lat="43.69975" lon="3.16148">
        <ele>287.39999389648</ele>
        <time>2023-05-27T13:23:56.000Z</time>
      </trkpt>
      <trkpt lat="43.69976" lon="3.16146">
        <ele>287.60000610352</ele>
        <time>2023-05-27T13:23:59.000Z</time>
      </trkpt>
      <trkpt lat="43.69976" lon="3.16143">
        <ele>287.60000610352</ele>
        <time>2023-05-27T13:24:02.000Z</time>
      </trkpt>
      <trkpt lat="43.69978" lon="3.16137">
        <ele>287.79998779297</ele>
        <time>2023-05-27T13:24:07.000Z</time>
      </trkpt>
      <trkpt lat="43.69981" lon="3.1613">
        <ele>288</ele>
        <time>2023-05-27T13:24:13.000Z</time>
      </trkpt>
      <trkpt lat="43.69982" lon="3.1613">
        <ele>288</ele>
        <time>2023-05-27T13:24:14.000Z</time>
      </trkpt>
      <trkpt lat="43.69984" lon="3.16125">
        <ele>288.39999389648</ele>
        <time>2023-05-27T13:24:19.000Z</time>
      </trkpt>
      <trkpt lat="43.69985" lon="3.16124">
        <ele>288.39999389648</ele>
        <time>2023-05-27T13:24:20.000Z</time>
      </trkpt>
      <trkpt lat="43.69986" lon="3.16118">
        <ele>289</ele>
        <time>2023-05-27T13:24:25.000Z</time>
      </trkpt>
      <trkpt lat="43.69986" lon="3.16118">
        <ele>288.79998779297</ele>
        <time>2023-05-27T13:24:26.000Z</time>
      </trkpt>
      <trkpt lat="43.69986" lon="3.16117">
        <ele>288.79998779297</ele>
        <time>2023-05-27T13:24:33.000Z</time>
      </trkpt>
      <trkpt lat="43.69986" lon="3.16115">
        <ele>288.79998779297</ele>
        <time>2023-05-27T13:24:40.000Z</time>
      </trkpt>
      <trkpt lat="43.69986" lon="3.16114">
        <ele>289.39999389648</ele>
        <time>2023-05-27T13:24:48.000Z</time>
      </trkpt>
      <trkpt lat="43.69986" lon="3.16115">
        <ele>289.60000610352</ele>
        <time>2023-05-27T13:24:49.000Z</time>
      </trkpt>
      <trkpt lat="43.69986" lon="3.16115">
        <ele>288.39999389648</ele>
        <time>2023-05-27T13:24:52.000Z</time>
      </trkpt>
      <trkpt lat="43.69986" lon="3.16114">
        <ele>286.79998779297</ele>
        <time>2023-05-27T13:24:55.000Z</time>
      </trkpt>
      <trkpt lat="43.69986" lon="3.16114">
        <ele>288.20001220703</ele>
        <time>2023-05-27T13:25:00.000Z</time>
      </trkpt>
      <trkpt lat="43.69987" lon="3.16114">
        <ele>288.39999389648</ele>
        <time>2023-05-27T13:25:08.000Z</time>
      </trkpt>
      <trkpt lat="43.69988" lon="3.16112">
        <ele>288.60000610352</ele>
        <time>2023-05-27T13:25:23.000Z</time>
      </trkpt>
      <trkpt lat="43.6999" lon="3.16111">
        <ele>286</ele>
        <time>2023-05-27T13:25:30.000Z</time>
      </trkpt>
      <trkpt lat="43.6999" lon="3.1611">
        <ele>284.79998779297</ele>
        <time>2023-05-27T13:25:32.000Z</time>
      </trkpt>
      <trkpt lat="43.6999" lon="3.1611">
        <ele>286.60000610352</ele>
        <time>2023-05-27T13:25:35.000Z</time>
      </trkpt>
      <trkpt lat="43.6999" lon="3.1611">
        <ele>287.79998779297</ele>
        <time>2023-05-27T13:25:37.000Z</time>
      </trkpt>
      <trkpt lat="43.6999" lon="3.1611">
        <ele>288.79998779297</ele>
        <time>2023-05-27T13:25:42.000Z</time>
      </trkpt>
      <trkpt lat="43.6999" lon="3.16109">
        <ele>281</ele>
        <time>2023-05-27T13:25:49.000Z</time>
      </trkpt>
      <trkpt lat="43.6999" lon="3.16109">
        <ele>272</ele>
        <time>2023-05-27T13:25:50.000Z</time>
      </trkpt>
      <trkpt lat="43.6999" lon="3.16109">
        <ele>265.20001220703</ele>
        <time>2023-05-27T13:25:51.000Z</time>
      </trkpt>
      <trkpt lat="43.6999" lon="3.16109">
        <ele>260</ele>
        <time>2023-05-27T13:25:52.000Z</time>
      </trkpt>
      <trkpt lat="43.69991" lon="3.16109">
        <ele>261.39999389648</ele>
        <time>2023-05-27T13:25:54.000Z</time>
      </trkpt>
      <trkpt lat="43.69991" lon="3.16109">
        <ele>265.60000610352</ele>
        <time>2023-05-27T13:25:55.000Z</time>
      </trkpt>
      <trkpt lat="43.69991" lon="3.16109">
        <ele>272.39999389648</ele>
        <time>2023-05-27T13:25:56.000Z</time>
      </trkpt>
      <trkpt lat="43.69991" lon="3.1611">
        <ele>278</ele>
        <time>2023-05-27T13:25:57.000Z</time>
      </trkpt>
      <trkpt lat="43.69991" lon="3.1611">
        <ele>280.20001220703</ele>
        <time>2023-05-27T13:25:58.000Z</time>
      </trkpt>
      <trkpt lat="43.69991" lon="3.1611">
        <ele>285</ele>
        <time>2023-05-27T13:25:59.000Z</time>
      </trkpt>
      <trkpt lat="43.69991" lon="3.1611">
        <ele>289.60000610352</ele>
        <time>2023-05-27T13:26:00.000Z</time>
      </trkpt>
      <trkpt lat="43.69991" lon="3.1611">
        <ele>288.60000610352</ele>
        <time>2023-05-27T13:26:03.000Z</time>
      </trkpt>
      <trkpt lat="43.69991" lon="3.1611">
        <ele>290.79998779297</ele>
        <time>2023-05-27T13:26:09.000Z</time>
      </trkpt>
      <trkpt lat="43.69991" lon="3.1611">
        <ele>288.39999389648</ele>
        <time>2023-05-27T13:26:14.000Z</time>
      </trkpt>
      <trkpt lat="43.69991" lon="3.1611">
        <ele>288.60000610352</ele>
        <time>2023-05-27T13:26:20.000Z</time>
      </trkpt>
      <trkpt lat="43.6999" lon="3.16109">
        <ele>288.60000610352</ele>
        <time>2023-05-27T13:26:37.000Z</time>
      </trkpt>
      <trkpt lat="43.69991" lon="3.16109">
        <ele>288.60000610352</ele>
        <time>2023-05-27T13:26:44.000Z</time>
      </trkpt>
      <trkpt lat="43.6999" lon="3.16108">
        <ele>288.79998779297</ele>
        <time>2023-05-27T13:26:57.000Z</time>
      </trkpt>
      <trkpt lat="43.69991" lon="3.16107">
        <ele>288.79998779297</ele>
        <time>2023-05-27T13:27:04.000Z</time>
      </trkpt>
      <trkpt lat="43.69991" lon="3.16107">
        <ele>288.60000610352</ele>
        <time>2023-05-27T13:27:11.000Z</time>
      </trkpt>
      <trkpt lat="43.69992" lon="3.16107">
        <ele>288.39999389648</ele>
        <time>2023-05-27T13:27:24.000Z</time>
      </trkpt>
      <trkpt lat="43.69992" lon="3.16107">
        <ele>288</ele>
        <time>2023-05-27T13:27:32.000Z</time>
      </trkpt>
      <trkpt lat="43.69992" lon="3.16107">
        <ele>286.79998779297</ele>
        <time>2023-05-27T13:27:41.000Z</time>
      </trkpt>
      <trkpt lat="43.69992" lon="3.16107">
        <ele>282.79998779297</ele>
        <time>2023-05-27T13:27:42.000Z</time>
      </trkpt>
      <trkpt lat="43.69992" lon="3.16107">
        <ele>278.20001220703</ele>
        <time>2023-05-27T13:27:43.000Z</time>
      </trkpt>
      <trkpt lat="43.69991" lon="3.16107">
        <ele>273.20001220703</ele>
        <time>2023-05-27T13:27:44.000Z</time>
      </trkpt>
      <trkpt lat="43.69991" lon="3.16107">
        <ele>271.20001220703</ele>
        <time>2023-05-27T13:27:45.000Z</time>
      </trkpt>
      <trkpt lat="43.69991" lon="3.16107">
        <ele>272.20001220703</ele>
        <time>2023-05-27T13:27:46.000Z</time>
      </trkpt>
      <trkpt lat="43.69991" lon="3.16107">
        <ele>275.39999389648</ele>
        <time>2023-05-27T13:27:47.000Z</time>
      </trkpt>
      <trkpt lat="43.69991" lon="3.16107">
        <ele>277</ele>
        <time>2023-05-27T13:27:48.000Z</time>
      </trkpt>
      <trkpt lat="43.6999" lon="3.16107">
        <ele>278.39999389648</ele>
        <time>2023-05-27T13:27:49.000Z</time>
      </trkpt>
      <trkpt lat="43.6999" lon="3.16107">
        <ele>274.60000610352</ele>
        <time>2023-05-27T13:27:50.000Z</time>
      </trkpt>
      <trkpt lat="43.69991" lon="3.16107">
        <ele>277.20001220703</ele>
        <time>2023-05-27T13:27:51.000Z</time>
      </trkpt>
      <trkpt lat="43.6999" lon="3.16107">
        <ele>276</ele>
        <time>2023-05-27T13:27:57.000Z</time>
      </trkpt>
      <trkpt lat="43.69989" lon="3.16107">
        <ele>275</ele>
        <time>2023-05-27T13:28:02.000Z</time>
      </trkpt>
      <trkpt lat="43.69989" lon="3.16108">
        <ele>273.79998779297</ele>
        <time>2023-05-27T13:28:07.000Z</time>
      </trkpt>
      <trkpt lat="43.69989" lon="3.16107">
        <ele>273.79998779297</ele>
        <time>2023-05-27T13:28:08.000Z</time>
      </trkpt>
      <trkpt lat="43.69988" lon="3.16107">
        <ele>272.60000610352</ele>
        <time>2023-05-27T13:28:16.000Z</time>
      </trkpt>
      <trkpt lat="43.69989" lon="3.16107">
        <ele>273</ele>
        <time>2023-05-27T13:28:19.000Z</time>
      </trkpt>
      <trkpt lat="43.6999" lon="3.16105">
        <ele>273.79998779297</ele>
        <time>2023-05-27T13:28:35.000Z</time>
      </trkpt>
      <trkpt lat="43.6999" lon="3.16105">
        <ele>274</ele>
        <time>2023-05-27T13:28:36.000Z</time>
      </trkpt>
      <trkpt lat="43.6999" lon="3.16105">
        <ele>274.79998779297</ele>
        <time>2023-05-27T13:28:42.000Z</time>
      </trkpt>
      <trkpt lat="43.6999" lon="3.16104">
        <ele>276</ele>
        <time>2023-05-27T13:28:50.000Z</time>
      </trkpt>
      <trkpt lat="43.6999" lon="3.16104">
        <ele>276.20001220703</ele>
        <time>2023-05-27T13:28:52.000Z</time>
      </trkpt>
      <trkpt lat="43.6999" lon="3.16104">
        <ele>277</ele>
        <time>2023-05-27T13:28:58.000Z</time>
      </trkpt>
      <trkpt lat="43.69991" lon="3.16104">
        <ele>278.20001220703</ele>
        <time>2023-05-27T13:29:04.000Z</time>
      </trkpt>
      <trkpt lat="43.69991" lon="3.16104">
        <ele>278.79998779297</ele>
        <time>2023-05-27T13:29:09.000Z</time>
      </trkpt>
      <trkpt lat="43.69991" lon="3.16104">
        <ele>279.20001220703</ele>
        <time>2023-05-27T13:29:12.000Z</time>
      </trkpt>
      <trkpt lat="43.6999" lon="3.16105">
        <ele>280.20001220703</ele>
        <time>2023-05-27T13:29:19.000Z</time>
      </trkpt>
      <trkpt lat="43.6999" lon="3.16105">
        <ele>281.20001220703</ele>
        <time>2023-05-27T13:29:26.000Z</time>
      </trkpt>
      <trkpt lat="43.6999" lon="3.16105">
        <ele>282</ele>
        <time>2023-05-27T13:29:32.000Z</time>
      </trkpt>
      <trkpt lat="43.6999" lon="3.16105">
        <ele>282.39999389648</ele>
        <time>2023-05-27T13:29:34.000Z</time>
      </trkpt>
      <trkpt lat="43.6999" lon="3.16105">
        <ele>283.60000610352</ele>
        <time>2023-05-27T13:29:39.000Z</time>
      </trkpt>
      <trkpt lat="43.6999" lon="3.16105">
        <ele>284.39999389648</ele>
        <time>2023-05-27T13:29:45.000Z</time>
      </trkpt>
      <trkpt lat="43.6999" lon="3.16105">
        <ele>284.60000610352</ele>
        <time>2023-05-27T13:29:46.000Z</time>
      </trkpt>
      <trkpt lat="43.6999" lon="3.16105">
        <ele>285.60000610352</ele>
        <time>2023-05-27T13:29:53.000Z</time>
      </trkpt>
      <trkpt lat="43.6999" lon="3.16104">
        <ele>286.60000610352</ele>
        <time>2023-05-27T13:30:01.000Z</time>
      </trkpt>
      <trkpt lat="43.6999" lon="3.16104">
        <ele>287.39999389648</ele>
        <time>2023-05-27T13:30:06.000Z</time>
      </trkpt>
      <trkpt lat="43.6999" lon="3.16104">
        <ele>287.60000610352</ele>
        <time>2023-05-27T13:30:08.000Z</time>
      </trkpt>
      <trkpt lat="43.69991" lon="3.16104">
        <ele>288.39999389648</ele>
        <time>2023-05-27T13:30:19.000Z</time>
      </trkpt>
      <trkpt lat="43.6999" lon="3.16104">
        <ele>288.79998779297</ele>
        <time>2023-05-27T13:30:36.000Z</time>
      </trkpt>
      <trkpt lat="43.6999" lon="3.16105">
        <ele>289</ele>
        <time>2023-05-27T13:30:37.000Z</time>
      </trkpt>
      <trkpt lat="43.69989" lon="3.16105">
        <ele>289</ele>
        <time>2023-05-27T13:30:57.000Z</time>
      </trkpt>
      <trkpt lat="43.6999" lon="3.16105">
        <ele>288.60000610352</ele>
        <time>2023-05-27T13:31:04.000Z</time>
      </trkpt>
      <trkpt lat="43.69989" lon="3.16105">
        <ele>288.60000610352</ele>
        <time>2023-05-27T13:31:19.000Z</time>
      </trkpt>
      <trkpt lat="43.69989" lon="3.16105">
        <ele>288.79998779297</ele>
        <time>2023-05-27T13:31:26.000Z</time>
      </trkpt>
      <trkpt lat="43.69989" lon="3.16105">
        <ele>289</ele>
        <time>2023-05-27T13:31:33.000Z</time>
      </trkpt>
      <trkpt lat="43.69988" lon="3.16105">
        <ele>287.60000610352</ele>
        <time>2023-05-27T13:31:37.000Z</time>
      </trkpt>
      <trkpt lat="43.69988" lon="3.16105">
        <ele>287.20001220703</ele>
        <time>2023-05-27T13:31:40.000Z</time>
      </trkpt>
      <trkpt lat="43.69988" lon="3.16105">
        <ele>288.60000610352</ele>
        <time>2023-05-27T13:31:41.000Z</time>
      </trkpt>
      <trkpt lat="43.69988" lon="3.16106">
        <ele>288.60000610352</ele>
        <time>2023-05-27T13:31:49.000Z</time>
      </trkpt>
      <trkpt lat="43.69988" lon="3.16106">
        <ele>288.79998779297</ele>
        <time>2023-05-27T13:31:57.000Z</time>
      </trkpt>
      <trkpt lat="43.6999" lon="3.16101">
        <ele>289</ele>
        <time>2023-05-27T13:32:05.000Z</time>
      </trkpt>
      <trkpt lat="43.69993" lon="3.16091">
        <ele>289.60000610352</ele>
        <time>2023-05-27T13:32:13.000Z</time>
      </trkpt>
      <trkpt lat="43.69995" lon="3.16084">
        <ele>289.79998779297</ele>
        <time>2023-05-27T13:32:18.000Z</time>
      </trkpt>
      <trkpt lat="43.69996" lon="3.16083">
        <ele>289.79998779297</ele>
        <time>2023-05-27T13:32:19.000Z</time>
      </trkpt>
      <trkpt lat="43.69999" lon="3.16077">
        <ele>290.39999389648</ele>
        <time>2023-05-27T13:32:25.000Z</time>
      </trkpt>
      <trkpt lat="43.7" lon="3.16074">
        <ele>290.79998779297</ele>
        <time>2023-05-27T13:32:28.000Z</time>
      </trkpt>
      <trkpt lat="43.70001" lon="3.16073">
        <ele>290.79998779297</ele>
        <time>2023-05-27T13:32:29.000Z</time>
      </trkpt>
      <trkpt lat="43.70001" lon="3.16072">
        <ele>290.79998779297</ele>
        <time>2023-05-27T13:32:30.000Z</time>
      </trkpt>
      <trkpt lat="43.70003" lon="3.16065">
        <ele>291.39999389648</ele>
        <time>2023-05-27T13:32:36.000Z</time>
      </trkpt>
      <trkpt lat="43.70004" lon="3.16061">
        <ele>291.79998779297</ele>
        <time>2023-05-27T13:32:39.000Z</time>
      </trkpt>
      <trkpt lat="43.70004" lon="3.1606">
        <ele>291.79998779297</ele>
        <time>2023-05-27T13:32:40.000Z</time>
      </trkpt>
      <trkpt lat="43.70005" lon="3.16057">
        <ele>292</ele>
        <time>2023-05-27T13:32:43.000Z</time>
      </trkpt>
      <trkpt lat="43.70006" lon="3.16056">
        <ele>292</ele>
        <time>2023-05-27T13:32:44.000Z</time>
      </trkpt>
      <trkpt lat="43.70008" lon="3.16049">
        <ele>292.20001220703</ele>
        <time>2023-05-27T13:32:50.000Z</time>
      </trkpt>
      <trkpt lat="43.70008" lon="3.16048">
        <ele>292.20001220703</ele>
        <time>2023-05-27T13:32:51.000Z</time>
      </trkpt>
      <trkpt lat="43.7001" lon="3.16042">
        <ele>292.60000610352</ele>
        <time>2023-05-27T13:32:57.000Z</time>
      </trkpt>
      <trkpt lat="43.7001" lon="3.16041">
        <ele>292.60000610352</ele>
        <time>2023-05-27T13:32:58.000Z</time>
      </trkpt>
      <trkpt lat="43.70011" lon="3.16039">
        <ele>292.79998779297</ele>
        <time>2023-05-27T13:33:00.000Z</time>
      </trkpt>
      <trkpt lat="43.70012" lon="3.16038">
        <ele>293</ele>
        <time>2023-05-27T13:33:01.000Z</time>
      </trkpt>
      <trkpt lat="43.70013" lon="3.16035">
        <ele>293.20001220703</ele>
        <time>2023-05-27T13:33:04.000Z</time>
      </trkpt>
      <trkpt lat="43.70014" lon="3.16032">
        <ele>293.39999389648</ele>
        <time>2023-05-27T13:33:07.000Z</time>
      </trkpt>
      <trkpt lat="43.70016" lon="3.16027">
        <ele>293.79998779297</ele>
        <time>2023-05-27T13:33:13.000Z</time>
      </trkpt>
      <trkpt lat="43.70017" lon="3.16024">
        <ele>294</ele>
        <time>2023-05-27T13:33:18.000Z</time>
      </trkpt>
      <trkpt lat="43.70017" lon="3.16023">
        <ele>294</ele>
        <time>2023-05-27T13:33:19.000Z</time>
      </trkpt>
      <trkpt lat="43.70019" lon="3.16017">
        <ele>294.20001220703</ele>
        <time>2023-05-27T13:33:25.000Z</time>
      </trkpt>
      <trkpt lat="43.70021" lon="3.16013">
        <ele>294.60000610352</ele>
        <time>2023-05-27T13:33:30.000Z</time>
      </trkpt>
      <trkpt lat="43.70023" lon="3.16007">
        <ele>295</ele>
        <time>2023-05-27T13:33:36.000Z</time>
      </trkpt>
      <trkpt lat="43.70023" lon="3.16006">
        <ele>295</ele>
        <time>2023-05-27T13:33:37.000Z</time>
      </trkpt>
      <trkpt lat="43.70026" lon="3.15999">
        <ele>295.39999389648</ele>
        <time>2023-05-27T13:33:44.000Z</time>
      </trkpt>
      <trkpt lat="43.70027" lon="3.15991">
        <ele>296</ele>
        <time>2023-05-27T13:33:51.000Z</time>
      </trkpt>
      <trkpt lat="43.70028" lon="3.15988">
        <ele>296.20001220703</ele>
        <time>2023-05-27T13:33:54.000Z</time>
      </trkpt>
      <trkpt lat="43.70028" lon="3.15984">
        <ele>296.39999389648</ele>
        <time>2023-05-27T13:33:58.000Z</time>
      </trkpt>
      <trkpt lat="43.70029" lon="3.1598">
        <ele>296.60000610352</ele>
        <time>2023-05-27T13:34:02.000Z</time>
      </trkpt>
      <trkpt lat="43.70031" lon="3.15976">
        <ele>297.20001220703</ele>
        <time>2023-05-27T13:34:07.000Z</time>
      </trkpt>
      <trkpt lat="43.70032" lon="3.15972">
        <ele>297.39999389648</ele>
        <time>2023-05-27T13:34:10.000Z</time>
      </trkpt>
      <trkpt lat="43.70034" lon="3.15963">
        <ele>297.79998779297</ele>
        <time>2023-05-27T13:34:18.000Z</time>
      </trkpt>
      <trkpt lat="43.70034" lon="3.15962">
        <ele>297.79998779297</ele>
        <time>2023-05-27T13:34:19.000Z</time>
      </trkpt>
      <trkpt lat="43.70035" lon="3.15958">
        <ele>298.20001220703</ele>
        <time>2023-05-27T13:34:23.000Z</time>
      </trkpt>
      <trkpt lat="43.70035" lon="3.15956">
        <ele>298.20001220703</ele>
        <time>2023-05-27T13:34:24.000Z</time>
      </trkpt>
      <trkpt lat="43.70036" lon="3.15953">
        <ele>298.60000610352</ele>
        <time>2023-05-27T13:34:27.000Z</time>
      </trkpt>
      <trkpt lat="43.70038" lon="3.15941">
        <ele>299.20001220703</ele>
        <time>2023-05-27T13:34:38.000Z</time>
      </trkpt>
      <trkpt lat="43.70038" lon="3.1594">
        <ele>299.20001220703</ele>
        <time>2023-05-27T13:34:39.000Z</time>
      </trkpt>
      <trkpt lat="43.70039" lon="3.15934">
        <ele>299.60000610352</ele>
        <time>2023-05-27T13:34:44.000Z</time>
      </trkpt>
      <trkpt lat="43.7004" lon="3.15932">
        <ele>299.79998779297</ele>
        <time>2023-05-27T13:34:46.000Z</time>
      </trkpt>
      <trkpt lat="43.70041" lon="3.15926">
        <ele>300.20001220703</ele>
        <time>2023-05-27T13:34:51.000Z</time>
      </trkpt>
      <trkpt lat="43.70041" lon="3.15924">
        <ele>300.39999389648</ele>
        <time>2023-05-27T13:34:53.000Z</time>
      </trkpt>
      <trkpt lat="43.70041" lon="3.1592">
        <ele>300.60000610352</ele>
        <time>2023-05-27T13:34:57.000Z</time>
      </trkpt>
      <trkpt lat="43.70042" lon="3.15914">
        <ele>301.20001220703</ele>
        <time>2023-05-27T13:35:02.000Z</time>
      </trkpt>
      <trkpt lat="43.70043" lon="3.15906">
        <ele>302</ele>
        <time>2023-05-27T13:35:10.000Z</time>
      </trkpt>
      <trkpt lat="43.70043" lon="3.15901">
        <ele>302.39999389648</ele>
        <time>2023-05-27T13:35:15.000Z</time>
      </trkpt>
      <trkpt lat="43.70043" lon="3.159">
        <ele>302.39999389648</ele>
        <time>2023-05-27T13:35:16.000Z</time>
      </trkpt>
      <trkpt lat="43.70044" lon="3.15895">
        <ele>302.79998779297</ele>
        <time>2023-05-27T13:35:22.000Z</time>
      </trkpt>
      <trkpt lat="43.70047" lon="3.1589">
        <ele>303.20001220703</ele>
        <time>2023-05-27T13:35:28.000Z</time>
      </trkpt>
      <trkpt lat="43.70047" lon="3.1589">
        <ele>303.39999389648</ele>
        <time>2023-05-27T13:35:30.000Z</time>
      </trkpt>
      <trkpt lat="43.70046" lon="3.15891">
        <ele>303.60000610352</ele>
        <time>2023-05-27T13:35:34.000Z</time>
      </trkpt>
      <trkpt lat="43.70045" lon="3.15884">
        <ele>304</ele>
        <time>2023-05-27T13:35:41.000Z</time>
      </trkpt>
      <trkpt lat="43.70044" lon="3.15875">
        <ele>304.20001220703</ele>
        <time>2023-05-27T13:35:48.000Z</time>
      </trkpt>
      <trkpt lat="43.70045" lon="3.15872">
        <ele>304.39999389648</ele>
        <time>2023-05-27T13:35:51.000Z</time>
      </trkpt>
      <trkpt lat="43.70046" lon="3.15868">
        <ele>304.79998779297</ele>
        <time>2023-05-27T13:35:55.000Z</time>
      </trkpt>
      <trkpt lat="43.70047" lon="3.1586">
        <ele>305.20001220703</ele>
        <time>2023-05-27T13:36:03.000Z</time>
      </trkpt>
      <trkpt lat="43.70047" lon="3.15857">
        <ele>305.39999389648</ele>
        <time>2023-05-27T13:36:05.000Z</time>
      </trkpt>
      <trkpt lat="43.70047" lon="3.15855">
        <ele>305.39999389648</ele>
        <time>2023-05-27T13:36:07.000Z</time>
      </trkpt>
      <trkpt lat="43.70047" lon="3.15852">
        <ele>305.79998779297</ele>
        <time>2023-05-27T13:36:09.000Z</time>
      </trkpt>
      <trkpt lat="43.70048" lon="3.15849">
        <ele>306</ele>
        <time>2023-05-27T13:36:11.000Z</time>
      </trkpt>
      <trkpt lat="43.70049" lon="3.15843">
        <ele>306.60000610352</ele>
        <time>2023-05-27T13:36:16.000Z</time>
      </trkpt>
      <trkpt lat="43.70051" lon="3.15838">
        <ele>306.79998779297</ele>
        <time>2023-05-27T13:36:20.000Z</time>
      </trkpt>
      <trkpt lat="43.70054" lon="3.1583">
        <ele>307.60000610352</ele>
        <time>2023-05-27T13:36:29.000Z</time>
      </trkpt>
      <trkpt lat="43.70056" lon="3.15826">
        <ele>308.39999389648</ele>
        <time>2023-05-27T13:36:35.000Z</time>
      </trkpt>
      <trkpt lat="43.70058" lon="3.1582">
        <ele>308.60000610352</ele>
        <time>2023-05-27T13:36:42.000Z</time>
      </trkpt>
      <trkpt lat="43.70058" lon="3.15818">
        <ele>309</ele>
        <time>2023-05-27T13:36:44.000Z</time>
      </trkpt>
      <trkpt lat="43.70061" lon="3.15813">
        <ele>309.79998779297</ele>
        <time>2023-05-27T13:36:51.000Z</time>
      </trkpt>
      <trkpt lat="43.70061" lon="3.15812">
        <ele>309.79998779297</ele>
        <time>2023-05-27T13:36:52.000Z</time>
      </trkpt>
      <trkpt lat="43.70063" lon="3.15806">
        <ele>310.39999389648</ele>
        <time>2023-05-27T13:37:00.000Z</time>
      </trkpt>
      <trkpt lat="43.70065" lon="3.15803">
        <ele>310.79998779297</ele>
        <time>2023-05-27T13:37:04.000Z</time>
      </trkpt>
      <trkpt lat="43.70066" lon="3.15801">
        <ele>311.20001220703</ele>
        <time>2023-05-27T13:37:07.000Z</time>
      </trkpt>
      <trkpt lat="43.70069" lon="3.15794">
        <ele>311.79998779297</ele>
        <time>2023-05-27T13:37:15.000Z</time>
      </trkpt>
      <trkpt lat="43.7007" lon="3.15794">
        <ele>311.79998779297</ele>
        <time>2023-05-27T13:37:16.000Z</time>
      </trkpt>
      <trkpt lat="43.70074" lon="3.1579">
        <ele>312.60000610352</ele>
        <time>2023-05-27T13:37:23.000Z</time>
      </trkpt>
      <trkpt lat="43.70074" lon="3.15787">
        <ele>313</ele>
        <time>2023-05-27T13:37:26.000Z</time>
      </trkpt>
      <trkpt lat="43.70074" lon="3.15786">
        <ele>313</ele>
        <time>2023-05-27T13:37:28.000Z</time>
      </trkpt>
      <trkpt lat="43.70076" lon="3.1578">
        <ele>313.60000610352</ele>
        <time>2023-05-27T13:37:34.000Z</time>
      </trkpt>
      <trkpt lat="43.70078" lon="3.15777">
        <ele>314</ele>
        <time>2023-05-27T13:37:38.000Z</time>
      </trkpt>
      <trkpt lat="43.70078" lon="3.15775">
        <ele>314.20001220703</ele>
        <time>2023-05-27T13:37:41.000Z</time>
      </trkpt>
      <trkpt lat="43.70079" lon="3.15769">
        <ele>314.79998779297</ele>
        <time>2023-05-27T13:37:47.000Z</time>
      </trkpt>
      <trkpt lat="43.7008" lon="3.15767">
        <ele>315</ele>
        <time>2023-05-27T13:37:49.000Z</time>
      </trkpt>
      <trkpt lat="43.70081" lon="3.15763">
        <ele>315.39999389648</ele>
        <time>2023-05-27T13:37:53.000Z</time>
      </trkpt>
      <trkpt lat="43.70085" lon="3.15755">
        <ele>316.20001220703</ele>
        <time>2023-05-27T13:38:01.000Z</time>
      </trkpt>
      <trkpt lat="43.70088" lon="3.15747">
        <ele>317</ele>
        <time>2023-05-27T13:38:09.000Z</time>
      </trkpt>
      <trkpt lat="43.7009" lon="3.15743">
        <ele>317.20001220703</ele>
        <time>2023-05-27T13:38:13.000Z</time>
      </trkpt>
      <trkpt lat="43.70091" lon="3.1574">
        <ele>317.39999389648</ele>
        <time>2023-05-27T13:38:16.000Z</time>
      </trkpt>
      <trkpt lat="43.70092" lon="3.15738">
        <ele>317.60000610352</ele>
        <time>2023-05-27T13:38:18.000Z</time>
      </trkpt>
      <trkpt lat="43.70095" lon="3.15734">
        <ele>318.20001220703</ele>
        <time>2023-05-27T13:38:23.000Z</time>
      </trkpt>
      <trkpt lat="43.70096" lon="3.15732">
        <ele>318.39999389648</ele>
        <time>2023-05-27T13:38:25.000Z</time>
      </trkpt>
      <trkpt lat="43.70099" lon="3.15726">
        <ele>319</ele>
        <time>2023-05-27T13:38:31.000Z</time>
      </trkpt>
      <trkpt lat="43.701" lon="3.15725">
        <ele>319</ele>
        <time>2023-05-27T13:38:32.000Z</time>
      </trkpt>
      <trkpt lat="43.70101" lon="3.15724">
        <ele>319.20001220703</ele>
        <time>2023-05-27T13:38:34.000Z</time>
      </trkpt>
      <trkpt lat="43.70103" lon="3.15721">
        <ele>319.60000610352</ele>
        <time>2023-05-27T13:38:38.000Z</time>
      </trkpt>
      <trkpt lat="43.70106" lon="3.15715">
        <ele>320.39999389648</ele>
        <time>2023-05-27T13:38:45.000Z</time>
      </trkpt>
      <trkpt lat="43.70107" lon="3.15714">
        <ele>320.39999389648</ele>
        <time>2023-05-27T13:38:46.000Z</time>
      </trkpt>
      <trkpt lat="43.70113" lon="3.15706">
        <ele>321.20001220703</ele>
        <time>2023-05-27T13:38:54.000Z</time>
      </trkpt>
      <trkpt lat="43.70113" lon="3.15704">
        <ele>321.39999389648</ele>
        <time>2023-05-27T13:38:55.000Z</time>
      </trkpt>
      <trkpt lat="43.70117" lon="3.15696">
        <ele>321.79998779297</ele>
        <time>2023-05-27T13:39:02.000Z</time>
      </trkpt>
      <trkpt lat="43.7012" lon="3.15692">
        <ele>322.20001220703</ele>
        <time>2023-05-27T13:39:06.000Z</time>
      </trkpt>
      <trkpt lat="43.7012" lon="3.15691">
        <ele>322.39999389648</ele>
        <time>2023-05-27T13:39:07.000Z</time>
      </trkpt>
      <trkpt lat="43.70121" lon="3.15689">
        <ele>322.60000610352</ele>
        <time>2023-05-27T13:39:09.000Z</time>
      </trkpt>
      <trkpt lat="43.70125" lon="3.15681">
        <ele>323.20001220703</ele>
        <time>2023-05-27T13:39:16.000Z</time>
      </trkpt>
      <trkpt lat="43.70127" lon="3.15678">
        <ele>323.60000610352</ele>
        <time>2023-05-27T13:39:20.000Z</time>
      </trkpt>
      <trkpt lat="43.70128" lon="3.15675">
        <ele>323.60000610352</ele>
        <time>2023-05-27T13:39:23.000Z</time>
      </trkpt>
      <trkpt lat="43.70128" lon="3.15675">
        <ele>323.79998779297</ele>
        <time>2023-05-27T13:39:24.000Z</time>
      </trkpt>
      <trkpt lat="43.70129" lon="3.15674">
        <ele>323.79998779297</ele>
        <time>2023-05-27T13:39:25.000Z</time>
      </trkpt>
      <trkpt lat="43.70131" lon="3.1567">
        <ele>324</ele>
        <time>2023-05-27T13:39:29.000Z</time>
      </trkpt>
      <trkpt lat="43.70132" lon="3.15667">
        <ele>324.39999389648</ele>
        <time>2023-05-27T13:39:32.000Z</time>
      </trkpt>
      <trkpt lat="43.70133" lon="3.15666">
        <ele>324.60000610352</ele>
        <time>2023-05-27T13:39:33.000Z</time>
      </trkpt>
      <trkpt lat="43.70134" lon="3.15664">
        <ele>324.79998779297</ele>
        <time>2023-05-27T13:39:35.000Z</time>
      </trkpt>
      <trkpt lat="43.70135" lon="3.15663">
        <ele>324.79998779297</ele>
        <time>2023-05-27T13:39:36.000Z</time>
      </trkpt>
      <trkpt lat="43.7014" lon="3.15655">
        <ele>325.39999389648</ele>
        <time>2023-05-27T13:39:44.000Z</time>
      </trkpt>
      <trkpt lat="43.70142" lon="3.15653">
        <ele>325.60000610352</ele>
        <time>2023-05-27T13:39:46.000Z</time>
      </trkpt>
      <trkpt lat="43.70145" lon="3.15649">
        <ele>326</ele>
        <time>2023-05-27T13:39:50.000Z</time>
      </trkpt>
      <trkpt lat="43.70149" lon="3.15641">
        <ele>326.39999389648</ele>
        <time>2023-05-27T13:39:58.000Z</time>
      </trkpt>
      <trkpt lat="43.7015" lon="3.1564">
        <ele>326.60000610352</ele>
        <time>2023-05-27T13:39:59.000Z</time>
      </trkpt>
      <trkpt lat="43.70151" lon="3.15639">
        <ele>326.60000610352</ele>
        <time>2023-05-27T13:40:00.000Z</time>
      </trkpt>
      <trkpt lat="43.70153" lon="3.15634">
        <ele>327</ele>
        <time>2023-05-27T13:40:05.000Z</time>
      </trkpt>
      <trkpt lat="43.70156" lon="3.15627">
        <ele>327.60000610352</ele>
        <time>2023-05-27T13:40:11.000Z</time>
      </trkpt>
      <trkpt lat="43.70157" lon="3.15625">
        <ele>327.79998779297</ele>
        <time>2023-05-27T13:40:13.000Z</time>
      </trkpt>
      <trkpt lat="43.70158" lon="3.15622">
        <ele>328</ele>
        <time>2023-05-27T13:40:16.000Z</time>
      </trkpt>
      <trkpt lat="43.70161" lon="3.15617">
        <ele>328.39999389648</ele>
        <time>2023-05-27T13:40:21.000Z</time>
      </trkpt>
      <trkpt lat="43.70162" lon="3.15615">
        <ele>328.60000610352</ele>
        <time>2023-05-27T13:40:23.000Z</time>
      </trkpt>
      <trkpt lat="43.70162" lon="3.15614">
        <ele>328.60000610352</ele>
        <time>2023-05-27T13:40:24.000Z</time>
      </trkpt>
      <trkpt lat="43.70164" lon="3.15611">
        <ele>328.79998779297</ele>
        <time>2023-05-27T13:40:27.000Z</time>
      </trkpt>
      <trkpt lat="43.70164" lon="3.1561">
        <ele>329</ele>
        <time>2023-05-27T13:40:28.000Z</time>
      </trkpt>
      <trkpt lat="43.70166" lon="3.15609">
        <ele>329.20001220703</ele>
        <time>2023-05-27T13:40:33.000Z</time>
      </trkpt>
      <trkpt lat="43.70168" lon="3.1561">
        <ele>329.39999389648</ele>
        <time>2023-05-27T13:40:39.000Z</time>
      </trkpt>
      <trkpt lat="43.70172" lon="3.15608">
        <ele>329.39999389648</ele>
        <time>2023-05-27T13:40:45.000Z</time>
      </trkpt>
      <trkpt lat="43.70179" lon="3.15609">
        <ele>329.39999389648</ele>
        <time>2023-05-27T13:40:52.000Z</time>
      </trkpt>
      <trkpt lat="43.70188" lon="3.15613">
        <ele>329.60000610352</ele>
        <time>2023-05-27T13:41:00.000Z</time>
      </trkpt>
      <trkpt lat="43.7019" lon="3.15613">
        <ele>329.60000610352</ele>
        <time>2023-05-27T13:41:01.000Z</time>
      </trkpt>
      <trkpt lat="43.70195" lon="3.15616">
        <ele>329.79998779297</ele>
        <time>2023-05-27T13:41:06.000Z</time>
      </trkpt>
      <trkpt lat="43.70198" lon="3.15617">
        <ele>330</ele>
        <time>2023-05-27T13:41:08.000Z</time>
      </trkpt>
      <trkpt lat="43.70209" lon="3.15621">
        <ele>330.20001220703</ele>
        <time>2023-05-27T13:41:18.000Z</time>
      </trkpt>
      <trkpt lat="43.70218" lon="3.15627">
        <ele>330.79998779297</ele>
        <time>2023-05-27T13:41:27.000Z</time>
      </trkpt>
      <trkpt lat="43.70219" lon="3.15627">
        <ele>330.79998779297</ele>
        <time>2023-05-27T13:41:28.000Z</time>
      </trkpt>
      <trkpt lat="43.70227" lon="3.15631">
        <ele>331.20001220703</ele>
        <time>2023-05-27T13:41:37.000Z</time>
      </trkpt>
      <trkpt lat="43.70234" lon="3.15632">
        <ele>331.60000610352</ele>
        <time>2023-05-27T13:41:45.000Z</time>
      </trkpt>
      <trkpt lat="43.70237" lon="3.15632">
        <ele>331.79998779297</ele>
        <time>2023-05-27T13:41:48.000Z</time>
      </trkpt>
      <trkpt lat="43.70242" lon="3.1563">
        <ele>332</ele>
        <time>2023-05-27T13:41:53.000Z</time>
      </trkpt>
      <trkpt lat="43.70251" lon="3.1563">
        <ele>332.60000610352</ele>
        <time>2023-05-27T13:42:01.000Z</time>
      </trkpt>
      <trkpt lat="43.70252" lon="3.1563">
        <ele>332.60000610352</ele>
        <time>2023-05-27T13:42:02.000Z</time>
      </trkpt>
      <trkpt lat="43.70253" lon="3.1563">
        <ele>332.79998779297</ele>
        <time>2023-05-27T13:42:04.000Z</time>
      </trkpt>
      <trkpt lat="43.70252" lon="3.15631">
        <ele>333</ele>
        <time>2023-05-27T13:42:07.000Z</time>
      </trkpt>
      <trkpt lat="43.70253" lon="3.15633">
        <ele>333.20001220703</ele>
        <time>2023-05-27T13:42:14.000Z</time>
      </trkpt>
      <trkpt lat="43.70256" lon="3.15627">
        <ele>333.39999389648</ele>
        <time>2023-05-27T13:42:19.000Z</time>
      </trkpt>
      <trkpt lat="43.70261" lon="3.15623">
        <ele>333.60000610352</ele>
        <time>2023-05-27T13:42:24.000Z</time>
      </trkpt>
      <trkpt lat="43.70262" lon="3.15623">
        <ele>333.60000610352</ele>
        <time>2023-05-27T13:42:25.000Z</time>
      </trkpt>
      <trkpt lat="43.70263" lon="3.15623">
        <ele>333.79998779297</ele>
        <time>2023-05-27T13:42:27.000Z</time>
      </trkpt>
      <trkpt lat="43.70267" lon="3.15623">
        <ele>334.20001220703</ele>
        <time>2023-05-27T13:42:31.000Z</time>
      </trkpt>
      <trkpt lat="43.70269" lon="3.15623">
        <ele>334.79998779297</ele>
        <time>2023-05-27T13:42:36.000Z</time>
      </trkpt>
      <trkpt lat="43.7027" lon="3.15622">
        <ele>335.20001220703</ele>
        <time>2023-05-27T13:42:38.000Z</time>
      </trkpt>
      <trkpt lat="43.70271" lon="3.15622">
        <ele>335.39999389648</ele>
        <time>2023-05-27T13:42:45.000Z</time>
      </trkpt>
      <trkpt lat="43.70272" lon="3.15624">
        <ele>335.39999389648</ele>
        <time>2023-05-27T13:42:51.000Z</time>
      </trkpt>
      <trkpt lat="43.70267" lon="3.15621">
        <ele>335.60000610352</ele>
        <time>2023-05-27T13:42:56.000Z</time>
      </trkpt>
      <trkpt lat="43.70264" lon="3.15622">
        <ele>335.60000610352</ele>
        <time>2023-05-27T13:42:59.000Z</time>
      </trkpt>
      <trkpt lat="43.70262" lon="3.1562">
        <ele>335.39999389648</ele>
        <time>2023-05-27T13:43:01.000Z</time>
      </trkpt>
      <trkpt lat="43.70258" lon="3.15621">
        <ele>334.79998779297</ele>
        <time>2023-05-27T13:43:05.000Z</time>
      </trkpt>
      <trkpt lat="43.70255" lon="3.15621">
        <ele>334.39999389648</ele>
        <time>2023-05-27T13:43:07.000Z</time>
      </trkpt>
      <trkpt lat="43.70253" lon="3.15621">
        <ele>334</ele>
        <time>2023-05-27T13:43:09.000Z</time>
      </trkpt>
      <trkpt lat="43.70251" lon="3.1562">
        <ele>333.79998779297</ele>
        <time>2023-05-27T13:43:12.000Z</time>
      </trkpt>
      <trkpt lat="43.70252" lon="3.15621">
        <ele>333.60000610352</ele>
        <time>2023-05-27T13:43:14.000Z</time>
      </trkpt>
      <trkpt lat="43.70251" lon="3.1562">
        <ele>333.60000610352</ele>
        <time>2023-05-27T13:43:27.000Z</time>
      </trkpt>
      <trkpt lat="43.7025" lon="3.15622">
        <ele>333.79998779297</ele>
        <time>2023-05-27T13:43:35.000Z</time>
      </trkpt>
      <trkpt lat="43.70249" lon="3.15623">
        <ele>333.79998779297</ele>
        <time>2023-05-27T13:43:42.000Z</time>
      </trkpt>
      <trkpt lat="43.70241" lon="3.15628">
        <ele>333.39999389648</ele>
        <time>2023-05-27T13:43:51.000Z</time>
      </trkpt>
      <trkpt lat="43.70229" lon="3.15629">
        <ele>333</ele>
        <time>2023-05-27T13:44:01.000Z</time>
      </trkpt>
      <trkpt lat="43.70228" lon="3.1563">
        <ele>332.79998779297</ele>
        <time>2023-05-27T13:44:03.000Z</time>
      </trkpt>
      <trkpt lat="43.70228" lon="3.1563">
        <ele>332.60000610352</ele>
        <time>2023-05-27T13:44:07.000Z</time>
      </trkpt>
      <trkpt lat="43.70224" lon="3.15629">
        <ele>332</ele>
        <time>2023-05-27T13:44:13.000Z</time>
      </trkpt>
      <trkpt lat="43.70221" lon="3.15627">
        <ele>331.79998779297</ele>
        <time>2023-05-27T13:44:21.000Z</time>
      </trkpt>
      <trkpt lat="43.70221" lon="3.15628">
        <ele>331.79998779297</ele>
        <time>2023-05-27T13:44:22.000Z</time>
      </trkpt>
      <trkpt lat="43.70225" lon="3.1563">
        <ele>332</ele>
        <time>2023-05-27T13:44:27.000Z</time>
      </trkpt>
      <trkpt lat="43.70226" lon="3.15631">
        <ele>332</ele>
        <time>2023-05-27T13:44:33.000Z</time>
      </trkpt>
      <trkpt lat="43.70225" lon="3.1563">
        <ele>332</ele>
        <time>2023-05-27T13:44:40.000Z</time>
      </trkpt>
      <trkpt lat="43.70222" lon="3.15628">
        <ele>331.79998779297</ele>
        <time>2023-05-27T13:44:46.000Z</time>
      </trkpt>
      <trkpt lat="43.7022" lon="3.15627">
        <ele>331.60000610352</ele>
        <time>2023-05-27T13:44:53.000Z</time>
      </trkpt>
      <trkpt lat="43.70218" lon="3.15627">
        <ele>331.79998779297</ele>
        <time>2023-05-27T13:45:00.000Z</time>
      </trkpt>
      <trkpt lat="43.70219" lon="3.15627">
        <ele>332</ele>
        <time>2023-05-27T13:45:08.000Z</time>
      </trkpt>
      <trkpt lat="43.70219" lon="3.15627">
        <ele>331.79998779297</ele>
        <time>2023-05-27T13:45:14.000Z</time>
      </trkpt>
      <trkpt lat="43.70219" lon="3.15628">
        <ele>332.60000610352</ele>
        <time>2023-05-27T13:45:27.000Z</time>
      </trkpt>
      <trkpt lat="43.70219" lon="3.15626">
        <ele>332</ele>
        <time>2023-05-27T13:45:42.000Z</time>
      </trkpt>
      <trkpt lat="43.70221" lon="3.15627">
        <ele>331.60000610352</ele>
        <time>2023-05-27T13:45:49.000Z</time>
      </trkpt>
      <trkpt lat="43.70223" lon="3.15628">
        <ele>331.79998779297</ele>
        <time>2023-05-27T13:45:58.000Z</time>
      </trkpt>
      <trkpt lat="43.70223" lon="3.15627">
        <ele>332</ele>
        <time>2023-05-27T13:46:07.000Z</time>
      </trkpt>
      <trkpt lat="43.70226" lon="3.15628">
        <ele>331.79998779297</ele>
        <time>2023-05-27T13:46:16.000Z</time>
      </trkpt>
      <trkpt lat="43.70228" lon="3.15628">
        <ele>331.79998779297</ele>
        <time>2023-05-27T13:46:23.000Z</time>
      </trkpt>
      <trkpt lat="43.70234" lon="3.15627">
        <ele>332.20001220703</ele>
        <time>2023-05-27T13:46:30.000Z</time>
      </trkpt>
      <trkpt lat="43.70237" lon="3.15627">
        <ele>332.39999389648</ele>
        <time>2023-05-27T13:46:38.000Z</time>
      </trkpt>
      <trkpt lat="43.70236" lon="3.15627">
        <ele>332.79998779297</ele>
        <time>2023-05-27T13:46:45.000Z</time>
      </trkpt>
      <trkpt lat="43.70235" lon="3.15627">
        <ele>332.79998779297</ele>
        <time>2023-05-27T13:46:46.000Z</time>
      </trkpt>
      <trkpt lat="43.70223" lon="3.15626">
        <ele>332.60000610352</ele>
        <time>2023-05-27T13:46:54.000Z</time>
      </trkpt>
      <trkpt lat="43.70212" lon="3.15621">
        <ele>332</ele>
        <time>2023-05-27T13:47:03.000Z</time>
      </trkpt>
      <trkpt lat="43.7021" lon="3.1562">
        <ele>331.79998779297</ele>
        <time>2023-05-27T13:47:08.000Z</time>
      </trkpt>
      <trkpt lat="43.7021" lon="3.15621">
        <ele>331.60000610352</ele>
        <time>2023-05-27T13:47:09.000Z</time>
      </trkpt>
      <trkpt lat="43.7021" lon="3.15621">
        <ele>331.39999389648</ele>
        <time>2023-05-27T13:47:10.000Z</time>
      </trkpt>
      <trkpt lat="43.7021" lon="3.15621">
        <ele>331.39999389648</ele>
        <time>2023-05-27T13:47:15.000Z</time>
      </trkpt>
      <trkpt lat="43.70209" lon="3.15622">
        <ele>331.39999389648</ele>
        <time>2023-05-27T13:47:22.000Z</time>
      </trkpt>
      <trkpt lat="43.70212" lon="3.15623">
        <ele>331.60000610352</ele>
        <time>2023-05-27T13:47:28.000Z</time>
      </trkpt>
      <trkpt lat="43.70213" lon="3.15624">
        <ele>331.39999389648</ele>
        <time>2023-05-27T13:47:42.000Z</time>
      </trkpt>
      <trkpt lat="43.70219" lon="3.15626">
        <ele>331.60000610352</ele>
        <time>2023-05-27T13:47:48.000Z</time>
      </trkpt>
      <trkpt lat="43.70228" lon="3.15627">
        <ele>331.79998779297</ele>
        <time>2023-05-27T13:47:56.000Z</time>
      </trkpt>
      <trkpt lat="43.70231" lon="3.15628">
        <ele>332</ele>
        <time>2023-05-27T13:48:00.000Z</time>
      </trkpt>
      <trkpt lat="43.70232" lon="3.15627">
        <ele>332.20001220703</ele>
        <time>2023-05-27T13:48:02.000Z</time>
      </trkpt>
      <trkpt lat="43.70237" lon="3.15626">
        <ele>332.39999389648</ele>
        <time>2023-05-27T13:48:08.000Z</time>
      </trkpt>
      <trkpt lat="43.70242" lon="3.15624">
        <ele>332.79998779297</ele>
        <time>2023-05-27T13:48:13.000Z</time>
      </trkpt>
      <trkpt lat="43.70244" lon="3.15623">
        <ele>332.79998779297</ele>
        <time>2023-05-27T13:48:15.000Z</time>
      </trkpt>
      <trkpt lat="43.70249" lon="3.15623">
        <ele>333.39999389648</ele>
        <time>2023-05-27T13:48:21.000Z</time>
      </trkpt>
      <trkpt lat="43.70249" lon="3.15623">
        <ele>333.60000610352</ele>
        <time>2023-05-27T13:48:22.000Z</time>
      </trkpt>
      <trkpt lat="43.70249" lon="3.15623">
        <ele>334</ele>
        <time>2023-05-27T13:48:25.000Z</time>
      </trkpt>
      <trkpt lat="43.70251" lon="3.15627">
        <ele>334.20001220703</ele>
        <time>2023-05-27T13:48:29.000Z</time>
      </trkpt>
      <trkpt lat="43.70257" lon="3.15638">
        <ele>333.60000610352</ele>
        <time>2023-05-27T13:48:37.000Z</time>
      </trkpt>
      <trkpt lat="43.70263" lon="3.15644">
        <ele>333.79998779297</ele>
        <time>2023-05-27T13:48:43.000Z</time>
      </trkpt>
      <trkpt lat="43.70267" lon="3.15651">
        <ele>333.39999389648</ele>
        <time>2023-05-27T13:48:49.000Z</time>
      </trkpt>
      <trkpt lat="43.70268" lon="3.15651">
        <ele>333.20001220703</ele>
        <time>2023-05-27T13:48:54.000Z</time>
      </trkpt>
      <trkpt lat="43.70265" lon="3.15654">
        <ele>333.20001220703</ele>
        <time>2023-05-27T13:49:00.000Z</time>
      </trkpt>
      <trkpt lat="43.70259" lon="3.15655">
        <ele>332.79998779297</ele>
        <time>2023-05-27T13:49:05.000Z</time>
      </trkpt>
      <trkpt lat="43.70255" lon="3.15654">
        <ele>332.39999389648</ele>
        <time>2023-05-27T13:49:09.000Z</time>
      </trkpt>
      <trkpt lat="43.70251" lon="3.15655">
        <ele>331.79998779297</ele>
        <time>2023-05-27T13:49:14.000Z</time>
      </trkpt>
      <trkpt lat="43.70249" lon="3.15656">
        <ele>331.39999389648</ele>
        <time>2023-05-27T13:49:17.000Z</time>
      </trkpt>
      <trkpt lat="43.70248" lon="3.15657">
        <ele>331.39999389648</ele>
        <time>2023-05-27T13:49:23.000Z</time>
      </trkpt>
      <trkpt lat="43.70248" lon="3.15658">
        <ele>331</ele>
        <time>2023-05-27T13:49:33.000Z</time>
      </trkpt>
      <trkpt lat="43.70246" lon="3.15666">
        <ele>330.79998779297</ele>
        <time>2023-05-27T13:49:39.000Z</time>
      </trkpt>
      <trkpt lat="43.70246" lon="3.15669">
        <ele>330.60000610352</ele>
        <time>2023-05-27T13:49:41.000Z</time>
      </trkpt>
      <trkpt lat="43.70242" lon="3.15677">
        <ele>329.79998779297</ele>
        <time>2023-05-27T13:49:47.000Z</time>
      </trkpt>
      <trkpt lat="43.70241" lon="3.15679">
        <ele>329.39999389648</ele>
        <time>2023-05-27T13:49:49.000Z</time>
      </trkpt>
      <trkpt lat="43.7024" lon="3.1568">
        <ele>329.20001220703</ele>
        <time>2023-05-27T13:49:50.000Z</time>
      </trkpt>
      <trkpt lat="43.7024" lon="3.15681">
        <ele>328.60000610352</ele>
        <time>2023-05-27T13:49:54.000Z</time>
      </trkpt>
      <trkpt lat="43.7024" lon="3.15681">
        <ele>328.60000610352</ele>
        <time>2023-05-27T13:49:55.000Z</time>
      </trkpt>
      <trkpt lat="43.70241" lon="3.15682">
        <ele>328.60000610352</ele>
        <time>2023-05-27T13:50:03.000Z</time>
      </trkpt>
      <trkpt lat="43.70242" lon="3.15682">
        <ele>328.60000610352</ele>
        <time>2023-05-27T13:50:09.000Z</time>
      </trkpt>
      <trkpt lat="43.7024" lon="3.15682">
        <ele>328.60000610352</ele>
        <time>2023-05-27T13:50:15.000Z</time>
      </trkpt>
      <trkpt lat="43.70242" lon="3.15681">
        <ele>328.79998779297</ele>
        <time>2023-05-27T13:50:23.000Z</time>
      </trkpt>
      <trkpt lat="43.70241" lon="3.15681">
        <ele>328.79998779297</ele>
        <time>2023-05-27T13:50:35.000Z</time>
      </trkpt>
      <trkpt lat="43.7024" lon="3.1568">
        <ele>328.79998779297</ele>
        <time>2023-05-27T13:50:40.000Z</time>
      </trkpt>
      <trkpt lat="43.70239" lon="3.1568">
        <ele>328.60000610352</ele>
        <time>2023-05-27T13:50:47.000Z</time>
      </trkpt>
      <trkpt lat="43.70238" lon="3.1568">
        <ele>328.60000610352</ele>
        <time>2023-05-27T13:50:53.000Z</time>
      </trkpt>
      <trkpt lat="43.70238" lon="3.1568">
        <ele>328.60000610352</ele>
        <time>2023-05-27T13:50:58.000Z</time>
      </trkpt>
      <trkpt lat="43.70238" lon="3.1568">
        <ele>328.60000610352</ele>
        <time>2023-05-27T13:51:04.000Z</time>
      </trkpt>
      <trkpt lat="43.70239" lon="3.15679">
        <ele>328.60000610352</ele>
        <time>2023-05-27T13:51:13.000Z</time>
      </trkpt>
      <trkpt lat="43.70239" lon="3.15679">
        <ele>329</ele>
        <time>2023-05-27T13:51:25.000Z</time>
      </trkpt>
      <trkpt lat="43.70236" lon="3.15679">
        <ele>329</ele>
        <time>2023-05-27T13:51:41.000Z</time>
      </trkpt>
      <trkpt lat="43.70236" lon="3.15679">
        <ele>328.79998779297</ele>
        <time>2023-05-27T13:51:46.000Z</time>
      </trkpt>
      <trkpt lat="43.70234" lon="3.1568">
        <ele>328.79998779297</ele>
        <time>2023-05-27T13:51:55.000Z</time>
      </trkpt>
      <trkpt lat="43.70233" lon="3.1568">
        <ele>329</ele>
        <time>2023-05-27T13:52:01.000Z</time>
      </trkpt>
      <trkpt lat="43.70232" lon="3.1568">
        <ele>329</ele>
        <time>2023-05-27T13:52:07.000Z</time>
      </trkpt>
      <trkpt lat="43.70232" lon="3.15681">
        <ele>328.79998779297</ele>
        <time>2023-05-27T13:52:27.000Z</time>
      </trkpt>
      <trkpt lat="43.70241" lon="3.15675">
        <ele>328.79998779297</ele>
        <time>2023-05-27T13:52:36.000Z</time>
      </trkpt>
      <trkpt lat="43.7024" lon="3.15675">
        <ele>328.79998779297</ele>
        <time>2023-05-27T13:52:40.000Z</time>
      </trkpt>
      <trkpt lat="43.7024" lon="3.15674">
        <ele>329</ele>
        <time>2023-05-27T13:52:45.000Z</time>
      </trkpt>
      <trkpt lat="43.7024" lon="3.15673">
        <ele>329</ele>
        <time>2023-05-27T13:52:57.000Z</time>
      </trkpt>
      <trkpt lat="43.70236" lon="3.15676">
        <ele>329.20001220703</ele>
        <time>2023-05-27T13:53:04.000Z</time>
      </trkpt>
      <trkpt lat="43.70236" lon="3.15675">
        <ele>329.20001220703</ele>
        <time>2023-05-27T13:53:11.000Z</time>
      </trkpt>
      <trkpt lat="43.70236" lon="3.15676">
        <ele>329.20001220703</ele>
        <time>2023-05-27T13:53:21.000Z</time>
      </trkpt>
      <trkpt lat="43.70238" lon="3.15677">
        <ele>329.20001220703</ele>
        <time>2023-05-27T13:53:31.000Z</time>
      </trkpt>
      <trkpt lat="43.70239" lon="3.15678">
        <ele>329</ele>
        <time>2023-05-27T13:53:36.000Z</time>
      </trkpt>
      <trkpt lat="43.70239" lon="3.15679">
        <ele>329</ele>
        <time>2023-05-27T13:53:44.000Z</time>
      </trkpt>
      <trkpt lat="43.7024" lon="3.1568">
        <ele>329</ele>
        <time>2023-05-27T13:53:52.000Z</time>
      </trkpt>
      <trkpt lat="43.70239" lon="3.15681">
        <ele>329</ele>
        <time>2023-05-27T13:53:57.000Z</time>
      </trkpt>
      <trkpt lat="43.7024" lon="3.15681">
        <ele>328.79998779297</ele>
        <time>2023-05-27T13:54:03.000Z</time>
      </trkpt>
      <trkpt lat="43.70239" lon="3.15682">
        <ele>329.39999389648</ele>
        <time>2023-05-27T13:54:12.000Z</time>
      </trkpt>
      <trkpt lat="43.70238" lon="3.15682">
        <ele>328.60000610352</ele>
        <time>2023-05-27T13:54:24.000Z</time>
      </trkpt>
      <trkpt lat="43.70239" lon="3.15682">
        <ele>329</ele>
        <time>2023-05-27T13:54:31.000Z</time>
      </trkpt>
      <trkpt lat="43.70237" lon="3.15682">
        <ele>329</ele>
        <time>2023-05-27T13:54:35.000Z</time>
      </trkpt>
      <trkpt lat="43.70238" lon="3.1568">
        <ele>329.20001220703</ele>
        <time>2023-05-27T13:54:41.000Z</time>
      </trkpt>
      <trkpt lat="43.70238" lon="3.15681">
        <ele>329</ele>
        <time>2023-05-27T13:54:46.000Z</time>
      </trkpt>
      <trkpt lat="43.7024" lon="3.1568">
        <ele>328.79998779297</ele>
        <time>2023-05-27T13:54:52.000Z</time>
      </trkpt>
      <trkpt lat="43.70242" lon="3.1568">
        <ele>328.60000610352</ele>
        <time>2023-05-27T13:55:00.000Z</time>
      </trkpt>
      <trkpt lat="43.70242" lon="3.1568">
        <ele>329.20001220703</ele>
        <time>2023-05-27T13:55:07.000Z</time>
      </trkpt>
      <trkpt lat="43.70241" lon="3.15678">
        <ele>329.20001220703</ele>
        <time>2023-05-27T13:55:18.000Z</time>
      </trkpt>
      <trkpt lat="43.70241" lon="3.15679">
        <ele>329.20001220703</ele>
        <time>2023-05-27T13:55:26.000Z</time>
      </trkpt>
      <trkpt lat="43.7024" lon="3.15679">
        <ele>329.20001220703</ele>
        <time>2023-05-27T13:55:33.000Z</time>
      </trkpt>
      <trkpt lat="43.7024" lon="3.1568">
        <ele>329</ele>
        <time>2023-05-27T13:55:42.000Z</time>
      </trkpt>
      <trkpt lat="43.70239" lon="3.1568">
        <ele>329.20001220703</ele>
        <time>2023-05-27T13:55:53.000Z</time>
      </trkpt>
      <trkpt lat="43.70239" lon="3.15679">
        <ele>329.20001220703</ele>
        <time>2023-05-27T13:56:00.000Z</time>
      </trkpt>
      <trkpt lat="43.70238" lon="3.15679">
        <ele>329.39999389648</ele>
        <time>2023-05-27T13:56:10.000Z</time>
      </trkpt>
      <trkpt lat="43.70238" lon="3.15679">
        <ele>329.39999389648</ele>
        <time>2023-05-27T13:56:22.000Z</time>
      </trkpt>
      <trkpt lat="43.70238" lon="3.15679">
        <ele>329.60000610352</ele>
        <time>2023-05-27T13:56:28.000Z</time>
      </trkpt>
      <trkpt lat="43.70238" lon="3.15679">
        <ele>329.39999389648</ele>
        <time>2023-05-27T13:56:35.000Z</time>
      </trkpt>
      <trkpt lat="43.70237" lon="3.15678">
        <ele>329.60000610352</ele>
        <time>2023-05-27T13:56:46.000Z</time>
      </trkpt>
      <trkpt lat="43.70236" lon="3.15678">
        <ele>329.60000610352</ele>
        <time>2023-05-27T13:56:54.000Z</time>
      </trkpt>
      <trkpt lat="43.70236" lon="3.15678">
        <ele>329.39999389648</ele>
        <time>2023-05-27T13:57:01.000Z</time>
      </trkpt>
      <trkpt lat="43.70238" lon="3.15678">
        <ele>329</ele>
        <time>2023-05-27T13:57:08.000Z</time>
      </trkpt>
      <trkpt lat="43.70238" lon="3.15678">
        <ele>329</ele>
        <time>2023-05-27T13:57:17.000Z</time>
      </trkpt>
      <trkpt lat="43.7024" lon="3.15677">
        <ele>329</ele>
        <time>2023-05-27T13:57:28.000Z</time>
      </trkpt>
      <trkpt lat="43.7024" lon="3.15677">
        <ele>329.20001220703</ele>
        <time>2023-05-27T13:57:32.000Z</time>
      </trkpt>
    </trkseg>
  </trk>
</gpx>